<?xml version="1.0" encoding="UTF-8" standalone="no" ?>
<gpx xmlns="http://www.topografix.com/GPX/1/1" xmlns:xsi="http://www.w3.org/2001/XMLSchema-instance" xsi:schemaLocation="http://www.topografix.com/GPX/1/1 http://www.topografix.com/GPX/1/1/gpx.xsd" version="1.1" creator="VisuGPX - https://www.visugpx.com">
  <metadata>
    <name>Théméricourt Guiry</name>
  </metadata>
  <trk>
    <name><![CDATA[Théméricourt Guiry_1]]></name>
    <trkseg>
      <trkpt lat="49.08675" lon="1.88957">
        <ele>131.3</ele>
        <time>2022-07-31T07:32:44Z</time>
      </trkpt>
      <trkpt lat="49.08673" lon="1.88957">
        <ele>131.4</ele>
        <time>2022-07-31T07:32:50Z</time>
      </trkpt>
      <trkpt lat="49.08668" lon="1.88967">
        <ele>131.3</ele>
        <time>2022-07-31T07:32:56Z</time>
      </trkpt>
      <trkpt lat="49.08666" lon="1.88976">
        <ele>131.2</ele>
        <time>2022-07-31T07:33:02Z</time>
      </trkpt>
      <trkpt lat="49.08665" lon="1.8898">
        <ele>131.2</ele>
        <time>2022-07-31T07:33:07Z</time>
      </trkpt>
      <trkpt lat="49.08665" lon="1.8899">
        <ele>131.2</ele>
        <time>2022-07-31T07:33:13Z</time>
      </trkpt>
      <trkpt lat="49.08663" lon="1.88997">
        <ele>131.4</ele>
        <time>2022-07-31T07:33:18Z</time>
      </trkpt>
      <trkpt lat="49.08658" lon="1.89006">
        <ele>131.4</ele>
        <time>2022-07-31T07:33:24Z</time>
      </trkpt>
      <trkpt lat="49.08654" lon="1.89012">
        <ele>131.4</ele>
        <time>2022-07-31T07:33:29Z</time>
      </trkpt>
      <trkpt lat="49.08652" lon="1.89022">
        <ele>131</ele>
        <time>2022-07-31T07:33:35Z</time>
      </trkpt>
      <trkpt lat="49.08651" lon="1.89033">
        <ele>130.7</ele>
        <time>2022-07-31T07:33:40Z</time>
      </trkpt>
      <trkpt lat="49.0865" lon="1.89044">
        <ele>130.4</ele>
        <time>2022-07-31T07:33:46Z</time>
      </trkpt>
      <trkpt lat="49.08647" lon="1.89053">
        <ele>130</ele>
        <time>2022-07-31T07:33:52Z</time>
      </trkpt>
      <trkpt lat="49.08646" lon="1.8906">
        <ele>129.5</ele>
        <time>2022-07-31T07:33:57Z</time>
      </trkpt>
      <trkpt lat="49.08645" lon="1.8907">
        <ele>128.6</ele>
        <time>2022-07-31T07:34:03Z</time>
      </trkpt>
      <trkpt lat="49.0864" lon="1.89078">
        <ele>128.1</ele>
        <time>2022-07-31T07:34:08Z</time>
      </trkpt>
      <trkpt lat="49.08633" lon="1.89087">
        <ele>127.6</ele>
        <time>2022-07-31T07:34:14Z</time>
      </trkpt>
      <trkpt lat="49.08628" lon="1.89093">
        <ele>127.3</ele>
        <time>2022-07-31T07:34:19Z</time>
      </trkpt>
      <trkpt lat="49.08625" lon="1.89104">
        <ele>127</ele>
        <time>2022-07-31T07:34:25Z</time>
      </trkpt>
      <trkpt lat="49.0862" lon="1.89113">
        <ele>127</ele>
        <time>2022-07-31T07:34:31Z</time>
      </trkpt>
      <trkpt lat="49.08615" lon="1.89119">
        <ele>127</ele>
        <time>2022-07-31T07:34:36Z</time>
      </trkpt>
      <trkpt lat="49.0861" lon="1.89125">
        <ele>127</ele>
        <time>2022-07-31T07:34:42Z</time>
      </trkpt>
      <trkpt lat="49.08606" lon="1.89133">
        <ele>126.7</ele>
        <time>2022-07-31T07:34:48Z</time>
      </trkpt>
      <trkpt lat="49.08603" lon="1.89141">
        <ele>126.5</ele>
        <time>2022-07-31T07:34:53Z</time>
      </trkpt>
      <trkpt lat="49.08599" lon="1.89151">
        <ele>126.1</ele>
        <time>2022-07-31T07:34:59Z</time>
      </trkpt>
      <trkpt lat="49.08594" lon="1.89159">
        <ele>126</ele>
        <time>2022-07-31T07:35:05Z</time>
      </trkpt>
      <trkpt lat="49.08588" lon="1.89166">
        <ele>126.1</ele>
        <time>2022-07-31T07:35:10Z</time>
      </trkpt>
      <trkpt lat="49.08583" lon="1.89176">
        <ele>126.4</ele>
        <time>2022-07-31T07:35:16Z</time>
      </trkpt>
      <trkpt lat="49.0858" lon="1.89185">
        <ele>126.7</ele>
        <time>2022-07-31T07:35:21Z</time>
      </trkpt>
      <trkpt lat="49.08578" lon="1.89195">
        <ele>127</ele>
        <time>2022-07-31T07:35:27Z</time>
      </trkpt>
      <trkpt lat="49.08575" lon="1.89206">
        <ele>127.3</ele>
        <time>2022-07-31T07:35:33Z</time>
      </trkpt>
      <trkpt lat="49.08573" lon="1.89214">
        <ele>127.5</ele>
        <time>2022-07-31T07:35:38Z</time>
      </trkpt>
      <trkpt lat="49.08571" lon="1.89221">
        <ele>127.5</ele>
        <time>2022-07-31T07:35:43Z</time>
      </trkpt>
      <trkpt lat="49.08569" lon="1.89231">
        <ele>127.4</ele>
        <time>2022-07-31T07:35:49Z</time>
      </trkpt>
      <trkpt lat="49.08568" lon="1.8924">
        <ele>127.1</ele>
        <time>2022-07-31T07:35:54Z</time>
      </trkpt>
      <trkpt lat="49.08565" lon="1.89251">
        <ele>126.6</ele>
        <time>2022-07-31T07:36:00Z</time>
      </trkpt>
      <trkpt lat="49.08564" lon="1.89262">
        <ele>125.9</ele>
        <time>2022-07-31T07:36:06Z</time>
      </trkpt>
      <trkpt lat="49.08563" lon="1.89274">
        <ele>125.1</ele>
        <time>2022-07-31T07:36:12Z</time>
      </trkpt>
      <trkpt lat="49.08562" lon="1.89285">
        <ele>124.2</ele>
        <time>2022-07-31T07:36:18Z</time>
      </trkpt>
      <trkpt lat="49.0856" lon="1.89297">
        <ele>123.3</ele>
        <time>2022-07-31T07:36:24Z</time>
      </trkpt>
      <trkpt lat="49.08555" lon="1.89306">
        <ele>122.5</ele>
        <time>2022-07-31T07:36:30Z</time>
      </trkpt>
      <trkpt lat="49.08551" lon="1.89313">
        <ele>121.9</ele>
        <time>2022-07-31T07:36:35Z</time>
      </trkpt>
      <trkpt lat="49.08548" lon="1.89325">
        <ele>121</ele>
        <time>2022-07-31T07:36:41Z</time>
      </trkpt>
      <trkpt lat="49.08546" lon="1.89334">
        <ele>120.3</ele>
        <time>2022-07-31T07:36:46Z</time>
      </trkpt>
      <trkpt lat="49.08543" lon="1.89349">
        <ele>119.5</ele>
        <time>2022-07-31T07:36:52Z</time>
      </trkpt>
      <trkpt lat="49.0854" lon="1.89361">
        <ele>118.9</ele>
        <time>2022-07-31T07:36:58Z</time>
      </trkpt>
      <trkpt lat="49.08536" lon="1.89373">
        <ele>118.3</ele>
        <time>2022-07-31T07:37:04Z</time>
      </trkpt>
      <trkpt lat="49.08534" lon="1.89381">
        <ele>118.1</ele>
        <time>2022-07-31T07:37:09Z</time>
      </trkpt>
      <trkpt lat="49.08531" lon="1.89391">
        <ele>117.8</ele>
        <time>2022-07-31T07:37:14Z</time>
      </trkpt>
      <trkpt lat="49.08529" lon="1.894">
        <ele>117.7</ele>
        <time>2022-07-31T07:37:19Z</time>
      </trkpt>
      <trkpt lat="49.08526" lon="1.8941">
        <ele>117.4</ele>
        <time>2022-07-31T07:37:25Z</time>
      </trkpt>
      <trkpt lat="49.08525" lon="1.89421">
        <ele>117.1</ele>
        <time>2022-07-31T07:37:31Z</time>
      </trkpt>
      <trkpt lat="49.08523" lon="1.89431">
        <ele>116.7</ele>
        <time>2022-07-31T07:37:36Z</time>
      </trkpt>
      <trkpt lat="49.08521" lon="1.89437">
        <ele>116.2</ele>
        <time>2022-07-31T07:37:41Z</time>
      </trkpt>
      <trkpt lat="49.08518" lon="1.89445">
        <ele>115.7</ele>
        <time>2022-07-31T07:37:46Z</time>
      </trkpt>
      <trkpt lat="49.08515" lon="1.89453">
        <ele>115.4</ele>
        <time>2022-07-31T07:37:51Z</time>
      </trkpt>
      <trkpt lat="49.08513" lon="1.89464">
        <ele>115.1</ele>
        <time>2022-07-31T07:37:57Z</time>
      </trkpt>
      <trkpt lat="49.0851" lon="1.89475">
        <ele>115.2</ele>
        <time>2022-07-31T07:38:03Z</time>
      </trkpt>
      <trkpt lat="49.08505" lon="1.89484">
        <ele>115.1</ele>
        <time>2022-07-31T07:38:09Z</time>
      </trkpt>
      <trkpt lat="49.08501" lon="1.89494">
        <ele>114.9</ele>
        <time>2022-07-31T07:38:15Z</time>
      </trkpt>
      <trkpt lat="49.08498" lon="1.89504">
        <ele>115</ele>
        <time>2022-07-31T07:38:21Z</time>
      </trkpt>
      <trkpt lat="49.08495" lon="1.89515">
        <ele>114.9</ele>
        <time>2022-07-31T07:38:26Z</time>
      </trkpt>
      <trkpt lat="49.08492" lon="1.89526">
        <ele>114.9</ele>
        <time>2022-07-31T07:38:32Z</time>
      </trkpt>
      <trkpt lat="49.08489" lon="1.89539">
        <ele>114.7</ele>
        <time>2022-07-31T07:38:38Z</time>
      </trkpt>
      <trkpt lat="49.08486" lon="1.89548">
        <ele>114.6</ele>
        <time>2022-07-31T07:38:43Z</time>
      </trkpt>
      <trkpt lat="49.08482" lon="1.8956">
        <ele>114.2</ele>
        <time>2022-07-31T07:38:49Z</time>
      </trkpt>
      <trkpt lat="49.08478" lon="1.8957">
        <ele>114</ele>
        <time>2022-07-31T07:38:54Z</time>
      </trkpt>
      <trkpt lat="49.08476" lon="1.89581">
        <ele>114</ele>
        <time>2022-07-31T07:38:59Z</time>
      </trkpt>
      <trkpt lat="49.08474" lon="1.89591">
        <ele>114</ele>
        <time>2022-07-31T07:39:05Z</time>
      </trkpt>
      <trkpt lat="49.08471" lon="1.89601">
        <ele>114</ele>
        <time>2022-07-31T07:39:11Z</time>
      </trkpt>
      <trkpt lat="49.08467" lon="1.89612">
        <ele>114</ele>
        <time>2022-07-31T07:39:16Z</time>
      </trkpt>
      <trkpt lat="49.08462" lon="1.89623">
        <ele>114.2</ele>
        <time>2022-07-31T07:39:22Z</time>
      </trkpt>
      <trkpt lat="49.08459" lon="1.89633">
        <ele>114.3</ele>
        <time>2022-07-31T07:39:27Z</time>
      </trkpt>
      <trkpt lat="49.08455" lon="1.89642">
        <ele>114.4</ele>
        <time>2022-07-31T07:39:33Z</time>
      </trkpt>
      <trkpt lat="49.08452" lon="1.89653">
        <ele>114.6</ele>
        <time>2022-07-31T07:39:39Z</time>
      </trkpt>
      <trkpt lat="49.08448" lon="1.89665">
        <ele>114.9</ele>
        <time>2022-07-31T07:39:44Z</time>
      </trkpt>
      <trkpt lat="49.08446" lon="1.89673">
        <ele>115.4</ele>
        <time>2022-07-31T07:39:49Z</time>
      </trkpt>
      <trkpt lat="49.08442" lon="1.89684">
        <ele>116.1</ele>
        <time>2022-07-31T07:39:55Z</time>
      </trkpt>
      <trkpt lat="49.08437" lon="1.89697">
        <ele>116.8</ele>
        <time>2022-07-31T07:40:01Z</time>
      </trkpt>
      <trkpt lat="49.08433" lon="1.89705">
        <ele>117.3</ele>
        <time>2022-07-31T07:40:06Z</time>
      </trkpt>
      <trkpt lat="49.08426" lon="1.89712">
        <ele>117.9</ele>
        <time>2022-07-31T07:40:12Z</time>
      </trkpt>
      <trkpt lat="49.08418" lon="1.89719">
        <ele>118.6</ele>
        <time>2022-07-31T07:40:18Z</time>
      </trkpt>
      <trkpt lat="49.08411" lon="1.89727">
        <ele>119.3</ele>
        <time>2022-07-31T07:40:24Z</time>
      </trkpt>
      <trkpt lat="49.08404" lon="1.89732">
        <ele>119.9</ele>
        <time>2022-07-31T07:40:29Z</time>
      </trkpt>
      <trkpt lat="49.08398" lon="1.89737">
        <ele>120.7</ele>
        <time>2022-07-31T07:40:35Z</time>
      </trkpt>
      <trkpt lat="49.08393" lon="1.8974">
        <ele>121</ele>
        <time>2022-07-31T07:40:41Z</time>
      </trkpt>
      <trkpt lat="49.08387" lon="1.89743">
        <ele>120.9</ele>
        <time>2022-07-31T07:40:46Z</time>
      </trkpt>
      <trkpt lat="49.0838" lon="1.89747">
        <ele>120.9</ele>
        <time>2022-07-31T07:40:52Z</time>
      </trkpt>
      <trkpt lat="49.08375" lon="1.89752">
        <ele>120.8</ele>
        <time>2022-07-31T07:40:57Z</time>
      </trkpt>
      <trkpt lat="49.08367" lon="1.89762">
        <ele>121</ele>
        <time>2022-07-31T07:41:03Z</time>
      </trkpt>
      <trkpt lat="49.08361" lon="1.89772">
        <ele>121.1</ele>
        <time>2022-07-31T07:41:08Z</time>
      </trkpt>
      <trkpt lat="49.08356" lon="1.89783">
        <ele>121.4</ele>
        <time>2022-07-31T07:41:14Z</time>
      </trkpt>
      <trkpt lat="49.08352" lon="1.89794">
        <ele>121.8</ele>
        <time>2022-07-31T07:41:20Z</time>
      </trkpt>
      <trkpt lat="49.0835" lon="1.89804">
        <ele>122</ele>
        <time>2022-07-31T07:41:25Z</time>
      </trkpt>
      <trkpt lat="49.08346" lon="1.89815">
        <ele>122.1</ele>
        <time>2022-07-31T07:41:31Z</time>
      </trkpt>
      <trkpt lat="49.08341" lon="1.89826">
        <ele>122.2</ele>
        <time>2022-07-31T07:41:37Z</time>
      </trkpt>
      <trkpt lat="49.08336" lon="1.89834">
        <ele>122.1</ele>
        <time>2022-07-31T07:41:42Z</time>
      </trkpt>
      <trkpt lat="49.08331" lon="1.89843">
        <ele>122.2</ele>
        <time>2022-07-31T07:41:47Z</time>
      </trkpt>
      <trkpt lat="49.08324" lon="1.8985">
        <ele>122.3</ele>
        <time>2022-07-31T07:41:53Z</time>
      </trkpt>
      <trkpt lat="49.08317" lon="1.89857">
        <ele>122.4</ele>
        <time>2022-07-31T07:41:59Z</time>
      </trkpt>
      <trkpt lat="49.08311" lon="1.89865">
        <ele>122.7</ele>
        <time>2022-07-31T07:42:05Z</time>
      </trkpt>
      <trkpt lat="49.08306" lon="1.89873">
        <ele>122.9</ele>
        <time>2022-07-31T07:42:10Z</time>
      </trkpt>
      <trkpt lat="49.08301" lon="1.8988">
        <ele>123.3</ele>
        <time>2022-07-31T07:42:16Z</time>
      </trkpt>
      <trkpt lat="49.08295" lon="1.89886">
        <ele>123.6</ele>
        <time>2022-07-31T07:42:21Z</time>
      </trkpt>
      <trkpt lat="49.08288" lon="1.89891">
        <ele>123.8</ele>
        <time>2022-07-31T07:42:27Z</time>
      </trkpt>
      <trkpt lat="49.08281" lon="1.89897">
        <ele>123.9</ele>
        <time>2022-07-31T07:42:33Z</time>
      </trkpt>
      <trkpt lat="49.08277" lon="1.89902">
        <ele>124.1</ele>
        <time>2022-07-31T07:42:38Z</time>
      </trkpt>
      <trkpt lat="49.0827" lon="1.89909">
        <ele>124.3</ele>
        <time>2022-07-31T07:42:44Z</time>
      </trkpt>
      <trkpt lat="49.08262" lon="1.89915">
        <ele>124.4</ele>
        <time>2022-07-31T07:42:50Z</time>
      </trkpt>
      <trkpt lat="49.08256" lon="1.8992">
        <ele>124.5</ele>
        <time>2022-07-31T07:42:55Z</time>
      </trkpt>
      <trkpt lat="49.08248" lon="1.89925">
        <ele>124.6</ele>
        <time>2022-07-31T07:43:01Z</time>
      </trkpt>
      <trkpt lat="49.08242" lon="1.8993">
        <ele>124.8</ele>
        <time>2022-07-31T07:43:06Z</time>
      </trkpt>
      <trkpt lat="49.08234" lon="1.89935">
        <ele>124.9</ele>
        <time>2022-07-31T07:43:12Z</time>
      </trkpt>
      <trkpt lat="49.08227" lon="1.89941">
        <ele>124.9</ele>
        <time>2022-07-31T07:43:18Z</time>
      </trkpt>
      <trkpt lat="49.0822" lon="1.89946">
        <ele>124.8</ele>
        <time>2022-07-31T07:43:24Z</time>
      </trkpt>
      <trkpt lat="49.08214" lon="1.8995">
        <ele>124.6</ele>
        <time>2022-07-31T07:43:29Z</time>
      </trkpt>
      <trkpt lat="49.08208" lon="1.89955">
        <ele>124.7</ele>
        <time>2022-07-31T07:43:34Z</time>
      </trkpt>
      <trkpt lat="49.08201" lon="1.89961">
        <ele>125.1</ele>
        <time>2022-07-31T07:43:40Z</time>
      </trkpt>
      <trkpt lat="49.08195" lon="1.89966">
        <ele>125.5</ele>
        <time>2022-07-31T07:43:45Z</time>
      </trkpt>
      <trkpt lat="49.08188" lon="1.89971">
        <ele>126.2</ele>
        <time>2022-07-31T07:43:51Z</time>
      </trkpt>
      <trkpt lat="49.0818" lon="1.89974">
        <ele>126.9</ele>
        <time>2022-07-31T07:43:56Z</time>
      </trkpt>
      <trkpt lat="49.08172" lon="1.89979">
        <ele>127.5</ele>
        <time>2022-07-31T07:44:01Z</time>
      </trkpt>
      <trkpt lat="49.08164" lon="1.89984">
        <ele>127.9</ele>
        <time>2022-07-31T07:44:07Z</time>
      </trkpt>
      <trkpt lat="49.08158" lon="1.89988">
        <ele>128</ele>
        <time>2022-07-31T07:44:12Z</time>
      </trkpt>
      <trkpt lat="49.08152" lon="1.89993">
        <ele>128.1</ele>
        <time>2022-07-31T07:44:18Z</time>
      </trkpt>
      <trkpt lat="49.08146" lon="1.89998">
        <ele>128.3</ele>
        <time>2022-07-31T07:44:23Z</time>
      </trkpt>
      <trkpt lat="49.08139" lon="1.90001">
        <ele>128.6</ele>
        <time>2022-07-31T07:44:28Z</time>
      </trkpt>
      <trkpt lat="49.08133" lon="1.90003">
        <ele>129</ele>
        <time>2022-07-31T07:44:33Z</time>
      </trkpt>
      <trkpt lat="49.08129" lon="1.90006">
        <ele>129.5</ele>
        <time>2022-07-31T07:44:38Z</time>
      </trkpt>
      <trkpt lat="49.08121" lon="1.90009">
        <ele>130.1</ele>
        <time>2022-07-31T07:44:44Z</time>
      </trkpt>
      <trkpt lat="49.08113" lon="1.90012">
        <ele>130.6</ele>
        <time>2022-07-31T07:44:50Z</time>
      </trkpt>
      <trkpt lat="49.08105" lon="1.90014">
        <ele>131.2</ele>
        <time>2022-07-31T07:44:56Z</time>
      </trkpt>
      <trkpt lat="49.08097" lon="1.90015">
        <ele>131.6</ele>
        <time>2022-07-31T07:45:02Z</time>
      </trkpt>
      <trkpt lat="49.08089" lon="1.90015">
        <ele>131.8</ele>
        <time>2022-07-31T07:45:07Z</time>
      </trkpt>
      <trkpt lat="49.0808" lon="1.90018">
        <ele>132.1</ele>
        <time>2022-07-31T07:45:13Z</time>
      </trkpt>
      <trkpt lat="49.08071" lon="1.90017">
        <ele>132</ele>
        <time>2022-07-31T07:45:19Z</time>
      </trkpt>
      <trkpt lat="49.08064" lon="1.90019">
        <ele>132.3</ele>
        <time>2022-07-31T07:45:25Z</time>
      </trkpt>
      <trkpt lat="49.08059" lon="1.90021">
        <ele>132.5</ele>
        <time>2022-07-31T07:45:30Z</time>
      </trkpt>
      <trkpt lat="49.08051" lon="1.9002">
        <ele>132.8</ele>
        <time>2022-07-31T07:45:36Z</time>
      </trkpt>
      <trkpt lat="49.08042" lon="1.90019">
        <ele>133</ele>
        <time>2022-07-31T07:45:42Z</time>
      </trkpt>
      <trkpt lat="49.08032" lon="1.90018">
        <ele>133.1</ele>
        <time>2022-07-31T07:45:48Z</time>
      </trkpt>
      <trkpt lat="49.08024" lon="1.90018">
        <ele>133.4</ele>
        <time>2022-07-31T07:45:54Z</time>
      </trkpt>
      <trkpt lat="49.08017" lon="1.90018">
        <ele>133.6</ele>
        <time>2022-07-31T07:45:59Z</time>
      </trkpt>
      <trkpt lat="49.0801" lon="1.90018">
        <ele>133.8</ele>
        <time>2022-07-31T07:46:04Z</time>
      </trkpt>
      <trkpt lat="49.08002" lon="1.9002">
        <ele>133.9</ele>
        <time>2022-07-31T07:46:10Z</time>
      </trkpt>
      <trkpt lat="49.07994" lon="1.90023">
        <ele>134.2</ele>
        <time>2022-07-31T07:46:16Z</time>
      </trkpt>
      <trkpt lat="49.07987" lon="1.90024">
        <ele>134.6</ele>
        <time>2022-07-31T07:46:21Z</time>
      </trkpt>
      <trkpt lat="49.0798" lon="1.90025">
        <ele>135.1</ele>
        <time>2022-07-31T07:46:27Z</time>
      </trkpt>
      <trkpt lat="49.07973" lon="1.90026">
        <ele>135.5</ele>
        <time>2022-07-31T07:46:32Z</time>
      </trkpt>
      <trkpt lat="49.07963" lon="1.90029">
        <ele>135.6</ele>
        <time>2022-07-31T07:46:38Z</time>
      </trkpt>
      <trkpt lat="49.07956" lon="1.90031">
        <ele>135.6</ele>
        <time>2022-07-31T07:46:44Z</time>
      </trkpt>
      <trkpt lat="49.07949" lon="1.90032">
        <ele>135.6</ele>
        <time>2022-07-31T07:46:49Z</time>
      </trkpt>
      <trkpt lat="49.07942" lon="1.90033">
        <ele>135.5</ele>
        <time>2022-07-31T07:46:55Z</time>
      </trkpt>
      <trkpt lat="49.07931" lon="1.90034">
        <ele>135.4</ele>
        <time>2022-07-31T07:47:02Z</time>
      </trkpt>
      <trkpt lat="49.07923" lon="1.90035">
        <ele>135.5</ele>
        <time>2022-07-31T07:47:07Z</time>
      </trkpt>
      <trkpt lat="49.07916" lon="1.90037">
        <ele>135.6</ele>
        <time>2022-07-31T07:47:12Z</time>
      </trkpt>
      <trkpt lat="49.07909" lon="1.90037">
        <ele>135.3</ele>
        <time>2022-07-31T07:47:18Z</time>
      </trkpt>
      <trkpt lat="49.07902" lon="1.90038">
        <ele>134.9</ele>
        <time>2022-07-31T07:47:23Z</time>
      </trkpt>
      <trkpt lat="49.07896" lon="1.90038">
        <ele>134.2</ele>
        <time>2022-07-31T07:47:28Z</time>
      </trkpt>
      <trkpt lat="49.07887" lon="1.90039">
        <ele>133.7</ele>
        <time>2022-07-31T07:47:34Z</time>
      </trkpt>
      <trkpt lat="49.0788" lon="1.90039">
        <ele>133.4</ele>
        <time>2022-07-31T07:47:40Z</time>
      </trkpt>
      <trkpt lat="49.0787" lon="1.9004">
        <ele>133.1</ele>
        <time>2022-07-31T07:47:46Z</time>
      </trkpt>
      <trkpt lat="49.07862" lon="1.9004">
        <ele>132.6</ele>
        <time>2022-07-31T07:47:52Z</time>
      </trkpt>
      <trkpt lat="49.07855" lon="1.90039">
        <ele>132.3</ele>
        <time>2022-07-31T07:47:57Z</time>
      </trkpt>
      <trkpt lat="49.07846" lon="1.90037">
        <ele>132</ele>
        <time>2022-07-31T07:48:03Z</time>
      </trkpt>
      <trkpt lat="49.07837" lon="1.90036">
        <ele>131.8</ele>
        <time>2022-07-31T07:48:09Z</time>
      </trkpt>
      <trkpt lat="49.0783" lon="1.90037">
        <ele>131.6</ele>
        <time>2022-07-31T07:48:15Z</time>
      </trkpt>
      <trkpt lat="49.07825" lon="1.90038">
        <ele>131.5</ele>
        <time>2022-07-31T07:48:21Z</time>
      </trkpt>
      <trkpt lat="49.07819" lon="1.90038">
        <ele>131.6</ele>
        <time>2022-07-31T07:48:27Z</time>
      </trkpt>
      <trkpt lat="49.07812" lon="1.90037">
        <ele>131.3</ele>
        <time>2022-07-31T07:48:32Z</time>
      </trkpt>
      <trkpt lat="49.07807" lon="1.90035">
        <ele>130.9</ele>
        <time>2022-07-31T07:48:38Z</time>
      </trkpt>
      <trkpt lat="49.07802" lon="1.90033">
        <ele>131.2</ele>
        <time>2022-07-31T07:48:44Z</time>
      </trkpt>
      <trkpt lat="49.07792" lon="1.90036">
        <ele>131.3</ele>
        <time>2022-07-31T07:48:50Z</time>
      </trkpt>
      <trkpt lat="49.07785" lon="1.90036">
        <ele>131.2</ele>
        <time>2022-07-31T07:48:56Z</time>
      </trkpt>
      <trkpt lat="49.07778" lon="1.90034">
        <ele>131.3</ele>
        <time>2022-07-31T07:49:02Z</time>
      </trkpt>
      <trkpt lat="49.07772" lon="1.90034">
        <ele>131.4</ele>
        <time>2022-07-31T07:49:07Z</time>
      </trkpt>
      <trkpt lat="49.07762" lon="1.90033">
        <ele>131.5</ele>
        <time>2022-07-31T07:49:13Z</time>
      </trkpt>
      <trkpt lat="49.07755" lon="1.90031">
        <ele>131.7</ele>
        <time>2022-07-31T07:49:19Z</time>
      </trkpt>
      <trkpt lat="49.07747" lon="1.90029">
        <ele>132.1</ele>
        <time>2022-07-31T07:49:25Z</time>
      </trkpt>
      <trkpt lat="49.07742" lon="1.90028">
        <ele>132.4</ele>
        <time>2022-07-31T07:49:30Z</time>
      </trkpt>
      <trkpt lat="49.07735" lon="1.90026">
        <ele>132.9</ele>
        <time>2022-07-31T07:49:36Z</time>
      </trkpt>
      <trkpt lat="49.07727" lon="1.90024">
        <ele>133.3</ele>
        <time>2022-07-31T07:49:42Z</time>
      </trkpt>
      <trkpt lat="49.07721" lon="1.90023">
        <ele>133.5</ele>
        <time>2022-07-31T07:49:47Z</time>
      </trkpt>
      <trkpt lat="49.07714" lon="1.90023">
        <ele>133.7</ele>
        <time>2022-07-31T07:49:53Z</time>
      </trkpt>
      <trkpt lat="49.07706" lon="1.90021">
        <ele>134.2</ele>
        <time>2022-07-31T07:49:59Z</time>
      </trkpt>
      <trkpt lat="49.07704" lon="1.90023">
        <ele>134.4</ele>
        <time>2022-07-31T07:50:05Z</time>
      </trkpt>
      <trkpt lat="49.07703" lon="1.90023">
        <ele>134.7</ele>
        <time>2022-07-31T07:50:10Z</time>
      </trkpt>
      <trkpt lat="49.07703" lon="1.90023">
        <ele>134.7</ele>
        <time>2022-07-31T07:50:15Z</time>
      </trkpt>
      <trkpt lat="49.07702" lon="1.90024">
        <ele>134.8</ele>
        <time>2022-07-31T07:50:20Z</time>
      </trkpt>
      <trkpt lat="49.07701" lon="1.90025">
        <ele>135</ele>
        <time>2022-07-31T07:50:25Z</time>
      </trkpt>
      <trkpt lat="49.07701" lon="1.90024">
        <ele>135.4</ele>
        <time>2022-07-31T07:50:31Z</time>
      </trkpt>
      <trkpt lat="49.07701" lon="1.90024">
        <ele>135.5</ele>
        <time>2022-07-31T07:50:37Z</time>
      </trkpt>
      <trkpt lat="49.07701" lon="1.90025">
        <ele>135.6</ele>
        <time>2022-07-31T07:50:43Z</time>
      </trkpt>
      <trkpt lat="49.07701" lon="1.90025">
        <ele>135.7</ele>
        <time>2022-07-31T07:50:49Z</time>
      </trkpt>
      <trkpt lat="49.07702" lon="1.90025">
        <ele>135.7</ele>
        <time>2022-07-31T07:50:55Z</time>
      </trkpt>
      <trkpt lat="49.07702" lon="1.90024">
        <ele>135.8</ele>
        <time>2022-07-31T07:51:01Z</time>
      </trkpt>
      <trkpt lat="49.07702" lon="1.90024">
        <ele>135.8</ele>
        <time>2022-07-31T07:51:06Z</time>
      </trkpt>
      <trkpt lat="49.07702" lon="1.90024">
        <ele>135.8</ele>
        <time>2022-07-31T07:51:12Z</time>
      </trkpt>
      <trkpt lat="49.07702" lon="1.90024">
        <ele>135.8</ele>
        <time>2022-07-31T07:51:18Z</time>
      </trkpt>
      <trkpt lat="49.07702" lon="1.90024">
        <ele>135.8</ele>
        <time>2022-07-31T07:51:23Z</time>
      </trkpt>
      <trkpt lat="49.07702" lon="1.90024">
        <ele>135.8</ele>
        <time>2022-07-31T07:51:28Z</time>
      </trkpt>
      <trkpt lat="49.07702" lon="1.90024">
        <ele>135.8</ele>
        <time>2022-07-31T07:51:33Z</time>
      </trkpt>
      <trkpt lat="49.07702" lon="1.90024">
        <ele>135.8</ele>
        <time>2022-07-31T07:51:39Z</time>
      </trkpt>
      <trkpt lat="49.07696" lon="1.90022">
        <ele>135.8</ele>
        <time>2022-07-31T07:51:44Z</time>
      </trkpt>
      <trkpt lat="49.07687" lon="1.90022">
        <ele>135.7</ele>
        <time>2022-07-31T07:51:50Z</time>
      </trkpt>
      <trkpt lat="49.07683" lon="1.90021">
        <ele>135.5</ele>
        <time>2022-07-31T07:51:55Z</time>
      </trkpt>
      <trkpt lat="49.07676" lon="1.9002">
        <ele>135.5</ele>
        <time>2022-07-31T07:52:01Z</time>
      </trkpt>
      <trkpt lat="49.07669" lon="1.9002">
        <ele>135.7</ele>
        <time>2022-07-31T07:52:06Z</time>
      </trkpt>
      <trkpt lat="49.07661" lon="1.90018">
        <ele>136</ele>
        <time>2022-07-31T07:52:12Z</time>
      </trkpt>
      <trkpt lat="49.07652" lon="1.90015">
        <ele>136</ele>
        <time>2022-07-31T07:52:18Z</time>
      </trkpt>
      <trkpt lat="49.07643" lon="1.90013">
        <ele>136.1</ele>
        <time>2022-07-31T07:52:23Z</time>
      </trkpt>
      <trkpt lat="49.07637" lon="1.90012">
        <ele>136</ele>
        <time>2022-07-31T07:52:28Z</time>
      </trkpt>
      <trkpt lat="49.07628" lon="1.90012">
        <ele>135.9</ele>
        <time>2022-07-31T07:52:34Z</time>
      </trkpt>
      <trkpt lat="49.07622" lon="1.9001">
        <ele>135.9</ele>
        <time>2022-07-31T07:52:41Z</time>
      </trkpt>
      <trkpt lat="49.07614" lon="1.90008">
        <ele>136</ele>
        <time>2022-07-31T07:52:46Z</time>
      </trkpt>
      <trkpt lat="49.07607" lon="1.90006">
        <ele>136.1</ele>
        <time>2022-07-31T07:52:51Z</time>
      </trkpt>
      <trkpt lat="49.076" lon="1.90004">
        <ele>136.4</ele>
        <time>2022-07-31T07:52:57Z</time>
      </trkpt>
      <trkpt lat="49.07593" lon="1.90003">
        <ele>136.6</ele>
        <time>2022-07-31T07:53:02Z</time>
      </trkpt>
      <trkpt lat="49.07587" lon="1.90002">
        <ele>136.8</ele>
        <time>2022-07-31T07:53:07Z</time>
      </trkpt>
      <trkpt lat="49.0758" lon="1.89999">
        <ele>137.1</ele>
        <time>2022-07-31T07:53:12Z</time>
      </trkpt>
      <trkpt lat="49.07571" lon="1.89995">
        <ele>137.5</ele>
        <time>2022-07-31T07:53:18Z</time>
      </trkpt>
      <trkpt lat="49.07567" lon="1.89988">
        <ele>137.8</ele>
        <time>2022-07-31T07:53:24Z</time>
      </trkpt>
      <trkpt lat="49.07568" lon="1.8998">
        <ele>137.8</ele>
        <time>2022-07-31T07:53:29Z</time>
      </trkpt>
      <trkpt lat="49.07573" lon="1.89969">
        <ele>137.6</ele>
        <time>2022-07-31T07:53:34Z</time>
      </trkpt>
      <trkpt lat="49.07578" lon="1.89959">
        <ele>137.5</ele>
        <time>2022-07-31T07:53:40Z</time>
      </trkpt>
      <trkpt lat="49.07583" lon="1.89949">
        <ele>137.8</ele>
        <time>2022-07-31T07:53:45Z</time>
      </trkpt>
      <trkpt lat="49.07587" lon="1.89941">
        <ele>138.2</ele>
        <time>2022-07-31T07:53:50Z</time>
      </trkpt>
      <trkpt lat="49.07591" lon="1.89931">
        <ele>138.5</ele>
        <time>2022-07-31T07:53:56Z</time>
      </trkpt>
      <trkpt lat="49.07596" lon="1.89921">
        <ele>138.4</ele>
        <time>2022-07-31T07:54:02Z</time>
      </trkpt>
      <trkpt lat="49.076" lon="1.89912">
        <ele>138.1</ele>
        <time>2022-07-31T07:54:08Z</time>
      </trkpt>
      <trkpt lat="49.07603" lon="1.89903">
        <ele>137.9</ele>
        <time>2022-07-31T07:54:13Z</time>
      </trkpt>
      <trkpt lat="49.07607" lon="1.89893">
        <ele>137.8</ele>
        <time>2022-07-31T07:54:19Z</time>
      </trkpt>
      <trkpt lat="49.07611" lon="1.89885">
        <ele>137.9</ele>
        <time>2022-07-31T07:54:24Z</time>
      </trkpt>
      <trkpt lat="49.07615" lon="1.89878">
        <ele>138.2</ele>
        <time>2022-07-31T07:54:29Z</time>
      </trkpt>
      <trkpt lat="49.0762" lon="1.89868">
        <ele>138.6</ele>
        <time>2022-07-31T07:54:35Z</time>
      </trkpt>
      <trkpt lat="49.07626" lon="1.89857">
        <ele>139</ele>
        <time>2022-07-31T07:54:41Z</time>
      </trkpt>
      <trkpt lat="49.0763" lon="1.89846">
        <ele>139.1</ele>
        <time>2022-07-31T07:54:47Z</time>
      </trkpt>
      <trkpt lat="49.07635" lon="1.89837">
        <ele>139</ele>
        <time>2022-07-31T07:54:53Z</time>
      </trkpt>
      <trkpt lat="49.07638" lon="1.89828">
        <ele>139</ele>
        <time>2022-07-31T07:54:58Z</time>
      </trkpt>
      <trkpt lat="49.07641" lon="1.89819">
        <ele>138.9</ele>
        <time>2022-07-31T07:55:03Z</time>
      </trkpt>
      <trkpt lat="49.07646" lon="1.8981">
        <ele>138.8</ele>
        <time>2022-07-31T07:55:08Z</time>
      </trkpt>
      <trkpt lat="49.07651" lon="1.898">
        <ele>138.4</ele>
        <time>2022-07-31T07:55:14Z</time>
      </trkpt>
      <trkpt lat="49.07656" lon="1.89788">
        <ele>138.2</ele>
        <time>2022-07-31T07:55:20Z</time>
      </trkpt>
      <trkpt lat="49.07658" lon="1.8978">
        <ele>137.9</ele>
        <time>2022-07-31T07:55:25Z</time>
      </trkpt>
      <trkpt lat="49.07662" lon="1.89771">
        <ele>137.8</ele>
        <time>2022-07-31T07:55:30Z</time>
      </trkpt>
      <trkpt lat="49.07666" lon="1.8976">
        <ele>137.9</ele>
        <time>2022-07-31T07:55:36Z</time>
      </trkpt>
      <trkpt lat="49.07671" lon="1.89751">
        <ele>137.8</ele>
        <time>2022-07-31T07:55:42Z</time>
      </trkpt>
      <trkpt lat="49.07676" lon="1.89741">
        <ele>137.8</ele>
        <time>2022-07-31T07:55:47Z</time>
      </trkpt>
      <trkpt lat="49.07679" lon="1.89732">
        <ele>137.9</ele>
        <time>2022-07-31T07:55:52Z</time>
      </trkpt>
      <trkpt lat="49.07685" lon="1.89721">
        <ele>137.9</ele>
        <time>2022-07-31T07:55:57Z</time>
      </trkpt>
      <trkpt lat="49.0769" lon="1.89713">
        <ele>137.6</ele>
        <time>2022-07-31T07:56:02Z</time>
      </trkpt>
      <trkpt lat="49.07695" lon="1.89703">
        <ele>137.4</ele>
        <time>2022-07-31T07:56:08Z</time>
      </trkpt>
      <trkpt lat="49.077" lon="1.89691">
        <ele>137.4</ele>
        <time>2022-07-31T07:56:14Z</time>
      </trkpt>
      <trkpt lat="49.07703" lon="1.89681">
        <ele>137.2</ele>
        <time>2022-07-31T07:56:20Z</time>
      </trkpt>
      <trkpt lat="49.07708" lon="1.89671">
        <ele>137.1</ele>
        <time>2022-07-31T07:56:25Z</time>
      </trkpt>
      <trkpt lat="49.07712" lon="1.89659">
        <ele>136.9</ele>
        <time>2022-07-31T07:56:31Z</time>
      </trkpt>
      <trkpt lat="49.07715" lon="1.89651">
        <ele>136.8</ele>
        <time>2022-07-31T07:56:36Z</time>
      </trkpt>
      <trkpt lat="49.0772" lon="1.89641">
        <ele>136.8</ele>
        <time>2022-07-31T07:56:42Z</time>
      </trkpt>
      <trkpt lat="49.07724" lon="1.89632">
        <ele>136.6</ele>
        <time>2022-07-31T07:56:47Z</time>
      </trkpt>
      <trkpt lat="49.07729" lon="1.8962">
        <ele>136.5</ele>
        <time>2022-07-31T07:56:53Z</time>
      </trkpt>
      <trkpt lat="49.07734" lon="1.89612">
        <ele>136.5</ele>
        <time>2022-07-31T07:56:59Z</time>
      </trkpt>
      <trkpt lat="49.07738" lon="1.896">
        <ele>136.6</ele>
        <time>2022-07-31T07:57:05Z</time>
      </trkpt>
      <trkpt lat="49.07743" lon="1.89592">
        <ele>136.7</ele>
        <time>2022-07-31T07:57:10Z</time>
      </trkpt>
      <trkpt lat="49.07746" lon="1.89582">
        <ele>136.7</ele>
        <time>2022-07-31T07:57:16Z</time>
      </trkpt>
      <trkpt lat="49.07751" lon="1.89573">
        <ele>136.5</ele>
        <time>2022-07-31T07:57:21Z</time>
      </trkpt>
      <trkpt lat="49.07755" lon="1.89563">
        <ele>136.5</ele>
        <time>2022-07-31T07:57:27Z</time>
      </trkpt>
      <trkpt lat="49.07759" lon="1.89554">
        <ele>136.5</ele>
        <time>2022-07-31T07:57:32Z</time>
      </trkpt>
      <trkpt lat="49.07762" lon="1.89546">
        <ele>136.4</ele>
        <time>2022-07-31T07:57:37Z</time>
      </trkpt>
      <trkpt lat="49.07767" lon="1.89537">
        <ele>136.4</ele>
        <time>2022-07-31T07:57:42Z</time>
      </trkpt>
      <trkpt lat="49.07771" lon="1.89528">
        <ele>136.1</ele>
        <time>2022-07-31T07:57:48Z</time>
      </trkpt>
      <trkpt lat="49.07775" lon="1.8952">
        <ele>135.9</ele>
        <time>2022-07-31T07:57:53Z</time>
      </trkpt>
      <trkpt lat="49.0778" lon="1.8951">
        <ele>135.7</ele>
        <time>2022-07-31T07:57:59Z</time>
      </trkpt>
      <trkpt lat="49.07784" lon="1.89501">
        <ele>135.6</ele>
        <time>2022-07-31T07:58:05Z</time>
      </trkpt>
      <trkpt lat="49.07787" lon="1.89492">
        <ele>135.5</ele>
        <time>2022-07-31T07:58:10Z</time>
      </trkpt>
      <trkpt lat="49.07791" lon="1.89484">
        <ele>135.5</ele>
        <time>2022-07-31T07:58:15Z</time>
      </trkpt>
      <trkpt lat="49.07795" lon="1.8947">
        <ele>135.6</ele>
        <time>2022-07-31T07:58:21Z</time>
      </trkpt>
      <trkpt lat="49.07797" lon="1.89462">
        <ele>135.6</ele>
        <time>2022-07-31T07:58:26Z</time>
      </trkpt>
      <trkpt lat="49.07802" lon="1.89454">
        <ele>135.5</ele>
        <time>2022-07-31T07:58:32Z</time>
      </trkpt>
      <trkpt lat="49.07807" lon="1.89447">
        <ele>135.5</ele>
        <time>2022-07-31T07:58:38Z</time>
      </trkpt>
      <trkpt lat="49.07811" lon="1.89439">
        <ele>135.5</ele>
        <time>2022-07-31T07:58:43Z</time>
      </trkpt>
      <trkpt lat="49.07814" lon="1.89432">
        <ele>135.6</ele>
        <time>2022-07-31T07:58:48Z</time>
      </trkpt>
      <trkpt lat="49.07821" lon="1.89421">
        <ele>135.7</ele>
        <time>2022-07-31T07:58:54Z</time>
      </trkpt>
      <trkpt lat="49.07823" lon="1.89412">
        <ele>136</ele>
        <time>2022-07-31T07:58:59Z</time>
      </trkpt>
      <trkpt lat="49.07828" lon="1.894">
        <ele>136.3</ele>
        <time>2022-07-31T07:59:05Z</time>
      </trkpt>
      <trkpt lat="49.07831" lon="1.89391">
        <ele>136.3</ele>
        <time>2022-07-31T07:59:11Z</time>
      </trkpt>
      <trkpt lat="49.07835" lon="1.89383">
        <ele>136.5</ele>
        <time>2022-07-31T07:59:17Z</time>
      </trkpt>
      <trkpt lat="49.07838" lon="1.89377">
        <ele>136.7</ele>
        <time>2022-07-31T07:59:22Z</time>
      </trkpt>
      <trkpt lat="49.07842" lon="1.89367">
        <ele>136.8</ele>
        <time>2022-07-31T07:59:28Z</time>
      </trkpt>
      <trkpt lat="49.07846" lon="1.89358">
        <ele>136.9</ele>
        <time>2022-07-31T07:59:33Z</time>
      </trkpt>
      <trkpt lat="49.0785" lon="1.89351">
        <ele>137</ele>
        <time>2022-07-31T07:59:38Z</time>
      </trkpt>
      <trkpt lat="49.07854" lon="1.89341">
        <ele>137.3</ele>
        <time>2022-07-31T07:59:43Z</time>
      </trkpt>
      <trkpt lat="49.07859" lon="1.89333">
        <ele>137.3</ele>
        <time>2022-07-31T07:59:49Z</time>
      </trkpt>
      <trkpt lat="49.07864" lon="1.89326">
        <ele>137.2</ele>
        <time>2022-07-31T07:59:54Z</time>
      </trkpt>
      <trkpt lat="49.07868" lon="1.89315">
        <ele>137.2</ele>
        <time>2022-07-31T08:00:00Z</time>
      </trkpt>
      <trkpt lat="49.07871" lon="1.89307">
        <ele>137.4</ele>
        <time>2022-07-31T08:00:05Z</time>
      </trkpt>
      <trkpt lat="49.07876" lon="1.89299">
        <ele>137.5</ele>
        <time>2022-07-31T08:00:11Z</time>
      </trkpt>
      <trkpt lat="49.07882" lon="1.8929">
        <ele>137.8</ele>
        <time>2022-07-31T08:00:17Z</time>
      </trkpt>
      <trkpt lat="49.07886" lon="1.8928">
        <ele>138.1</ele>
        <time>2022-07-31T08:00:22Z</time>
      </trkpt>
      <trkpt lat="49.07888" lon="1.89272">
        <ele>138.5</ele>
        <time>2022-07-31T08:00:27Z</time>
      </trkpt>
      <trkpt lat="49.07891" lon="1.89263">
        <ele>138.9</ele>
        <time>2022-07-31T08:00:33Z</time>
      </trkpt>
      <trkpt lat="49.07894" lon="1.89255">
        <ele>139</ele>
        <time>2022-07-31T08:00:38Z</time>
      </trkpt>
      <trkpt lat="49.07898" lon="1.89246">
        <ele>139</ele>
        <time>2022-07-31T08:00:43Z</time>
      </trkpt>
      <trkpt lat="49.07903" lon="1.89236">
        <ele>139.3</ele>
        <time>2022-07-31T08:00:49Z</time>
      </trkpt>
      <trkpt lat="49.07906" lon="1.89228">
        <ele>139.5</ele>
        <time>2022-07-31T08:00:54Z</time>
      </trkpt>
      <trkpt lat="49.07911" lon="1.89219">
        <ele>139.6</ele>
        <time>2022-07-31T08:01:00Z</time>
      </trkpt>
      <trkpt lat="49.07915" lon="1.8921">
        <ele>139.8</ele>
        <time>2022-07-31T08:01:05Z</time>
      </trkpt>
      <trkpt lat="49.0792" lon="1.89202">
        <ele>139.9</ele>
        <time>2022-07-31T08:01:11Z</time>
      </trkpt>
      <trkpt lat="49.07922" lon="1.89194">
        <ele>139.9</ele>
        <time>2022-07-31T08:01:16Z</time>
      </trkpt>
      <trkpt lat="49.07926" lon="1.89183">
        <ele>140</ele>
        <time>2022-07-31T08:01:22Z</time>
      </trkpt>
      <trkpt lat="49.07932" lon="1.89173">
        <ele>140.4</ele>
        <time>2022-07-31T08:01:28Z</time>
      </trkpt>
      <trkpt lat="49.07936" lon="1.89163">
        <ele>140.8</ele>
        <time>2022-07-31T08:01:34Z</time>
      </trkpt>
      <trkpt lat="49.07939" lon="1.89155">
        <ele>140.9</ele>
        <time>2022-07-31T08:01:39Z</time>
      </trkpt>
      <trkpt lat="49.07945" lon="1.89146">
        <ele>141</ele>
        <time>2022-07-31T08:01:45Z</time>
      </trkpt>
      <trkpt lat="49.0795" lon="1.89136">
        <ele>141.3</ele>
        <time>2022-07-31T08:01:51Z</time>
      </trkpt>
      <trkpt lat="49.07953" lon="1.89127">
        <ele>141.4</ele>
        <time>2022-07-31T08:01:56Z</time>
      </trkpt>
      <trkpt lat="49.07958" lon="1.89118">
        <ele>141.4</ele>
        <time>2022-07-31T08:02:01Z</time>
      </trkpt>
      <trkpt lat="49.07962" lon="1.89109">
        <ele>141.5</ele>
        <time>2022-07-31T08:02:07Z</time>
      </trkpt>
      <trkpt lat="49.07967" lon="1.89099">
        <ele>141.8</ele>
        <time>2022-07-31T08:02:13Z</time>
      </trkpt>
      <trkpt lat="49.07971" lon="1.89091">
        <ele>142.2</ele>
        <time>2022-07-31T08:02:18Z</time>
      </trkpt>
      <trkpt lat="49.07975" lon="1.89083">
        <ele>142.3</ele>
        <time>2022-07-31T08:02:23Z</time>
      </trkpt>
      <trkpt lat="49.0798" lon="1.89074">
        <ele>142.4</ele>
        <time>2022-07-31T08:02:29Z</time>
      </trkpt>
      <trkpt lat="49.07983" lon="1.89066">
        <ele>142.5</ele>
        <time>2022-07-31T08:02:34Z</time>
      </trkpt>
      <trkpt lat="49.07984" lon="1.89057">
        <ele>142.7</ele>
        <time>2022-07-31T08:02:39Z</time>
      </trkpt>
      <trkpt lat="49.07981" lon="1.89045">
        <ele>143.1</ele>
        <time>2022-07-31T08:02:45Z</time>
      </trkpt>
      <trkpt lat="49.07975" lon="1.8904">
        <ele>143.3</ele>
        <time>2022-07-31T08:02:50Z</time>
      </trkpt>
      <trkpt lat="49.07968" lon="1.89031">
        <ele>143.5</ele>
        <time>2022-07-31T08:02:56Z</time>
      </trkpt>
      <trkpt lat="49.07963" lon="1.89024">
        <ele>143.8</ele>
        <time>2022-07-31T08:03:02Z</time>
      </trkpt>
      <trkpt lat="49.07957" lon="1.89018">
        <ele>144</ele>
        <time>2022-07-31T08:03:08Z</time>
      </trkpt>
      <trkpt lat="49.07952" lon="1.89011">
        <ele>144.1</ele>
        <time>2022-07-31T08:03:13Z</time>
      </trkpt>
      <trkpt lat="49.07948" lon="1.89004">
        <ele>144.1</ele>
        <time>2022-07-31T08:03:18Z</time>
      </trkpt>
      <trkpt lat="49.07942" lon="1.88995">
        <ele>144.3</ele>
        <time>2022-07-31T08:03:24Z</time>
      </trkpt>
      <trkpt lat="49.07936" lon="1.88989">
        <ele>144.4</ele>
        <time>2022-07-31T08:03:29Z</time>
      </trkpt>
      <trkpt lat="49.0793" lon="1.88981">
        <ele>144.3</ele>
        <time>2022-07-31T08:03:35Z</time>
      </trkpt>
      <trkpt lat="49.07926" lon="1.88976">
        <ele>144.2</ele>
        <time>2022-07-31T08:03:40Z</time>
      </trkpt>
      <trkpt lat="49.07919" lon="1.88966">
        <ele>144</ele>
        <time>2022-07-31T08:03:46Z</time>
      </trkpt>
      <trkpt lat="49.07912" lon="1.88958">
        <ele>143.9</ele>
        <time>2022-07-31T08:03:52Z</time>
      </trkpt>
      <trkpt lat="49.07906" lon="1.8895">
        <ele>143.7</ele>
        <time>2022-07-31T08:03:58Z</time>
      </trkpt>
      <trkpt lat="49.079" lon="1.88944">
        <ele>143.5</ele>
        <time>2022-07-31T08:04:03Z</time>
      </trkpt>
      <trkpt lat="49.07895" lon="1.88937">
        <ele>143.3</ele>
        <time>2022-07-31T08:04:08Z</time>
      </trkpt>
      <trkpt lat="49.0789" lon="1.88931">
        <ele>143.3</ele>
        <time>2022-07-31T08:04:14Z</time>
      </trkpt>
      <trkpt lat="49.07884" lon="1.88924">
        <ele>143.3</ele>
        <time>2022-07-31T08:04:20Z</time>
      </trkpt>
      <trkpt lat="49.07877" lon="1.88916">
        <ele>143.5</ele>
        <time>2022-07-31T08:04:26Z</time>
      </trkpt>
      <trkpt lat="49.07871" lon="1.88908">
        <ele>143.7</ele>
        <time>2022-07-31T08:04:32Z</time>
      </trkpt>
      <trkpt lat="49.07865" lon="1.88899">
        <ele>143.9</ele>
        <time>2022-07-31T08:04:37Z</time>
      </trkpt>
      <trkpt lat="49.07859" lon="1.88892">
        <ele>143.8</ele>
        <time>2022-07-31T08:04:42Z</time>
      </trkpt>
      <trkpt lat="49.07852" lon="1.88884">
        <ele>143.5</ele>
        <time>2022-07-31T08:04:48Z</time>
      </trkpt>
      <trkpt lat="49.07848" lon="1.88877">
        <ele>143.3</ele>
        <time>2022-07-31T08:04:54Z</time>
      </trkpt>
      <trkpt lat="49.07843" lon="1.88871">
        <ele>143.1</ele>
        <time>2022-07-31T08:04:59Z</time>
      </trkpt>
      <trkpt lat="49.07838" lon="1.88864">
        <ele>143.1</ele>
        <time>2022-07-31T08:05:04Z</time>
      </trkpt>
      <trkpt lat="49.07833" lon="1.8886">
        <ele>143</ele>
        <time>2022-07-31T08:05:09Z</time>
      </trkpt>
      <trkpt lat="49.07828" lon="1.88854">
        <ele>142.8</ele>
        <time>2022-07-31T08:05:14Z</time>
      </trkpt>
      <trkpt lat="49.07822" lon="1.88847">
        <ele>142.7</ele>
        <time>2022-07-31T08:05:19Z</time>
      </trkpt>
      <trkpt lat="49.07816" lon="1.8884">
        <ele>142.5</ele>
        <time>2022-07-31T08:05:24Z</time>
      </trkpt>
      <trkpt lat="49.07809" lon="1.88832">
        <ele>142.5</ele>
        <time>2022-07-31T08:05:30Z</time>
      </trkpt>
      <trkpt lat="49.07803" lon="1.88827">
        <ele>142.4</ele>
        <time>2022-07-31T08:05:35Z</time>
      </trkpt>
      <trkpt lat="49.07795" lon="1.88817">
        <ele>142.3</ele>
        <time>2022-07-31T08:05:41Z</time>
      </trkpt>
      <trkpt lat="49.0779" lon="1.88811">
        <ele>142.2</ele>
        <time>2022-07-31T08:05:47Z</time>
      </trkpt>
      <trkpt lat="49.07784" lon="1.88805">
        <ele>142.2</ele>
        <time>2022-07-31T08:05:52Z</time>
      </trkpt>
      <trkpt lat="49.07778" lon="1.88794">
        <ele>142.3</ele>
        <time>2022-07-31T08:05:58Z</time>
      </trkpt>
      <trkpt lat="49.07778" lon="1.88785">
        <ele>142.3</ele>
        <time>2022-07-31T08:06:04Z</time>
      </trkpt>
      <trkpt lat="49.07784" lon="1.88777">
        <ele>142.2</ele>
        <time>2022-07-31T08:06:09Z</time>
      </trkpt>
      <trkpt lat="49.0779" lon="1.88769">
        <ele>142.2</ele>
        <time>2022-07-31T08:06:15Z</time>
      </trkpt>
      <trkpt lat="49.07795" lon="1.8876">
        <ele>142.1</ele>
        <time>2022-07-31T08:06:20Z</time>
      </trkpt>
      <trkpt lat="49.078" lon="1.88751">
        <ele>142.1</ele>
        <time>2022-07-31T08:06:26Z</time>
      </trkpt>
      <trkpt lat="49.07806" lon="1.88742">
        <ele>142.1</ele>
        <time>2022-07-31T08:06:32Z</time>
      </trkpt>
      <trkpt lat="49.07809" lon="1.88733">
        <ele>142.2</ele>
        <time>2022-07-31T08:06:37Z</time>
      </trkpt>
      <trkpt lat="49.07813" lon="1.88724">
        <ele>142.2</ele>
        <time>2022-07-31T08:06:43Z</time>
      </trkpt>
      <trkpt lat="49.07818" lon="1.88715">
        <ele>142.1</ele>
        <time>2022-07-31T08:06:49Z</time>
      </trkpt>
      <trkpt lat="49.07821" lon="1.88706">
        <ele>142</ele>
        <time>2022-07-31T08:06:55Z</time>
      </trkpt>
      <trkpt lat="49.07827" lon="1.88697">
        <ele>141.7</ele>
        <time>2022-07-31T08:07:00Z</time>
      </trkpt>
      <trkpt lat="49.07831" lon="1.88687">
        <ele>141.3</ele>
        <time>2022-07-31T08:07:06Z</time>
      </trkpt>
      <trkpt lat="49.07837" lon="1.88679">
        <ele>140.9</ele>
        <time>2022-07-31T08:07:12Z</time>
      </trkpt>
      <trkpt lat="49.07841" lon="1.88671">
        <ele>140.6</ele>
        <time>2022-07-31T08:07:17Z</time>
      </trkpt>
      <trkpt lat="49.07846" lon="1.88661">
        <ele>140.5</ele>
        <time>2022-07-31T08:07:23Z</time>
      </trkpt>
      <trkpt lat="49.07851" lon="1.8865">
        <ele>140.6</ele>
        <time>2022-07-31T08:07:29Z</time>
      </trkpt>
      <trkpt lat="49.07857" lon="1.88643">
        <ele>140.8</ele>
        <time>2022-07-31T08:07:35Z</time>
      </trkpt>
      <trkpt lat="49.07862" lon="1.88633">
        <ele>141.1</ele>
        <time>2022-07-31T08:07:41Z</time>
      </trkpt>
      <trkpt lat="49.07868" lon="1.88623">
        <ele>141.4</ele>
        <time>2022-07-31T08:07:46Z</time>
      </trkpt>
      <trkpt lat="49.07874" lon="1.88615">
        <ele>141.7</ele>
        <time>2022-07-31T08:07:52Z</time>
      </trkpt>
      <trkpt lat="49.07878" lon="1.88604">
        <ele>141.7</ele>
        <time>2022-07-31T08:07:58Z</time>
      </trkpt>
      <trkpt lat="49.07882" lon="1.88596">
        <ele>141.6</ele>
        <time>2022-07-31T08:08:03Z</time>
      </trkpt>
      <trkpt lat="49.07885" lon="1.88587">
        <ele>141.6</ele>
        <time>2022-07-31T08:08:08Z</time>
      </trkpt>
      <trkpt lat="49.07891" lon="1.88578">
        <ele>141.7</ele>
        <time>2022-07-31T08:08:14Z</time>
      </trkpt>
      <trkpt lat="49.07896" lon="1.88567">
        <ele>141.9</ele>
        <time>2022-07-31T08:08:20Z</time>
      </trkpt>
      <trkpt lat="49.07899" lon="1.88559">
        <ele>141.9</ele>
        <time>2022-07-31T08:08:25Z</time>
      </trkpt>
      <trkpt lat="49.07905" lon="1.88549">
        <ele>142</ele>
        <time>2022-07-31T08:08:31Z</time>
      </trkpt>
      <trkpt lat="49.0791" lon="1.88542">
        <ele>142.2</ele>
        <time>2022-07-31T08:08:36Z</time>
      </trkpt>
      <trkpt lat="49.07917" lon="1.88533">
        <ele>142.5</ele>
        <time>2022-07-31T08:08:42Z</time>
      </trkpt>
      <trkpt lat="49.07923" lon="1.88529">
        <ele>142.8</ele>
        <time>2022-07-31T08:08:47Z</time>
      </trkpt>
      <trkpt lat="49.0793" lon="1.8852">
        <ele>143.1</ele>
        <time>2022-07-31T08:08:53Z</time>
      </trkpt>
      <trkpt lat="49.07935" lon="1.88512">
        <ele>143.3</ele>
        <time>2022-07-31T08:08:59Z</time>
      </trkpt>
      <trkpt lat="49.07944" lon="1.88505">
        <ele>143.7</ele>
        <time>2022-07-31T08:09:05Z</time>
      </trkpt>
      <trkpt lat="49.07949" lon="1.88501">
        <ele>143.9</ele>
        <time>2022-07-31T08:09:10Z</time>
      </trkpt>
      <trkpt lat="49.07957" lon="1.88495">
        <ele>144</ele>
        <time>2022-07-31T08:09:16Z</time>
      </trkpt>
      <trkpt lat="49.07963" lon="1.88489">
        <ele>143.9</ele>
        <time>2022-07-31T08:09:22Z</time>
      </trkpt>
      <trkpt lat="49.07968" lon="1.88483">
        <ele>143.8</ele>
        <time>2022-07-31T08:09:27Z</time>
      </trkpt>
      <trkpt lat="49.07976" lon="1.8848">
        <ele>143.7</ele>
        <time>2022-07-31T08:09:32Z</time>
      </trkpt>
      <trkpt lat="49.07984" lon="1.88474">
        <ele>143.6</ele>
        <time>2022-07-31T08:09:38Z</time>
      </trkpt>
      <trkpt lat="49.07992" lon="1.8847">
        <ele>143.6</ele>
        <time>2022-07-31T08:09:44Z</time>
      </trkpt>
      <trkpt lat="49.07998" lon="1.88462">
        <ele>143.6</ele>
        <time>2022-07-31T08:09:50Z</time>
      </trkpt>
      <trkpt lat="49.08006" lon="1.88455">
        <ele>143.5</ele>
        <time>2022-07-31T08:09:56Z</time>
      </trkpt>
      <trkpt lat="49.08013" lon="1.8845">
        <ele>143.3</ele>
        <time>2022-07-31T08:10:02Z</time>
      </trkpt>
      <trkpt lat="49.0802" lon="1.88444">
        <ele>143.1</ele>
        <time>2022-07-31T08:10:07Z</time>
      </trkpt>
      <trkpt lat="49.08027" lon="1.88439">
        <ele>142.9</ele>
        <time>2022-07-31T08:10:12Z</time>
      </trkpt>
      <trkpt lat="49.08035" lon="1.88435">
        <ele>142.6</ele>
        <time>2022-07-31T08:10:18Z</time>
      </trkpt>
      <trkpt lat="49.08042" lon="1.88431">
        <ele>142.2</ele>
        <time>2022-07-31T08:10:24Z</time>
      </trkpt>
      <trkpt lat="49.0805" lon="1.88423">
        <ele>141.7</ele>
        <time>2022-07-31T08:10:30Z</time>
      </trkpt>
      <trkpt lat="49.08057" lon="1.88415">
        <ele>141.3</ele>
        <time>2022-07-31T08:10:36Z</time>
      </trkpt>
      <trkpt lat="49.0806" lon="1.88406">
        <ele>141.1</ele>
        <time>2022-07-31T08:10:41Z</time>
      </trkpt>
      <trkpt lat="49.08066" lon="1.88396">
        <ele>141.2</ele>
        <time>2022-07-31T08:10:47Z</time>
      </trkpt>
      <trkpt lat="49.08072" lon="1.88388">
        <ele>141.5</ele>
        <time>2022-07-31T08:10:53Z</time>
      </trkpt>
      <trkpt lat="49.08079" lon="1.88381">
        <ele>141.7</ele>
        <time>2022-07-31T08:10:59Z</time>
      </trkpt>
      <trkpt lat="49.08086" lon="1.88372">
        <ele>141.8</ele>
        <time>2022-07-31T08:11:05Z</time>
      </trkpt>
      <trkpt lat="49.0809" lon="1.88363">
        <ele>141.8</ele>
        <time>2022-07-31T08:11:11Z</time>
      </trkpt>
      <trkpt lat="49.08097" lon="1.88353">
        <ele>141.7</ele>
        <time>2022-07-31T08:11:17Z</time>
      </trkpt>
      <trkpt lat="49.08101" lon="1.88346">
        <ele>141.6</ele>
        <time>2022-07-31T08:11:22Z</time>
      </trkpt>
      <trkpt lat="49.08107" lon="1.88337">
        <ele>141.5</ele>
        <time>2022-07-31T08:11:27Z</time>
      </trkpt>
      <trkpt lat="49.08114" lon="1.8833">
        <ele>141.7</ele>
        <time>2022-07-31T08:11:33Z</time>
      </trkpt>
      <trkpt lat="49.08119" lon="1.8832">
        <ele>141.6</ele>
        <time>2022-07-31T08:11:39Z</time>
      </trkpt>
      <trkpt lat="49.08126" lon="1.88311">
        <ele>141.4</ele>
        <time>2022-07-31T08:11:45Z</time>
      </trkpt>
      <trkpt lat="49.08132" lon="1.88303">
        <ele>141.2</ele>
        <time>2022-07-31T08:11:51Z</time>
      </trkpt>
      <trkpt lat="49.08138" lon="1.88295">
        <ele>141.1</ele>
        <time>2022-07-31T08:11:56Z</time>
      </trkpt>
      <trkpt lat="49.08144" lon="1.88288">
        <ele>141.2</ele>
        <time>2022-07-31T08:12:02Z</time>
      </trkpt>
      <trkpt lat="49.08151" lon="1.88278">
        <ele>141.2</ele>
        <time>2022-07-31T08:12:08Z</time>
      </trkpt>
      <trkpt lat="49.08157" lon="1.8827">
        <ele>141.2</ele>
        <time>2022-07-31T08:12:14Z</time>
      </trkpt>
      <trkpt lat="49.08163" lon="1.8826">
        <ele>141</ele>
        <time>2022-07-31T08:12:20Z</time>
      </trkpt>
      <trkpt lat="49.08167" lon="1.88254">
        <ele>140.9</ele>
        <time>2022-07-31T08:12:25Z</time>
      </trkpt>
      <trkpt lat="49.08174" lon="1.88243">
        <ele>140.8</ele>
        <time>2022-07-31T08:12:31Z</time>
      </trkpt>
      <trkpt lat="49.08179" lon="1.88236">
        <ele>140.9</ele>
        <time>2022-07-31T08:12:36Z</time>
      </trkpt>
      <trkpt lat="49.08184" lon="1.88226">
        <ele>141</ele>
        <time>2022-07-31T08:12:42Z</time>
      </trkpt>
      <trkpt lat="49.08188" lon="1.88217">
        <ele>141</ele>
        <time>2022-07-31T08:12:48Z</time>
      </trkpt>
      <trkpt lat="49.08194" lon="1.8821">
        <ele>140.9</ele>
        <time>2022-07-31T08:12:53Z</time>
      </trkpt>
      <trkpt lat="49.08201" lon="1.88202">
        <ele>140.8</ele>
        <time>2022-07-31T08:12:59Z</time>
      </trkpt>
      <trkpt lat="49.08206" lon="1.88195">
        <ele>140.6</ele>
        <time>2022-07-31T08:13:04Z</time>
      </trkpt>
      <trkpt lat="49.08214" lon="1.88188">
        <ele>140.4</ele>
        <time>2022-07-31T08:13:10Z</time>
      </trkpt>
      <trkpt lat="49.08219" lon="1.88182">
        <ele>140.3</ele>
        <time>2022-07-31T08:13:15Z</time>
      </trkpt>
      <trkpt lat="49.08227" lon="1.88171">
        <ele>140.2</ele>
        <time>2022-07-31T08:13:21Z</time>
      </trkpt>
      <trkpt lat="49.08232" lon="1.88166">
        <ele>140.2</ele>
        <time>2022-07-31T08:13:26Z</time>
      </trkpt>
      <trkpt lat="49.08239" lon="1.88156">
        <ele>140.4</ele>
        <time>2022-07-31T08:13:32Z</time>
      </trkpt>
      <trkpt lat="49.08244" lon="1.88149">
        <ele>140.5</ele>
        <time>2022-07-31T08:13:37Z</time>
      </trkpt>
      <trkpt lat="49.0825" lon="1.88141">
        <ele>140.7</ele>
        <time>2022-07-31T08:13:43Z</time>
      </trkpt>
      <trkpt lat="49.08256" lon="1.88133">
        <ele>140.9</ele>
        <time>2022-07-31T08:13:49Z</time>
      </trkpt>
      <trkpt lat="49.08262" lon="1.88125">
        <ele>141.1</ele>
        <time>2022-07-31T08:13:55Z</time>
      </trkpt>
      <trkpt lat="49.08268" lon="1.88116">
        <ele>141.1</ele>
        <time>2022-07-31T08:14:01Z</time>
      </trkpt>
      <trkpt lat="49.08273" lon="1.88107">
        <ele>141.1</ele>
        <time>2022-07-31T08:14:06Z</time>
      </trkpt>
      <trkpt lat="49.08279" lon="1.88096">
        <ele>140.9</ele>
        <time>2022-07-31T08:14:12Z</time>
      </trkpt>
      <trkpt lat="49.08281" lon="1.88089">
        <ele>140.6</ele>
        <time>2022-07-31T08:14:17Z</time>
      </trkpt>
      <trkpt lat="49.08286" lon="1.88077">
        <ele>140.6</ele>
        <time>2022-07-31T08:14:23Z</time>
      </trkpt>
      <trkpt lat="49.0829" lon="1.88069">
        <ele>140.7</ele>
        <time>2022-07-31T08:14:28Z</time>
      </trkpt>
      <trkpt lat="49.08298" lon="1.88058">
        <ele>140.8</ele>
        <time>2022-07-31T08:14:34Z</time>
      </trkpt>
      <trkpt lat="49.08304" lon="1.88047">
        <ele>141</ele>
        <time>2022-07-31T08:14:40Z</time>
      </trkpt>
      <trkpt lat="49.08308" lon="1.88037">
        <ele>140.9</ele>
        <time>2022-07-31T08:14:46Z</time>
      </trkpt>
      <trkpt lat="49.08313" lon="1.88027">
        <ele>140.8</ele>
        <time>2022-07-31T08:14:52Z</time>
      </trkpt>
      <trkpt lat="49.08316" lon="1.88017">
        <ele>140.9</ele>
        <time>2022-07-31T08:14:59Z</time>
      </trkpt>
      <trkpt lat="49.0832" lon="1.88007">
        <ele>140.9</ele>
        <time>2022-07-31T08:15:04Z</time>
      </trkpt>
      <trkpt lat="49.08324" lon="1.87996">
        <ele>140.7</ele>
        <time>2022-07-31T08:15:10Z</time>
      </trkpt>
      <trkpt lat="49.0833" lon="1.87987">
        <ele>140.5</ele>
        <time>2022-07-31T08:15:15Z</time>
      </trkpt>
      <trkpt lat="49.08336" lon="1.8798">
        <ele>140.6</ele>
        <time>2022-07-31T08:15:20Z</time>
      </trkpt>
      <trkpt lat="49.08341" lon="1.87968">
        <ele>140.7</ele>
        <time>2022-07-31T08:15:26Z</time>
      </trkpt>
      <trkpt lat="49.08345" lon="1.87957">
        <ele>140.6</ele>
        <time>2022-07-31T08:15:32Z</time>
      </trkpt>
      <trkpt lat="49.0835" lon="1.87947">
        <ele>140.5</ele>
        <time>2022-07-31T08:15:38Z</time>
      </trkpt>
      <trkpt lat="49.08357" lon="1.87937">
        <ele>140.6</ele>
        <time>2022-07-31T08:15:44Z</time>
      </trkpt>
      <trkpt lat="49.08361" lon="1.8793">
        <ele>140.6</ele>
        <time>2022-07-31T08:15:49Z</time>
      </trkpt>
      <trkpt lat="49.08365" lon="1.87918">
        <ele>140.7</ele>
        <time>2022-07-31T08:15:55Z</time>
      </trkpt>
      <trkpt lat="49.08368" lon="1.8791">
        <ele>140.8</ele>
        <time>2022-07-31T08:16:00Z</time>
      </trkpt>
      <trkpt lat="49.08372" lon="1.87898">
        <ele>140.9</ele>
        <time>2022-07-31T08:16:06Z</time>
      </trkpt>
      <trkpt lat="49.08376" lon="1.87891">
        <ele>141</ele>
        <time>2022-07-31T08:16:11Z</time>
      </trkpt>
      <trkpt lat="49.08382" lon="1.8788">
        <ele>141</ele>
        <time>2022-07-31T08:16:17Z</time>
      </trkpt>
      <trkpt lat="49.08386" lon="1.87873">
        <ele>141.2</ele>
        <time>2022-07-31T08:16:22Z</time>
      </trkpt>
      <trkpt lat="49.0839" lon="1.87862">
        <ele>141.2</ele>
        <time>2022-07-31T08:16:28Z</time>
      </trkpt>
      <trkpt lat="49.08395" lon="1.87852">
        <ele>141.1</ele>
        <time>2022-07-31T08:16:34Z</time>
      </trkpt>
      <trkpt lat="49.08401" lon="1.8784">
        <ele>140.9</ele>
        <time>2022-07-31T08:16:40Z</time>
      </trkpt>
      <trkpt lat="49.08406" lon="1.8783">
        <ele>140.8</ele>
        <time>2022-07-31T08:16:46Z</time>
      </trkpt>
      <trkpt lat="49.0841" lon="1.87822">
        <ele>140.6</ele>
        <time>2022-07-31T08:16:51Z</time>
      </trkpt>
      <trkpt lat="49.08416" lon="1.87811">
        <ele>140.4</ele>
        <time>2022-07-31T08:16:57Z</time>
      </trkpt>
      <trkpt lat="49.08422" lon="1.87802">
        <ele>140.3</ele>
        <time>2022-07-31T08:17:03Z</time>
      </trkpt>
      <trkpt lat="49.08427" lon="1.87792">
        <ele>140.4</ele>
        <time>2022-07-31T08:17:09Z</time>
      </trkpt>
      <trkpt lat="49.08433" lon="1.87781">
        <ele>140.5</ele>
        <time>2022-07-31T08:17:15Z</time>
      </trkpt>
      <trkpt lat="49.08437" lon="1.87771">
        <ele>140.5</ele>
        <time>2022-07-31T08:17:21Z</time>
      </trkpt>
      <trkpt lat="49.08443" lon="1.87761">
        <ele>140.5</ele>
        <time>2022-07-31T08:17:27Z</time>
      </trkpt>
      <trkpt lat="49.0845" lon="1.87753">
        <ele>140.4</ele>
        <time>2022-07-31T08:17:33Z</time>
      </trkpt>
      <trkpt lat="49.08458" lon="1.87744">
        <ele>140.3</ele>
        <time>2022-07-31T08:17:39Z</time>
      </trkpt>
      <trkpt lat="49.08463" lon="1.87736">
        <ele>140.3</ele>
        <time>2022-07-31T08:17:45Z</time>
      </trkpt>
      <trkpt lat="49.08469" lon="1.8773">
        <ele>140.1</ele>
        <time>2022-07-31T08:17:51Z</time>
      </trkpt>
      <trkpt lat="49.08469" lon="1.87723">
        <ele>139.8</ele>
        <time>2022-07-31T08:17:56Z</time>
      </trkpt>
      <trkpt lat="49.08468" lon="1.87711">
        <ele>139.3</ele>
        <time>2022-07-31T08:18:02Z</time>
      </trkpt>
      <trkpt lat="49.08465" lon="1.87701">
        <ele>138.8</ele>
        <time>2022-07-31T08:18:07Z</time>
      </trkpt>
      <trkpt lat="49.08462" lon="1.87694">
        <ele>138.5</ele>
        <time>2022-07-31T08:18:12Z</time>
      </trkpt>
      <trkpt lat="49.08458" lon="1.87684">
        <ele>138.4</ele>
        <time>2022-07-31T08:18:17Z</time>
      </trkpt>
      <trkpt lat="49.08456" lon="1.87672">
        <ele>138.6</ele>
        <time>2022-07-31T08:18:23Z</time>
      </trkpt>
      <trkpt lat="49.08456" lon="1.87662">
        <ele>138.6</ele>
        <time>2022-07-31T08:18:29Z</time>
      </trkpt>
      <trkpt lat="49.0846" lon="1.87655">
        <ele>138.5</ele>
        <time>2022-07-31T08:18:34Z</time>
      </trkpt>
      <trkpt lat="49.08465" lon="1.87646">
        <ele>138.5</ele>
        <time>2022-07-31T08:18:40Z</time>
      </trkpt>
      <trkpt lat="49.08469" lon="1.87639">
        <ele>138.5</ele>
        <time>2022-07-31T08:18:45Z</time>
      </trkpt>
      <trkpt lat="49.08476" lon="1.87629">
        <ele>138.3</ele>
        <time>2022-07-31T08:18:51Z</time>
      </trkpt>
      <trkpt lat="49.08483" lon="1.87622">
        <ele>138.1</ele>
        <time>2022-07-31T08:18:57Z</time>
      </trkpt>
      <trkpt lat="49.08488" lon="1.87616">
        <ele>138</ele>
        <time>2022-07-31T08:19:02Z</time>
      </trkpt>
      <trkpt lat="49.08496" lon="1.87607">
        <ele>137.6</ele>
        <time>2022-07-31T08:19:08Z</time>
      </trkpt>
      <trkpt lat="49.08501" lon="1.87601">
        <ele>137.4</ele>
        <time>2022-07-31T08:19:13Z</time>
      </trkpt>
      <trkpt lat="49.08507" lon="1.87593">
        <ele>137.1</ele>
        <time>2022-07-31T08:19:19Z</time>
      </trkpt>
      <trkpt lat="49.08514" lon="1.87586">
        <ele>137</ele>
        <time>2022-07-31T08:19:24Z</time>
      </trkpt>
      <trkpt lat="49.08519" lon="1.87579">
        <ele>136.9</ele>
        <time>2022-07-31T08:19:29Z</time>
      </trkpt>
      <trkpt lat="49.08525" lon="1.87571">
        <ele>136.7</ele>
        <time>2022-07-31T08:19:35Z</time>
      </trkpt>
      <trkpt lat="49.08531" lon="1.87562">
        <ele>136.3</ele>
        <time>2022-07-31T08:19:40Z</time>
      </trkpt>
      <trkpt lat="49.08537" lon="1.87557">
        <ele>135.8</ele>
        <time>2022-07-31T08:19:46Z</time>
      </trkpt>
      <trkpt lat="49.08544" lon="1.87546">
        <ele>135.6</ele>
        <time>2022-07-31T08:19:52Z</time>
      </trkpt>
      <trkpt lat="49.08547" lon="1.87539">
        <ele>135.2</ele>
        <time>2022-07-31T08:19:57Z</time>
      </trkpt>
      <trkpt lat="49.08555" lon="1.87532">
        <ele>134.8</ele>
        <time>2022-07-31T08:20:03Z</time>
      </trkpt>
      <trkpt lat="49.08558" lon="1.87526">
        <ele>134.6</ele>
        <time>2022-07-31T08:20:08Z</time>
      </trkpt>
      <trkpt lat="49.08564" lon="1.87518">
        <ele>134.7</ele>
        <time>2022-07-31T08:20:13Z</time>
      </trkpt>
      <trkpt lat="49.08569" lon="1.87514">
        <ele>135</ele>
        <time>2022-07-31T08:20:18Z</time>
      </trkpt>
      <trkpt lat="49.08577" lon="1.87504">
        <ele>135.3</ele>
        <time>2022-07-31T08:20:24Z</time>
      </trkpt>
      <trkpt lat="49.08583" lon="1.87497">
        <ele>135.6</ele>
        <time>2022-07-31T08:20:29Z</time>
      </trkpt>
      <trkpt lat="49.0859" lon="1.87491">
        <ele>135.8</ele>
        <time>2022-07-31T08:20:35Z</time>
      </trkpt>
      <trkpt lat="49.08595" lon="1.87483">
        <ele>135.9</ele>
        <time>2022-07-31T08:20:40Z</time>
      </trkpt>
      <trkpt lat="49.086" lon="1.87475">
        <ele>136</ele>
        <time>2022-07-31T08:20:46Z</time>
      </trkpt>
      <trkpt lat="49.08607" lon="1.87468">
        <ele>135.8</ele>
        <time>2022-07-31T08:20:52Z</time>
      </trkpt>
      <trkpt lat="49.08611" lon="1.87461">
        <ele>135.7</ele>
        <time>2022-07-31T08:20:57Z</time>
      </trkpt>
      <trkpt lat="49.08619" lon="1.87456">
        <ele>135.7</ele>
        <time>2022-07-31T08:21:03Z</time>
      </trkpt>
      <trkpt lat="49.08622" lon="1.87449">
        <ele>135.5</ele>
        <time>2022-07-31T08:21:08Z</time>
      </trkpt>
      <trkpt lat="49.08629" lon="1.8744">
        <ele>135.2</ele>
        <time>2022-07-31T08:21:14Z</time>
      </trkpt>
      <trkpt lat="49.08635" lon="1.87432">
        <ele>134.9</ele>
        <time>2022-07-31T08:21:20Z</time>
      </trkpt>
      <trkpt lat="49.08639" lon="1.87424">
        <ele>134.7</ele>
        <time>2022-07-31T08:21:25Z</time>
      </trkpt>
      <trkpt lat="49.08644" lon="1.87416">
        <ele>134.5</ele>
        <time>2022-07-31T08:21:31Z</time>
      </trkpt>
      <trkpt lat="49.08649" lon="1.87411">
        <ele>134.3</ele>
        <time>2022-07-31T08:21:36Z</time>
      </trkpt>
      <trkpt lat="49.08655" lon="1.87405">
        <ele>134</ele>
        <time>2022-07-31T08:21:42Z</time>
      </trkpt>
      <trkpt lat="49.08663" lon="1.87402">
        <ele>133.7</ele>
        <time>2022-07-31T08:21:48Z</time>
      </trkpt>
      <trkpt lat="49.08672" lon="1.87406">
        <ele>133.5</ele>
        <time>2022-07-31T08:21:54Z</time>
      </trkpt>
      <trkpt lat="49.08679" lon="1.87415">
        <ele>133.5</ele>
        <time>2022-07-31T08:22:00Z</time>
      </trkpt>
      <trkpt lat="49.08685" lon="1.87421">
        <ele>133.7</ele>
        <time>2022-07-31T08:22:05Z</time>
      </trkpt>
      <trkpt lat="49.08691" lon="1.87428">
        <ele>133.9</ele>
        <time>2022-07-31T08:22:11Z</time>
      </trkpt>
      <trkpt lat="49.08694" lon="1.87433">
        <ele>133.9</ele>
        <time>2022-07-31T08:22:16Z</time>
      </trkpt>
      <trkpt lat="49.08701" lon="1.87442">
        <ele>133.5</ele>
        <time>2022-07-31T08:22:22Z</time>
      </trkpt>
      <trkpt lat="49.08705" lon="1.87453">
        <ele>133</ele>
        <time>2022-07-31T08:22:28Z</time>
      </trkpt>
      <trkpt lat="49.08708" lon="1.87464">
        <ele>132.7</ele>
        <time>2022-07-31T08:22:33Z</time>
      </trkpt>
      <trkpt lat="49.08712" lon="1.87476">
        <ele>132.4</ele>
        <time>2022-07-31T08:22:39Z</time>
      </trkpt>
      <trkpt lat="49.08717" lon="1.87484">
        <ele>131.9</ele>
        <time>2022-07-31T08:22:45Z</time>
      </trkpt>
      <trkpt lat="49.08723" lon="1.87492">
        <ele>131.7</ele>
        <time>2022-07-31T08:22:50Z</time>
      </trkpt>
      <trkpt lat="49.08728" lon="1.875">
        <ele>131.5</ele>
        <time>2022-07-31T08:22:55Z</time>
      </trkpt>
      <trkpt lat="49.08735" lon="1.87512">
        <ele>131.4</ele>
        <time>2022-07-31T08:23:01Z</time>
      </trkpt>
      <trkpt lat="49.08737" lon="1.87522">
        <ele>131.4</ele>
        <time>2022-07-31T08:23:07Z</time>
      </trkpt>
      <trkpt lat="49.08742" lon="1.87532">
        <ele>131.4</ele>
        <time>2022-07-31T08:23:12Z</time>
      </trkpt>
      <trkpt lat="49.08747" lon="1.87539">
        <ele>131.5</ele>
        <time>2022-07-31T08:23:18Z</time>
      </trkpt>
      <trkpt lat="49.08753" lon="1.87545">
        <ele>131.6</ele>
        <time>2022-07-31T08:23:23Z</time>
      </trkpt>
      <trkpt lat="49.0876" lon="1.8755">
        <ele>131.8</ele>
        <time>2022-07-31T08:23:29Z</time>
      </trkpt>
      <trkpt lat="49.08767" lon="1.8755">
        <ele>131.8</ele>
        <time>2022-07-31T08:23:34Z</time>
      </trkpt>
      <trkpt lat="49.08773" lon="1.8755">
        <ele>131.5</ele>
        <time>2022-07-31T08:23:39Z</time>
      </trkpt>
      <trkpt lat="49.08783" lon="1.87548">
        <ele>131.2</ele>
        <time>2022-07-31T08:23:45Z</time>
      </trkpt>
      <trkpt lat="49.08789" lon="1.87543">
        <ele>130.8</ele>
        <time>2022-07-31T08:23:50Z</time>
      </trkpt>
      <trkpt lat="49.08796" lon="1.87535">
        <ele>130.1</ele>
        <time>2022-07-31T08:23:56Z</time>
      </trkpt>
      <trkpt lat="49.08805" lon="1.87527">
        <ele>129</ele>
        <time>2022-07-31T08:24:02Z</time>
      </trkpt>
      <trkpt lat="49.08808" lon="1.87519">
        <ele>128.7</ele>
        <time>2022-07-31T08:24:07Z</time>
      </trkpt>
      <trkpt lat="49.08811" lon="1.87512">
        <ele>129</ele>
        <time>2022-07-31T08:24:13Z</time>
      </trkpt>
      <trkpt lat="49.08819" lon="1.87505">
        <ele>129.6</ele>
        <time>2022-07-31T08:24:19Z</time>
      </trkpt>
      <trkpt lat="49.08823" lon="1.87495">
        <ele>130.3</ele>
        <time>2022-07-31T08:24:24Z</time>
      </trkpt>
      <trkpt lat="49.08825" lon="1.87485">
        <ele>131.3</ele>
        <time>2022-07-31T08:24:30Z</time>
      </trkpt>
      <trkpt lat="49.08833" lon="1.87478">
        <ele>132</ele>
        <time>2022-07-31T08:24:36Z</time>
      </trkpt>
      <trkpt lat="49.0884" lon="1.87467">
        <ele>132.3</ele>
        <time>2022-07-31T08:24:42Z</time>
      </trkpt>
      <trkpt lat="49.08846" lon="1.87459">
        <ele>132.8</ele>
        <time>2022-07-31T08:24:48Z</time>
      </trkpt>
      <trkpt lat="49.08853" lon="1.87451">
        <ele>133.4</ele>
        <time>2022-07-31T08:24:54Z</time>
      </trkpt>
      <trkpt lat="49.08858" lon="1.87442">
        <ele>133.9</ele>
        <time>2022-07-31T08:24:59Z</time>
      </trkpt>
      <trkpt lat="49.08865" lon="1.87434">
        <ele>134.5</ele>
        <time>2022-07-31T08:25:05Z</time>
      </trkpt>
      <trkpt lat="49.08872" lon="1.87427">
        <ele>134.8</ele>
        <time>2022-07-31T08:25:11Z</time>
      </trkpt>
      <trkpt lat="49.08877" lon="1.87417">
        <ele>135.1</ele>
        <time>2022-07-31T08:25:17Z</time>
      </trkpt>
      <trkpt lat="49.08884" lon="1.87411">
        <ele>135.4</ele>
        <time>2022-07-31T08:25:22Z</time>
      </trkpt>
      <trkpt lat="49.08891" lon="1.87407">
        <ele>135.7</ele>
        <time>2022-07-31T08:25:28Z</time>
      </trkpt>
      <trkpt lat="49.08894" lon="1.87395">
        <ele>135.9</ele>
        <time>2022-07-31T08:25:33Z</time>
      </trkpt>
      <trkpt lat="49.08894" lon="1.87384">
        <ele>136.1</ele>
        <time>2022-07-31T08:25:39Z</time>
      </trkpt>
      <trkpt lat="49.08894" lon="1.87373">
        <ele>136.2</ele>
        <time>2022-07-31T08:25:44Z</time>
      </trkpt>
      <trkpt lat="49.08895" lon="1.87363">
        <ele>136.2</ele>
        <time>2022-07-31T08:25:50Z</time>
      </trkpt>
      <trkpt lat="49.08893" lon="1.87352">
        <ele>136.1</ele>
        <time>2022-07-31T08:25:55Z</time>
      </trkpt>
      <trkpt lat="49.08888" lon="1.87339">
        <ele>136.3</ele>
        <time>2022-07-31T08:26:01Z</time>
      </trkpt>
      <trkpt lat="49.08883" lon="1.87331">
        <ele>136.8</ele>
        <time>2022-07-31T08:26:07Z</time>
      </trkpt>
      <trkpt lat="49.08877" lon="1.8732">
        <ele>136.9</ele>
        <time>2022-07-31T08:26:12Z</time>
      </trkpt>
      <trkpt lat="49.08873" lon="1.87313">
        <ele>136.9</ele>
        <time>2022-07-31T08:26:17Z</time>
      </trkpt>
      <trkpt lat="49.08866" lon="1.87304">
        <ele>137</ele>
        <time>2022-07-31T08:26:23Z</time>
      </trkpt>
      <trkpt lat="49.0886" lon="1.87297">
        <ele>137</ele>
        <time>2022-07-31T08:26:29Z</time>
      </trkpt>
      <trkpt lat="49.08854" lon="1.87291">
        <ele>137.2</ele>
        <time>2022-07-31T08:26:34Z</time>
      </trkpt>
      <trkpt lat="49.08848" lon="1.87283">
        <ele>137.4</ele>
        <time>2022-07-31T08:26:40Z</time>
      </trkpt>
      <trkpt lat="49.08844" lon="1.87277">
        <ele>137.5</ele>
        <time>2022-07-31T08:26:45Z</time>
      </trkpt>
      <trkpt lat="49.08837" lon="1.87265">
        <ele>137.6</ele>
        <time>2022-07-31T08:26:51Z</time>
      </trkpt>
      <trkpt lat="49.08833" lon="1.87258">
        <ele>137.7</ele>
        <time>2022-07-31T08:26:56Z</time>
      </trkpt>
      <trkpt lat="49.08826" lon="1.87251">
        <ele>137.8</ele>
        <time>2022-07-31T08:27:02Z</time>
      </trkpt>
      <trkpt lat="49.0882" lon="1.87243">
        <ele>137.8</ele>
        <time>2022-07-31T08:27:08Z</time>
      </trkpt>
      <trkpt lat="49.08813" lon="1.87239">
        <ele>137.7</ele>
        <time>2022-07-31T08:27:13Z</time>
      </trkpt>
      <trkpt lat="49.08807" lon="1.87233">
        <ele>137.5</ele>
        <time>2022-07-31T08:27:19Z</time>
      </trkpt>
      <trkpt lat="49.08799" lon="1.87223">
        <ele>137.3</ele>
        <time>2022-07-31T08:27:25Z</time>
      </trkpt>
      <trkpt lat="49.08794" lon="1.87216">
        <ele>137</ele>
        <time>2022-07-31T08:27:30Z</time>
      </trkpt>
      <trkpt lat="49.08789" lon="1.87206">
        <ele>136.5</ele>
        <time>2022-07-31T08:27:36Z</time>
      </trkpt>
      <trkpt lat="49.08784" lon="1.87197">
        <ele>136.5</ele>
        <time>2022-07-31T08:27:41Z</time>
      </trkpt>
      <trkpt lat="49.08776" lon="1.87189">
        <ele>136.6</ele>
        <time>2022-07-31T08:27:47Z</time>
      </trkpt>
      <trkpt lat="49.08773" lon="1.87182">
        <ele>136.8</ele>
        <time>2022-07-31T08:27:53Z</time>
      </trkpt>
      <trkpt lat="49.08769" lon="1.87174">
        <ele>136.8</ele>
        <time>2022-07-31T08:27:59Z</time>
      </trkpt>
      <trkpt lat="49.08764" lon="1.87166">
        <ele>136.6</ele>
        <time>2022-07-31T08:28:04Z</time>
      </trkpt>
      <trkpt lat="49.08757" lon="1.87155">
        <ele>136.5</ele>
        <time>2022-07-31T08:28:10Z</time>
      </trkpt>
      <trkpt lat="49.08752" lon="1.87145">
        <ele>136.3</ele>
        <time>2022-07-31T08:28:16Z</time>
      </trkpt>
      <trkpt lat="49.08748" lon="1.87138">
        <ele>136.2</ele>
        <time>2022-07-31T08:28:21Z</time>
      </trkpt>
      <trkpt lat="49.08741" lon="1.87131">
        <ele>136.2</ele>
        <time>2022-07-31T08:28:27Z</time>
      </trkpt>
      <trkpt lat="49.08736" lon="1.87125">
        <ele>136.4</ele>
        <time>2022-07-31T08:28:33Z</time>
      </trkpt>
      <trkpt lat="49.08729" lon="1.8712">
        <ele>136.6</ele>
        <time>2022-07-31T08:28:39Z</time>
      </trkpt>
      <trkpt lat="49.08724" lon="1.87114">
        <ele>136.5</ele>
        <time>2022-07-31T08:28:45Z</time>
      </trkpt>
      <trkpt lat="49.08716" lon="1.87106">
        <ele>136.4</ele>
        <time>2022-07-31T08:28:52Z</time>
      </trkpt>
      <trkpt lat="49.08713" lon="1.87096">
        <ele>136.6</ele>
        <time>2022-07-31T08:28:57Z</time>
      </trkpt>
      <trkpt lat="49.08707" lon="1.87085">
        <ele>136.7</ele>
        <time>2022-07-31T08:29:03Z</time>
      </trkpt>
      <trkpt lat="49.08705" lon="1.87076">
        <ele>136.5</ele>
        <time>2022-07-31T08:29:08Z</time>
      </trkpt>
      <trkpt lat="49.08705" lon="1.87064">
        <ele>136.3</ele>
        <time>2022-07-31T08:29:14Z</time>
      </trkpt>
      <trkpt lat="49.08704" lon="1.87055">
        <ele>136.1</ele>
        <time>2022-07-31T08:29:19Z</time>
      </trkpt>
      <trkpt lat="49.08703" lon="1.87042">
        <ele>135.6</ele>
        <time>2022-07-31T08:29:25Z</time>
      </trkpt>
      <trkpt lat="49.08702" lon="1.87032">
        <ele>135</ele>
        <time>2022-07-31T08:29:30Z</time>
      </trkpt>
      <trkpt lat="49.08698" lon="1.87018">
        <ele>134.5</ele>
        <time>2022-07-31T08:29:36Z</time>
      </trkpt>
      <trkpt lat="49.08696" lon="1.87007">
        <ele>134.3</ele>
        <time>2022-07-31T08:29:41Z</time>
      </trkpt>
      <trkpt lat="49.08696" lon="1.86996">
        <ele>134.2</ele>
        <time>2022-07-31T08:29:47Z</time>
      </trkpt>
      <trkpt lat="49.08694" lon="1.86987">
        <ele>134.1</ele>
        <time>2022-07-31T08:29:52Z</time>
      </trkpt>
      <trkpt lat="49.08693" lon="1.86973">
        <ele>134</ele>
        <time>2022-07-31T08:29:58Z</time>
      </trkpt>
      <trkpt lat="49.08692" lon="1.8696">
        <ele>134.1</ele>
        <time>2022-07-31T08:30:04Z</time>
      </trkpt>
      <trkpt lat="49.08694" lon="1.8695">
        <ele>134.4</ele>
        <time>2022-07-31T08:30:09Z</time>
      </trkpt>
      <trkpt lat="49.08699" lon="1.86942">
        <ele>134.7</ele>
        <time>2022-07-31T08:30:15Z</time>
      </trkpt>
      <trkpt lat="49.08705" lon="1.86938">
        <ele>134.9</ele>
        <time>2022-07-31T08:30:20Z</time>
      </trkpt>
      <trkpt lat="49.08713" lon="1.86936">
        <ele>135</ele>
        <time>2022-07-31T08:30:26Z</time>
      </trkpt>
      <trkpt lat="49.08721" lon="1.86934">
        <ele>135.2</ele>
        <time>2022-07-31T08:30:31Z</time>
      </trkpt>
      <trkpt lat="49.08726" lon="1.86929">
        <ele>135.2</ele>
        <time>2022-07-31T08:30:36Z</time>
      </trkpt>
      <trkpt lat="49.08732" lon="1.86923">
        <ele>135.2</ele>
        <time>2022-07-31T08:30:41Z</time>
      </trkpt>
      <trkpt lat="49.08738" lon="1.8692">
        <ele>134.9</ele>
        <time>2022-07-31T08:30:46Z</time>
      </trkpt>
      <trkpt lat="49.08745" lon="1.86917">
        <ele>134.8</ele>
        <time>2022-07-31T08:30:52Z</time>
      </trkpt>
      <trkpt lat="49.08752" lon="1.8691">
        <ele>134.9</ele>
        <time>2022-07-31T08:30:58Z</time>
      </trkpt>
      <trkpt lat="49.08755" lon="1.869">
        <ele>135</ele>
        <time>2022-07-31T08:31:04Z</time>
      </trkpt>
      <trkpt lat="49.08759" lon="1.8689">
        <ele>135.1</ele>
        <time>2022-07-31T08:31:09Z</time>
      </trkpt>
      <trkpt lat="49.08762" lon="1.86879">
        <ele>135.2</ele>
        <time>2022-07-31T08:31:15Z</time>
      </trkpt>
      <trkpt lat="49.08762" lon="1.86868">
        <ele>135.6</ele>
        <time>2022-07-31T08:31:20Z</time>
      </trkpt>
      <trkpt lat="49.0876" lon="1.86853">
        <ele>136.2</ele>
        <time>2022-07-31T08:31:26Z</time>
      </trkpt>
      <trkpt lat="49.08759" lon="1.86842">
        <ele>136.7</ele>
        <time>2022-07-31T08:31:32Z</time>
      </trkpt>
      <trkpt lat="49.08758" lon="1.86832">
        <ele>137</ele>
        <time>2022-07-31T08:31:37Z</time>
      </trkpt>
      <trkpt lat="49.08756" lon="1.8682">
        <ele>137.3</ele>
        <time>2022-07-31T08:31:43Z</time>
      </trkpt>
      <trkpt lat="49.08755" lon="1.86812">
        <ele>137.5</ele>
        <time>2022-07-31T08:31:48Z</time>
      </trkpt>
      <trkpt lat="49.08754" lon="1.868">
        <ele>137.9</ele>
        <time>2022-07-31T08:31:54Z</time>
      </trkpt>
      <trkpt lat="49.08753" lon="1.8679">
        <ele>138.3</ele>
        <time>2022-07-31T08:31:59Z</time>
      </trkpt>
      <trkpt lat="49.0875" lon="1.86781">
        <ele>138.7</ele>
        <time>2022-07-31T08:32:05Z</time>
      </trkpt>
      <trkpt lat="49.08748" lon="1.86771">
        <ele>139.4</ele>
        <time>2022-07-31T08:32:11Z</time>
      </trkpt>
      <trkpt lat="49.08746" lon="1.86763">
        <ele>139.7</ele>
        <time>2022-07-31T08:32:16Z</time>
      </trkpt>
      <trkpt lat="49.08743" lon="1.86756">
        <ele>140.3</ele>
        <time>2022-07-31T08:32:21Z</time>
      </trkpt>
      <trkpt lat="49.08739" lon="1.86745">
        <ele>141</ele>
        <time>2022-07-31T08:32:27Z</time>
      </trkpt>
      <trkpt lat="49.08736" lon="1.86732">
        <ele>141.5</ele>
        <time>2022-07-31T08:32:32Z</time>
      </trkpt>
      <trkpt lat="49.08731" lon="1.86719">
        <ele>142.2</ele>
        <time>2022-07-31T08:32:38Z</time>
      </trkpt>
      <trkpt lat="49.08728" lon="1.86707">
        <ele>142.8</ele>
        <time>2022-07-31T08:32:43Z</time>
      </trkpt>
      <trkpt lat="49.08725" lon="1.86696">
        <ele>143.5</ele>
        <time>2022-07-31T08:32:49Z</time>
      </trkpt>
      <trkpt lat="49.08722" lon="1.86686">
        <ele>144.2</ele>
        <time>2022-07-31T08:32:54Z</time>
      </trkpt>
      <trkpt lat="49.08719" lon="1.86678">
        <ele>145.1</ele>
        <time>2022-07-31T08:33:00Z</time>
      </trkpt>
      <trkpt lat="49.08716" lon="1.86666">
        <ele>145.7</ele>
        <time>2022-07-31T08:33:06Z</time>
      </trkpt>
      <trkpt lat="49.08711" lon="1.86656">
        <ele>146</ele>
        <time>2022-07-31T08:33:12Z</time>
      </trkpt>
      <trkpt lat="49.08707" lon="1.86641">
        <ele>146.3</ele>
        <time>2022-07-31T08:33:18Z</time>
      </trkpt>
      <trkpt lat="49.08705" lon="1.86631">
        <ele>146.5</ele>
        <time>2022-07-31T08:33:23Z</time>
      </trkpt>
      <trkpt lat="49.08705" lon="1.86622">
        <ele>146.8</ele>
        <time>2022-07-31T08:33:28Z</time>
      </trkpt>
      <trkpt lat="49.08703" lon="1.86609">
        <ele>146.9</ele>
        <time>2022-07-31T08:33:34Z</time>
      </trkpt>
      <trkpt lat="49.08702" lon="1.86597">
        <ele>146.8</ele>
        <time>2022-07-31T08:33:40Z</time>
      </trkpt>
      <trkpt lat="49.087" lon="1.86583">
        <ele>146.5</ele>
        <time>2022-07-31T08:33:46Z</time>
      </trkpt>
      <trkpt lat="49.087" lon="1.86574">
        <ele>146.3</ele>
        <time>2022-07-31T08:33:52Z</time>
      </trkpt>
      <trkpt lat="49.08699" lon="1.8656">
        <ele>146.5</ele>
        <time>2022-07-31T08:33:58Z</time>
      </trkpt>
      <trkpt lat="49.087" lon="1.86549">
        <ele>146.6</ele>
        <time>2022-07-31T08:34:03Z</time>
      </trkpt>
      <trkpt lat="49.08701" lon="1.86538">
        <ele>146.7</ele>
        <time>2022-07-31T08:34:08Z</time>
      </trkpt>
      <trkpt lat="49.08701" lon="1.86525">
        <ele>146.6</ele>
        <time>2022-07-31T08:34:14Z</time>
      </trkpt>
      <trkpt lat="49.087" lon="1.86513">
        <ele>146.2</ele>
        <time>2022-07-31T08:34:19Z</time>
      </trkpt>
      <trkpt lat="49.087" lon="1.86503">
        <ele>146</ele>
        <time>2022-07-31T08:34:25Z</time>
      </trkpt>
      <trkpt lat="49.08701" lon="1.86492">
        <ele>145.9</ele>
        <time>2022-07-31T08:34:31Z</time>
      </trkpt>
      <trkpt lat="49.08703" lon="1.86481">
        <ele>145.8</ele>
        <time>2022-07-31T08:34:36Z</time>
      </trkpt>
      <trkpt lat="49.08704" lon="1.86468">
        <ele>145.9</ele>
        <time>2022-07-31T08:34:41Z</time>
      </trkpt>
      <trkpt lat="49.08705" lon="1.86457">
        <ele>146.1</ele>
        <time>2022-07-31T08:34:47Z</time>
      </trkpt>
      <trkpt lat="49.08706" lon="1.86444">
        <ele>146.2</ele>
        <time>2022-07-31T08:34:53Z</time>
      </trkpt>
      <trkpt lat="49.08707" lon="1.86431">
        <ele>146.4</ele>
        <time>2022-07-31T08:34:59Z</time>
      </trkpt>
      <trkpt lat="49.0871" lon="1.86423">
        <ele>146.6</ele>
        <time>2022-07-31T08:35:04Z</time>
      </trkpt>
      <trkpt lat="49.0871" lon="1.86411">
        <ele>146.7</ele>
        <time>2022-07-31T08:35:09Z</time>
      </trkpt>
      <trkpt lat="49.08709" lon="1.86398">
        <ele>146.6</ele>
        <time>2022-07-31T08:35:15Z</time>
      </trkpt>
      <trkpt lat="49.08709" lon="1.86383">
        <ele>146.7</ele>
        <time>2022-07-31T08:35:21Z</time>
      </trkpt>
      <trkpt lat="49.08707" lon="1.86372">
        <ele>146.7</ele>
        <time>2022-07-31T08:35:26Z</time>
      </trkpt>
      <trkpt lat="49.08707" lon="1.86358">
        <ele>146.9</ele>
        <time>2022-07-31T08:35:32Z</time>
      </trkpt>
      <trkpt lat="49.08707" lon="1.86346">
        <ele>147</ele>
        <time>2022-07-31T08:35:38Z</time>
      </trkpt>
      <trkpt lat="49.08706" lon="1.8633">
        <ele>147.1</ele>
        <time>2022-07-31T08:35:44Z</time>
      </trkpt>
      <trkpt lat="49.08704" lon="1.86316">
        <ele>147</ele>
        <time>2022-07-31T08:35:50Z</time>
      </trkpt>
      <trkpt lat="49.08704" lon="1.86307">
        <ele>146.9</ele>
        <time>2022-07-31T08:35:55Z</time>
      </trkpt>
      <trkpt lat="49.08706" lon="1.86296">
        <ele>146.9</ele>
        <time>2022-07-31T08:36:00Z</time>
      </trkpt>
      <trkpt lat="49.08706" lon="1.86282">
        <ele>146.7</ele>
        <time>2022-07-31T08:36:06Z</time>
      </trkpt>
      <trkpt lat="49.08706" lon="1.8627">
        <ele>146.5</ele>
        <time>2022-07-31T08:36:12Z</time>
      </trkpt>
      <trkpt lat="49.08704" lon="1.86254">
        <ele>146.1</ele>
        <time>2022-07-31T08:36:18Z</time>
      </trkpt>
      <trkpt lat="49.08703" lon="1.86244">
        <ele>145.9</ele>
        <time>2022-07-31T08:36:23Z</time>
      </trkpt>
      <trkpt lat="49.08703" lon="1.86233">
        <ele>145.6</ele>
        <time>2022-07-31T08:36:29Z</time>
      </trkpt>
      <trkpt lat="49.08703" lon="1.86219">
        <ele>145.7</ele>
        <time>2022-07-31T08:36:34Z</time>
      </trkpt>
      <trkpt lat="49.08704" lon="1.86207">
        <ele>145.9</ele>
        <time>2022-07-31T08:36:40Z</time>
      </trkpt>
      <trkpt lat="49.08703" lon="1.86196">
        <ele>146.3</ele>
        <time>2022-07-31T08:36:46Z</time>
      </trkpt>
      <trkpt lat="49.08702" lon="1.86183">
        <ele>146.3</ele>
        <time>2022-07-31T08:36:51Z</time>
      </trkpt>
      <trkpt lat="49.08703" lon="1.86168">
        <ele>146.1</ele>
        <time>2022-07-31T08:36:57Z</time>
      </trkpt>
      <trkpt lat="49.08702" lon="1.86155">
        <ele>145.9</ele>
        <time>2022-07-31T08:37:03Z</time>
      </trkpt>
      <trkpt lat="49.087" lon="1.86144">
        <ele>145.6</ele>
        <time>2022-07-31T08:37:08Z</time>
      </trkpt>
      <trkpt lat="49.08701" lon="1.86133">
        <ele>145.3</ele>
        <time>2022-07-31T08:37:14Z</time>
      </trkpt>
      <trkpt lat="49.08704" lon="1.86124">
        <ele>145.1</ele>
        <time>2022-07-31T08:37:20Z</time>
      </trkpt>
      <trkpt lat="49.08709" lon="1.8612">
        <ele>144.9</ele>
        <time>2022-07-31T08:37:26Z</time>
      </trkpt>
      <trkpt lat="49.08714" lon="1.86112">
        <ele>145</ele>
        <time>2022-07-31T08:37:32Z</time>
      </trkpt>
      <trkpt lat="49.08716" lon="1.86104">
        <ele>145.1</ele>
        <time>2022-07-31T08:37:37Z</time>
      </trkpt>
      <trkpt lat="49.08717" lon="1.86089">
        <ele>145.2</ele>
        <time>2022-07-31T08:37:43Z</time>
      </trkpt>
      <trkpt lat="49.08719" lon="1.86078">
        <ele>145.4</ele>
        <time>2022-07-31T08:37:49Z</time>
      </trkpt>
      <trkpt lat="49.08724" lon="1.86066">
        <ele>145.4</ele>
        <time>2022-07-31T08:37:55Z</time>
      </trkpt>
      <trkpt lat="49.08729" lon="1.86057">
        <ele>145.6</ele>
        <time>2022-07-31T08:38:00Z</time>
      </trkpt>
      <trkpt lat="49.08732" lon="1.86056">
        <ele>145.8</ele>
        <time>2022-07-31T08:38:06Z</time>
      </trkpt>
      <trkpt lat="49.08735" lon="1.86048">
        <ele>146</ele>
        <time>2022-07-31T08:38:12Z</time>
      </trkpt>
      <trkpt lat="49.08738" lon="1.8604">
        <ele>146.2</ele>
        <time>2022-07-31T08:38:18Z</time>
      </trkpt>
      <trkpt lat="49.08742" lon="1.8603">
        <ele>146.2</ele>
        <time>2022-07-31T08:38:24Z</time>
      </trkpt>
      <trkpt lat="49.08745" lon="1.8602">
        <ele>146.2</ele>
        <time>2022-07-31T08:38:29Z</time>
      </trkpt>
      <trkpt lat="49.08749" lon="1.86008">
        <ele>146.2</ele>
        <time>2022-07-31T08:38:35Z</time>
      </trkpt>
      <trkpt lat="49.08751" lon="1.85999">
        <ele>146.4</ele>
        <time>2022-07-31T08:38:40Z</time>
      </trkpt>
      <trkpt lat="49.08756" lon="1.85985">
        <ele>146.8</ele>
        <time>2022-07-31T08:38:47Z</time>
      </trkpt>
      <trkpt lat="49.0876" lon="1.85976">
        <ele>147.1</ele>
        <time>2022-07-31T08:38:52Z</time>
      </trkpt>
      <trkpt lat="49.08764" lon="1.85965">
        <ele>147.6</ele>
        <time>2022-07-31T08:38:58Z</time>
      </trkpt>
      <trkpt lat="49.08767" lon="1.85956">
        <ele>148.1</ele>
        <time>2022-07-31T08:39:03Z</time>
      </trkpt>
      <trkpt lat="49.0877" lon="1.85947">
        <ele>148.3</ele>
        <time>2022-07-31T08:39:09Z</time>
      </trkpt>
      <trkpt lat="49.08774" lon="1.85936">
        <ele>148.2</ele>
        <time>2022-07-31T08:39:15Z</time>
      </trkpt>
      <trkpt lat="49.08779" lon="1.85924">
        <ele>148.2</ele>
        <time>2022-07-31T08:39:21Z</time>
      </trkpt>
      <trkpt lat="49.08782" lon="1.85913">
        <ele>148</ele>
        <time>2022-07-31T08:39:27Z</time>
      </trkpt>
      <trkpt lat="49.08787" lon="1.85903">
        <ele>147.9</ele>
        <time>2022-07-31T08:39:33Z</time>
      </trkpt>
      <trkpt lat="49.08793" lon="1.85892">
        <ele>147.8</ele>
        <time>2022-07-31T08:39:39Z</time>
      </trkpt>
      <trkpt lat="49.08797" lon="1.85882">
        <ele>147.9</ele>
        <time>2022-07-31T08:39:45Z</time>
      </trkpt>
      <trkpt lat="49.08802" lon="1.85873">
        <ele>147.9</ele>
        <time>2022-07-31T08:39:50Z</time>
      </trkpt>
      <trkpt lat="49.08808" lon="1.85862">
        <ele>147.8</ele>
        <time>2022-07-31T08:39:56Z</time>
      </trkpt>
      <trkpt lat="49.08813" lon="1.85852">
        <ele>147.9</ele>
        <time>2022-07-31T08:40:02Z</time>
      </trkpt>
      <trkpt lat="49.08816" lon="1.85846">
        <ele>147.8</ele>
        <time>2022-07-31T08:40:07Z</time>
      </trkpt>
      <trkpt lat="49.08822" lon="1.85837">
        <ele>147.6</ele>
        <time>2022-07-31T08:40:13Z</time>
      </trkpt>
      <trkpt lat="49.08827" lon="1.85831">
        <ele>147.4</ele>
        <time>2022-07-31T08:40:18Z</time>
      </trkpt>
      <trkpt lat="49.08833" lon="1.85824">
        <ele>147.2</ele>
        <time>2022-07-31T08:40:24Z</time>
      </trkpt>
      <trkpt lat="49.08838" lon="1.85815">
        <ele>147.3</ele>
        <time>2022-07-31T08:40:30Z</time>
      </trkpt>
      <trkpt lat="49.08844" lon="1.85809">
        <ele>147.4</ele>
        <time>2022-07-31T08:40:35Z</time>
      </trkpt>
      <trkpt lat="49.08851" lon="1.85801">
        <ele>147.7</ele>
        <time>2022-07-31T08:40:41Z</time>
      </trkpt>
      <trkpt lat="49.08855" lon="1.85794">
        <ele>147.7</ele>
        <time>2022-07-31T08:40:46Z</time>
      </trkpt>
      <trkpt lat="49.08863" lon="1.85789">
        <ele>147.4</ele>
        <time>2022-07-31T08:40:52Z</time>
      </trkpt>
      <trkpt lat="49.08869" lon="1.8578">
        <ele>147</ele>
        <time>2022-07-31T08:40:58Z</time>
      </trkpt>
      <trkpt lat="49.08875" lon="1.85773">
        <ele>146.9</ele>
        <time>2022-07-31T08:41:04Z</time>
      </trkpt>
      <trkpt lat="49.08878" lon="1.85768">
        <ele>146.9</ele>
        <time>2022-07-31T08:41:09Z</time>
      </trkpt>
      <trkpt lat="49.08884" lon="1.85763">
        <ele>146.9</ele>
        <time>2022-07-31T08:41:14Z</time>
      </trkpt>
      <trkpt lat="49.08892" lon="1.85755">
        <ele>147.1</ele>
        <time>2022-07-31T08:41:20Z</time>
      </trkpt>
      <trkpt lat="49.089" lon="1.85746">
        <ele>147.4</ele>
        <time>2022-07-31T08:41:26Z</time>
      </trkpt>
      <trkpt lat="49.08907" lon="1.85739">
        <ele>147.9</ele>
        <time>2022-07-31T08:41:31Z</time>
      </trkpt>
      <trkpt lat="49.08913" lon="1.85732">
        <ele>148.6</ele>
        <time>2022-07-31T08:41:37Z</time>
      </trkpt>
      <trkpt lat="49.08916" lon="1.85727">
        <ele>149.2</ele>
        <time>2022-07-31T08:41:42Z</time>
      </trkpt>
      <trkpt lat="49.08924" lon="1.85719">
        <ele>149.8</ele>
        <time>2022-07-31T08:41:48Z</time>
      </trkpt>
      <trkpt lat="49.08929" lon="1.85709">
        <ele>150</ele>
        <time>2022-07-31T08:41:54Z</time>
      </trkpt>
      <trkpt lat="49.08936" lon="1.85699">
        <ele>150.1</ele>
        <time>2022-07-31T08:42:00Z</time>
      </trkpt>
      <trkpt lat="49.08941" lon="1.85691">
        <ele>150.1</ele>
        <time>2022-07-31T08:42:06Z</time>
      </trkpt>
      <trkpt lat="49.08946" lon="1.85682">
        <ele>150</ele>
        <time>2022-07-31T08:42:11Z</time>
      </trkpt>
      <trkpt lat="49.0895" lon="1.85674">
        <ele>149.9</ele>
        <time>2022-07-31T08:42:16Z</time>
      </trkpt>
      <trkpt lat="49.08956" lon="1.85666">
        <ele>149.9</ele>
        <time>2022-07-31T08:42:22Z</time>
      </trkpt>
      <trkpt lat="49.08962" lon="1.85658">
        <ele>149.8</ele>
        <time>2022-07-31T08:42:27Z</time>
      </trkpt>
      <trkpt lat="49.08971" lon="1.8565">
        <ele>149.8</ele>
        <time>2022-07-31T08:42:33Z</time>
      </trkpt>
      <trkpt lat="49.08977" lon="1.85643">
        <ele>149.9</ele>
        <time>2022-07-31T08:42:38Z</time>
      </trkpt>
      <trkpt lat="49.08982" lon="1.85633">
        <ele>149.9</ele>
        <time>2022-07-31T08:42:44Z</time>
      </trkpt>
      <trkpt lat="49.08987" lon="1.85624">
        <ele>149.7</ele>
        <time>2022-07-31T08:42:50Z</time>
      </trkpt>
      <trkpt lat="49.08992" lon="1.85617">
        <ele>149.5</ele>
        <time>2022-07-31T08:42:55Z</time>
      </trkpt>
      <trkpt lat="49.08997" lon="1.85611">
        <ele>149.4</ele>
        <time>2022-07-31T08:43:00Z</time>
      </trkpt>
      <trkpt lat="49.09004" lon="1.856">
        <ele>149.5</ele>
        <time>2022-07-31T08:43:06Z</time>
      </trkpt>
      <trkpt lat="49.09008" lon="1.85592">
        <ele>149.6</ele>
        <time>2022-07-31T08:43:12Z</time>
      </trkpt>
      <trkpt lat="49.09013" lon="1.85584">
        <ele>150</ele>
        <time>2022-07-31T08:43:18Z</time>
      </trkpt>
      <trkpt lat="49.09019" lon="1.85575">
        <ele>150.3</ele>
        <time>2022-07-31T08:43:24Z</time>
      </trkpt>
      <trkpt lat="49.09025" lon="1.85566">
        <ele>150.1</ele>
        <time>2022-07-31T08:43:30Z</time>
      </trkpt>
      <trkpt lat="49.09029" lon="1.85557">
        <ele>150</ele>
        <time>2022-07-31T08:43:36Z</time>
      </trkpt>
      <trkpt lat="49.09036" lon="1.85551">
        <ele>150.2</ele>
        <time>2022-07-31T08:43:41Z</time>
      </trkpt>
      <trkpt lat="49.09041" lon="1.85541">
        <ele>150.4</ele>
        <time>2022-07-31T08:43:46Z</time>
      </trkpt>
      <trkpt lat="49.09047" lon="1.85533">
        <ele>150.6</ele>
        <time>2022-07-31T08:43:52Z</time>
      </trkpt>
      <trkpt lat="49.09053" lon="1.85525">
        <ele>150.7</ele>
        <time>2022-07-31T08:43:58Z</time>
      </trkpt>
      <trkpt lat="49.09057" lon="1.85517">
        <ele>150.7</ele>
        <time>2022-07-31T08:44:03Z</time>
      </trkpt>
      <trkpt lat="49.09062" lon="1.85509">
        <ele>150.5</ele>
        <time>2022-07-31T08:44:09Z</time>
      </trkpt>
      <trkpt lat="49.09067" lon="1.85503">
        <ele>150.6</ele>
        <time>2022-07-31T08:44:14Z</time>
      </trkpt>
      <trkpt lat="49.09074" lon="1.85495">
        <ele>150.6</ele>
        <time>2022-07-31T08:44:19Z</time>
      </trkpt>
      <trkpt lat="49.09078" lon="1.85488">
        <ele>150.6</ele>
        <time>2022-07-31T08:44:24Z</time>
      </trkpt>
      <trkpt lat="49.09085" lon="1.8548">
        <ele>150.6</ele>
        <time>2022-07-31T08:44:30Z</time>
      </trkpt>
      <trkpt lat="49.0909" lon="1.85471">
        <ele>150.7</ele>
        <time>2022-07-31T08:44:35Z</time>
      </trkpt>
      <trkpt lat="49.09095" lon="1.85462">
        <ele>151</ele>
        <time>2022-07-31T08:44:40Z</time>
      </trkpt>
      <trkpt lat="49.09099" lon="1.85455">
        <ele>151.4</ele>
        <time>2022-07-31T08:44:45Z</time>
      </trkpt>
      <trkpt lat="49.09104" lon="1.85443">
        <ele>151.8</ele>
        <time>2022-07-31T08:44:51Z</time>
      </trkpt>
      <trkpt lat="49.09108" lon="1.85434">
        <ele>151.9</ele>
        <time>2022-07-31T08:44:57Z</time>
      </trkpt>
      <trkpt lat="49.09112" lon="1.85427">
        <ele>151.8</ele>
        <time>2022-07-31T08:45:02Z</time>
      </trkpt>
      <trkpt lat="49.09115" lon="1.85418">
        <ele>152</ele>
        <time>2022-07-31T08:45:08Z</time>
      </trkpt>
      <trkpt lat="49.0912" lon="1.8541">
        <ele>152.4</ele>
        <time>2022-07-31T08:45:14Z</time>
      </trkpt>
      <trkpt lat="49.09126" lon="1.85399">
        <ele>153</ele>
        <time>2022-07-31T08:45:20Z</time>
      </trkpt>
      <trkpt lat="49.09131" lon="1.85391">
        <ele>153.3</ele>
        <time>2022-07-31T08:45:25Z</time>
      </trkpt>
      <trkpt lat="49.09133" lon="1.85383">
        <ele>153.4</ele>
        <time>2022-07-31T08:45:30Z</time>
      </trkpt>
      <trkpt lat="49.09136" lon="1.85375">
        <ele>153.5</ele>
        <time>2022-07-31T08:45:35Z</time>
      </trkpt>
      <trkpt lat="49.09142" lon="1.85366">
        <ele>153.5</ele>
        <time>2022-07-31T08:45:40Z</time>
      </trkpt>
      <trkpt lat="49.09149" lon="1.85358">
        <ele>153.4</ele>
        <time>2022-07-31T08:45:46Z</time>
      </trkpt>
      <trkpt lat="49.09155" lon="1.85345">
        <ele>153.3</ele>
        <time>2022-07-31T08:45:52Z</time>
      </trkpt>
      <trkpt lat="49.09158" lon="1.85334">
        <ele>153.1</ele>
        <time>2022-07-31T08:45:57Z</time>
      </trkpt>
      <trkpt lat="49.09161" lon="1.85324">
        <ele>152.8</ele>
        <time>2022-07-31T08:46:03Z</time>
      </trkpt>
      <trkpt lat="49.09164" lon="1.85316">
        <ele>152.7</ele>
        <time>2022-07-31T08:46:08Z</time>
      </trkpt>
      <trkpt lat="49.0917" lon="1.85307">
        <ele>152.6</ele>
        <time>2022-07-31T08:46:14Z</time>
      </trkpt>
      <trkpt lat="49.09172" lon="1.85297">
        <ele>152.4</ele>
        <time>2022-07-31T08:46:19Z</time>
      </trkpt>
      <trkpt lat="49.09177" lon="1.85287">
        <ele>152.3</ele>
        <time>2022-07-31T08:46:25Z</time>
      </trkpt>
      <trkpt lat="49.0918" lon="1.85276">
        <ele>152.4</ele>
        <time>2022-07-31T08:46:30Z</time>
      </trkpt>
      <trkpt lat="49.09184" lon="1.85264">
        <ele>152.4</ele>
        <time>2022-07-31T08:46:36Z</time>
      </trkpt>
      <trkpt lat="49.09189" lon="1.85257">
        <ele>152.3</ele>
        <time>2022-07-31T08:46:42Z</time>
      </trkpt>
      <trkpt lat="49.09192" lon="1.85247">
        <ele>152.3</ele>
        <time>2022-07-31T08:46:48Z</time>
      </trkpt>
      <trkpt lat="49.09195" lon="1.85236">
        <ele>152.5</ele>
        <time>2022-07-31T08:46:54Z</time>
      </trkpt>
      <trkpt lat="49.092" lon="1.85226">
        <ele>152.7</ele>
        <time>2022-07-31T08:47:00Z</time>
      </trkpt>
      <trkpt lat="49.09204" lon="1.85216">
        <ele>153.1</ele>
        <time>2022-07-31T08:47:06Z</time>
      </trkpt>
      <trkpt lat="49.09207" lon="1.85207">
        <ele>153.4</ele>
        <time>2022-07-31T08:47:11Z</time>
      </trkpt>
      <trkpt lat="49.09212" lon="1.85196">
        <ele>153.6</ele>
        <time>2022-07-31T08:47:16Z</time>
      </trkpt>
      <trkpt lat="49.09217" lon="1.85188">
        <ele>153.8</ele>
        <time>2022-07-31T08:47:22Z</time>
      </trkpt>
      <trkpt lat="49.09216" lon="1.85187">
        <ele>153.9</ele>
        <time>2022-07-31T08:47:28Z</time>
      </trkpt>
      <trkpt lat="49.09216" lon="1.85188">
        <ele>153.9</ele>
        <time>2022-07-31T08:47:35Z</time>
      </trkpt>
      <trkpt lat="49.09217" lon="1.85187">
        <ele>154.1</ele>
        <time>2022-07-31T08:47:41Z</time>
      </trkpt>
      <trkpt lat="49.09217" lon="1.85187">
        <ele>154.2</ele>
        <time>2022-07-31T08:47:46Z</time>
      </trkpt>
      <trkpt lat="49.09219" lon="1.85184">
        <ele>154.6</ele>
        <time>2022-07-31T08:47:52Z</time>
      </trkpt>
      <trkpt lat="49.0922" lon="1.8518">
        <ele>154.7</ele>
        <time>2022-07-31T08:47:57Z</time>
      </trkpt>
      <trkpt lat="49.09222" lon="1.8517">
        <ele>154.9</ele>
        <time>2022-07-31T08:48:03Z</time>
      </trkpt>
      <trkpt lat="49.09226" lon="1.85162">
        <ele>154.9</ele>
        <time>2022-07-31T08:48:09Z</time>
      </trkpt>
      <trkpt lat="49.09228" lon="1.85155">
        <ele>155</ele>
        <time>2022-07-31T08:48:14Z</time>
      </trkpt>
      <trkpt lat="49.09229" lon="1.85147">
        <ele>155.2</ele>
        <time>2022-07-31T08:48:19Z</time>
      </trkpt>
      <trkpt lat="49.09227" lon="1.85144">
        <ele>155.2</ele>
        <time>2022-07-31T08:48:25Z</time>
      </trkpt>
      <trkpt lat="49.09227" lon="1.85144">
        <ele>155.3</ele>
        <time>2022-07-31T08:48:31Z</time>
      </trkpt>
      <trkpt lat="49.09227" lon="1.85143">
        <ele>155.3</ele>
        <time>2022-07-31T08:48:37Z</time>
      </trkpt>
      <trkpt lat="49.09227" lon="1.85144">
        <ele>155.3</ele>
        <time>2022-07-31T08:48:43Z</time>
      </trkpt>
      <trkpt lat="49.09227" lon="1.85144">
        <ele>155.3</ele>
        <time>2022-07-31T08:48:48Z</time>
      </trkpt>
      <trkpt lat="49.09226" lon="1.85144">
        <ele>155.3</ele>
        <time>2022-07-31T08:48:53Z</time>
      </trkpt>
      <trkpt lat="49.09226" lon="1.85144">
        <ele>155.3</ele>
        <time>2022-07-31T08:48:59Z</time>
      </trkpt>
      <trkpt lat="49.09226" lon="1.85144">
        <ele>155.3</ele>
        <time>2022-07-31T08:49:05Z</time>
      </trkpt>
      <trkpt lat="49.09226" lon="1.85145">
        <ele>155.3</ele>
        <time>2022-07-31T08:49:11Z</time>
      </trkpt>
      <trkpt lat="49.09227" lon="1.85144">
        <ele>155.4</ele>
        <time>2022-07-31T08:49:17Z</time>
      </trkpt>
      <trkpt lat="49.09227" lon="1.85145">
        <ele>155.4</ele>
        <time>2022-07-31T08:49:23Z</time>
      </trkpt>
      <trkpt lat="49.09227" lon="1.85144">
        <ele>155.5</ele>
        <time>2022-07-31T08:49:28Z</time>
      </trkpt>
      <trkpt lat="49.09227" lon="1.85145">
        <ele>155.5</ele>
        <time>2022-07-31T08:49:33Z</time>
      </trkpt>
      <trkpt lat="49.09227" lon="1.85145">
        <ele>155.5</ele>
        <time>2022-07-31T08:49:38Z</time>
      </trkpt>
      <trkpt lat="49.09227" lon="1.85145">
        <ele>155.5</ele>
        <time>2022-07-31T08:49:44Z</time>
      </trkpt>
      <trkpt lat="49.09227" lon="1.85145">
        <ele>155.6</ele>
        <time>2022-07-31T08:49:49Z</time>
      </trkpt>
      <trkpt lat="49.09227" lon="1.85146">
        <ele>155.7</ele>
        <time>2022-07-31T08:49:55Z</time>
      </trkpt>
      <trkpt lat="49.09226" lon="1.85145">
        <ele>155.8</ele>
        <time>2022-07-31T08:50:00Z</time>
      </trkpt>
      <trkpt lat="49.09226" lon="1.85145">
        <ele>155.8</ele>
        <time>2022-07-31T08:50:05Z</time>
      </trkpt>
      <trkpt lat="49.09227" lon="1.85144">
        <ele>155.8</ele>
        <time>2022-07-31T08:50:11Z</time>
      </trkpt>
      <trkpt lat="49.09227" lon="1.85144">
        <ele>155.8</ele>
        <time>2022-07-31T08:50:16Z</time>
      </trkpt>
      <trkpt lat="49.09227" lon="1.85143">
        <ele>155.8</ele>
        <time>2022-07-31T08:50:22Z</time>
      </trkpt>
      <trkpt lat="49.09227" lon="1.85143">
        <ele>155.8</ele>
        <time>2022-07-31T08:50:27Z</time>
      </trkpt>
      <trkpt lat="49.09227" lon="1.85143">
        <ele>155.8</ele>
        <time>2022-07-31T08:50:33Z</time>
      </trkpt>
      <trkpt lat="49.09227" lon="1.85143">
        <ele>155.8</ele>
        <time>2022-07-31T08:50:38Z</time>
      </trkpt>
      <trkpt lat="49.09227" lon="1.85143">
        <ele>155.7</ele>
        <time>2022-07-31T08:50:44Z</time>
      </trkpt>
      <trkpt lat="49.09227" lon="1.85142">
        <ele>155.7</ele>
        <time>2022-07-31T08:50:49Z</time>
      </trkpt>
      <trkpt lat="49.09227" lon="1.85144">
        <ele>155.7</ele>
        <time>2022-07-31T08:50:55Z</time>
      </trkpt>
      <trkpt lat="49.09227" lon="1.85145">
        <ele>155.7</ele>
        <time>2022-07-31T08:51:00Z</time>
      </trkpt>
      <trkpt lat="49.09227" lon="1.85145">
        <ele>155.7</ele>
        <time>2022-07-31T08:51:06Z</time>
      </trkpt>
      <trkpt lat="49.09227" lon="1.85145">
        <ele>155.8</ele>
        <time>2022-07-31T08:51:12Z</time>
      </trkpt>
      <trkpt lat="49.09227" lon="1.85145">
        <ele>155.8</ele>
        <time>2022-07-31T08:51:18Z</time>
      </trkpt>
      <trkpt lat="49.09227" lon="1.85146">
        <ele>155.8</ele>
        <time>2022-07-31T08:51:24Z</time>
      </trkpt>
      <trkpt lat="49.09227" lon="1.85146">
        <ele>155.8</ele>
        <time>2022-07-31T08:51:30Z</time>
      </trkpt>
      <trkpt lat="49.09227" lon="1.85146">
        <ele>155.8</ele>
        <time>2022-07-31T08:51:36Z</time>
      </trkpt>
      <trkpt lat="49.09227" lon="1.85147">
        <ele>155.8</ele>
        <time>2022-07-31T08:51:41Z</time>
      </trkpt>
      <trkpt lat="49.09227" lon="1.85147">
        <ele>155.8</ele>
        <time>2022-07-31T08:51:47Z</time>
      </trkpt>
      <trkpt lat="49.09227" lon="1.85147">
        <ele>155.9</ele>
        <time>2022-07-31T08:51:53Z</time>
      </trkpt>
      <trkpt lat="49.09228" lon="1.85147">
        <ele>155.9</ele>
        <time>2022-07-31T08:51:59Z</time>
      </trkpt>
      <trkpt lat="49.09228" lon="1.85146">
        <ele>155.9</ele>
        <time>2022-07-31T08:52:05Z</time>
      </trkpt>
      <trkpt lat="49.09227" lon="1.85146">
        <ele>155.9</ele>
        <time>2022-07-31T08:52:11Z</time>
      </trkpt>
      <trkpt lat="49.09227" lon="1.85146">
        <ele>155.9</ele>
        <time>2022-07-31T08:52:16Z</time>
      </trkpt>
      <trkpt lat="49.09227" lon="1.85146">
        <ele>155.9</ele>
        <time>2022-07-31T08:52:22Z</time>
      </trkpt>
      <trkpt lat="49.09227" lon="1.85146">
        <ele>155.9</ele>
        <time>2022-07-31T08:52:27Z</time>
      </trkpt>
      <trkpt lat="49.09227" lon="1.85146">
        <ele>155.9</ele>
        <time>2022-07-31T08:52:33Z</time>
      </trkpt>
      <trkpt lat="49.09227" lon="1.85146">
        <ele>156</ele>
        <time>2022-07-31T08:52:39Z</time>
      </trkpt>
      <trkpt lat="49.09227" lon="1.85146">
        <ele>156</ele>
        <time>2022-07-31T08:52:44Z</time>
      </trkpt>
      <trkpt lat="49.09227" lon="1.85145">
        <ele>156.3</ele>
        <time>2022-07-31T08:52:50Z</time>
      </trkpt>
      <trkpt lat="49.09227" lon="1.85145">
        <ele>156.3</ele>
        <time>2022-07-31T08:52:56Z</time>
      </trkpt>
      <trkpt lat="49.09227" lon="1.85145">
        <ele>156.4</ele>
        <time>2022-07-31T08:53:02Z</time>
      </trkpt>
      <trkpt lat="49.09227" lon="1.85145">
        <ele>156.7</ele>
        <time>2022-07-31T08:53:08Z</time>
      </trkpt>
      <trkpt lat="49.09227" lon="1.85144">
        <ele>156.7</ele>
        <time>2022-07-31T08:53:13Z</time>
      </trkpt>
      <trkpt lat="49.09227" lon="1.85145">
        <ele>156.8</ele>
        <time>2022-07-31T08:53:19Z</time>
      </trkpt>
      <trkpt lat="49.09229" lon="1.85144">
        <ele>156.9</ele>
        <time>2022-07-31T08:53:25Z</time>
      </trkpt>
      <trkpt lat="49.09229" lon="1.8514">
        <ele>157.1</ele>
        <time>2022-07-31T08:53:30Z</time>
      </trkpt>
      <trkpt lat="49.09232" lon="1.85127">
        <ele>157.2</ele>
        <time>2022-07-31T08:53:36Z</time>
      </trkpt>
      <trkpt lat="49.09235" lon="1.8512">
        <ele>157.1</ele>
        <time>2022-07-31T08:53:41Z</time>
      </trkpt>
      <trkpt lat="49.09239" lon="1.8511">
        <ele>156.9</ele>
        <time>2022-07-31T08:53:47Z</time>
      </trkpt>
      <trkpt lat="49.09243" lon="1.85103">
        <ele>156.7</ele>
        <time>2022-07-31T08:53:52Z</time>
      </trkpt>
      <trkpt lat="49.09249" lon="1.85094">
        <ele>156.8</ele>
        <time>2022-07-31T08:53:58Z</time>
      </trkpt>
      <trkpt lat="49.09255" lon="1.85088">
        <ele>156.8</ele>
        <time>2022-07-31T08:54:04Z</time>
      </trkpt>
      <trkpt lat="49.09259" lon="1.85081">
        <ele>156.6</ele>
        <time>2022-07-31T08:54:09Z</time>
      </trkpt>
      <trkpt lat="49.09264" lon="1.85074">
        <ele>156.2</ele>
        <time>2022-07-31T08:54:15Z</time>
      </trkpt>
      <trkpt lat="49.09269" lon="1.85062">
        <ele>156.1</ele>
        <time>2022-07-31T08:54:21Z</time>
      </trkpt>
      <trkpt lat="49.09271" lon="1.85053">
        <ele>155.9</ele>
        <time>2022-07-31T08:54:26Z</time>
      </trkpt>
      <trkpt lat="49.09275" lon="1.85044">
        <ele>155.7</ele>
        <time>2022-07-31T08:54:32Z</time>
      </trkpt>
      <trkpt lat="49.09278" lon="1.85036">
        <ele>155.8</ele>
        <time>2022-07-31T08:54:37Z</time>
      </trkpt>
      <trkpt lat="49.09278" lon="1.85029">
        <ele>156</ele>
        <time>2022-07-31T08:54:42Z</time>
      </trkpt>
      <trkpt lat="49.09282" lon="1.85017">
        <ele>156.3</ele>
        <time>2022-07-31T08:54:48Z</time>
      </trkpt>
      <trkpt lat="49.09286" lon="1.85006">
        <ele>156.5</ele>
        <time>2022-07-31T08:54:54Z</time>
      </trkpt>
      <trkpt lat="49.0929" lon="1.84994">
        <ele>156.5</ele>
        <time>2022-07-31T08:55:00Z</time>
      </trkpt>
      <trkpt lat="49.09293" lon="1.84985">
        <ele>156.4</ele>
        <time>2022-07-31T08:55:07Z</time>
      </trkpt>
      <trkpt lat="49.09295" lon="1.84975">
        <ele>156.3</ele>
        <time>2022-07-31T08:55:12Z</time>
      </trkpt>
      <trkpt lat="49.09299" lon="1.84964">
        <ele>156.3</ele>
        <time>2022-07-31T08:55:18Z</time>
      </trkpt>
      <trkpt lat="49.09303" lon="1.84954">
        <ele>156.4</ele>
        <time>2022-07-31T08:55:24Z</time>
      </trkpt>
      <trkpt lat="49.09306" lon="1.84947">
        <ele>156.3</ele>
        <time>2022-07-31T08:55:29Z</time>
      </trkpt>
      <trkpt lat="49.0931" lon="1.84939">
        <ele>156.3</ele>
        <time>2022-07-31T08:55:34Z</time>
      </trkpt>
      <trkpt lat="49.09315" lon="1.84927">
        <ele>156</ele>
        <time>2022-07-31T08:55:40Z</time>
      </trkpt>
      <trkpt lat="49.09318" lon="1.84919">
        <ele>155.9</ele>
        <time>2022-07-31T08:55:45Z</time>
      </trkpt>
      <trkpt lat="49.09323" lon="1.84902">
        <ele>156.1</ele>
        <time>2022-07-31T08:55:51Z</time>
      </trkpt>
      <trkpt lat="49.09327" lon="1.84891">
        <ele>156.2</ele>
        <time>2022-07-31T08:55:56Z</time>
      </trkpt>
      <trkpt lat="49.09329" lon="1.8488">
        <ele>156.4</ele>
        <time>2022-07-31T08:56:02Z</time>
      </trkpt>
      <trkpt lat="49.0933" lon="1.84873">
        <ele>156.4</ele>
        <time>2022-07-31T08:56:07Z</time>
      </trkpt>
      <trkpt lat="49.09332" lon="1.84868">
        <ele>156.5</ele>
        <time>2022-07-31T08:56:12Z</time>
      </trkpt>
      <trkpt lat="49.09336" lon="1.84859">
        <ele>156.5</ele>
        <time>2022-07-31T08:56:18Z</time>
      </trkpt>
      <trkpt lat="49.0934" lon="1.84846">
        <ele>156.8</ele>
        <time>2022-07-31T08:56:24Z</time>
      </trkpt>
      <trkpt lat="49.09345" lon="1.84833">
        <ele>157.4</ele>
        <time>2022-07-31T08:56:29Z</time>
      </trkpt>
      <trkpt lat="49.09348" lon="1.84819">
        <ele>157.8</ele>
        <time>2022-07-31T08:56:35Z</time>
      </trkpt>
      <trkpt lat="49.0935" lon="1.8481">
        <ele>158</ele>
        <time>2022-07-31T08:56:40Z</time>
      </trkpt>
      <trkpt lat="49.09356" lon="1.84798">
        <ele>158.1</ele>
        <time>2022-07-31T08:56:45Z</time>
      </trkpt>
      <trkpt lat="49.09359" lon="1.8479">
        <ele>158.4</ele>
        <time>2022-07-31T08:56:51Z</time>
      </trkpt>
      <trkpt lat="49.09361" lon="1.84782">
        <ele>158.6</ele>
        <time>2022-07-31T08:56:56Z</time>
      </trkpt>
      <trkpt lat="49.09362" lon="1.84775">
        <ele>158.7</ele>
        <time>2022-07-31T08:57:01Z</time>
      </trkpt>
      <trkpt lat="49.09362" lon="1.84766">
        <ele>158.7</ele>
        <time>2022-07-31T08:57:06Z</time>
      </trkpt>
      <trkpt lat="49.09367" lon="1.84751">
        <ele>158.8</ele>
        <time>2022-07-31T08:57:12Z</time>
      </trkpt>
      <trkpt lat="49.09372" lon="1.84734">
        <ele>158.7</ele>
        <time>2022-07-31T08:57:19Z</time>
      </trkpt>
      <trkpt lat="49.09375" lon="1.84721">
        <ele>158.9</ele>
        <time>2022-07-31T08:57:25Z</time>
      </trkpt>
      <trkpt lat="49.09377" lon="1.84709">
        <ele>158.9</ele>
        <time>2022-07-31T08:57:31Z</time>
      </trkpt>
      <trkpt lat="49.09381" lon="1.84697">
        <ele>158.5</ele>
        <time>2022-07-31T08:57:37Z</time>
      </trkpt>
      <trkpt lat="49.09386" lon="1.84684">
        <ele>158.6</ele>
        <time>2022-07-31T08:57:43Z</time>
      </trkpt>
      <trkpt lat="49.09391" lon="1.8467">
        <ele>159.3</ele>
        <time>2022-07-31T08:57:49Z</time>
      </trkpt>
      <trkpt lat="49.09394" lon="1.84659">
        <ele>159.9</ele>
        <time>2022-07-31T08:57:54Z</time>
      </trkpt>
      <trkpt lat="49.09397" lon="1.84647">
        <ele>160.5</ele>
        <time>2022-07-31T08:58:00Z</time>
      </trkpt>
      <trkpt lat="49.09401" lon="1.84637">
        <ele>161.1</ele>
        <time>2022-07-31T08:58:06Z</time>
      </trkpt>
      <trkpt lat="49.09405" lon="1.84628">
        <ele>162</ele>
        <time>2022-07-31T08:58:12Z</time>
      </trkpt>
      <trkpt lat="49.09407" lon="1.84614">
        <ele>163</ele>
        <time>2022-07-31T08:58:18Z</time>
      </trkpt>
      <trkpt lat="49.09413" lon="1.84605">
        <ele>164.1</ele>
        <time>2022-07-31T08:58:24Z</time>
      </trkpt>
      <trkpt lat="49.09416" lon="1.84595">
        <ele>164.7</ele>
        <time>2022-07-31T08:58:29Z</time>
      </trkpt>
      <trkpt lat="49.09419" lon="1.84584">
        <ele>165.1</ele>
        <time>2022-07-31T08:58:34Z</time>
      </trkpt>
      <trkpt lat="49.09423" lon="1.84574">
        <ele>165.5</ele>
        <time>2022-07-31T08:58:40Z</time>
      </trkpt>
      <trkpt lat="49.09428" lon="1.84564">
        <ele>166</ele>
        <time>2022-07-31T08:58:46Z</time>
      </trkpt>
      <trkpt lat="49.09432" lon="1.84555">
        <ele>166.4</ele>
        <time>2022-07-31T08:58:52Z</time>
      </trkpt>
      <trkpt lat="49.09437" lon="1.84545">
        <ele>166.8</ele>
        <time>2022-07-31T08:58:57Z</time>
      </trkpt>
      <trkpt lat="49.09442" lon="1.84534">
        <ele>167.7</ele>
        <time>2022-07-31T08:59:03Z</time>
      </trkpt>
      <trkpt lat="49.0945" lon="1.84526">
        <ele>168.3</ele>
        <time>2022-07-31T08:59:09Z</time>
      </trkpt>
      <trkpt lat="49.09459" lon="1.84519">
        <ele>168.6</ele>
        <time>2022-07-31T08:59:15Z</time>
      </trkpt>
      <trkpt lat="49.09464" lon="1.84511">
        <ele>168.9</ele>
        <time>2022-07-31T08:59:21Z</time>
      </trkpt>
      <trkpt lat="49.09469" lon="1.84506">
        <ele>169.3</ele>
        <time>2022-07-31T08:59:26Z</time>
      </trkpt>
      <trkpt lat="49.09474" lon="1.84499">
        <ele>169.3</ele>
        <time>2022-07-31T08:59:31Z</time>
      </trkpt>
      <trkpt lat="49.0948" lon="1.8449">
        <ele>169.5</ele>
        <time>2022-07-31T08:59:37Z</time>
      </trkpt>
      <trkpt lat="49.09488" lon="1.84479">
        <ele>170</ele>
        <time>2022-07-31T08:59:43Z</time>
      </trkpt>
      <trkpt lat="49.09494" lon="1.84473">
        <ele>170.5</ele>
        <time>2022-07-31T08:59:48Z</time>
      </trkpt>
      <trkpt lat="49.09502" lon="1.84461">
        <ele>170.9</ele>
        <time>2022-07-31T08:59:54Z</time>
      </trkpt>
      <trkpt lat="49.09508" lon="1.84455">
        <ele>171.2</ele>
        <time>2022-07-31T09:00:00Z</time>
      </trkpt>
      <trkpt lat="49.09512" lon="1.84451">
        <ele>171.3</ele>
        <time>2022-07-31T09:00:05Z</time>
      </trkpt>
      <trkpt lat="49.09519" lon="1.84443">
        <ele>171.1</ele>
        <time>2022-07-31T09:00:11Z</time>
      </trkpt>
      <trkpt lat="49.09527" lon="1.84435">
        <ele>170.9</ele>
        <time>2022-07-31T09:00:17Z</time>
      </trkpt>
      <trkpt lat="49.09531" lon="1.84424">
        <ele>171</ele>
        <time>2022-07-31T09:00:23Z</time>
      </trkpt>
      <trkpt lat="49.09535" lon="1.84411">
        <ele>171</ele>
        <time>2022-07-31T09:00:28Z</time>
      </trkpt>
      <trkpt lat="49.0954" lon="1.84399">
        <ele>171.1</ele>
        <time>2022-07-31T09:00:34Z</time>
      </trkpt>
      <trkpt lat="49.09546" lon="1.84388">
        <ele>171.1</ele>
        <time>2022-07-31T09:00:40Z</time>
      </trkpt>
      <trkpt lat="49.09551" lon="1.84376">
        <ele>171.3</ele>
        <time>2022-07-31T09:00:46Z</time>
      </trkpt>
      <trkpt lat="49.09555" lon="1.84368">
        <ele>171.3</ele>
        <time>2022-07-31T09:00:51Z</time>
      </trkpt>
      <trkpt lat="49.09561" lon="1.8436">
        <ele>171</ele>
        <time>2022-07-31T09:00:57Z</time>
      </trkpt>
      <trkpt lat="49.09568" lon="1.8435">
        <ele>170.6</ele>
        <time>2022-07-31T09:01:02Z</time>
      </trkpt>
      <trkpt lat="49.09571" lon="1.84343">
        <ele>170.1</ele>
        <time>2022-07-31T09:01:07Z</time>
      </trkpt>
      <trkpt lat="49.09577" lon="1.84331">
        <ele>169.6</ele>
        <time>2022-07-31T09:01:13Z</time>
      </trkpt>
      <trkpt lat="49.09583" lon="1.84321">
        <ele>169.3</ele>
        <time>2022-07-31T09:01:19Z</time>
      </trkpt>
      <trkpt lat="49.09588" lon="1.84312">
        <ele>169.2</ele>
        <time>2022-07-31T09:01:24Z</time>
      </trkpt>
      <trkpt lat="49.09592" lon="1.84302">
        <ele>169.1</ele>
        <time>2022-07-31T09:01:29Z</time>
      </trkpt>
      <trkpt lat="49.09597" lon="1.84291">
        <ele>168.8</ele>
        <time>2022-07-31T09:01:35Z</time>
      </trkpt>
      <trkpt lat="49.09602" lon="1.84283">
        <ele>168.7</ele>
        <time>2022-07-31T09:01:40Z</time>
      </trkpt>
      <trkpt lat="49.09607" lon="1.84272">
        <ele>168.5</ele>
        <time>2022-07-31T09:01:46Z</time>
      </trkpt>
      <trkpt lat="49.09611" lon="1.84263">
        <ele>168.3</ele>
        <time>2022-07-31T09:01:51Z</time>
      </trkpt>
      <trkpt lat="49.09617" lon="1.84254">
        <ele>167.9</ele>
        <time>2022-07-31T09:01:57Z</time>
      </trkpt>
      <trkpt lat="49.09622" lon="1.84244">
        <ele>167.7</ele>
        <time>2022-07-31T09:02:03Z</time>
      </trkpt>
      <trkpt lat="49.09626" lon="1.84236">
        <ele>167.4</ele>
        <time>2022-07-31T09:02:08Z</time>
      </trkpt>
      <trkpt lat="49.09632" lon="1.84224">
        <ele>167</ele>
        <time>2022-07-31T09:02:14Z</time>
      </trkpt>
      <trkpt lat="49.09636" lon="1.84212">
        <ele>166.6</ele>
        <time>2022-07-31T09:02:20Z</time>
      </trkpt>
      <trkpt lat="49.09641" lon="1.84204">
        <ele>166.3</ele>
        <time>2022-07-31T09:02:26Z</time>
      </trkpt>
      <trkpt lat="49.09646" lon="1.84194">
        <ele>166</ele>
        <time>2022-07-31T09:02:31Z</time>
      </trkpt>
      <trkpt lat="49.0965" lon="1.84187">
        <ele>165.7</ele>
        <time>2022-07-31T09:02:36Z</time>
      </trkpt>
      <trkpt lat="49.09654" lon="1.84179">
        <ele>165.4</ele>
        <time>2022-07-31T09:02:41Z</time>
      </trkpt>
      <trkpt lat="49.0966" lon="1.84167">
        <ele>165.2</ele>
        <time>2022-07-31T09:02:47Z</time>
      </trkpt>
      <trkpt lat="49.09666" lon="1.84158">
        <ele>165</ele>
        <time>2022-07-31T09:02:53Z</time>
      </trkpt>
      <trkpt lat="49.09669" lon="1.84148">
        <ele>164.9</ele>
        <time>2022-07-31T09:02:58Z</time>
      </trkpt>
      <trkpt lat="49.09674" lon="1.84137">
        <ele>165.1</ele>
        <time>2022-07-31T09:03:04Z</time>
      </trkpt>
      <trkpt lat="49.09677" lon="1.84129">
        <ele>165.3</ele>
        <time>2022-07-31T09:03:09Z</time>
      </trkpt>
      <trkpt lat="49.09681" lon="1.84119">
        <ele>165.6</ele>
        <time>2022-07-31T09:03:14Z</time>
      </trkpt>
      <trkpt lat="49.09685" lon="1.84109">
        <ele>166</ele>
        <time>2022-07-31T09:03:20Z</time>
      </trkpt>
      <trkpt lat="49.0969" lon="1.84101">
        <ele>166.4</ele>
        <time>2022-07-31T09:03:25Z</time>
      </trkpt>
      <trkpt lat="49.09695" lon="1.8409">
        <ele>166.7</ele>
        <time>2022-07-31T09:03:30Z</time>
      </trkpt>
      <trkpt lat="49.097" lon="1.84077">
        <ele>166.9</ele>
        <time>2022-07-31T09:03:36Z</time>
      </trkpt>
      <trkpt lat="49.09704" lon="1.84069">
        <ele>167.1</ele>
        <time>2022-07-31T09:03:41Z</time>
      </trkpt>
      <trkpt lat="49.0971" lon="1.8406">
        <ele>167.5</ele>
        <time>2022-07-31T09:03:47Z</time>
      </trkpt>
      <trkpt lat="49.09714" lon="1.84052">
        <ele>167.8</ele>
        <time>2022-07-31T09:03:52Z</time>
      </trkpt>
      <trkpt lat="49.0972" lon="1.84043">
        <ele>168</ele>
        <time>2022-07-31T09:03:57Z</time>
      </trkpt>
      <trkpt lat="49.09724" lon="1.84033">
        <ele>168.3</ele>
        <time>2022-07-31T09:04:03Z</time>
      </trkpt>
      <trkpt lat="49.0973" lon="1.84021">
        <ele>168.5</ele>
        <time>2022-07-31T09:04:09Z</time>
      </trkpt>
      <trkpt lat="49.09737" lon="1.84013">
        <ele>168.8</ele>
        <time>2022-07-31T09:04:15Z</time>
      </trkpt>
      <trkpt lat="49.09742" lon="1.84004">
        <ele>169.2</ele>
        <time>2022-07-31T09:04:20Z</time>
      </trkpt>
      <trkpt lat="49.09747" lon="1.83995">
        <ele>169.5</ele>
        <time>2022-07-31T09:04:26Z</time>
      </trkpt>
      <trkpt lat="49.09752" lon="1.83986">
        <ele>169.6</ele>
        <time>2022-07-31T09:04:31Z</time>
      </trkpt>
      <trkpt lat="49.09756" lon="1.83975">
        <ele>169.7</ele>
        <time>2022-07-31T09:04:37Z</time>
      </trkpt>
      <trkpt lat="49.09763" lon="1.83965">
        <ele>169.9</ele>
        <time>2022-07-31T09:04:43Z</time>
      </trkpt>
      <trkpt lat="49.09768" lon="1.83957">
        <ele>170.1</ele>
        <time>2022-07-31T09:04:49Z</time>
      </trkpt>
      <trkpt lat="49.09773" lon="1.83948">
        <ele>170.2</ele>
        <time>2022-07-31T09:04:54Z</time>
      </trkpt>
      <trkpt lat="49.09779" lon="1.83938">
        <ele>170.2</ele>
        <time>2022-07-31T09:05:00Z</time>
      </trkpt>
      <trkpt lat="49.09784" lon="1.83928">
        <ele>170.4</ele>
        <time>2022-07-31T09:05:06Z</time>
      </trkpt>
      <trkpt lat="49.0979" lon="1.83918">
        <ele>170.5</ele>
        <time>2022-07-31T09:05:12Z</time>
      </trkpt>
      <trkpt lat="49.09796" lon="1.83909">
        <ele>170.5</ele>
        <time>2022-07-31T09:05:18Z</time>
      </trkpt>
      <trkpt lat="49.09801" lon="1.83899">
        <ele>170.5</ele>
        <time>2022-07-31T09:05:24Z</time>
      </trkpt>
      <trkpt lat="49.09805" lon="1.83892">
        <ele>170.4</ele>
        <time>2022-07-31T09:05:29Z</time>
      </trkpt>
      <trkpt lat="49.09811" lon="1.83884">
        <ele>170.3</ele>
        <time>2022-07-31T09:05:35Z</time>
      </trkpt>
      <trkpt lat="49.09817" lon="1.83875">
        <ele>170.2</ele>
        <time>2022-07-31T09:05:40Z</time>
      </trkpt>
      <trkpt lat="49.09823" lon="1.83863">
        <ele>170.1</ele>
        <time>2022-07-31T09:05:46Z</time>
      </trkpt>
      <trkpt lat="49.09827" lon="1.83856">
        <ele>170.1</ele>
        <time>2022-07-31T09:05:51Z</time>
      </trkpt>
      <trkpt lat="49.09833" lon="1.83847">
        <ele>170.1</ele>
        <time>2022-07-31T09:05:56Z</time>
      </trkpt>
      <trkpt lat="49.09839" lon="1.83839">
        <ele>170.2</ele>
        <time>2022-07-31T09:06:01Z</time>
      </trkpt>
      <trkpt lat="49.09845" lon="1.83828">
        <ele>170.8</ele>
        <time>2022-07-31T09:06:07Z</time>
      </trkpt>
      <trkpt lat="49.0985" lon="1.8382">
        <ele>171.2</ele>
        <time>2022-07-31T09:06:12Z</time>
      </trkpt>
      <trkpt lat="49.09856" lon="1.83809">
        <ele>171.8</ele>
        <time>2022-07-31T09:06:18Z</time>
      </trkpt>
      <trkpt lat="49.09861" lon="1.83801">
        <ele>172.2</ele>
        <time>2022-07-31T09:06:24Z</time>
      </trkpt>
      <trkpt lat="49.09865" lon="1.83791">
        <ele>172.4</ele>
        <time>2022-07-31T09:06:29Z</time>
      </trkpt>
      <trkpt lat="49.09871" lon="1.83783">
        <ele>172.6</ele>
        <time>2022-07-31T09:06:35Z</time>
      </trkpt>
      <trkpt lat="49.09876" lon="1.83775">
        <ele>172.9</ele>
        <time>2022-07-31T09:06:40Z</time>
      </trkpt>
      <trkpt lat="49.0988" lon="1.83765">
        <ele>172.9</ele>
        <time>2022-07-31T09:06:46Z</time>
      </trkpt>
      <trkpt lat="49.09883" lon="1.83755">
        <ele>173</ele>
        <time>2022-07-31T09:06:52Z</time>
      </trkpt>
      <trkpt lat="49.0989" lon="1.83745">
        <ele>173.3</ele>
        <time>2022-07-31T09:06:58Z</time>
      </trkpt>
      <trkpt lat="49.09893" lon="1.8374">
        <ele>173.5</ele>
        <time>2022-07-31T09:07:03Z</time>
      </trkpt>
      <trkpt lat="49.09899" lon="1.83727">
        <ele>173.5</ele>
        <time>2022-07-31T09:07:09Z</time>
      </trkpt>
      <trkpt lat="49.09905" lon="1.83717">
        <ele>173.5</ele>
        <time>2022-07-31T09:07:15Z</time>
      </trkpt>
      <trkpt lat="49.09911" lon="1.8371">
        <ele>173.4</ele>
        <time>2022-07-31T09:07:21Z</time>
      </trkpt>
      <trkpt lat="49.09917" lon="1.837">
        <ele>173.2</ele>
        <time>2022-07-31T09:07:26Z</time>
      </trkpt>
      <trkpt lat="49.09922" lon="1.83692">
        <ele>173.1</ele>
        <time>2022-07-31T09:07:31Z</time>
      </trkpt>
      <trkpt lat="49.09926" lon="1.83684">
        <ele>173.1</ele>
        <time>2022-07-31T09:07:36Z</time>
      </trkpt>
      <trkpt lat="49.09932" lon="1.83673">
        <ele>173.3</ele>
        <time>2022-07-31T09:07:42Z</time>
      </trkpt>
      <trkpt lat="49.09935" lon="1.83665">
        <ele>173.4</ele>
        <time>2022-07-31T09:07:47Z</time>
      </trkpt>
      <trkpt lat="49.09941" lon="1.83657">
        <ele>173.4</ele>
        <time>2022-07-31T09:07:53Z</time>
      </trkpt>
      <trkpt lat="49.09948" lon="1.83645">
        <ele>173.3</ele>
        <time>2022-07-31T09:07:58Z</time>
      </trkpt>
      <trkpt lat="49.09954" lon="1.83635">
        <ele>173</ele>
        <time>2022-07-31T09:08:04Z</time>
      </trkpt>
      <trkpt lat="49.09959" lon="1.83628">
        <ele>172.8</ele>
        <time>2022-07-31T09:08:09Z</time>
      </trkpt>
      <trkpt lat="49.09965" lon="1.83618">
        <ele>172.5</ele>
        <time>2022-07-31T09:08:15Z</time>
      </trkpt>
      <trkpt lat="49.0997" lon="1.83609">
        <ele>172</ele>
        <time>2022-07-31T09:08:20Z</time>
      </trkpt>
      <trkpt lat="49.09975" lon="1.83601">
        <ele>171.7</ele>
        <time>2022-07-31T09:08:26Z</time>
      </trkpt>
      <trkpt lat="49.09982" lon="1.83592">
        <ele>171.5</ele>
        <time>2022-07-31T09:08:31Z</time>
      </trkpt>
      <trkpt lat="49.0999" lon="1.83584">
        <ele>171.7</ele>
        <time>2022-07-31T09:08:37Z</time>
      </trkpt>
      <trkpt lat="49.09993" lon="1.83579">
        <ele>172</ele>
        <time>2022-07-31T09:08:42Z</time>
      </trkpt>
      <trkpt lat="49.09997" lon="1.83568">
        <ele>172.2</ele>
        <time>2022-07-31T09:08:48Z</time>
      </trkpt>
      <trkpt lat="49.10002" lon="1.8357">
        <ele>172.2</ele>
        <time>2022-07-31T09:08:54Z</time>
      </trkpt>
      <trkpt lat="49.10009" lon="1.8358">
        <ele>172.2</ele>
        <time>2022-07-31T09:08:59Z</time>
      </trkpt>
      <trkpt lat="49.10017" lon="1.83587">
        <ele>172</ele>
        <time>2022-07-31T09:09:05Z</time>
      </trkpt>
      <trkpt lat="49.10022" lon="1.83591">
        <ele>171.7</ele>
        <time>2022-07-31T09:09:10Z</time>
      </trkpt>
      <trkpt lat="49.10028" lon="1.83594">
        <ele>171.4</ele>
        <time>2022-07-31T09:09:15Z</time>
      </trkpt>
      <trkpt lat="49.10033" lon="1.83603">
        <ele>171.1</ele>
        <time>2022-07-31T09:09:21Z</time>
      </trkpt>
      <trkpt lat="49.10038" lon="1.83608">
        <ele>170.6</ele>
        <time>2022-07-31T09:09:27Z</time>
      </trkpt>
      <trkpt lat="49.10045" lon="1.83616">
        <ele>170.2</ele>
        <time>2022-07-31T09:09:33Z</time>
      </trkpt>
      <trkpt lat="49.10051" lon="1.83619">
        <ele>170.3</ele>
        <time>2022-07-31T09:09:39Z</time>
      </trkpt>
      <trkpt lat="49.10061" lon="1.83626">
        <ele>170.7</ele>
        <time>2022-07-31T09:09:45Z</time>
      </trkpt>
      <trkpt lat="49.10066" lon="1.8363">
        <ele>170.8</ele>
        <time>2022-07-31T09:09:50Z</time>
      </trkpt>
      <trkpt lat="49.10077" lon="1.83637">
        <ele>171</ele>
        <time>2022-07-31T09:09:56Z</time>
      </trkpt>
      <trkpt lat="49.10086" lon="1.8364">
        <ele>171.1</ele>
        <time>2022-07-31T09:10:02Z</time>
      </trkpt>
      <trkpt lat="49.10092" lon="1.83644">
        <ele>170.9</ele>
        <time>2022-07-31T09:10:07Z</time>
      </trkpt>
      <trkpt lat="49.10103" lon="1.83647">
        <ele>170.8</ele>
        <time>2022-07-31T09:10:13Z</time>
      </trkpt>
      <trkpt lat="49.10112" lon="1.83652">
        <ele>170.7</ele>
        <time>2022-07-31T09:10:18Z</time>
      </trkpt>
      <trkpt lat="49.10117" lon="1.83653">
        <ele>170.6</ele>
        <time>2022-07-31T09:10:23Z</time>
      </trkpt>
      <trkpt lat="49.10122" lon="1.83651">
        <ele>170.4</ele>
        <time>2022-07-31T09:10:28Z</time>
      </trkpt>
      <trkpt lat="49.10127" lon="1.8365">
        <ele>170.3</ele>
        <time>2022-07-31T09:10:34Z</time>
      </trkpt>
      <trkpt lat="49.10136" lon="1.83646">
        <ele>170.2</ele>
        <time>2022-07-31T09:10:39Z</time>
      </trkpt>
      <trkpt lat="49.10142" lon="1.83642">
        <ele>170.1</ele>
        <time>2022-07-31T09:10:44Z</time>
      </trkpt>
      <trkpt lat="49.10149" lon="1.83638">
        <ele>170</ele>
        <time>2022-07-31T09:10:49Z</time>
      </trkpt>
      <trkpt lat="49.10157" lon="1.83634">
        <ele>169.5</ele>
        <time>2022-07-31T09:10:55Z</time>
      </trkpt>
      <trkpt lat="49.10165" lon="1.8363">
        <ele>169.2</ele>
        <time>2022-07-31T09:11:01Z</time>
      </trkpt>
      <trkpt lat="49.10173" lon="1.83632">
        <ele>169.1</ele>
        <time>2022-07-31T09:11:06Z</time>
      </trkpt>
      <trkpt lat="49.10182" lon="1.83633">
        <ele>169.3</ele>
        <time>2022-07-31T09:11:12Z</time>
      </trkpt>
      <trkpt lat="49.10186" lon="1.83635">
        <ele>169.5</ele>
        <time>2022-07-31T09:11:17Z</time>
      </trkpt>
      <trkpt lat="49.1019" lon="1.83639">
        <ele>169.7</ele>
        <time>2022-07-31T09:11:22Z</time>
      </trkpt>
      <trkpt lat="49.10196" lon="1.83647">
        <ele>169.7</ele>
        <time>2022-07-31T09:11:28Z</time>
      </trkpt>
      <trkpt lat="49.10201" lon="1.83654">
        <ele>169.7</ele>
        <time>2022-07-31T09:11:34Z</time>
      </trkpt>
      <trkpt lat="49.10207" lon="1.83658">
        <ele>169.9</ele>
        <time>2022-07-31T09:11:39Z</time>
      </trkpt>
      <trkpt lat="49.10212" lon="1.83663">
        <ele>169.9</ele>
        <time>2022-07-31T09:11:44Z</time>
      </trkpt>
      <trkpt lat="49.1022" lon="1.83667">
        <ele>169.6</ele>
        <time>2022-07-31T09:11:50Z</time>
      </trkpt>
      <trkpt lat="49.1023" lon="1.83671">
        <ele>169.3</ele>
        <time>2022-07-31T09:11:56Z</time>
      </trkpt>
      <trkpt lat="49.10242" lon="1.83675">
        <ele>168.7</ele>
        <time>2022-07-31T09:12:02Z</time>
      </trkpt>
      <trkpt lat="49.10249" lon="1.83679">
        <ele>168.4</ele>
        <time>2022-07-31T09:12:07Z</time>
      </trkpt>
      <trkpt lat="49.10255" lon="1.83685">
        <ele>168</ele>
        <time>2022-07-31T09:12:12Z</time>
      </trkpt>
      <trkpt lat="49.10264" lon="1.83689">
        <ele>167.8</ele>
        <time>2022-07-31T09:12:18Z</time>
      </trkpt>
      <trkpt lat="49.1027" lon="1.83693">
        <ele>167.6</ele>
        <time>2022-07-31T09:12:23Z</time>
      </trkpt>
      <trkpt lat="49.10279" lon="1.837">
        <ele>167.4</ele>
        <time>2022-07-31T09:12:29Z</time>
      </trkpt>
      <trkpt lat="49.10285" lon="1.83708">
        <ele>167.3</ele>
        <time>2022-07-31T09:12:35Z</time>
      </trkpt>
      <trkpt lat="49.1029" lon="1.83711">
        <ele>167.3</ele>
        <time>2022-07-31T09:12:40Z</time>
      </trkpt>
      <trkpt lat="49.10296" lon="1.83714">
        <ele>167</ele>
        <time>2022-07-31T09:12:45Z</time>
      </trkpt>
      <trkpt lat="49.10302" lon="1.83714">
        <ele>166.8</ele>
        <time>2022-07-31T09:12:51Z</time>
      </trkpt>
      <trkpt lat="49.10306" lon="1.83716">
        <ele>166.4</ele>
        <time>2022-07-31T09:12:57Z</time>
      </trkpt>
      <trkpt lat="49.10311" lon="1.83718">
        <ele>165.7</ele>
        <time>2022-07-31T09:13:02Z</time>
      </trkpt>
      <trkpt lat="49.1032" lon="1.83719">
        <ele>164.9</ele>
        <time>2022-07-31T09:13:08Z</time>
      </trkpt>
      <trkpt lat="49.10327" lon="1.8372">
        <ele>164.6</ele>
        <time>2022-07-31T09:13:14Z</time>
      </trkpt>
      <trkpt lat="49.10334" lon="1.83719">
        <ele>164.7</ele>
        <time>2022-07-31T09:13:19Z</time>
      </trkpt>
      <trkpt lat="49.10342" lon="1.83727">
        <ele>164.4</ele>
        <time>2022-07-31T09:13:25Z</time>
      </trkpt>
      <trkpt lat="49.10344" lon="1.83739">
        <ele>163.6</ele>
        <time>2022-07-31T09:13:31Z</time>
      </trkpt>
      <trkpt lat="49.1035" lon="1.8375">
        <ele>162.7</ele>
        <time>2022-07-31T09:13:37Z</time>
      </trkpt>
      <trkpt lat="49.10354" lon="1.83756">
        <ele>162.1</ele>
        <time>2022-07-31T09:13:42Z</time>
      </trkpt>
      <trkpt lat="49.10358" lon="1.83763">
        <ele>161.5</ele>
        <time>2022-07-31T09:13:48Z</time>
      </trkpt>
      <trkpt lat="49.10362" lon="1.8377">
        <ele>161.3</ele>
        <time>2022-07-31T09:13:53Z</time>
      </trkpt>
      <trkpt lat="49.10365" lon="1.83776">
        <ele>161</ele>
        <time>2022-07-31T09:13:59Z</time>
      </trkpt>
      <trkpt lat="49.10372" lon="1.83788">
        <ele>160.7</ele>
        <time>2022-07-31T09:14:05Z</time>
      </trkpt>
      <trkpt lat="49.10377" lon="1.83796">
        <ele>160.6</ele>
        <time>2022-07-31T09:14:10Z</time>
      </trkpt>
      <trkpt lat="49.10381" lon="1.83804">
        <ele>160.3</ele>
        <time>2022-07-31T09:14:15Z</time>
      </trkpt>
      <trkpt lat="49.10387" lon="1.83814">
        <ele>160.1</ele>
        <time>2022-07-31T09:14:21Z</time>
      </trkpt>
      <trkpt lat="49.10397" lon="1.83816">
        <ele>159.9</ele>
        <time>2022-07-31T09:14:27Z</time>
      </trkpt>
      <trkpt lat="49.10406" lon="1.83825">
        <ele>159.6</ele>
        <time>2022-07-31T09:14:33Z</time>
      </trkpt>
      <trkpt lat="49.10412" lon="1.8383">
        <ele>159.6</ele>
        <time>2022-07-31T09:14:38Z</time>
      </trkpt>
      <trkpt lat="49.10416" lon="1.83842">
        <ele>159.7</ele>
        <time>2022-07-31T09:14:44Z</time>
      </trkpt>
      <trkpt lat="49.10419" lon="1.83848">
        <ele>159.6</ele>
        <time>2022-07-31T09:14:49Z</time>
      </trkpt>
      <trkpt lat="49.10426" lon="1.83857">
        <ele>159.2</ele>
        <time>2022-07-31T09:14:55Z</time>
      </trkpt>
      <trkpt lat="49.10432" lon="1.83869">
        <ele>159</ele>
        <time>2022-07-31T09:15:01Z</time>
      </trkpt>
      <trkpt lat="49.10437" lon="1.83875">
        <ele>158.9</ele>
        <time>2022-07-31T09:15:06Z</time>
      </trkpt>
      <trkpt lat="49.10444" lon="1.83886">
        <ele>158.8</ele>
        <time>2022-07-31T09:15:12Z</time>
      </trkpt>
      <trkpt lat="49.10448" lon="1.83894">
        <ele>158.5</ele>
        <time>2022-07-31T09:15:18Z</time>
      </trkpt>
      <trkpt lat="49.10452" lon="1.83901">
        <ele>158.3</ele>
        <time>2022-07-31T09:15:23Z</time>
      </trkpt>
      <trkpt lat="49.1046" lon="1.83904">
        <ele>158</ele>
        <time>2022-07-31T09:15:29Z</time>
      </trkpt>
      <trkpt lat="49.10469" lon="1.83903">
        <ele>157.2</ele>
        <time>2022-07-31T09:15:35Z</time>
      </trkpt>
      <trkpt lat="49.10478" lon="1.83903">
        <ele>156.6</ele>
        <time>2022-07-31T09:15:41Z</time>
      </trkpt>
      <trkpt lat="49.10485" lon="1.83903">
        <ele>156.1</ele>
        <time>2022-07-31T09:15:47Z</time>
      </trkpt>
      <trkpt lat="49.10493" lon="1.83903">
        <ele>155.7</ele>
        <time>2022-07-31T09:15:52Z</time>
      </trkpt>
      <trkpt lat="49.10501" lon="1.83905">
        <ele>155.4</ele>
        <time>2022-07-31T09:15:57Z</time>
      </trkpt>
      <trkpt lat="49.10508" lon="1.83907">
        <ele>155.5</ele>
        <time>2022-07-31T09:16:03Z</time>
      </trkpt>
      <trkpt lat="49.10514" lon="1.83907">
        <ele>155.5</ele>
        <time>2022-07-31T09:16:09Z</time>
      </trkpt>
      <trkpt lat="49.10518" lon="1.83906">
        <ele>155.5</ele>
        <time>2022-07-31T09:16:14Z</time>
      </trkpt>
      <trkpt lat="49.10516" lon="1.83902">
        <ele>155.5</ele>
        <time>2022-07-31T09:16:20Z</time>
      </trkpt>
      <trkpt lat="49.10515" lon="1.83901">
        <ele>155.5</ele>
        <time>2022-07-31T09:16:26Z</time>
      </trkpt>
      <trkpt lat="49.10515" lon="1.839">
        <ele>155.4</ele>
        <time>2022-07-31T09:16:31Z</time>
      </trkpt>
      <trkpt lat="49.10514" lon="1.839">
        <ele>155.4</ele>
        <time>2022-07-31T09:16:37Z</time>
      </trkpt>
      <trkpt lat="49.10518" lon="1.83905">
        <ele>155.4</ele>
        <time>2022-07-31T09:16:42Z</time>
      </trkpt>
      <trkpt lat="49.10519" lon="1.83906">
        <ele>155.4</ele>
        <time>2022-07-31T09:16:48Z</time>
      </trkpt>
      <trkpt lat="49.10517" lon="1.83903">
        <ele>155.5</ele>
        <time>2022-07-31T09:16:53Z</time>
      </trkpt>
      <trkpt lat="49.10517" lon="1.83902">
        <ele>156</ele>
        <time>2022-07-31T09:16:59Z</time>
      </trkpt>
      <trkpt lat="49.10515" lon="1.83901">
        <ele>156.2</ele>
        <time>2022-07-31T09:17:05Z</time>
      </trkpt>
      <trkpt lat="49.10515" lon="1.83901">
        <ele>156.2</ele>
        <time>2022-07-31T09:17:11Z</time>
      </trkpt>
      <trkpt lat="49.10515" lon="1.839">
        <ele>156.5</ele>
        <time>2022-07-31T09:17:16Z</time>
      </trkpt>
      <trkpt lat="49.10513" lon="1.83901">
        <ele>157.1</ele>
        <time>2022-07-31T09:17:22Z</time>
      </trkpt>
      <trkpt lat="49.10513" lon="1.83903">
        <ele>157.3</ele>
        <time>2022-07-31T09:17:27Z</time>
      </trkpt>
      <trkpt lat="49.10518" lon="1.83905">
        <ele>157.4</ele>
        <time>2022-07-31T09:17:33Z</time>
      </trkpt>
      <trkpt lat="49.1052" lon="1.83904">
        <ele>157.4</ele>
        <time>2022-07-31T09:17:39Z</time>
      </trkpt>
      <trkpt lat="49.1052" lon="1.83903">
        <ele>157.4</ele>
        <time>2022-07-31T09:17:45Z</time>
      </trkpt>
      <trkpt lat="49.1052" lon="1.83902">
        <ele>157.5</ele>
        <time>2022-07-31T09:17:51Z</time>
      </trkpt>
      <trkpt lat="49.10519" lon="1.83902">
        <ele>157.6</ele>
        <time>2022-07-31T09:17:56Z</time>
      </trkpt>
      <trkpt lat="49.10518" lon="1.83902">
        <ele>157.9</ele>
        <time>2022-07-31T09:18:01Z</time>
      </trkpt>
      <trkpt lat="49.10518" lon="1.83903">
        <ele>158.8</ele>
        <time>2022-07-31T09:18:07Z</time>
      </trkpt>
      <trkpt lat="49.10518" lon="1.83902">
        <ele>159.1</ele>
        <time>2022-07-31T09:18:12Z</time>
      </trkpt>
      <trkpt lat="49.10516" lon="1.83905">
        <ele>159.2</ele>
        <time>2022-07-31T09:18:18Z</time>
      </trkpt>
      <trkpt lat="49.10517" lon="1.83906">
        <ele>159.3</ele>
        <time>2022-07-31T09:18:24Z</time>
      </trkpt>
      <trkpt lat="49.10517" lon="1.83907">
        <ele>159.3</ele>
        <time>2022-07-31T09:18:29Z</time>
      </trkpt>
      <trkpt lat="49.10516" lon="1.83907">
        <ele>159.3</ele>
        <time>2022-07-31T09:18:34Z</time>
      </trkpt>
      <trkpt lat="49.10516" lon="1.83909">
        <ele>159.2</ele>
        <time>2022-07-31T09:18:40Z</time>
      </trkpt>
      <trkpt lat="49.10516" lon="1.83911">
        <ele>159.1</ele>
        <time>2022-07-31T09:18:46Z</time>
      </trkpt>
      <trkpt lat="49.10516" lon="1.8391">
        <ele>159</ele>
        <time>2022-07-31T09:18:51Z</time>
      </trkpt>
      <trkpt lat="49.10517" lon="1.83909">
        <ele>158.9</ele>
        <time>2022-07-31T09:18:56Z</time>
      </trkpt>
      <trkpt lat="49.10517" lon="1.83906">
        <ele>158.7</ele>
        <time>2022-07-31T09:19:02Z</time>
      </trkpt>
      <trkpt lat="49.10517" lon="1.83905">
        <ele>158.5</ele>
        <time>2022-07-31T09:19:08Z</time>
      </trkpt>
      <trkpt lat="49.10518" lon="1.83904">
        <ele>158.5</ele>
        <time>2022-07-31T09:19:13Z</time>
      </trkpt>
      <trkpt lat="49.10518" lon="1.83904">
        <ele>158.4</ele>
        <time>2022-07-31T09:19:19Z</time>
      </trkpt>
      <trkpt lat="49.10517" lon="1.83904">
        <ele>158.4</ele>
        <time>2022-07-31T09:19:25Z</time>
      </trkpt>
      <trkpt lat="49.10518" lon="1.83904">
        <ele>158.2</ele>
        <time>2022-07-31T09:19:30Z</time>
      </trkpt>
      <trkpt lat="49.10517" lon="1.83906">
        <ele>157.9</ele>
        <time>2022-07-31T09:19:36Z</time>
      </trkpt>
      <trkpt lat="49.10517" lon="1.83907">
        <ele>157.9</ele>
        <time>2022-07-31T09:19:42Z</time>
      </trkpt>
      <trkpt lat="49.10517" lon="1.83907">
        <ele>157.8</ele>
        <time>2022-07-31T09:19:48Z</time>
      </trkpt>
      <trkpt lat="49.10517" lon="1.83908">
        <ele>157.8</ele>
        <time>2022-07-31T09:19:54Z</time>
      </trkpt>
      <trkpt lat="49.10518" lon="1.83908">
        <ele>157.8</ele>
        <time>2022-07-31T09:19:59Z</time>
      </trkpt>
      <trkpt lat="49.10519" lon="1.83908">
        <ele>157.8</ele>
        <time>2022-07-31T09:20:04Z</time>
      </trkpt>
      <trkpt lat="49.10517" lon="1.83906">
        <ele>157.9</ele>
        <time>2022-07-31T09:20:10Z</time>
      </trkpt>
      <trkpt lat="49.10513" lon="1.83904">
        <ele>157.9</ele>
        <time>2022-07-31T09:20:16Z</time>
      </trkpt>
      <trkpt lat="49.10512" lon="1.83905">
        <ele>157.9</ele>
        <time>2022-07-31T09:20:21Z</time>
      </trkpt>
      <trkpt lat="49.10511" lon="1.83905">
        <ele>157.9</ele>
        <time>2022-07-31T09:20:27Z</time>
      </trkpt>
      <trkpt lat="49.10511" lon="1.83905">
        <ele>157.9</ele>
        <time>2022-07-31T09:20:32Z</time>
      </trkpt>
      <trkpt lat="49.1051" lon="1.83905">
        <ele>158</ele>
        <time>2022-07-31T09:20:38Z</time>
      </trkpt>
      <trkpt lat="49.10504" lon="1.83903">
        <ele>158</ele>
        <time>2022-07-31T09:20:44Z</time>
      </trkpt>
      <trkpt lat="49.10499" lon="1.83901">
        <ele>157.7</ele>
        <time>2022-07-31T09:20:50Z</time>
      </trkpt>
      <trkpt lat="49.10491" lon="1.83899">
        <ele>157.2</ele>
        <time>2022-07-31T09:20:56Z</time>
      </trkpt>
      <trkpt lat="49.10486" lon="1.83898">
        <ele>156.7</ele>
        <time>2022-07-31T09:21:01Z</time>
      </trkpt>
      <trkpt lat="49.10481" lon="1.83897">
        <ele>156</ele>
        <time>2022-07-31T09:21:07Z</time>
      </trkpt>
      <trkpt lat="49.10474" lon="1.83899">
        <ele>155</ele>
        <time>2022-07-31T09:21:13Z</time>
      </trkpt>
      <trkpt lat="49.10465" lon="1.839">
        <ele>154.3</ele>
        <time>2022-07-31T09:21:19Z</time>
      </trkpt>
      <trkpt lat="49.10459" lon="1.83903">
        <ele>154</ele>
        <time>2022-07-31T09:21:25Z</time>
      </trkpt>
      <trkpt lat="49.10461" lon="1.83914">
        <ele>154</ele>
        <time>2022-07-31T09:21:30Z</time>
      </trkpt>
      <trkpt lat="49.10466" lon="1.83926">
        <ele>153.8</ele>
        <time>2022-07-31T09:21:35Z</time>
      </trkpt>
      <trkpt lat="49.10471" lon="1.83938">
        <ele>153.6</ele>
        <time>2022-07-31T09:21:41Z</time>
      </trkpt>
      <trkpt lat="49.10474" lon="1.83948">
        <ele>153.4</ele>
        <time>2022-07-31T09:21:46Z</time>
      </trkpt>
      <trkpt lat="49.10478" lon="1.83957">
        <ele>153.3</ele>
        <time>2022-07-31T09:21:51Z</time>
      </trkpt>
      <trkpt lat="49.10481" lon="1.83967">
        <ele>153.3</ele>
        <time>2022-07-31T09:21:57Z</time>
      </trkpt>
      <trkpt lat="49.10484" lon="1.83977">
        <ele>153.3</ele>
        <time>2022-07-31T09:22:03Z</time>
      </trkpt>
      <trkpt lat="49.10486" lon="1.83987">
        <ele>153.4</ele>
        <time>2022-07-31T09:22:08Z</time>
      </trkpt>
      <trkpt lat="49.10486" lon="1.84">
        <ele>153.7</ele>
        <time>2022-07-31T09:22:14Z</time>
      </trkpt>
      <trkpt lat="49.10486" lon="1.84015">
        <ele>154.3</ele>
        <time>2022-07-31T09:22:20Z</time>
      </trkpt>
      <trkpt lat="49.10488" lon="1.84023">
        <ele>154.6</ele>
        <time>2022-07-31T09:22:26Z</time>
      </trkpt>
      <trkpt lat="49.1049" lon="1.84036">
        <ele>154.8</ele>
        <time>2022-07-31T09:22:32Z</time>
      </trkpt>
      <trkpt lat="49.10491" lon="1.84046">
        <ele>154.8</ele>
        <time>2022-07-31T09:22:37Z</time>
      </trkpt>
      <trkpt lat="49.10491" lon="1.84061">
        <ele>154.8</ele>
        <time>2022-07-31T09:22:43Z</time>
      </trkpt>
      <trkpt lat="49.10491" lon="1.84072">
        <ele>155</ele>
        <time>2022-07-31T09:22:49Z</time>
      </trkpt>
      <trkpt lat="49.10492" lon="1.84084">
        <ele>155.4</ele>
        <time>2022-07-31T09:22:55Z</time>
      </trkpt>
      <trkpt lat="49.10494" lon="1.84092">
        <ele>155.5</ele>
        <time>2022-07-31T09:23:00Z</time>
      </trkpt>
      <trkpt lat="49.10498" lon="1.84094">
        <ele>155.5</ele>
        <time>2022-07-31T09:23:05Z</time>
      </trkpt>
      <trkpt lat="49.10503" lon="1.84098">
        <ele>155.3</ele>
        <time>2022-07-31T09:23:11Z</time>
      </trkpt>
      <trkpt lat="49.10508" lon="1.84102">
        <ele>154.9</ele>
        <time>2022-07-31T09:23:17Z</time>
      </trkpt>
      <trkpt lat="49.10515" lon="1.84108">
        <ele>154.1</ele>
        <time>2022-07-31T09:23:22Z</time>
      </trkpt>
      <trkpt lat="49.10523" lon="1.84107">
        <ele>153.2</ele>
        <time>2022-07-31T09:23:28Z</time>
      </trkpt>
      <trkpt lat="49.1053" lon="1.84104">
        <ele>152.5</ele>
        <time>2022-07-31T09:23:33Z</time>
      </trkpt>
      <trkpt lat="49.1054" lon="1.84099">
        <ele>151.9</ele>
        <time>2022-07-31T09:23:39Z</time>
      </trkpt>
      <trkpt lat="49.10545" lon="1.84099">
        <ele>151.4</ele>
        <time>2022-07-31T09:23:44Z</time>
      </trkpt>
      <trkpt lat="49.10551" lon="1.84099">
        <ele>150.4</ele>
        <time>2022-07-31T09:23:50Z</time>
      </trkpt>
      <trkpt lat="49.10557" lon="1.84094">
        <ele>149.7</ele>
        <time>2022-07-31T09:23:55Z</time>
      </trkpt>
      <trkpt lat="49.10565" lon="1.84087">
        <ele>149.4</ele>
        <time>2022-07-31T09:24:01Z</time>
      </trkpt>
      <trkpt lat="49.10569" lon="1.84083">
        <ele>149.1</ele>
        <time>2022-07-31T09:24:06Z</time>
      </trkpt>
      <trkpt lat="49.10574" lon="1.84079">
        <ele>148.5</ele>
        <time>2022-07-31T09:24:11Z</time>
      </trkpt>
      <trkpt lat="49.1058" lon="1.84075">
        <ele>147.6</ele>
        <time>2022-07-31T09:24:17Z</time>
      </trkpt>
      <trkpt lat="49.10586" lon="1.84071">
        <ele>146.8</ele>
        <time>2022-07-31T09:24:23Z</time>
      </trkpt>
      <trkpt lat="49.10594" lon="1.84063">
        <ele>146</ele>
        <time>2022-07-31T09:24:29Z</time>
      </trkpt>
      <trkpt lat="49.10604" lon="1.84056">
        <ele>145.1</ele>
        <time>2022-07-31T09:24:35Z</time>
      </trkpt>
      <trkpt lat="49.10609" lon="1.84051">
        <ele>144.6</ele>
        <time>2022-07-31T09:24:40Z</time>
      </trkpt>
      <trkpt lat="49.10616" lon="1.84043">
        <ele>143.5</ele>
        <time>2022-07-31T09:24:46Z</time>
      </trkpt>
      <trkpt lat="49.10622" lon="1.84036">
        <ele>142.4</ele>
        <time>2022-07-31T09:24:51Z</time>
      </trkpt>
      <trkpt lat="49.10627" lon="1.84027">
        <ele>140.8</ele>
        <time>2022-07-31T09:24:57Z</time>
      </trkpt>
      <trkpt lat="49.10628" lon="1.8402">
        <ele>139.7</ele>
        <time>2022-07-31T09:25:02Z</time>
      </trkpt>
      <trkpt lat="49.10635" lon="1.84015">
        <ele>139</ele>
        <time>2022-07-31T09:25:07Z</time>
      </trkpt>
      <trkpt lat="49.10643" lon="1.84008">
        <ele>138.7</ele>
        <time>2022-07-31T09:25:13Z</time>
      </trkpt>
      <trkpt lat="49.10644" lon="1.84002">
        <ele>138.4</ele>
        <time>2022-07-31T09:25:18Z</time>
      </trkpt>
      <trkpt lat="49.10641" lon="1.83994">
        <ele>138.1</ele>
        <time>2022-07-31T09:25:24Z</time>
      </trkpt>
      <trkpt lat="49.1064" lon="1.83989">
        <ele>137.8</ele>
        <time>2022-07-31T09:25:30Z</time>
      </trkpt>
      <trkpt lat="49.10639" lon="1.83982">
        <ele>137.7</ele>
        <time>2022-07-31T09:25:36Z</time>
      </trkpt>
      <trkpt lat="49.10639" lon="1.83972">
        <ele>137.7</ele>
        <time>2022-07-31T09:25:41Z</time>
      </trkpt>
      <trkpt lat="49.10638" lon="1.83958">
        <ele>138.2</ele>
        <time>2022-07-31T09:25:47Z</time>
      </trkpt>
      <trkpt lat="49.10638" lon="1.83946">
        <ele>138.9</ele>
        <time>2022-07-31T09:25:52Z</time>
      </trkpt>
      <trkpt lat="49.10638" lon="1.83934">
        <ele>139.7</ele>
        <time>2022-07-31T09:25:58Z</time>
      </trkpt>
      <trkpt lat="49.1064" lon="1.83923">
        <ele>140.9</ele>
        <time>2022-07-31T09:26:04Z</time>
      </trkpt>
      <trkpt lat="49.10643" lon="1.83915">
        <ele>141.8</ele>
        <time>2022-07-31T09:26:10Z</time>
      </trkpt>
      <trkpt lat="49.10644" lon="1.83908">
        <ele>142.7</ele>
        <time>2022-07-31T09:26:15Z</time>
      </trkpt>
      <trkpt lat="49.10648" lon="1.83904">
        <ele>144</ele>
        <time>2022-07-31T09:26:20Z</time>
      </trkpt>
      <trkpt lat="49.10655" lon="1.83896">
        <ele>145.6</ele>
        <time>2022-07-31T09:26:26Z</time>
      </trkpt>
      <trkpt lat="49.1066" lon="1.83889">
        <ele>147.3</ele>
        <time>2022-07-31T09:26:32Z</time>
      </trkpt>
      <trkpt lat="49.10665" lon="1.83884">
        <ele>148.9</ele>
        <time>2022-07-31T09:26:38Z</time>
      </trkpt>
      <trkpt lat="49.10668" lon="1.83883">
        <ele>150.1</ele>
        <time>2022-07-31T09:26:43Z</time>
      </trkpt>
      <trkpt lat="49.10672" lon="1.83883">
        <ele>151.5</ele>
        <time>2022-07-31T09:26:49Z</time>
      </trkpt>
      <trkpt lat="49.10677" lon="1.83885">
        <ele>152.6</ele>
        <time>2022-07-31T09:26:55Z</time>
      </trkpt>
      <trkpt lat="49.10683" lon="1.83885">
        <ele>153.6</ele>
        <time>2022-07-31T09:27:01Z</time>
      </trkpt>
      <trkpt lat="49.1069" lon="1.83887">
        <ele>154.6</ele>
        <time>2022-07-31T09:27:07Z</time>
      </trkpt>
      <trkpt lat="49.10696" lon="1.83887">
        <ele>155.2</ele>
        <time>2022-07-31T09:27:12Z</time>
      </trkpt>
      <trkpt lat="49.10703" lon="1.83887">
        <ele>155.9</ele>
        <time>2022-07-31T09:27:18Z</time>
      </trkpt>
      <trkpt lat="49.10709" lon="1.83889">
        <ele>156.4</ele>
        <time>2022-07-31T09:27:23Z</time>
      </trkpt>
      <trkpt lat="49.10716" lon="1.8389">
        <ele>156.9</ele>
        <time>2022-07-31T09:27:29Z</time>
      </trkpt>
      <trkpt lat="49.10721" lon="1.83892">
        <ele>157.4</ele>
        <time>2022-07-31T09:27:34Z</time>
      </trkpt>
      <trkpt lat="49.10728" lon="1.83893">
        <ele>158.3</ele>
        <time>2022-07-31T09:27:40Z</time>
      </trkpt>
      <trkpt lat="49.10734" lon="1.83894">
        <ele>158.9</ele>
        <time>2022-07-31T09:27:45Z</time>
      </trkpt>
      <trkpt lat="49.10739" lon="1.83894">
        <ele>159.6</ele>
        <time>2022-07-31T09:27:50Z</time>
      </trkpt>
      <trkpt lat="49.10746" lon="1.83894">
        <ele>160.5</ele>
        <time>2022-07-31T09:27:56Z</time>
      </trkpt>
      <trkpt lat="49.10752" lon="1.83894">
        <ele>161.2</ele>
        <time>2022-07-31T09:28:02Z</time>
      </trkpt>
      <trkpt lat="49.10759" lon="1.83894">
        <ele>162.1</ele>
        <time>2022-07-31T09:28:08Z</time>
      </trkpt>
      <trkpt lat="49.10766" lon="1.83893">
        <ele>162.9</ele>
        <time>2022-07-31T09:28:14Z</time>
      </trkpt>
      <trkpt lat="49.10772" lon="1.83893">
        <ele>163.5</ele>
        <time>2022-07-31T09:28:19Z</time>
      </trkpt>
      <trkpt lat="49.10778" lon="1.83894">
        <ele>164.1</ele>
        <time>2022-07-31T09:28:25Z</time>
      </trkpt>
      <trkpt lat="49.10784" lon="1.83896">
        <ele>164.7</ele>
        <time>2022-07-31T09:28:30Z</time>
      </trkpt>
      <trkpt lat="49.10791" lon="1.83898">
        <ele>165.2</ele>
        <time>2022-07-31T09:28:36Z</time>
      </trkpt>
      <trkpt lat="49.10797" lon="1.839">
        <ele>165.6</ele>
        <time>2022-07-31T09:28:41Z</time>
      </trkpt>
      <trkpt lat="49.10803" lon="1.83899">
        <ele>166</ele>
        <time>2022-07-31T09:28:46Z</time>
      </trkpt>
      <trkpt lat="49.1081" lon="1.83895">
        <ele>166.4</ele>
        <time>2022-07-31T09:28:52Z</time>
      </trkpt>
      <trkpt lat="49.10814" lon="1.83893">
        <ele>166.9</ele>
        <time>2022-07-31T09:28:57Z</time>
      </trkpt>
      <trkpt lat="49.10819" lon="1.83894">
        <ele>167.4</ele>
        <time>2022-07-31T09:29:03Z</time>
      </trkpt>
      <trkpt lat="49.10825" lon="1.83892">
        <ele>167.8</ele>
        <time>2022-07-31T09:29:09Z</time>
      </trkpt>
      <trkpt lat="49.10834" lon="1.83887">
        <ele>168.1</ele>
        <time>2022-07-31T09:29:15Z</time>
      </trkpt>
      <trkpt lat="49.10841" lon="1.83884">
        <ele>168.3</ele>
        <time>2022-07-31T09:29:21Z</time>
      </trkpt>
      <trkpt lat="49.10846" lon="1.83881">
        <ele>168.4</ele>
        <time>2022-07-31T09:29:26Z</time>
      </trkpt>
      <trkpt lat="49.10852" lon="1.83875">
        <ele>168.7</ele>
        <time>2022-07-31T09:29:32Z</time>
      </trkpt>
      <trkpt lat="49.1086" lon="1.83869">
        <ele>168.9</ele>
        <time>2022-07-31T09:29:38Z</time>
      </trkpt>
      <trkpt lat="49.10867" lon="1.83866">
        <ele>169.2</ele>
        <time>2022-07-31T09:29:44Z</time>
      </trkpt>
      <trkpt lat="49.10875" lon="1.83862">
        <ele>169.5</ele>
        <time>2022-07-31T09:29:50Z</time>
      </trkpt>
      <trkpt lat="49.10882" lon="1.83859">
        <ele>169.9</ele>
        <time>2022-07-31T09:29:56Z</time>
      </trkpt>
      <trkpt lat="49.10889" lon="1.83855">
        <ele>170.3</ele>
        <time>2022-07-31T09:30:02Z</time>
      </trkpt>
      <trkpt lat="49.10895" lon="1.83849">
        <ele>170.9</ele>
        <time>2022-07-31T09:30:08Z</time>
      </trkpt>
      <trkpt lat="49.10901" lon="1.83845">
        <ele>171.5</ele>
        <time>2022-07-31T09:30:13Z</time>
      </trkpt>
      <trkpt lat="49.10906" lon="1.8384">
        <ele>172</ele>
        <time>2022-07-31T09:30:18Z</time>
      </trkpt>
      <trkpt lat="49.10913" lon="1.83836">
        <ele>172.2</ele>
        <time>2022-07-31T09:30:23Z</time>
      </trkpt>
      <trkpt lat="49.10919" lon="1.83832">
        <ele>172.5</ele>
        <time>2022-07-31T09:30:29Z</time>
      </trkpt>
      <trkpt lat="49.10925" lon="1.83828">
        <ele>172.8</ele>
        <time>2022-07-31T09:30:34Z</time>
      </trkpt>
      <trkpt lat="49.1093" lon="1.83822">
        <ele>172.9</ele>
        <time>2022-07-31T09:30:39Z</time>
      </trkpt>
      <trkpt lat="49.10936" lon="1.83816">
        <ele>173.1</ele>
        <time>2022-07-31T09:30:45Z</time>
      </trkpt>
      <trkpt lat="49.10942" lon="1.8381">
        <ele>173.5</ele>
        <time>2022-07-31T09:30:50Z</time>
      </trkpt>
      <trkpt lat="49.10947" lon="1.83804">
        <ele>174.1</ele>
        <time>2022-07-31T09:30:56Z</time>
      </trkpt>
      <trkpt lat="49.10952" lon="1.83798">
        <ele>174.7</ele>
        <time>2022-07-31T09:31:01Z</time>
      </trkpt>
      <trkpt lat="49.10958" lon="1.83794">
        <ele>175.3</ele>
        <time>2022-07-31T09:31:07Z</time>
      </trkpt>
      <trkpt lat="49.10964" lon="1.83789">
        <ele>175.9</ele>
        <time>2022-07-31T09:31:12Z</time>
      </trkpt>
      <trkpt lat="49.10969" lon="1.83783">
        <ele>176.7</ele>
        <time>2022-07-31T09:31:17Z</time>
      </trkpt>
      <trkpt lat="49.10974" lon="1.83776">
        <ele>177.3</ele>
        <time>2022-07-31T09:31:22Z</time>
      </trkpt>
      <trkpt lat="49.10979" lon="1.8377">
        <ele>177.9</ele>
        <time>2022-07-31T09:31:27Z</time>
      </trkpt>
      <trkpt lat="49.10985" lon="1.83763">
        <ele>178.6</ele>
        <time>2022-07-31T09:31:33Z</time>
      </trkpt>
      <trkpt lat="49.10991" lon="1.83756">
        <ele>179.1</ele>
        <time>2022-07-31T09:31:38Z</time>
      </trkpt>
      <trkpt lat="49.10998" lon="1.83746">
        <ele>179.5</ele>
        <time>2022-07-31T09:31:44Z</time>
      </trkpt>
      <trkpt lat="49.11001" lon="1.83738">
        <ele>179.9</ele>
        <time>2022-07-31T09:31:49Z</time>
      </trkpt>
      <trkpt lat="49.11006" lon="1.83731">
        <ele>180.3</ele>
        <time>2022-07-31T09:31:54Z</time>
      </trkpt>
      <trkpt lat="49.11009" lon="1.83722">
        <ele>180.7</ele>
        <time>2022-07-31T09:31:59Z</time>
      </trkpt>
      <trkpt lat="49.11014" lon="1.83713">
        <ele>181.4</ele>
        <time>2022-07-31T09:32:04Z</time>
      </trkpt>
      <trkpt lat="49.11019" lon="1.83703">
        <ele>182.3</ele>
        <time>2022-07-31T09:32:10Z</time>
      </trkpt>
      <trkpt lat="49.11023" lon="1.83697">
        <ele>182.9</ele>
        <time>2022-07-31T09:32:15Z</time>
      </trkpt>
      <trkpt lat="49.11029" lon="1.8369">
        <ele>183.5</ele>
        <time>2022-07-31T09:32:21Z</time>
      </trkpt>
      <trkpt lat="49.11033" lon="1.83681">
        <ele>183.8</ele>
        <time>2022-07-31T09:32:26Z</time>
      </trkpt>
      <trkpt lat="49.11038" lon="1.83669">
        <ele>184.1</ele>
        <time>2022-07-31T09:32:32Z</time>
      </trkpt>
      <trkpt lat="49.11043" lon="1.83659">
        <ele>184.3</ele>
        <time>2022-07-31T09:32:37Z</time>
      </trkpt>
      <trkpt lat="49.11046" lon="1.8365">
        <ele>184.6</ele>
        <time>2022-07-31T09:32:43Z</time>
      </trkpt>
      <trkpt lat="49.11052" lon="1.8364">
        <ele>184.9</ele>
        <time>2022-07-31T09:32:49Z</time>
      </trkpt>
      <trkpt lat="49.1106" lon="1.83629">
        <ele>185.1</ele>
        <time>2022-07-31T09:32:55Z</time>
      </trkpt>
      <trkpt lat="49.11066" lon="1.8362">
        <ele>185.2</ele>
        <time>2022-07-31T09:33:00Z</time>
      </trkpt>
      <trkpt lat="49.1107" lon="1.83613">
        <ele>185.1</ele>
        <time>2022-07-31T09:33:06Z</time>
      </trkpt>
      <trkpt lat="49.11075" lon="1.83604">
        <ele>185</ele>
        <time>2022-07-31T09:33:11Z</time>
      </trkpt>
      <trkpt lat="49.1108" lon="1.83594">
        <ele>185.2</ele>
        <time>2022-07-31T09:33:16Z</time>
      </trkpt>
      <trkpt lat="49.11085" lon="1.83587">
        <ele>185.4</ele>
        <time>2022-07-31T09:33:21Z</time>
      </trkpt>
      <trkpt lat="49.11091" lon="1.83576">
        <ele>185.4</ele>
        <time>2022-07-31T09:33:27Z</time>
      </trkpt>
      <trkpt lat="49.11095" lon="1.8357">
        <ele>185.3</ele>
        <time>2022-07-31T09:33:32Z</time>
      </trkpt>
      <trkpt lat="49.11099" lon="1.83561">
        <ele>184.9</ele>
        <time>2022-07-31T09:33:37Z</time>
      </trkpt>
      <trkpt lat="49.11105" lon="1.83552">
        <ele>184.9</ele>
        <time>2022-07-31T09:33:42Z</time>
      </trkpt>
      <trkpt lat="49.1111" lon="1.83544">
        <ele>185.1</ele>
        <time>2022-07-31T09:33:48Z</time>
      </trkpt>
      <trkpt lat="49.11115" lon="1.83536">
        <ele>185.3</ele>
        <time>2022-07-31T09:33:53Z</time>
      </trkpt>
      <trkpt lat="49.11121" lon="1.83525">
        <ele>185.7</ele>
        <time>2022-07-31T09:33:59Z</time>
      </trkpt>
      <trkpt lat="49.11125" lon="1.83518">
        <ele>185.9</ele>
        <time>2022-07-31T09:34:04Z</time>
      </trkpt>
      <trkpt lat="49.11131" lon="1.8351">
        <ele>186.2</ele>
        <time>2022-07-31T09:34:10Z</time>
      </trkpt>
      <trkpt lat="49.11137" lon="1.83502">
        <ele>186.4</ele>
        <time>2022-07-31T09:34:15Z</time>
      </trkpt>
      <trkpt lat="49.11143" lon="1.83495">
        <ele>186.6</ele>
        <time>2022-07-31T09:34:21Z</time>
      </trkpt>
      <trkpt lat="49.1115" lon="1.83486">
        <ele>186.6</ele>
        <time>2022-07-31T09:34:27Z</time>
      </trkpt>
      <trkpt lat="49.11155" lon="1.83479">
        <ele>186.6</ele>
        <time>2022-07-31T09:34:33Z</time>
      </trkpt>
      <trkpt lat="49.11161" lon="1.8347">
        <ele>186.6</ele>
        <time>2022-07-31T09:34:38Z</time>
      </trkpt>
      <trkpt lat="49.11168" lon="1.8346">
        <ele>186.6</ele>
        <time>2022-07-31T09:34:44Z</time>
      </trkpt>
      <trkpt lat="49.11176" lon="1.83451">
        <ele>186.6</ele>
        <time>2022-07-31T09:34:50Z</time>
      </trkpt>
      <trkpt lat="49.1118" lon="1.83444">
        <ele>186.7</ele>
        <time>2022-07-31T09:34:56Z</time>
      </trkpt>
      <trkpt lat="49.11183" lon="1.83438">
        <ele>187</ele>
        <time>2022-07-31T09:35:01Z</time>
      </trkpt>
      <trkpt lat="49.1119" lon="1.83431">
        <ele>187.2</ele>
        <time>2022-07-31T09:35:07Z</time>
      </trkpt>
      <trkpt lat="49.11197" lon="1.83426">
        <ele>187.2</ele>
        <time>2022-07-31T09:35:12Z</time>
      </trkpt>
      <trkpt lat="49.11206" lon="1.83414">
        <ele>187.4</ele>
        <time>2022-07-31T09:35:18Z</time>
      </trkpt>
      <trkpt lat="49.11212" lon="1.83407">
        <ele>187.9</ele>
        <time>2022-07-31T09:35:23Z</time>
      </trkpt>
      <trkpt lat="49.11218" lon="1.83399">
        <ele>188.4</ele>
        <time>2022-07-31T09:35:29Z</time>
      </trkpt>
      <trkpt lat="49.11223" lon="1.83392">
        <ele>188.7</ele>
        <time>2022-07-31T09:35:35Z</time>
      </trkpt>
      <trkpt lat="49.11226" lon="1.83386">
        <ele>188.9</ele>
        <time>2022-07-31T09:35:40Z</time>
      </trkpt>
      <trkpt lat="49.11228" lon="1.83388">
        <ele>189</ele>
        <time>2022-07-31T09:35:45Z</time>
      </trkpt>
      <trkpt lat="49.11234" lon="1.83399">
        <ele>189.2</ele>
        <time>2022-07-31T09:35:51Z</time>
      </trkpt>
      <trkpt lat="49.1124" lon="1.83406">
        <ele>189.3</ele>
        <time>2022-07-31T09:35:57Z</time>
      </trkpt>
      <trkpt lat="49.11244" lon="1.83411">
        <ele>189.4</ele>
        <time>2022-07-31T09:36:02Z</time>
      </trkpt>
      <trkpt lat="49.11249" lon="1.83417">
        <ele>189.5</ele>
        <time>2022-07-31T09:36:07Z</time>
      </trkpt>
      <trkpt lat="49.11255" lon="1.83427">
        <ele>189.6</ele>
        <time>2022-07-31T09:36:13Z</time>
      </trkpt>
      <trkpt lat="49.1126" lon="1.83435">
        <ele>189.6</ele>
        <time>2022-07-31T09:36:18Z</time>
      </trkpt>
      <trkpt lat="49.11266" lon="1.83441">
        <ele>189.6</ele>
        <time>2022-07-31T09:36:24Z</time>
      </trkpt>
      <trkpt lat="49.1127" lon="1.83448">
        <ele>189.5</ele>
        <time>2022-07-31T09:36:29Z</time>
      </trkpt>
      <trkpt lat="49.11274" lon="1.83457">
        <ele>189.2</ele>
        <time>2022-07-31T09:36:35Z</time>
      </trkpt>
      <trkpt lat="49.11276" lon="1.83461">
        <ele>188.8</ele>
        <time>2022-07-31T09:36:41Z</time>
      </trkpt>
      <trkpt lat="49.1128" lon="1.83467">
        <ele>188.9</ele>
        <time>2022-07-31T09:36:47Z</time>
      </trkpt>
      <trkpt lat="49.11285" lon="1.83476">
        <ele>188.9</ele>
        <time>2022-07-31T09:36:53Z</time>
      </trkpt>
      <trkpt lat="49.11291" lon="1.83482">
        <ele>189</ele>
        <time>2022-07-31T09:36:58Z</time>
      </trkpt>
      <trkpt lat="49.11298" lon="1.83483">
        <ele>189.1</ele>
        <time>2022-07-31T09:37:03Z</time>
      </trkpt>
      <trkpt lat="49.11307" lon="1.83486">
        <ele>189.1</ele>
        <time>2022-07-31T09:37:09Z</time>
      </trkpt>
      <trkpt lat="49.11312" lon="1.83488">
        <ele>189.3</ele>
        <time>2022-07-31T09:37:14Z</time>
      </trkpt>
      <trkpt lat="49.11319" lon="1.83493">
        <ele>189.9</ele>
        <time>2022-07-31T09:37:20Z</time>
      </trkpt>
      <trkpt lat="49.11328" lon="1.83499">
        <ele>190.6</ele>
        <time>2022-07-31T09:37:26Z</time>
      </trkpt>
      <trkpt lat="49.11332" lon="1.83504">
        <ele>191.1</ele>
        <time>2022-07-31T09:37:31Z</time>
      </trkpt>
      <trkpt lat="49.11337" lon="1.83509">
        <ele>191.5</ele>
        <time>2022-07-31T09:37:37Z</time>
      </trkpt>
      <trkpt lat="49.11346" lon="1.83513">
        <ele>191.4</ele>
        <time>2022-07-31T09:37:43Z</time>
      </trkpt>
      <trkpt lat="49.11352" lon="1.83516">
        <ele>191.3</ele>
        <time>2022-07-31T09:37:49Z</time>
      </trkpt>
      <trkpt lat="49.11361" lon="1.83516">
        <ele>191.1</ele>
        <time>2022-07-31T09:37:54Z</time>
      </trkpt>
      <trkpt lat="49.11369" lon="1.83517">
        <ele>190.9</ele>
        <time>2022-07-31T09:37:59Z</time>
      </trkpt>
      <trkpt lat="49.11375" lon="1.83522">
        <ele>190.9</ele>
        <time>2022-07-31T09:38:04Z</time>
      </trkpt>
      <trkpt lat="49.11383" lon="1.83525">
        <ele>190.7</ele>
        <time>2022-07-31T09:38:10Z</time>
      </trkpt>
      <trkpt lat="49.11389" lon="1.83525">
        <ele>190.7</ele>
        <time>2022-07-31T09:38:15Z</time>
      </trkpt>
      <trkpt lat="49.11398" lon="1.83526">
        <ele>190.9</ele>
        <time>2022-07-31T09:38:21Z</time>
      </trkpt>
      <trkpt lat="49.11404" lon="1.83526">
        <ele>191.2</ele>
        <time>2022-07-31T09:38:27Z</time>
      </trkpt>
      <trkpt lat="49.11408" lon="1.83527">
        <ele>191.1</ele>
        <time>2022-07-31T09:38:32Z</time>
      </trkpt>
      <trkpt lat="49.11413" lon="1.8353">
        <ele>190.6</ele>
        <time>2022-07-31T09:38:38Z</time>
      </trkpt>
      <trkpt lat="49.11418" lon="1.83535">
        <ele>190.5</ele>
        <time>2022-07-31T09:38:44Z</time>
      </trkpt>
      <trkpt lat="49.11423" lon="1.8354">
        <ele>190.5</ele>
        <time>2022-07-31T09:38:50Z</time>
      </trkpt>
      <trkpt lat="49.11428" lon="1.83544">
        <ele>190.4</ele>
        <time>2022-07-31T09:38:56Z</time>
      </trkpt>
      <trkpt lat="49.11434" lon="1.83544">
        <ele>190.3</ele>
        <time>2022-07-31T09:39:01Z</time>
      </trkpt>
      <trkpt lat="49.11438" lon="1.83544">
        <ele>190.5</ele>
        <time>2022-07-31T09:39:07Z</time>
      </trkpt>
      <trkpt lat="49.11441" lon="1.83541">
        <ele>190.3</ele>
        <time>2022-07-31T09:39:12Z</time>
      </trkpt>
      <trkpt lat="49.11442" lon="1.83538">
        <ele>189.5</ele>
        <time>2022-07-31T09:39:18Z</time>
      </trkpt>
      <trkpt lat="49.11447" lon="1.83532">
        <ele>189</ele>
        <time>2022-07-31T09:39:23Z</time>
      </trkpt>
      <trkpt lat="49.11453" lon="1.83524">
        <ele>189</ele>
        <time>2022-07-31T09:39:28Z</time>
      </trkpt>
      <trkpt lat="49.11462" lon="1.83514">
        <ele>189.1</ele>
        <time>2022-07-31T09:39:34Z</time>
      </trkpt>
      <trkpt lat="49.11466" lon="1.83508">
        <ele>189.3</ele>
        <time>2022-07-31T09:39:39Z</time>
      </trkpt>
      <trkpt lat="49.11471" lon="1.83494">
        <ele>189.2</ele>
        <time>2022-07-31T09:39:45Z</time>
      </trkpt>
      <trkpt lat="49.11474" lon="1.83483">
        <ele>189.2</ele>
        <time>2022-07-31T09:39:51Z</time>
      </trkpt>
      <trkpt lat="49.11479" lon="1.83474">
        <ele>189.3</ele>
        <time>2022-07-31T09:39:56Z</time>
      </trkpt>
      <trkpt lat="49.11483" lon="1.8347">
        <ele>189.4</ele>
        <time>2022-07-31T09:40:01Z</time>
      </trkpt>
      <trkpt lat="49.11488" lon="1.83464">
        <ele>189.8</ele>
        <time>2022-07-31T09:40:06Z</time>
      </trkpt>
      <trkpt lat="49.11493" lon="1.83461">
        <ele>189.9</ele>
        <time>2022-07-31T09:40:12Z</time>
      </trkpt>
      <trkpt lat="49.11496" lon="1.83452">
        <ele>189.8</ele>
        <time>2022-07-31T09:40:17Z</time>
      </trkpt>
      <trkpt lat="49.11501" lon="1.83446">
        <ele>189.5</ele>
        <time>2022-07-31T09:40:23Z</time>
      </trkpt>
      <trkpt lat="49.11505" lon="1.83439">
        <ele>188.9</ele>
        <time>2022-07-31T09:40:29Z</time>
      </trkpt>
      <trkpt lat="49.11508" lon="1.83432">
        <ele>188.7</ele>
        <time>2022-07-31T09:40:34Z</time>
      </trkpt>
      <trkpt lat="49.11513" lon="1.83422">
        <ele>188.5</ele>
        <time>2022-07-31T09:40:39Z</time>
      </trkpt>
      <trkpt lat="49.11519" lon="1.83412">
        <ele>188.3</ele>
        <time>2022-07-31T09:40:45Z</time>
      </trkpt>
      <trkpt lat="49.11526" lon="1.83402">
        <ele>188</ele>
        <time>2022-07-31T09:40:51Z</time>
      </trkpt>
      <trkpt lat="49.1153" lon="1.83393">
        <ele>187.9</ele>
        <time>2022-07-31T09:40:56Z</time>
      </trkpt>
      <trkpt lat="49.11535" lon="1.8338">
        <ele>188.1</ele>
        <time>2022-07-31T09:41:02Z</time>
      </trkpt>
      <trkpt lat="49.11539" lon="1.83376">
        <ele>188</ele>
        <time>2022-07-31T09:41:07Z</time>
      </trkpt>
      <trkpt lat="49.11543" lon="1.83367">
        <ele>187.7</ele>
        <time>2022-07-31T09:41:12Z</time>
      </trkpt>
      <trkpt lat="49.11546" lon="1.83357">
        <ele>187.7</ele>
        <time>2022-07-31T09:41:18Z</time>
      </trkpt>
      <trkpt lat="49.11549" lon="1.83349">
        <ele>187.8</ele>
        <time>2022-07-31T09:41:23Z</time>
      </trkpt>
      <trkpt lat="49.11551" lon="1.83343">
        <ele>187.6</ele>
        <time>2022-07-31T09:41:29Z</time>
      </trkpt>
      <trkpt lat="49.11554" lon="1.83333">
        <ele>187.5</ele>
        <time>2022-07-31T09:41:35Z</time>
      </trkpt>
      <trkpt lat="49.11557" lon="1.8332">
        <ele>187.7</ele>
        <time>2022-07-31T09:41:41Z</time>
      </trkpt>
      <trkpt lat="49.11559" lon="1.83311">
        <ele>187.8</ele>
        <time>2022-07-31T09:41:47Z</time>
      </trkpt>
      <trkpt lat="49.11564" lon="1.833">
        <ele>188.2</ele>
        <time>2022-07-31T09:41:53Z</time>
      </trkpt>
      <trkpt lat="49.11566" lon="1.83295">
        <ele>188.2</ele>
        <time>2022-07-31T09:41:59Z</time>
      </trkpt>
      <trkpt lat="49.1157" lon="1.83285">
        <ele>188.5</ele>
        <time>2022-07-31T09:42:05Z</time>
      </trkpt>
      <trkpt lat="49.11572" lon="1.83272">
        <ele>188.6</ele>
        <time>2022-07-31T09:42:11Z</time>
      </trkpt>
      <trkpt lat="49.11576" lon="1.83262">
        <ele>188.7</ele>
        <time>2022-07-31T09:42:16Z</time>
      </trkpt>
      <trkpt lat="49.11578" lon="1.83248">
        <ele>188.8</ele>
        <time>2022-07-31T09:42:22Z</time>
      </trkpt>
      <trkpt lat="49.1158" lon="1.83237">
        <ele>189</ele>
        <time>2022-07-31T09:42:27Z</time>
      </trkpt>
      <trkpt lat="49.11579" lon="1.83227">
        <ele>189.5</ele>
        <time>2022-07-31T09:42:33Z</time>
      </trkpt>
      <trkpt lat="49.11583" lon="1.83218">
        <ele>189.6</ele>
        <time>2022-07-31T09:42:38Z</time>
      </trkpt>
      <trkpt lat="49.11582" lon="1.83204">
        <ele>189.7</ele>
        <time>2022-07-31T09:42:44Z</time>
      </trkpt>
      <trkpt lat="49.11584" lon="1.83194">
        <ele>190</ele>
        <time>2022-07-31T09:42:50Z</time>
      </trkpt>
      <trkpt lat="49.11586" lon="1.83181">
        <ele>190.2</ele>
        <time>2022-07-31T09:42:55Z</time>
      </trkpt>
      <trkpt lat="49.11588" lon="1.83168">
        <ele>190.3</ele>
        <time>2022-07-31T09:43:01Z</time>
      </trkpt>
      <trkpt lat="49.11591" lon="1.83155">
        <ele>190.2</ele>
        <time>2022-07-31T09:43:06Z</time>
      </trkpt>
      <trkpt lat="49.11593" lon="1.83148">
        <ele>190.2</ele>
        <time>2022-07-31T09:43:12Z</time>
      </trkpt>
      <trkpt lat="49.11595" lon="1.83138">
        <ele>190</ele>
        <time>2022-07-31T09:43:17Z</time>
      </trkpt>
      <trkpt lat="49.11596" lon="1.83128">
        <ele>190.1</ele>
        <time>2022-07-31T09:43:23Z</time>
      </trkpt>
      <trkpt lat="49.11596" lon="1.83119">
        <ele>190.5</ele>
        <time>2022-07-31T09:43:28Z</time>
      </trkpt>
      <trkpt lat="49.11596" lon="1.8311">
        <ele>190.8</ele>
        <time>2022-07-31T09:43:34Z</time>
      </trkpt>
      <trkpt lat="49.11598" lon="1.83101">
        <ele>190.9</ele>
        <time>2022-07-31T09:43:39Z</time>
      </trkpt>
      <trkpt lat="49.116" lon="1.8309">
        <ele>191.1</ele>
        <time>2022-07-31T09:43:44Z</time>
      </trkpt>
      <trkpt lat="49.11601" lon="1.83078">
        <ele>191.3</ele>
        <time>2022-07-31T09:43:50Z</time>
      </trkpt>
      <trkpt lat="49.11602" lon="1.83067">
        <ele>191.6</ele>
        <time>2022-07-31T09:43:55Z</time>
      </trkpt>
      <trkpt lat="49.11606" lon="1.83058">
        <ele>191.9</ele>
        <time>2022-07-31T09:44:00Z</time>
      </trkpt>
      <trkpt lat="49.11611" lon="1.83049">
        <ele>192.1</ele>
        <time>2022-07-31T09:44:06Z</time>
      </trkpt>
      <trkpt lat="49.11615" lon="1.83037">
        <ele>192.3</ele>
        <time>2022-07-31T09:44:12Z</time>
      </trkpt>
      <trkpt lat="49.11617" lon="1.83023">
        <ele>192.4</ele>
        <time>2022-07-31T09:44:18Z</time>
      </trkpt>
      <trkpt lat="49.11619" lon="1.83012">
        <ele>192.7</ele>
        <time>2022-07-31T09:44:23Z</time>
      </trkpt>
      <trkpt lat="49.1162" lon="1.82999">
        <ele>193.2</ele>
        <time>2022-07-31T09:44:29Z</time>
      </trkpt>
      <trkpt lat="49.1162" lon="1.82989">
        <ele>193.6</ele>
        <time>2022-07-31T09:44:34Z</time>
      </trkpt>
      <trkpt lat="49.11622" lon="1.8298">
        <ele>194</ele>
        <time>2022-07-31T09:44:39Z</time>
      </trkpt>
      <trkpt lat="49.11624" lon="1.82966">
        <ele>194.8</ele>
        <time>2022-07-31T09:44:45Z</time>
      </trkpt>
      <trkpt lat="49.11628" lon="1.82958">
        <ele>195.3</ele>
        <time>2022-07-31T09:44:50Z</time>
      </trkpt>
      <trkpt lat="49.11631" lon="1.82947">
        <ele>195.5</ele>
        <time>2022-07-31T09:44:56Z</time>
      </trkpt>
      <trkpt lat="49.11632" lon="1.82935">
        <ele>195.6</ele>
        <time>2022-07-31T09:45:02Z</time>
      </trkpt>
      <trkpt lat="49.11632" lon="1.82925">
        <ele>195.6</ele>
        <time>2022-07-31T09:45:07Z</time>
      </trkpt>
      <trkpt lat="49.11634" lon="1.82912">
        <ele>195.9</ele>
        <time>2022-07-31T09:45:13Z</time>
      </trkpt>
      <trkpt lat="49.11637" lon="1.82901">
        <ele>196</ele>
        <time>2022-07-31T09:45:18Z</time>
      </trkpt>
      <trkpt lat="49.11642" lon="1.82893">
        <ele>196</ele>
        <time>2022-07-31T09:45:24Z</time>
      </trkpt>
      <trkpt lat="49.11647" lon="1.82884">
        <ele>195.4</ele>
        <time>2022-07-31T09:45:29Z</time>
      </trkpt>
      <trkpt lat="49.11651" lon="1.82871">
        <ele>194.7</ele>
        <time>2022-07-31T09:45:35Z</time>
      </trkpt>
      <trkpt lat="49.11654" lon="1.8286">
        <ele>194.2</ele>
        <time>2022-07-31T09:45:40Z</time>
      </trkpt>
      <trkpt lat="49.11653" lon="1.82848">
        <ele>193.9</ele>
        <time>2022-07-31T09:45:46Z</time>
      </trkpt>
      <trkpt lat="49.11654" lon="1.82837">
        <ele>194.5</ele>
        <time>2022-07-31T09:45:52Z</time>
      </trkpt>
      <trkpt lat="49.11658" lon="1.82829">
        <ele>194.8</ele>
        <time>2022-07-31T09:45:58Z</time>
      </trkpt>
      <trkpt lat="49.11663" lon="1.82824">
        <ele>195.2</ele>
        <time>2022-07-31T09:46:03Z</time>
      </trkpt>
      <trkpt lat="49.11669" lon="1.82829">
        <ele>195.3</ele>
        <time>2022-07-31T09:46:09Z</time>
      </trkpt>
      <trkpt lat="49.11674" lon="1.8284">
        <ele>194.9</ele>
        <time>2022-07-31T09:46:15Z</time>
      </trkpt>
      <trkpt lat="49.11679" lon="1.82852">
        <ele>194</ele>
        <time>2022-07-31T09:46:21Z</time>
      </trkpt>
      <trkpt lat="49.11681" lon="1.82858">
        <ele>193.2</ele>
        <time>2022-07-31T09:46:27Z</time>
      </trkpt>
      <trkpt lat="49.1168" lon="1.82871">
        <ele>192.6</ele>
        <time>2022-07-31T09:46:33Z</time>
      </trkpt>
      <trkpt lat="49.11681" lon="1.8288">
        <ele>192.2</ele>
        <time>2022-07-31T09:46:39Z</time>
      </trkpt>
      <trkpt lat="49.11683" lon="1.82887">
        <ele>191.5</ele>
        <time>2022-07-31T09:46:45Z</time>
      </trkpt>
      <trkpt lat="49.11682" lon="1.82898">
        <ele>190.7</ele>
        <time>2022-07-31T09:46:51Z</time>
      </trkpt>
      <trkpt lat="49.11682" lon="1.8291">
        <ele>189.9</ele>
        <time>2022-07-31T09:46:56Z</time>
      </trkpt>
      <trkpt lat="49.11682" lon="1.82922">
        <ele>189.4</ele>
        <time>2022-07-31T09:47:01Z</time>
      </trkpt>
      <trkpt lat="49.1168" lon="1.8294">
        <ele>188.8</ele>
        <time>2022-07-31T09:47:07Z</time>
      </trkpt>
      <trkpt lat="49.11679" lon="1.82954">
        <ele>188.4</ele>
        <time>2022-07-31T09:47:12Z</time>
      </trkpt>
      <trkpt lat="49.11678" lon="1.82965">
        <ele>187.7</ele>
        <time>2022-07-31T09:47:18Z</time>
      </trkpt>
      <trkpt lat="49.1168" lon="1.82974">
        <ele>187.1</ele>
        <time>2022-07-31T09:47:23Z</time>
      </trkpt>
      <trkpt lat="49.1168" lon="1.82984">
        <ele>186.4</ele>
        <time>2022-07-31T09:47:29Z</time>
      </trkpt>
      <trkpt lat="49.11678" lon="1.82995">
        <ele>185.9</ele>
        <time>2022-07-31T09:47:34Z</time>
      </trkpt>
      <trkpt lat="49.11676" lon="1.83011">
        <ele>185.4</ele>
        <time>2022-07-31T09:47:40Z</time>
      </trkpt>
      <trkpt lat="49.11676" lon="1.83023">
        <ele>184.8</ele>
        <time>2022-07-31T09:47:45Z</time>
      </trkpt>
      <trkpt lat="49.11678" lon="1.83038">
        <ele>184</ele>
        <time>2022-07-31T09:47:51Z</time>
      </trkpt>
      <trkpt lat="49.1168" lon="1.83048">
        <ele>183.4</ele>
        <time>2022-07-31T09:47:56Z</time>
      </trkpt>
      <trkpt lat="49.11681" lon="1.83059">
        <ele>182.6</ele>
        <time>2022-07-31T09:48:02Z</time>
      </trkpt>
      <trkpt lat="49.1168" lon="1.83068">
        <ele>181.6</ele>
        <time>2022-07-31T09:48:08Z</time>
      </trkpt>
      <trkpt lat="49.11679" lon="1.83075">
        <ele>180.8</ele>
        <time>2022-07-31T09:48:13Z</time>
      </trkpt>
      <trkpt lat="49.11676" lon="1.83084">
        <ele>180.2</ele>
        <time>2022-07-31T09:48:18Z</time>
      </trkpt>
      <trkpt lat="49.11672" lon="1.83097">
        <ele>179.7</ele>
        <time>2022-07-31T09:48:24Z</time>
      </trkpt>
      <trkpt lat="49.11667" lon="1.83111">
        <ele>179.2</ele>
        <time>2022-07-31T09:48:30Z</time>
      </trkpt>
      <trkpt lat="49.11664" lon="1.83122">
        <ele>178.6</ele>
        <time>2022-07-31T09:48:36Z</time>
      </trkpt>
      <trkpt lat="49.11661" lon="1.83135">
        <ele>178.1</ele>
        <time>2022-07-31T09:48:42Z</time>
      </trkpt>
      <trkpt lat="49.11659" lon="1.8315">
        <ele>177.6</ele>
        <time>2022-07-31T09:48:48Z</time>
      </trkpt>
      <trkpt lat="49.11659" lon="1.83166">
        <ele>176.8</ele>
        <time>2022-07-31T09:48:54Z</time>
      </trkpt>
      <trkpt lat="49.11659" lon="1.83181">
        <ele>176.3</ele>
        <time>2022-07-31T09:49:00Z</time>
      </trkpt>
      <trkpt lat="49.11659" lon="1.83193">
        <ele>175.9</ele>
        <time>2022-07-31T09:49:05Z</time>
      </trkpt>
      <trkpt lat="49.11661" lon="1.83206">
        <ele>175.4</ele>
        <time>2022-07-31T09:49:10Z</time>
      </trkpt>
      <trkpt lat="49.11664" lon="1.83219">
        <ele>175.2</ele>
        <time>2022-07-31T09:49:15Z</time>
      </trkpt>
      <trkpt lat="49.11667" lon="1.83234">
        <ele>175</ele>
        <time>2022-07-31T09:49:21Z</time>
      </trkpt>
      <trkpt lat="49.11669" lon="1.83246">
        <ele>174.7</ele>
        <time>2022-07-31T09:49:26Z</time>
      </trkpt>
      <trkpt lat="49.11669" lon="1.83259">
        <ele>174.1</ele>
        <time>2022-07-31T09:49:32Z</time>
      </trkpt>
      <trkpt lat="49.11667" lon="1.83271">
        <ele>173.2</ele>
        <time>2022-07-31T09:49:38Z</time>
      </trkpt>
      <trkpt lat="49.11665" lon="1.83279">
        <ele>172.4</ele>
        <time>2022-07-31T09:49:43Z</time>
      </trkpt>
      <trkpt lat="49.11662" lon="1.83292">
        <ele>171.7</ele>
        <time>2022-07-31T09:49:49Z</time>
      </trkpt>
      <trkpt lat="49.11658" lon="1.83303">
        <ele>171.3</ele>
        <time>2022-07-31T09:49:54Z</time>
      </trkpt>
      <trkpt lat="49.11654" lon="1.83315">
        <ele>170.9</ele>
        <time>2022-07-31T09:50:00Z</time>
      </trkpt>
      <trkpt lat="49.11649" lon="1.83325">
        <ele>170.8</ele>
        <time>2022-07-31T09:50:05Z</time>
      </trkpt>
      <trkpt lat="49.11644" lon="1.83335">
        <ele>170.6</ele>
        <time>2022-07-31T09:50:11Z</time>
      </trkpt>
      <trkpt lat="49.11639" lon="1.83348">
        <ele>170.6</ele>
        <time>2022-07-31T09:50:16Z</time>
      </trkpt>
      <trkpt lat="49.11636" lon="1.83362">
        <ele>170</ele>
        <time>2022-07-31T09:50:22Z</time>
      </trkpt>
      <trkpt lat="49.11634" lon="1.83373">
        <ele>169.4</ele>
        <time>2022-07-31T09:50:28Z</time>
      </trkpt>
      <trkpt lat="49.11634" lon="1.83381">
        <ele>168.9</ele>
        <time>2022-07-31T09:50:33Z</time>
      </trkpt>
      <trkpt lat="49.11636" lon="1.83388">
        <ele>168.2</ele>
        <time>2022-07-31T09:50:38Z</time>
      </trkpt>
      <trkpt lat="49.11642" lon="1.83397">
        <ele>167.6</ele>
        <time>2022-07-31T09:50:44Z</time>
      </trkpt>
      <trkpt lat="49.11649" lon="1.83402">
        <ele>167.3</ele>
        <time>2022-07-31T09:50:49Z</time>
      </trkpt>
      <trkpt lat="49.11657" lon="1.83406">
        <ele>166.9</ele>
        <time>2022-07-31T09:50:55Z</time>
      </trkpt>
      <trkpt lat="49.11661" lon="1.83408">
        <ele>166.7</ele>
        <time>2022-07-31T09:51:00Z</time>
      </trkpt>
      <trkpt lat="49.11667" lon="1.83411">
        <ele>166.2</ele>
        <time>2022-07-31T09:51:06Z</time>
      </trkpt>
      <trkpt lat="49.11673" lon="1.83414">
        <ele>165.6</ele>
        <time>2022-07-31T09:51:11Z</time>
      </trkpt>
      <trkpt lat="49.1168" lon="1.83416">
        <ele>164.9</ele>
        <time>2022-07-31T09:51:17Z</time>
      </trkpt>
      <trkpt lat="49.11688" lon="1.83419">
        <ele>164.7</ele>
        <time>2022-07-31T09:51:22Z</time>
      </trkpt>
      <trkpt lat="49.11696" lon="1.83424">
        <ele>164.9</ele>
        <time>2022-07-31T09:51:28Z</time>
      </trkpt>
      <trkpt lat="49.11701" lon="1.83429">
        <ele>165.2</ele>
        <time>2022-07-31T09:51:33Z</time>
      </trkpt>
      <trkpt lat="49.11707" lon="1.83435">
        <ele>165.7</ele>
        <time>2022-07-31T09:51:39Z</time>
      </trkpt>
      <trkpt lat="49.11714" lon="1.83439">
        <ele>166.1</ele>
        <time>2022-07-31T09:51:44Z</time>
      </trkpt>
      <trkpt lat="49.11721" lon="1.83444">
        <ele>166.5</ele>
        <time>2022-07-31T09:51:49Z</time>
      </trkpt>
      <trkpt lat="49.1173" lon="1.8345">
        <ele>167.3</ele>
        <time>2022-07-31T09:51:55Z</time>
      </trkpt>
      <trkpt lat="49.11738" lon="1.83456">
        <ele>168.2</ele>
        <time>2022-07-31T09:52:01Z</time>
      </trkpt>
      <trkpt lat="49.11744" lon="1.83459">
        <ele>169.2</ele>
        <time>2022-07-31T09:52:06Z</time>
      </trkpt>
      <trkpt lat="49.11751" lon="1.83463">
        <ele>170.6</ele>
        <time>2022-07-31T09:52:12Z</time>
      </trkpt>
      <trkpt lat="49.11755" lon="1.83466">
        <ele>171.8</ele>
        <time>2022-07-31T09:52:17Z</time>
      </trkpt>
      <trkpt lat="49.11759" lon="1.8347">
        <ele>173</ele>
        <time>2022-07-31T09:52:23Z</time>
      </trkpt>
      <trkpt lat="49.11764" lon="1.83474">
        <ele>173.9</ele>
        <time>2022-07-31T09:52:28Z</time>
      </trkpt>
      <trkpt lat="49.11769" lon="1.83476">
        <ele>174.6</ele>
        <time>2022-07-31T09:52:34Z</time>
      </trkpt>
      <trkpt lat="49.11776" lon="1.83482">
        <ele>175.4</ele>
        <time>2022-07-31T09:52:40Z</time>
      </trkpt>
      <trkpt lat="49.11781" lon="1.83485">
        <ele>176.1</ele>
        <time>2022-07-31T09:52:45Z</time>
      </trkpt>
      <trkpt lat="49.11787" lon="1.83489">
        <ele>176.9</ele>
        <time>2022-07-31T09:52:51Z</time>
      </trkpt>
      <trkpt lat="49.11793" lon="1.83492">
        <ele>177.5</ele>
        <time>2022-07-31T09:52:57Z</time>
      </trkpt>
      <trkpt lat="49.118" lon="1.83496">
        <ele>177.8</ele>
        <time>2022-07-31T09:53:02Z</time>
      </trkpt>
      <trkpt lat="49.11805" lon="1.835">
        <ele>178.1</ele>
        <time>2022-07-31T09:53:07Z</time>
      </trkpt>
      <trkpt lat="49.11809" lon="1.83506">
        <ele>178.3</ele>
        <time>2022-07-31T09:53:13Z</time>
      </trkpt>
      <trkpt lat="49.11812" lon="1.83509">
        <ele>178.4</ele>
        <time>2022-07-31T09:53:18Z</time>
      </trkpt>
      <trkpt lat="49.11818" lon="1.83512">
        <ele>178.7</ele>
        <time>2022-07-31T09:53:24Z</time>
      </trkpt>
      <trkpt lat="49.11824" lon="1.83516">
        <ele>179.1</ele>
        <time>2022-07-31T09:53:30Z</time>
      </trkpt>
      <trkpt lat="49.1183" lon="1.83519">
        <ele>179.8</ele>
        <time>2022-07-31T09:53:35Z</time>
      </trkpt>
      <trkpt lat="49.11836" lon="1.83523">
        <ele>180.6</ele>
        <time>2022-07-31T09:53:40Z</time>
      </trkpt>
      <trkpt lat="49.11842" lon="1.83525">
        <ele>181.4</ele>
        <time>2022-07-31T09:53:46Z</time>
      </trkpt>
      <trkpt lat="49.11847" lon="1.83528">
        <ele>182.1</ele>
        <time>2022-07-31T09:53:51Z</time>
      </trkpt>
      <trkpt lat="49.11858" lon="1.83534">
        <ele>182.9</ele>
        <time>2022-07-31T09:53:57Z</time>
      </trkpt>
      <trkpt lat="49.11862" lon="1.8354">
        <ele>183.3</ele>
        <time>2022-07-31T09:54:02Z</time>
      </trkpt>
      <trkpt lat="49.11865" lon="1.83549">
        <ele>183.4</ele>
        <time>2022-07-31T09:54:08Z</time>
      </trkpt>
      <trkpt lat="49.11869" lon="1.83555">
        <ele>183.1</ele>
        <time>2022-07-31T09:54:13Z</time>
      </trkpt>
      <trkpt lat="49.1187" lon="1.83561">
        <ele>182.8</ele>
        <time>2022-07-31T09:54:18Z</time>
      </trkpt>
      <trkpt lat="49.11868" lon="1.83571">
        <ele>182.3</ele>
        <time>2022-07-31T09:54:24Z</time>
      </trkpt>
      <trkpt lat="49.11865" lon="1.83583">
        <ele>181.6</ele>
        <time>2022-07-31T09:54:30Z</time>
      </trkpt>
      <trkpt lat="49.11863" lon="1.83592">
        <ele>181</ele>
        <time>2022-07-31T09:54:35Z</time>
      </trkpt>
      <trkpt lat="49.11861" lon="1.83596">
        <ele>180.7</ele>
        <time>2022-07-31T09:54:40Z</time>
      </trkpt>
      <trkpt lat="49.11858" lon="1.83604">
        <ele>180.4</ele>
        <time>2022-07-31T09:54:45Z</time>
      </trkpt>
      <trkpt lat="49.11854" lon="1.83612">
        <ele>180</ele>
        <time>2022-07-31T09:54:50Z</time>
      </trkpt>
      <trkpt lat="49.11849" lon="1.83622">
        <ele>179.6</ele>
        <time>2022-07-31T09:54:56Z</time>
      </trkpt>
      <trkpt lat="49.11847" lon="1.83634">
        <ele>179.4</ele>
        <time>2022-07-31T09:55:02Z</time>
      </trkpt>
      <trkpt lat="49.11848" lon="1.83643">
        <ele>179.1</ele>
        <time>2022-07-31T09:55:08Z</time>
      </trkpt>
      <trkpt lat="49.1185" lon="1.83652">
        <ele>178.8</ele>
        <time>2022-07-31T09:55:14Z</time>
      </trkpt>
      <trkpt lat="49.11853" lon="1.83659">
        <ele>178.6</ele>
        <time>2022-07-31T09:55:19Z</time>
      </trkpt>
      <trkpt lat="49.11856" lon="1.83666">
        <ele>178.9</ele>
        <time>2022-07-31T09:55:25Z</time>
      </trkpt>
      <trkpt lat="49.11857" lon="1.83673">
        <ele>179.2</ele>
        <time>2022-07-31T09:55:30Z</time>
      </trkpt>
      <trkpt lat="49.11854" lon="1.8368">
        <ele>179.8</ele>
        <time>2022-07-31T09:55:36Z</time>
      </trkpt>
      <trkpt lat="49.11851" lon="1.83688">
        <ele>180.1</ele>
        <time>2022-07-31T09:55:41Z</time>
      </trkpt>
      <trkpt lat="49.11845" lon="1.83694">
        <ele>180.5</ele>
        <time>2022-07-31T09:55:46Z</time>
      </trkpt>
      <trkpt lat="49.11838" lon="1.83699">
        <ele>180.7</ele>
        <time>2022-07-31T09:55:52Z</time>
      </trkpt>
      <trkpt lat="49.11835" lon="1.83707">
        <ele>180.8</ele>
        <time>2022-07-31T09:55:58Z</time>
      </trkpt>
      <trkpt lat="49.11833" lon="1.83718">
        <ele>180.8</ele>
        <time>2022-07-31T09:56:03Z</time>
      </trkpt>
      <trkpt lat="49.11832" lon="1.8373">
        <ele>180.6</ele>
        <time>2022-07-31T09:56:09Z</time>
      </trkpt>
      <trkpt lat="49.11832" lon="1.8374">
        <ele>180.5</ele>
        <time>2022-07-31T09:56:15Z</time>
      </trkpt>
      <trkpt lat="49.1183" lon="1.83748">
        <ele>180.4</ele>
        <time>2022-07-31T09:56:20Z</time>
      </trkpt>
      <trkpt lat="49.11828" lon="1.83756">
        <ele>180.6</ele>
        <time>2022-07-31T09:56:26Z</time>
      </trkpt>
      <trkpt lat="49.11827" lon="1.83765">
        <ele>180.7</ele>
        <time>2022-07-31T09:56:31Z</time>
      </trkpt>
      <trkpt lat="49.11824" lon="1.83777">
        <ele>180.9</ele>
        <time>2022-07-31T09:56:37Z</time>
      </trkpt>
      <trkpt lat="49.11821" lon="1.83788">
        <ele>181.2</ele>
        <time>2022-07-31T09:56:42Z</time>
      </trkpt>
      <trkpt lat="49.11817" lon="1.83797">
        <ele>181.5</ele>
        <time>2022-07-31T09:56:47Z</time>
      </trkpt>
      <trkpt lat="49.11811" lon="1.8381">
        <ele>181.8</ele>
        <time>2022-07-31T09:56:53Z</time>
      </trkpt>
      <trkpt lat="49.11804" lon="1.83821">
        <ele>181.8</ele>
        <time>2022-07-31T09:56:59Z</time>
      </trkpt>
      <trkpt lat="49.118" lon="1.8383">
        <ele>181.5</ele>
        <time>2022-07-31T09:57:04Z</time>
      </trkpt>
      <trkpt lat="49.11797" lon="1.83841">
        <ele>181.1</ele>
        <time>2022-07-31T09:57:10Z</time>
      </trkpt>
      <trkpt lat="49.11794" lon="1.83854">
        <ele>180.8</ele>
        <time>2022-07-31T09:57:16Z</time>
      </trkpt>
      <trkpt lat="49.11791" lon="1.83865">
        <ele>180.7</ele>
        <time>2022-07-31T09:57:21Z</time>
      </trkpt>
      <trkpt lat="49.11787" lon="1.83877">
        <ele>180.5</ele>
        <time>2022-07-31T09:57:26Z</time>
      </trkpt>
      <trkpt lat="49.11782" lon="1.8389">
        <ele>180.7</ele>
        <time>2022-07-31T09:57:32Z</time>
      </trkpt>
      <trkpt lat="49.1178" lon="1.83901">
        <ele>181</ele>
        <time>2022-07-31T09:57:37Z</time>
      </trkpt>
      <trkpt lat="49.11778" lon="1.83913">
        <ele>181.6</ele>
        <time>2022-07-31T09:57:43Z</time>
      </trkpt>
      <trkpt lat="49.11774" lon="1.83926">
        <ele>182</ele>
        <time>2022-07-31T09:57:49Z</time>
      </trkpt>
      <trkpt lat="49.1177" lon="1.83938">
        <ele>181.9</ele>
        <time>2022-07-31T09:57:55Z</time>
      </trkpt>
      <trkpt lat="49.11768" lon="1.8395">
        <ele>181.7</ele>
        <time>2022-07-31T09:58:00Z</time>
      </trkpt>
      <trkpt lat="49.11764" lon="1.83964">
        <ele>181.3</ele>
        <time>2022-07-31T09:58:06Z</time>
      </trkpt>
      <trkpt lat="49.11759" lon="1.83975">
        <ele>180.8</ele>
        <time>2022-07-31T09:58:12Z</time>
      </trkpt>
      <trkpt lat="49.11755" lon="1.83987">
        <ele>180.4</ele>
        <time>2022-07-31T09:58:17Z</time>
      </trkpt>
      <trkpt lat="49.11757" lon="1.84001">
        <ele>180.3</ele>
        <time>2022-07-31T09:58:23Z</time>
      </trkpt>
      <trkpt lat="49.1176" lon="1.84007">
        <ele>180.1</ele>
        <time>2022-07-31T09:58:28Z</time>
      </trkpt>
      <trkpt lat="49.1176" lon="1.84008">
        <ele>180.1</ele>
        <time>2022-07-31T09:58:33Z</time>
      </trkpt>
      <trkpt lat="49.11762" lon="1.84012">
        <ele>180</ele>
        <time>2022-07-31T09:58:39Z</time>
      </trkpt>
      <trkpt lat="49.11765" lon="1.84019">
        <ele>179.7</ele>
        <time>2022-07-31T09:58:46Z</time>
      </trkpt>
      <trkpt lat="49.11762" lon="1.8403">
        <ele>179.3</ele>
        <time>2022-07-31T09:58:51Z</time>
      </trkpt>
      <trkpt lat="49.11758" lon="1.84042">
        <ele>178.7</ele>
        <time>2022-07-31T09:58:57Z</time>
      </trkpt>
      <trkpt lat="49.11756" lon="1.84053">
        <ele>178.2</ele>
        <time>2022-07-31T09:59:03Z</time>
      </trkpt>
      <trkpt lat="49.11754" lon="1.84066">
        <ele>177.6</ele>
        <time>2022-07-31T09:59:09Z</time>
      </trkpt>
      <trkpt lat="49.11751" lon="1.84074">
        <ele>177.3</ele>
        <time>2022-07-31T09:59:14Z</time>
      </trkpt>
      <trkpt lat="49.11749" lon="1.84083">
        <ele>177.1</ele>
        <time>2022-07-31T09:59:19Z</time>
      </trkpt>
      <trkpt lat="49.11747" lon="1.84097">
        <ele>176.7</ele>
        <time>2022-07-31T09:59:25Z</time>
      </trkpt>
      <trkpt lat="49.11743" lon="1.84113">
        <ele>176.5</ele>
        <time>2022-07-31T09:59:31Z</time>
      </trkpt>
      <trkpt lat="49.1174" lon="1.84126">
        <ele>176.5</ele>
        <time>2022-07-31T09:59:37Z</time>
      </trkpt>
      <trkpt lat="49.11739" lon="1.84139">
        <ele>176.4</ele>
        <time>2022-07-31T09:59:43Z</time>
      </trkpt>
      <trkpt lat="49.11739" lon="1.8415">
        <ele>176.2</ele>
        <time>2022-07-31T09:59:48Z</time>
      </trkpt>
      <trkpt lat="49.1174" lon="1.84161">
        <ele>176</ele>
        <time>2022-07-31T09:59:54Z</time>
      </trkpt>
      <trkpt lat="49.11741" lon="1.84173">
        <ele>175.8</ele>
        <time>2022-07-31T09:59:59Z</time>
      </trkpt>
      <trkpt lat="49.11744" lon="1.84186">
        <ele>175.6</ele>
        <time>2022-07-31T10:00:05Z</time>
      </trkpt>
      <trkpt lat="49.11747" lon="1.84199">
        <ele>175.4</ele>
        <time>2022-07-31T10:00:11Z</time>
      </trkpt>
      <trkpt lat="49.11747" lon="1.84212">
        <ele>175.2</ele>
        <time>2022-07-31T10:00:17Z</time>
      </trkpt>
      <trkpt lat="49.1175" lon="1.84224">
        <ele>175.1</ele>
        <time>2022-07-31T10:00:22Z</time>
      </trkpt>
      <trkpt lat="49.11751" lon="1.84234">
        <ele>175</ele>
        <time>2022-07-31T10:00:27Z</time>
      </trkpt>
      <trkpt lat="49.11751" lon="1.84247">
        <ele>175</ele>
        <time>2022-07-31T10:00:33Z</time>
      </trkpt>
      <trkpt lat="49.11755" lon="1.84261">
        <ele>174.8</ele>
        <time>2022-07-31T10:00:39Z</time>
      </trkpt>
      <trkpt lat="49.1176" lon="1.8427">
        <ele>174.7</ele>
        <time>2022-07-31T10:00:45Z</time>
      </trkpt>
      <trkpt lat="49.11764" lon="1.84283">
        <ele>174.4</ele>
        <time>2022-07-31T10:00:51Z</time>
      </trkpt>
      <trkpt lat="49.11765" lon="1.84293">
        <ele>174.5</ele>
        <time>2022-07-31T10:00:56Z</time>
      </trkpt>
      <trkpt lat="49.11765" lon="1.84304">
        <ele>174.9</ele>
        <time>2022-07-31T10:01:01Z</time>
      </trkpt>
      <trkpt lat="49.11764" lon="1.84316">
        <ele>175.4</ele>
        <time>2022-07-31T10:01:06Z</time>
      </trkpt>
      <trkpt lat="49.11761" lon="1.84325">
        <ele>176</ele>
        <time>2022-07-31T10:01:12Z</time>
      </trkpt>
      <trkpt lat="49.11761" lon="1.84335">
        <ele>176.4</ele>
        <time>2022-07-31T10:01:18Z</time>
      </trkpt>
      <trkpt lat="49.11761" lon="1.84346">
        <ele>176.7</ele>
        <time>2022-07-31T10:01:24Z</time>
      </trkpt>
      <trkpt lat="49.11763" lon="1.84357">
        <ele>177</ele>
        <time>2022-07-31T10:01:30Z</time>
      </trkpt>
      <trkpt lat="49.11759" lon="1.84367">
        <ele>177.1</ele>
        <time>2022-07-31T10:01:36Z</time>
      </trkpt>
      <trkpt lat="49.1176" lon="1.8438">
        <ele>177.2</ele>
        <time>2022-07-31T10:01:42Z</time>
      </trkpt>
      <trkpt lat="49.1176" lon="1.84391">
        <ele>177.3</ele>
        <time>2022-07-31T10:01:47Z</time>
      </trkpt>
      <trkpt lat="49.1176" lon="1.84404">
        <ele>177.5</ele>
        <time>2022-07-31T10:01:53Z</time>
      </trkpt>
      <trkpt lat="49.1176" lon="1.84413">
        <ele>177.7</ele>
        <time>2022-07-31T10:01:58Z</time>
      </trkpt>
      <trkpt lat="49.11761" lon="1.84419">
        <ele>178</ele>
        <time>2022-07-31T10:02:04Z</time>
      </trkpt>
      <trkpt lat="49.11761" lon="1.84419">
        <ele>178.4</ele>
        <time>2022-07-31T10:02:10Z</time>
      </trkpt>
      <trkpt lat="49.11761" lon="1.84418">
        <ele>178.5</ele>
        <time>2022-07-31T10:02:16Z</time>
      </trkpt>
      <trkpt lat="49.11761" lon="1.84418">
        <ele>178.6</ele>
        <time>2022-07-31T10:02:21Z</time>
      </trkpt>
      <trkpt lat="49.11761" lon="1.84417">
        <ele>178.7</ele>
        <time>2022-07-31T10:02:27Z</time>
      </trkpt>
      <trkpt lat="49.1176" lon="1.84417">
        <ele>178.8</ele>
        <time>2022-07-31T10:02:32Z</time>
      </trkpt>
      <trkpt lat="49.1176" lon="1.84416">
        <ele>178.9</ele>
        <time>2022-07-31T10:02:38Z</time>
      </trkpt>
      <trkpt lat="49.1176" lon="1.84415">
        <ele>178.9</ele>
        <time>2022-07-31T10:02:43Z</time>
      </trkpt>
      <trkpt lat="49.1176" lon="1.84415">
        <ele>178.9</ele>
        <time>2022-07-31T10:02:48Z</time>
      </trkpt>
      <trkpt lat="49.1176" lon="1.84415">
        <ele>179</ele>
        <time>2022-07-31T10:02:54Z</time>
      </trkpt>
      <trkpt lat="49.11761" lon="1.84415">
        <ele>179</ele>
        <time>2022-07-31T10:02:59Z</time>
      </trkpt>
      <trkpt lat="49.11761" lon="1.84413">
        <ele>179.1</ele>
        <time>2022-07-31T10:03:05Z</time>
      </trkpt>
      <trkpt lat="49.11761" lon="1.84413">
        <ele>179.4</ele>
        <time>2022-07-31T10:03:11Z</time>
      </trkpt>
      <trkpt lat="49.1176" lon="1.84413">
        <ele>179.4</ele>
        <time>2022-07-31T10:03:16Z</time>
      </trkpt>
      <trkpt lat="49.1176" lon="1.84412">
        <ele>179.5</ele>
        <time>2022-07-31T10:03:21Z</time>
      </trkpt>
      <trkpt lat="49.1176" lon="1.84412">
        <ele>179.5</ele>
        <time>2022-07-31T10:03:27Z</time>
      </trkpt>
      <trkpt lat="49.1176" lon="1.84412">
        <ele>179.5</ele>
        <time>2022-07-31T10:03:32Z</time>
      </trkpt>
      <trkpt lat="49.11761" lon="1.84413">
        <ele>179.4</ele>
        <time>2022-07-31T10:03:38Z</time>
      </trkpt>
      <trkpt lat="49.11759" lon="1.84414">
        <ele>179.4</ele>
        <time>2022-07-31T10:03:44Z</time>
      </trkpt>
      <trkpt lat="49.1176" lon="1.84416">
        <ele>179.4</ele>
        <time>2022-07-31T10:03:49Z</time>
      </trkpt>
      <trkpt lat="49.1176" lon="1.84416">
        <ele>179.4</ele>
        <time>2022-07-31T10:03:55Z</time>
      </trkpt>
      <trkpt lat="49.1176" lon="1.84415">
        <ele>179.4</ele>
        <time>2022-07-31T10:04:00Z</time>
      </trkpt>
      <trkpt lat="49.11761" lon="1.84415">
        <ele>179.4</ele>
        <time>2022-07-31T10:04:06Z</time>
      </trkpt>
      <trkpt lat="49.1176" lon="1.84415">
        <ele>179.4</ele>
        <time>2022-07-31T10:04:11Z</time>
      </trkpt>
      <trkpt lat="49.1176" lon="1.84415">
        <ele>179.4</ele>
        <time>2022-07-31T10:04:16Z</time>
      </trkpt>
      <trkpt lat="49.1176" lon="1.84414">
        <ele>179.4</ele>
        <time>2022-07-31T10:04:22Z</time>
      </trkpt>
      <trkpt lat="49.1176" lon="1.84414">
        <ele>179.4</ele>
        <time>2022-07-31T10:04:27Z</time>
      </trkpt>
      <trkpt lat="49.1176" lon="1.84414">
        <ele>179.4</ele>
        <time>2022-07-31T10:04:33Z</time>
      </trkpt>
      <trkpt lat="49.1176" lon="1.84415">
        <ele>179.4</ele>
        <time>2022-07-31T10:04:38Z</time>
      </trkpt>
      <trkpt lat="49.1176" lon="1.84415">
        <ele>179.3</ele>
        <time>2022-07-31T10:04:44Z</time>
      </trkpt>
      <trkpt lat="49.1176" lon="1.84415">
        <ele>179.2</ele>
        <time>2022-07-31T10:04:49Z</time>
      </trkpt>
      <trkpt lat="49.1176" lon="1.84415">
        <ele>179.2</ele>
        <time>2022-07-31T10:04:55Z</time>
      </trkpt>
      <trkpt lat="49.11759" lon="1.84415">
        <ele>179</ele>
        <time>2022-07-31T10:05:00Z</time>
      </trkpt>
      <trkpt lat="49.11761" lon="1.84415">
        <ele>178.9</ele>
        <time>2022-07-31T10:05:06Z</time>
      </trkpt>
      <trkpt lat="49.11761" lon="1.84415">
        <ele>178.8</ele>
        <time>2022-07-31T10:05:12Z</time>
      </trkpt>
      <trkpt lat="49.11761" lon="1.84414">
        <ele>178.8</ele>
        <time>2022-07-31T10:05:17Z</time>
      </trkpt>
      <trkpt lat="49.11761" lon="1.84415">
        <ele>178.7</ele>
        <time>2022-07-31T10:05:23Z</time>
      </trkpt>
      <trkpt lat="49.11761" lon="1.84415">
        <ele>178.7</ele>
        <time>2022-07-31T10:05:29Z</time>
      </trkpt>
      <trkpt lat="49.11761" lon="1.84415">
        <ele>178.6</ele>
        <time>2022-07-31T10:05:35Z</time>
      </trkpt>
      <trkpt lat="49.11761" lon="1.84414">
        <ele>178.5</ele>
        <time>2022-07-31T10:05:40Z</time>
      </trkpt>
      <trkpt lat="49.1176" lon="1.84414">
        <ele>178.5</ele>
        <time>2022-07-31T10:05:45Z</time>
      </trkpt>
      <trkpt lat="49.1176" lon="1.84414">
        <ele>178.6</ele>
        <time>2022-07-31T10:05:51Z</time>
      </trkpt>
      <trkpt lat="49.1176" lon="1.84414">
        <ele>178.6</ele>
        <time>2022-07-31T10:05:57Z</time>
      </trkpt>
      <trkpt lat="49.11761" lon="1.84414">
        <ele>178.6</ele>
        <time>2022-07-31T10:06:02Z</time>
      </trkpt>
      <trkpt lat="49.11761" lon="1.84414">
        <ele>178.6</ele>
        <time>2022-07-31T10:06:07Z</time>
      </trkpt>
      <trkpt lat="49.11761" lon="1.84414">
        <ele>178.6</ele>
        <time>2022-07-31T10:06:13Z</time>
      </trkpt>
      <trkpt lat="49.11761" lon="1.84414">
        <ele>178.6</ele>
        <time>2022-07-31T10:06:19Z</time>
      </trkpt>
      <trkpt lat="49.11761" lon="1.84414">
        <ele>178.6</ele>
        <time>2022-07-31T10:06:25Z</time>
      </trkpt>
      <trkpt lat="49.1176" lon="1.84415">
        <ele>178.7</ele>
        <time>2022-07-31T10:06:31Z</time>
      </trkpt>
      <trkpt lat="49.1176" lon="1.84415">
        <ele>178.7</ele>
        <time>2022-07-31T10:06:37Z</time>
      </trkpt>
      <trkpt lat="49.1176" lon="1.84415">
        <ele>178.7</ele>
        <time>2022-07-31T10:06:43Z</time>
      </trkpt>
      <trkpt lat="49.1176" lon="1.84415">
        <ele>178.7</ele>
        <time>2022-07-31T10:06:49Z</time>
      </trkpt>
      <trkpt lat="49.1176" lon="1.84415">
        <ele>178.7</ele>
        <time>2022-07-31T10:06:54Z</time>
      </trkpt>
      <trkpt lat="49.1176" lon="1.84415">
        <ele>178.7</ele>
        <time>2022-07-31T10:07:00Z</time>
      </trkpt>
      <trkpt lat="49.1176" lon="1.84416">
        <ele>178.7</ele>
        <time>2022-07-31T10:07:05Z</time>
      </trkpt>
      <trkpt lat="49.11761" lon="1.84416">
        <ele>178.8</ele>
        <time>2022-07-31T10:07:11Z</time>
      </trkpt>
      <trkpt lat="49.11761" lon="1.84416">
        <ele>178.8</ele>
        <time>2022-07-31T10:07:16Z</time>
      </trkpt>
      <trkpt lat="49.11761" lon="1.84416">
        <ele>178.8</ele>
        <time>2022-07-31T10:07:21Z</time>
      </trkpt>
      <trkpt lat="49.11761" lon="1.84416">
        <ele>178.8</ele>
        <time>2022-07-31T10:07:27Z</time>
      </trkpt>
      <trkpt lat="49.11761" lon="1.84415">
        <ele>178.8</ele>
        <time>2022-07-31T10:07:32Z</time>
      </trkpt>
      <trkpt lat="49.11761" lon="1.84415">
        <ele>178.9</ele>
        <time>2022-07-31T10:07:38Z</time>
      </trkpt>
      <trkpt lat="49.1176" lon="1.84414">
        <ele>179</ele>
        <time>2022-07-31T10:07:43Z</time>
      </trkpt>
      <trkpt lat="49.1176" lon="1.84414">
        <ele>179.3</ele>
        <time>2022-07-31T10:07:49Z</time>
      </trkpt>
      <trkpt lat="49.1176" lon="1.84414">
        <ele>179.3</ele>
        <time>2022-07-31T10:07:55Z</time>
      </trkpt>
      <trkpt lat="49.11758" lon="1.84406">
        <ele>179.3</ele>
        <time>2022-07-31T10:08:01Z</time>
      </trkpt>
      <trkpt lat="49.11756" lon="1.84402">
        <ele>179.3</ele>
        <time>2022-07-31T10:08:06Z</time>
      </trkpt>
      <trkpt lat="49.11758" lon="1.84394">
        <ele>179.5</ele>
        <time>2022-07-31T10:08:12Z</time>
      </trkpt>
      <trkpt lat="49.1176" lon="1.84386">
        <ele>179.6</ele>
        <time>2022-07-31T10:08:18Z</time>
      </trkpt>
      <trkpt lat="49.11762" lon="1.84377">
        <ele>179.6</ele>
        <time>2022-07-31T10:08:23Z</time>
      </trkpt>
      <trkpt lat="49.11762" lon="1.84365">
        <ele>179.5</ele>
        <time>2022-07-31T10:08:29Z</time>
      </trkpt>
      <trkpt lat="49.11762" lon="1.84358">
        <ele>179.3</ele>
        <time>2022-07-31T10:08:34Z</time>
      </trkpt>
      <trkpt lat="49.11761" lon="1.84348">
        <ele>179.1</ele>
        <time>2022-07-31T10:08:39Z</time>
      </trkpt>
      <trkpt lat="49.11762" lon="1.8434">
        <ele>178.6</ele>
        <time>2022-07-31T10:08:44Z</time>
      </trkpt>
      <trkpt lat="49.11761" lon="1.84328">
        <ele>177.9</ele>
        <time>2022-07-31T10:08:50Z</time>
      </trkpt>
      <trkpt lat="49.11761" lon="1.84321">
        <ele>177.4</ele>
        <time>2022-07-31T10:08:55Z</time>
      </trkpt>
      <trkpt lat="49.11761" lon="1.84305">
        <ele>176.9</ele>
        <time>2022-07-31T10:09:01Z</time>
      </trkpt>
      <trkpt lat="49.11759" lon="1.84294">
        <ele>176.2</ele>
        <time>2022-07-31T10:09:07Z</time>
      </trkpt>
      <trkpt lat="49.11758" lon="1.84282">
        <ele>175.5</ele>
        <time>2022-07-31T10:09:13Z</time>
      </trkpt>
      <trkpt lat="49.11755" lon="1.8427">
        <ele>174.9</ele>
        <time>2022-07-31T10:09:19Z</time>
      </trkpt>
      <trkpt lat="49.11754" lon="1.84262">
        <ele>174.4</ele>
        <time>2022-07-31T10:09:24Z</time>
      </trkpt>
      <trkpt lat="49.1175" lon="1.84254">
        <ele>174.1</ele>
        <time>2022-07-31T10:09:29Z</time>
      </trkpt>
      <trkpt lat="49.11746" lon="1.84244">
        <ele>173.6</ele>
        <time>2022-07-31T10:09:35Z</time>
      </trkpt>
      <trkpt lat="49.11744" lon="1.84229">
        <ele>173</ele>
        <time>2022-07-31T10:09:41Z</time>
      </trkpt>
      <trkpt lat="49.11742" lon="1.84217">
        <ele>172.5</ele>
        <time>2022-07-31T10:09:47Z</time>
      </trkpt>
      <trkpt lat="49.11738" lon="1.84213">
        <ele>172.1</ele>
        <time>2022-07-31T10:09:53Z</time>
      </trkpt>
      <trkpt lat="49.11731" lon="1.84215">
        <ele>171.7</ele>
        <time>2022-07-31T10:09:59Z</time>
      </trkpt>
      <trkpt lat="49.11724" lon="1.84212">
        <ele>171.4</ele>
        <time>2022-07-31T10:10:05Z</time>
      </trkpt>
      <trkpt lat="49.11718" lon="1.84211">
        <ele>171.2</ele>
        <time>2022-07-31T10:10:10Z</time>
      </trkpt>
      <trkpt lat="49.11712" lon="1.8421">
        <ele>170.9</ele>
        <time>2022-07-31T10:10:15Z</time>
      </trkpt>
      <trkpt lat="49.11705" lon="1.84208">
        <ele>170.2</ele>
        <time>2022-07-31T10:10:21Z</time>
      </trkpt>
      <trkpt lat="49.11701" lon="1.84207">
        <ele>169.6</ele>
        <time>2022-07-31T10:10:26Z</time>
      </trkpt>
      <trkpt lat="49.11691" lon="1.84205">
        <ele>169</ele>
        <time>2022-07-31T10:10:32Z</time>
      </trkpt>
      <trkpt lat="49.11685" lon="1.84204">
        <ele>168.4</ele>
        <time>2022-07-31T10:10:37Z</time>
      </trkpt>
      <trkpt lat="49.1168" lon="1.84203">
        <ele>168</ele>
        <time>2022-07-31T10:10:42Z</time>
      </trkpt>
      <trkpt lat="49.11676" lon="1.84202">
        <ele>167.5</ele>
        <time>2022-07-31T10:10:47Z</time>
      </trkpt>
      <trkpt lat="49.11669" lon="1.84205">
        <ele>166.9</ele>
        <time>2022-07-31T10:10:53Z</time>
      </trkpt>
      <trkpt lat="49.1166" lon="1.84202">
        <ele>166.7</ele>
        <time>2022-07-31T10:10:59Z</time>
      </trkpt>
      <trkpt lat="49.11651" lon="1.842">
        <ele>166.5</ele>
        <time>2022-07-31T10:11:05Z</time>
      </trkpt>
      <trkpt lat="49.11646" lon="1.84199">
        <ele>166.6</ele>
        <time>2022-07-31T10:11:11Z</time>
      </trkpt>
      <trkpt lat="49.11641" lon="1.84201">
        <ele>166.8</ele>
        <time>2022-07-31T10:11:16Z</time>
      </trkpt>
      <trkpt lat="49.11636" lon="1.84193">
        <ele>166.7</ele>
        <time>2022-07-31T10:11:21Z</time>
      </trkpt>
      <trkpt lat="49.11629" lon="1.84186">
        <ele>166.5</ele>
        <time>2022-07-31T10:11:26Z</time>
      </trkpt>
      <trkpt lat="49.1162" lon="1.8418">
        <ele>166.3</ele>
        <time>2022-07-31T10:11:32Z</time>
      </trkpt>
      <trkpt lat="49.11613" lon="1.84177">
        <ele>165.8</ele>
        <time>2022-07-31T10:11:37Z</time>
      </trkpt>
      <trkpt lat="49.11608" lon="1.84178">
        <ele>164.8</ele>
        <time>2022-07-31T10:11:42Z</time>
      </trkpt>
      <trkpt lat="49.11597" lon="1.84176">
        <ele>163.7</ele>
        <time>2022-07-31T10:11:48Z</time>
      </trkpt>
      <trkpt lat="49.1159" lon="1.84176">
        <ele>162.8</ele>
        <time>2022-07-31T10:11:54Z</time>
      </trkpt>
      <trkpt lat="49.11583" lon="1.84178">
        <ele>162.1</ele>
        <time>2022-07-31T10:11:59Z</time>
      </trkpt>
      <trkpt lat="49.11575" lon="1.84178">
        <ele>161.5</ele>
        <time>2022-07-31T10:12:05Z</time>
      </trkpt>
      <trkpt lat="49.11568" lon="1.84178">
        <ele>161.2</ele>
        <time>2022-07-31T10:12:10Z</time>
      </trkpt>
      <trkpt lat="49.11559" lon="1.84176">
        <ele>160.8</ele>
        <time>2022-07-31T10:12:16Z</time>
      </trkpt>
      <trkpt lat="49.11548" lon="1.84173">
        <ele>160.3</ele>
        <time>2022-07-31T10:12:22Z</time>
      </trkpt>
      <trkpt lat="49.11538" lon="1.84173">
        <ele>160.2</ele>
        <time>2022-07-31T10:12:27Z</time>
      </trkpt>
      <trkpt lat="49.11527" lon="1.84174">
        <ele>160.3</ele>
        <time>2022-07-31T10:12:34Z</time>
      </trkpt>
      <trkpt lat="49.11519" lon="1.84176">
        <ele>160.1</ele>
        <time>2022-07-31T10:12:40Z</time>
      </trkpt>
      <trkpt lat="49.11513" lon="1.84177">
        <ele>159.9</ele>
        <time>2022-07-31T10:12:45Z</time>
      </trkpt>
      <trkpt lat="49.11505" lon="1.84177">
        <ele>159.3</ele>
        <time>2022-07-31T10:12:51Z</time>
      </trkpt>
      <trkpt lat="49.11498" lon="1.84179">
        <ele>158.8</ele>
        <time>2022-07-31T10:12:57Z</time>
      </trkpt>
      <trkpt lat="49.11492" lon="1.84179">
        <ele>159.1</ele>
        <time>2022-07-31T10:13:03Z</time>
      </trkpt>
      <trkpt lat="49.11485" lon="1.84178">
        <ele>159.6</ele>
        <time>2022-07-31T10:13:08Z</time>
      </trkpt>
      <trkpt lat="49.11481" lon="1.84178">
        <ele>160.2</ele>
        <time>2022-07-31T10:13:13Z</time>
      </trkpt>
      <trkpt lat="49.11474" lon="1.84178">
        <ele>161.5</ele>
        <time>2022-07-31T10:13:19Z</time>
      </trkpt>
      <trkpt lat="49.11466" lon="1.84177">
        <ele>162.9</ele>
        <time>2022-07-31T10:13:24Z</time>
      </trkpt>
      <trkpt lat="49.11455" lon="1.8418">
        <ele>163.6</ele>
        <time>2022-07-31T10:13:30Z</time>
      </trkpt>
      <trkpt lat="49.11448" lon="1.84187">
        <ele>164.1</ele>
        <time>2022-07-31T10:13:35Z</time>
      </trkpt>
      <trkpt lat="49.11442" lon="1.84195">
        <ele>164.4</ele>
        <time>2022-07-31T10:13:41Z</time>
      </trkpt>
      <trkpt lat="49.11434" lon="1.84202">
        <ele>164.2</ele>
        <time>2022-07-31T10:13:47Z</time>
      </trkpt>
      <trkpt lat="49.11424" lon="1.84212">
        <ele>163.6</ele>
        <time>2022-07-31T10:13:53Z</time>
      </trkpt>
      <trkpt lat="49.11416" lon="1.84219">
        <ele>162.9</ele>
        <time>2022-07-31T10:13:59Z</time>
      </trkpt>
      <trkpt lat="49.11414" lon="1.84228">
        <ele>162.4</ele>
        <time>2022-07-31T10:14:04Z</time>
      </trkpt>
      <trkpt lat="49.11415" lon="1.84232">
        <ele>161.7</ele>
        <time>2022-07-31T10:14:09Z</time>
      </trkpt>
      <trkpt lat="49.11416" lon="1.84234">
        <ele>161.3</ele>
        <time>2022-07-31T10:14:15Z</time>
      </trkpt>
      <trkpt lat="49.11417" lon="1.84235">
        <ele>161.3</ele>
        <time>2022-07-31T10:14:20Z</time>
      </trkpt>
      <trkpt lat="49.11417" lon="1.84234">
        <ele>161.4</ele>
        <time>2022-07-31T10:14:26Z</time>
      </trkpt>
      <trkpt lat="49.11418" lon="1.84233">
        <ele>161.5</ele>
        <time>2022-07-31T10:14:31Z</time>
      </trkpt>
      <trkpt lat="49.11417" lon="1.8423">
        <ele>161.5</ele>
        <time>2022-07-31T10:14:37Z</time>
      </trkpt>
      <trkpt lat="49.11418" lon="1.8423">
        <ele>161.5</ele>
        <time>2022-07-31T10:14:43Z</time>
      </trkpt>
      <trkpt lat="49.11421" lon="1.8423">
        <ele>161.4</ele>
        <time>2022-07-31T10:14:49Z</time>
      </trkpt>
      <trkpt lat="49.11422" lon="1.84229">
        <ele>161.4</ele>
        <time>2022-07-31T10:14:54Z</time>
      </trkpt>
      <trkpt lat="49.11423" lon="1.84227">
        <ele>161.3</ele>
        <time>2022-07-31T10:15:00Z</time>
      </trkpt>
      <trkpt lat="49.11424" lon="1.84227">
        <ele>161.1</ele>
        <time>2022-07-31T10:15:05Z</time>
      </trkpt>
      <trkpt lat="49.11424" lon="1.84227">
        <ele>161.1</ele>
        <time>2022-07-31T10:15:11Z</time>
      </trkpt>
      <trkpt lat="49.11424" lon="1.84227">
        <ele>161.1</ele>
        <time>2022-07-31T10:15:17Z</time>
      </trkpt>
      <trkpt lat="49.11424" lon="1.84226">
        <ele>161</ele>
        <time>2022-07-31T10:15:23Z</time>
      </trkpt>
      <trkpt lat="49.11424" lon="1.84226">
        <ele>160.9</ele>
        <time>2022-07-31T10:15:28Z</time>
      </trkpt>
      <trkpt lat="49.11424" lon="1.84227">
        <ele>160.8</ele>
        <time>2022-07-31T10:15:34Z</time>
      </trkpt>
      <trkpt lat="49.11423" lon="1.84227">
        <ele>160.8</ele>
        <time>2022-07-31T10:15:39Z</time>
      </trkpt>
      <trkpt lat="49.11423" lon="1.84227">
        <ele>160.8</ele>
        <time>2022-07-31T10:15:44Z</time>
      </trkpt>
      <trkpt lat="49.11423" lon="1.84227">
        <ele>160.7</ele>
        <time>2022-07-31T10:15:50Z</time>
      </trkpt>
      <trkpt lat="49.11423" lon="1.84227">
        <ele>160.7</ele>
        <time>2022-07-31T10:15:56Z</time>
      </trkpt>
      <trkpt lat="49.11423" lon="1.84228">
        <ele>160.6</ele>
        <time>2022-07-31T10:16:01Z</time>
      </trkpt>
      <trkpt lat="49.11423" lon="1.84229">
        <ele>160.6</ele>
        <time>2022-07-31T10:16:06Z</time>
      </trkpt>
      <trkpt lat="49.11422" lon="1.8423">
        <ele>160.6</ele>
        <time>2022-07-31T10:16:12Z</time>
      </trkpt>
      <trkpt lat="49.11423" lon="1.84231">
        <ele>160.5</ele>
        <time>2022-07-31T10:16:17Z</time>
      </trkpt>
      <trkpt lat="49.11423" lon="1.84231">
        <ele>160.5</ele>
        <time>2022-07-31T10:16:23Z</time>
      </trkpt>
      <trkpt lat="49.11423" lon="1.84231">
        <ele>160.5</ele>
        <time>2022-07-31T10:16:28Z</time>
      </trkpt>
      <trkpt lat="49.11423" lon="1.84231">
        <ele>160.4</ele>
        <time>2022-07-31T10:16:34Z</time>
      </trkpt>
      <trkpt lat="49.11423" lon="1.84231">
        <ele>160.3</ele>
        <time>2022-07-31T10:16:39Z</time>
      </trkpt>
      <trkpt lat="49.11423" lon="1.84231">
        <ele>160.2</ele>
        <time>2022-07-31T10:16:45Z</time>
      </trkpt>
      <trkpt lat="49.11423" lon="1.84231">
        <ele>160.1</ele>
        <time>2022-07-31T10:16:51Z</time>
      </trkpt>
      <trkpt lat="49.11423" lon="1.84231">
        <ele>160.1</ele>
        <time>2022-07-31T10:16:56Z</time>
      </trkpt>
      <trkpt lat="49.11423" lon="1.84231">
        <ele>160</ele>
        <time>2022-07-31T10:17:02Z</time>
      </trkpt>
      <trkpt lat="49.11423" lon="1.84231">
        <ele>159.9</ele>
        <time>2022-07-31T10:17:07Z</time>
      </trkpt>
      <trkpt lat="49.11423" lon="1.84231">
        <ele>159.8</ele>
        <time>2022-07-31T10:17:13Z</time>
      </trkpt>
      <trkpt lat="49.11423" lon="1.84231">
        <ele>159.7</ele>
        <time>2022-07-31T10:17:18Z</time>
      </trkpt>
      <trkpt lat="49.11423" lon="1.84231">
        <ele>159.6</ele>
        <time>2022-07-31T10:17:24Z</time>
      </trkpt>
      <trkpt lat="49.11423" lon="1.84231">
        <ele>159.5</ele>
        <time>2022-07-31T10:17:29Z</time>
      </trkpt>
      <trkpt lat="49.11423" lon="1.84231">
        <ele>159.4</ele>
        <time>2022-07-31T10:17:34Z</time>
      </trkpt>
      <trkpt lat="49.11422" lon="1.84231">
        <ele>159</ele>
        <time>2022-07-31T10:17:39Z</time>
      </trkpt>
      <trkpt lat="49.11422" lon="1.84231">
        <ele>158.9</ele>
        <time>2022-07-31T10:17:44Z</time>
      </trkpt>
      <trkpt lat="49.11422" lon="1.84231">
        <ele>158.8</ele>
        <time>2022-07-31T10:17:50Z</time>
      </trkpt>
      <trkpt lat="49.11422" lon="1.84231">
        <ele>158.8</ele>
        <time>2022-07-31T10:17:55Z</time>
      </trkpt>
      <trkpt lat="49.11422" lon="1.84231">
        <ele>158.7</ele>
        <time>2022-07-31T10:18:00Z</time>
      </trkpt>
      <trkpt lat="49.11422" lon="1.84231">
        <ele>158.6</ele>
        <time>2022-07-31T10:18:06Z</time>
      </trkpt>
      <trkpt lat="49.11422" lon="1.84231">
        <ele>158.5</ele>
        <time>2022-07-31T10:18:11Z</time>
      </trkpt>
      <trkpt lat="49.11422" lon="1.8423">
        <ele>158.4</ele>
        <time>2022-07-31T10:18:17Z</time>
      </trkpt>
      <trkpt lat="49.11422" lon="1.8423">
        <ele>158.4</ele>
        <time>2022-07-31T10:18:22Z</time>
      </trkpt>
      <trkpt lat="49.11422" lon="1.8423">
        <ele>158.2</ele>
        <time>2022-07-31T10:18:28Z</time>
      </trkpt>
      <trkpt lat="49.11422" lon="1.84229">
        <ele>158.2</ele>
        <time>2022-07-31T10:18:33Z</time>
      </trkpt>
      <trkpt lat="49.11422" lon="1.84228">
        <ele>158.1</ele>
        <time>2022-07-31T10:18:39Z</time>
      </trkpt>
      <trkpt lat="49.11422" lon="1.84228">
        <ele>158</ele>
        <time>2022-07-31T10:18:45Z</time>
      </trkpt>
      <trkpt lat="49.11421" lon="1.84228">
        <ele>157.9</ele>
        <time>2022-07-31T10:18:50Z</time>
      </trkpt>
      <trkpt lat="49.11422" lon="1.84227">
        <ele>157.9</ele>
        <time>2022-07-31T10:18:55Z</time>
      </trkpt>
      <trkpt lat="49.11422" lon="1.84227">
        <ele>157.8</ele>
        <time>2022-07-31T10:19:01Z</time>
      </trkpt>
      <trkpt lat="49.11421" lon="1.84227">
        <ele>157.7</ele>
        <time>2022-07-31T10:19:07Z</time>
      </trkpt>
      <trkpt lat="49.1142" lon="1.84227">
        <ele>157.7</ele>
        <time>2022-07-31T10:19:12Z</time>
      </trkpt>
      <trkpt lat="49.11419" lon="1.84227">
        <ele>157.7</ele>
        <time>2022-07-31T10:19:18Z</time>
      </trkpt>
      <trkpt lat="49.11419" lon="1.84227">
        <ele>157.8</ele>
        <time>2022-07-31T10:19:23Z</time>
      </trkpt>
      <trkpt lat="49.11419" lon="1.84227">
        <ele>157.8</ele>
        <time>2022-07-31T10:19:29Z</time>
      </trkpt>
      <trkpt lat="49.11419" lon="1.84229">
        <ele>157.8</ele>
        <time>2022-07-31T10:19:35Z</time>
      </trkpt>
      <trkpt lat="49.11421" lon="1.84229">
        <ele>157.6</ele>
        <time>2022-07-31T10:19:41Z</time>
      </trkpt>
      <trkpt lat="49.11421" lon="1.84228">
        <ele>157.5</ele>
        <time>2022-07-31T10:19:46Z</time>
      </trkpt>
      <trkpt lat="49.11422" lon="1.84228">
        <ele>157.4</ele>
        <time>2022-07-31T10:19:52Z</time>
      </trkpt>
      <trkpt lat="49.11422" lon="1.84228">
        <ele>157.3</ele>
        <time>2022-07-31T10:19:58Z</time>
      </trkpt>
      <trkpt lat="49.11422" lon="1.84229">
        <ele>157.3</ele>
        <time>2022-07-31T10:20:03Z</time>
      </trkpt>
      <trkpt lat="49.11422" lon="1.84228">
        <ele>156.9</ele>
        <time>2022-07-31T10:20:09Z</time>
      </trkpt>
      <trkpt lat="49.11421" lon="1.84228">
        <ele>156.7</ele>
        <time>2022-07-31T10:20:14Z</time>
      </trkpt>
      <trkpt lat="49.11421" lon="1.84227">
        <ele>156.5</ele>
        <time>2022-07-31T10:20:20Z</time>
      </trkpt>
      <trkpt lat="49.11421" lon="1.84227">
        <ele>156.4</ele>
        <time>2022-07-31T10:20:26Z</time>
      </trkpt>
      <trkpt lat="49.1142" lon="1.84228">
        <ele>156.4</ele>
        <time>2022-07-31T10:20:31Z</time>
      </trkpt>
      <trkpt lat="49.1142" lon="1.84228">
        <ele>156.4</ele>
        <time>2022-07-31T10:20:36Z</time>
      </trkpt>
      <trkpt lat="49.11419" lon="1.84228">
        <ele>156.2</ele>
        <time>2022-07-31T10:20:42Z</time>
      </trkpt>
      <trkpt lat="49.11416" lon="1.84226">
        <ele>156.1</ele>
        <time>2022-07-31T10:20:48Z</time>
      </trkpt>
      <trkpt lat="49.11416" lon="1.84224">
        <ele>156</ele>
        <time>2022-07-31T10:20:53Z</time>
      </trkpt>
      <trkpt lat="49.11415" lon="1.84224">
        <ele>155.9</ele>
        <time>2022-07-31T10:20:59Z</time>
      </trkpt>
      <trkpt lat="49.11415" lon="1.84224">
        <ele>155.9</ele>
        <time>2022-07-31T10:21:04Z</time>
      </trkpt>
      <trkpt lat="49.11415" lon="1.84224">
        <ele>155.8</ele>
        <time>2022-07-31T10:21:10Z</time>
      </trkpt>
      <trkpt lat="49.11415" lon="1.84224">
        <ele>155.8</ele>
        <time>2022-07-31T10:21:15Z</time>
      </trkpt>
      <trkpt lat="49.11415" lon="1.84224">
        <ele>155.9</ele>
        <time>2022-07-31T10:21:21Z</time>
      </trkpt>
      <trkpt lat="49.11415" lon="1.84225">
        <ele>155.9</ele>
        <time>2022-07-31T10:21:26Z</time>
      </trkpt>
      <trkpt lat="49.11415" lon="1.84225">
        <ele>155.9</ele>
        <time>2022-07-31T10:21:32Z</time>
      </trkpt>
      <trkpt lat="49.11415" lon="1.84225">
        <ele>155.9</ele>
        <time>2022-07-31T10:21:37Z</time>
      </trkpt>
      <trkpt lat="49.11415" lon="1.84225">
        <ele>155.9</ele>
        <time>2022-07-31T10:21:43Z</time>
      </trkpt>
      <trkpt lat="49.11417" lon="1.84227">
        <ele>155.9</ele>
        <time>2022-07-31T10:21:48Z</time>
      </trkpt>
      <trkpt lat="49.11418" lon="1.84227">
        <ele>155.9</ele>
        <time>2022-07-31T10:21:54Z</time>
      </trkpt>
      <trkpt lat="49.11418" lon="1.84227">
        <ele>155.8</ele>
        <time>2022-07-31T10:21:59Z</time>
      </trkpt>
      <trkpt lat="49.11418" lon="1.84227">
        <ele>155.8</ele>
        <time>2022-07-31T10:22:05Z</time>
      </trkpt>
      <trkpt lat="49.11418" lon="1.84227">
        <ele>155.7</ele>
        <time>2022-07-31T10:22:10Z</time>
      </trkpt>
      <trkpt lat="49.11418" lon="1.84227">
        <ele>155.6</ele>
        <time>2022-07-31T10:22:16Z</time>
      </trkpt>
      <trkpt lat="49.11418" lon="1.84227">
        <ele>155.5</ele>
        <time>2022-07-31T10:22:22Z</time>
      </trkpt>
      <trkpt lat="49.11418" lon="1.84228">
        <ele>155.5</ele>
        <time>2022-07-31T10:22:28Z</time>
      </trkpt>
      <trkpt lat="49.11418" lon="1.84228">
        <ele>155.5</ele>
        <time>2022-07-31T10:22:34Z</time>
      </trkpt>
      <trkpt lat="49.11418" lon="1.84228">
        <ele>155.5</ele>
        <time>2022-07-31T10:22:40Z</time>
      </trkpt>
      <trkpt lat="49.11418" lon="1.84228">
        <ele>155.6</ele>
        <time>2022-07-31T10:22:45Z</time>
      </trkpt>
      <trkpt lat="49.11418" lon="1.84227">
        <ele>155.6</ele>
        <time>2022-07-31T10:22:51Z</time>
      </trkpt>
      <trkpt lat="49.11418" lon="1.84228">
        <ele>155.6</ele>
        <time>2022-07-31T10:22:56Z</time>
      </trkpt>
      <trkpt lat="49.11418" lon="1.84228">
        <ele>155.7</ele>
        <time>2022-07-31T10:23:02Z</time>
      </trkpt>
      <trkpt lat="49.11418" lon="1.84228">
        <ele>155.8</ele>
        <time>2022-07-31T10:23:08Z</time>
      </trkpt>
      <trkpt lat="49.11418" lon="1.84228">
        <ele>155.8</ele>
        <time>2022-07-31T10:23:14Z</time>
      </trkpt>
      <trkpt lat="49.11418" lon="1.84227">
        <ele>155.9</ele>
        <time>2022-07-31T10:23:19Z</time>
      </trkpt>
      <trkpt lat="49.11418" lon="1.84227">
        <ele>155.9</ele>
        <time>2022-07-31T10:23:25Z</time>
      </trkpt>
      <trkpt lat="49.11418" lon="1.84227">
        <ele>156</ele>
        <time>2022-07-31T10:23:31Z</time>
      </trkpt>
      <trkpt lat="49.11418" lon="1.84227">
        <ele>156</ele>
        <time>2022-07-31T10:23:37Z</time>
      </trkpt>
      <trkpt lat="49.11419" lon="1.84228">
        <ele>156</ele>
        <time>2022-07-31T10:23:43Z</time>
      </trkpt>
      <trkpt lat="49.1142" lon="1.84228">
        <ele>156</ele>
        <time>2022-07-31T10:23:49Z</time>
      </trkpt>
      <trkpt lat="49.1142" lon="1.84228">
        <ele>155.9</ele>
        <time>2022-07-31T10:23:54Z</time>
      </trkpt>
      <trkpt lat="49.11419" lon="1.84228">
        <ele>155.9</ele>
        <time>2022-07-31T10:24:00Z</time>
      </trkpt>
      <trkpt lat="49.11419" lon="1.84228">
        <ele>155.9</ele>
        <time>2022-07-31T10:24:05Z</time>
      </trkpt>
      <trkpt lat="49.11418" lon="1.84228">
        <ele>155.8</ele>
        <time>2022-07-31T10:24:11Z</time>
      </trkpt>
      <trkpt lat="49.11417" lon="1.84229">
        <ele>155.8</ele>
        <time>2022-07-31T10:24:16Z</time>
      </trkpt>
      <trkpt lat="49.11417" lon="1.84229">
        <ele>155.6</ele>
        <time>2022-07-31T10:24:22Z</time>
      </trkpt>
      <trkpt lat="49.11419" lon="1.84228">
        <ele>155.5</ele>
        <time>2022-07-31T10:24:27Z</time>
      </trkpt>
      <trkpt lat="49.11419" lon="1.84229">
        <ele>155.5</ele>
        <time>2022-07-31T10:24:33Z</time>
      </trkpt>
      <trkpt lat="49.11421" lon="1.84227">
        <ele>155.6</ele>
        <time>2022-07-31T10:24:38Z</time>
      </trkpt>
      <trkpt lat="49.11422" lon="1.84227">
        <ele>155.7</ele>
        <time>2022-07-31T10:24:44Z</time>
      </trkpt>
      <trkpt lat="49.11423" lon="1.84227">
        <ele>155.7</ele>
        <time>2022-07-31T10:24:49Z</time>
      </trkpt>
      <trkpt lat="49.11423" lon="1.84227">
        <ele>155.4</ele>
        <time>2022-07-31T10:24:55Z</time>
      </trkpt>
      <trkpt lat="49.11421" lon="1.84224">
        <ele>155.2</ele>
        <time>2022-07-31T10:25:01Z</time>
      </trkpt>
      <trkpt lat="49.11421" lon="1.84224">
        <ele>155.1</ele>
        <time>2022-07-31T10:25:07Z</time>
      </trkpt>
      <trkpt lat="49.11421" lon="1.84225">
        <ele>154.9</ele>
        <time>2022-07-31T10:25:13Z</time>
      </trkpt>
      <trkpt lat="49.11421" lon="1.84226">
        <ele>154.2</ele>
        <time>2022-07-31T10:25:19Z</time>
      </trkpt>
      <trkpt lat="49.11421" lon="1.84225">
        <ele>153.2</ele>
        <time>2022-07-31T10:25:24Z</time>
      </trkpt>
      <trkpt lat="49.11422" lon="1.84228">
        <ele>152.5</ele>
        <time>2022-07-31T10:25:30Z</time>
      </trkpt>
      <trkpt lat="49.11422" lon="1.84228">
        <ele>152.5</ele>
        <time>2022-07-31T10:25:36Z</time>
      </trkpt>
      <trkpt lat="49.11423" lon="1.84228">
        <ele>152.5</ele>
        <time>2022-07-31T10:25:41Z</time>
      </trkpt>
      <trkpt lat="49.11423" lon="1.84228">
        <ele>152.5</ele>
        <time>2022-07-31T10:25:47Z</time>
      </trkpt>
      <trkpt lat="49.11423" lon="1.84228">
        <ele>152.4</ele>
        <time>2022-07-31T10:25:53Z</time>
      </trkpt>
      <trkpt lat="49.11423" lon="1.84229">
        <ele>152.3</ele>
        <time>2022-07-31T10:25:58Z</time>
      </trkpt>
      <trkpt lat="49.11422" lon="1.84229">
        <ele>152.1</ele>
        <time>2022-07-31T10:26:04Z</time>
      </trkpt>
      <trkpt lat="49.11422" lon="1.84229">
        <ele>152</ele>
        <time>2022-07-31T10:26:10Z</time>
      </trkpt>
      <trkpt lat="49.11421" lon="1.84228">
        <ele>151.9</ele>
        <time>2022-07-31T10:26:15Z</time>
      </trkpt>
      <trkpt lat="49.1142" lon="1.84229">
        <ele>151.8</ele>
        <time>2022-07-31T10:26:21Z</time>
      </trkpt>
      <trkpt lat="49.1142" lon="1.84229">
        <ele>151.8</ele>
        <time>2022-07-31T10:26:26Z</time>
      </trkpt>
      <trkpt lat="49.1142" lon="1.8423">
        <ele>151.8</ele>
        <time>2022-07-31T10:26:31Z</time>
      </trkpt>
      <trkpt lat="49.1142" lon="1.84231">
        <ele>151.8</ele>
        <time>2022-07-31T10:26:37Z</time>
      </trkpt>
      <trkpt lat="49.1142" lon="1.84231">
        <ele>151.7</ele>
        <time>2022-07-31T10:26:42Z</time>
      </trkpt>
      <trkpt lat="49.11419" lon="1.84231">
        <ele>151.7</ele>
        <time>2022-07-31T10:26:48Z</time>
      </trkpt>
      <trkpt lat="49.11418" lon="1.8423">
        <ele>151.8</ele>
        <time>2022-07-31T10:26:53Z</time>
      </trkpt>
      <trkpt lat="49.11418" lon="1.8423">
        <ele>151.8</ele>
        <time>2022-07-31T10:26:59Z</time>
      </trkpt>
      <trkpt lat="49.11418" lon="1.84229">
        <ele>151.8</ele>
        <time>2022-07-31T10:27:05Z</time>
      </trkpt>
      <trkpt lat="49.11418" lon="1.8423">
        <ele>151.9</ele>
        <time>2022-07-31T10:27:11Z</time>
      </trkpt>
      <trkpt lat="49.11417" lon="1.84229">
        <ele>151.9</ele>
        <time>2022-07-31T10:27:16Z</time>
      </trkpt>
      <trkpt lat="49.11417" lon="1.84229">
        <ele>152</ele>
        <time>2022-07-31T10:27:22Z</time>
      </trkpt>
      <trkpt lat="49.11417" lon="1.84229">
        <ele>152</ele>
        <time>2022-07-31T10:27:27Z</time>
      </trkpt>
      <trkpt lat="49.11416" lon="1.84229">
        <ele>152</ele>
        <time>2022-07-31T10:27:33Z</time>
      </trkpt>
      <trkpt lat="49.11416" lon="1.8423">
        <ele>151.9</ele>
        <time>2022-07-31T10:27:39Z</time>
      </trkpt>
      <trkpt lat="49.11417" lon="1.8423">
        <ele>151.9</ele>
        <time>2022-07-31T10:27:45Z</time>
      </trkpt>
      <trkpt lat="49.11417" lon="1.8423">
        <ele>151.9</ele>
        <time>2022-07-31T10:27:51Z</time>
      </trkpt>
      <trkpt lat="49.11417" lon="1.8423">
        <ele>151.8</ele>
        <time>2022-07-31T10:27:56Z</time>
      </trkpt>
      <trkpt lat="49.11417" lon="1.8423">
        <ele>151.7</ele>
        <time>2022-07-31T10:28:02Z</time>
      </trkpt>
      <trkpt lat="49.11417" lon="1.8423">
        <ele>151.7</ele>
        <time>2022-07-31T10:28:07Z</time>
      </trkpt>
      <trkpt lat="49.11418" lon="1.8423">
        <ele>151.7</ele>
        <time>2022-07-31T10:28:13Z</time>
      </trkpt>
      <trkpt lat="49.11418" lon="1.84231">
        <ele>151.7</ele>
        <time>2022-07-31T10:28:18Z</time>
      </trkpt>
      <trkpt lat="49.11418" lon="1.84231">
        <ele>151.7</ele>
        <time>2022-07-31T10:28:24Z</time>
      </trkpt>
      <trkpt lat="49.11418" lon="1.84231">
        <ele>151.7</ele>
        <time>2022-07-31T10:28:29Z</time>
      </trkpt>
      <trkpt lat="49.11418" lon="1.84231">
        <ele>151.7</ele>
        <time>2022-07-31T10:28:35Z</time>
      </trkpt>
      <trkpt lat="49.11418" lon="1.84231">
        <ele>151.7</ele>
        <time>2022-07-31T10:28:40Z</time>
      </trkpt>
      <trkpt lat="49.11418" lon="1.84231">
        <ele>151.7</ele>
        <time>2022-07-31T10:28:46Z</time>
      </trkpt>
      <trkpt lat="49.11417" lon="1.84231">
        <ele>151.7</ele>
        <time>2022-07-31T10:28:51Z</time>
      </trkpt>
      <trkpt lat="49.11417" lon="1.8423">
        <ele>151.7</ele>
        <time>2022-07-31T10:28:57Z</time>
      </trkpt>
      <trkpt lat="49.11417" lon="1.8423">
        <ele>151.7</ele>
        <time>2022-07-31T10:29:02Z</time>
      </trkpt>
      <trkpt lat="49.11417" lon="1.8423">
        <ele>151.8</ele>
        <time>2022-07-31T10:29:08Z</time>
      </trkpt>
      <trkpt lat="49.11417" lon="1.8423">
        <ele>151.8</ele>
        <time>2022-07-31T10:29:14Z</time>
      </trkpt>
      <trkpt lat="49.11417" lon="1.8423">
        <ele>151.9</ele>
        <time>2022-07-31T10:29:20Z</time>
      </trkpt>
      <trkpt lat="49.11417" lon="1.8423">
        <ele>151.9</ele>
        <time>2022-07-31T10:29:26Z</time>
      </trkpt>
      <trkpt lat="49.11417" lon="1.84229">
        <ele>152</ele>
        <time>2022-07-31T10:29:32Z</time>
      </trkpt>
      <trkpt lat="49.11417" lon="1.84228">
        <ele>152.1</ele>
        <time>2022-07-31T10:29:38Z</time>
      </trkpt>
      <trkpt lat="49.11417" lon="1.84227">
        <ele>152.1</ele>
        <time>2022-07-31T10:29:44Z</time>
      </trkpt>
      <trkpt lat="49.11417" lon="1.84227">
        <ele>152.1</ele>
        <time>2022-07-31T10:29:50Z</time>
      </trkpt>
      <trkpt lat="49.11416" lon="1.84226">
        <ele>152.1</ele>
        <time>2022-07-31T10:29:56Z</time>
      </trkpt>
      <trkpt lat="49.11416" lon="1.84226">
        <ele>152</ele>
        <time>2022-07-31T10:30:02Z</time>
      </trkpt>
      <trkpt lat="49.11416" lon="1.84226">
        <ele>151.9</ele>
        <time>2022-07-31T10:30:07Z</time>
      </trkpt>
      <trkpt lat="49.11415" lon="1.84226">
        <ele>151.8</ele>
        <time>2022-07-31T10:30:13Z</time>
      </trkpt>
      <trkpt lat="49.11415" lon="1.84227">
        <ele>151.6</ele>
        <time>2022-07-31T10:30:18Z</time>
      </trkpt>
      <trkpt lat="49.11415" lon="1.84228">
        <ele>151.6</ele>
        <time>2022-07-31T10:30:24Z</time>
      </trkpt>
      <trkpt lat="49.11415" lon="1.84228">
        <ele>151.7</ele>
        <time>2022-07-31T10:30:29Z</time>
      </trkpt>
      <trkpt lat="49.11415" lon="1.84228">
        <ele>151.8</ele>
        <time>2022-07-31T10:30:35Z</time>
      </trkpt>
      <trkpt lat="49.11416" lon="1.84229">
        <ele>151.9</ele>
        <time>2022-07-31T10:30:40Z</time>
      </trkpt>
      <trkpt lat="49.11416" lon="1.8423">
        <ele>152.1</ele>
        <time>2022-07-31T10:30:46Z</time>
      </trkpt>
      <trkpt lat="49.11416" lon="1.84229">
        <ele>152.1</ele>
        <time>2022-07-31T10:30:51Z</time>
      </trkpt>
      <trkpt lat="49.11417" lon="1.8423">
        <ele>152.1</ele>
        <time>2022-07-31T10:30:57Z</time>
      </trkpt>
      <trkpt lat="49.11418" lon="1.84229">
        <ele>152.3</ele>
        <time>2022-07-31T10:31:02Z</time>
      </trkpt>
      <trkpt lat="49.11418" lon="1.84229">
        <ele>152.3</ele>
        <time>2022-07-31T10:31:08Z</time>
      </trkpt>
      <trkpt lat="49.11419" lon="1.8423">
        <ele>152.3</ele>
        <time>2022-07-31T10:31:13Z</time>
      </trkpt>
      <trkpt lat="49.11419" lon="1.84231">
        <ele>152.2</ele>
        <time>2022-07-31T10:31:19Z</time>
      </trkpt>
      <trkpt lat="49.11419" lon="1.84231">
        <ele>152.2</ele>
        <time>2022-07-31T10:31:24Z</time>
      </trkpt>
      <trkpt lat="49.11419" lon="1.84231">
        <ele>152.2</ele>
        <time>2022-07-31T10:31:30Z</time>
      </trkpt>
      <trkpt lat="49.11419" lon="1.84231">
        <ele>152.2</ele>
        <time>2022-07-31T10:31:35Z</time>
      </trkpt>
      <trkpt lat="49.11419" lon="1.84232">
        <ele>152.2</ele>
        <time>2022-07-31T10:31:41Z</time>
      </trkpt>
      <trkpt lat="49.11419" lon="1.84232">
        <ele>152.2</ele>
        <time>2022-07-31T10:31:46Z</time>
      </trkpt>
      <trkpt lat="49.11419" lon="1.84232">
        <ele>152.1</ele>
        <time>2022-07-31T10:31:52Z</time>
      </trkpt>
      <trkpt lat="49.11419" lon="1.84232">
        <ele>152</ele>
        <time>2022-07-31T10:31:58Z</time>
      </trkpt>
      <trkpt lat="49.11419" lon="1.84232">
        <ele>152</ele>
        <time>2022-07-31T10:32:03Z</time>
      </trkpt>
      <trkpt lat="49.11419" lon="1.84232">
        <ele>151.9</ele>
        <time>2022-07-31T10:32:09Z</time>
      </trkpt>
      <trkpt lat="49.1142" lon="1.84232">
        <ele>151.9</ele>
        <time>2022-07-31T10:32:14Z</time>
      </trkpt>
      <trkpt lat="49.1142" lon="1.84232">
        <ele>151.8</ele>
        <time>2022-07-31T10:32:20Z</time>
      </trkpt>
      <trkpt lat="49.1142" lon="1.84232">
        <ele>151.8</ele>
        <time>2022-07-31T10:32:25Z</time>
      </trkpt>
      <trkpt lat="49.1142" lon="1.84232">
        <ele>151.8</ele>
        <time>2022-07-31T10:32:31Z</time>
      </trkpt>
      <trkpt lat="49.1142" lon="1.84232">
        <ele>151.8</ele>
        <time>2022-07-31T10:32:37Z</time>
      </trkpt>
      <trkpt lat="49.11421" lon="1.84232">
        <ele>151.7</ele>
        <time>2022-07-31T10:32:42Z</time>
      </trkpt>
      <trkpt lat="49.11421" lon="1.84233">
        <ele>151.7</ele>
        <time>2022-07-31T10:32:47Z</time>
      </trkpt>
      <trkpt lat="49.11421" lon="1.84233">
        <ele>151.6</ele>
        <time>2022-07-31T10:32:53Z</time>
      </trkpt>
      <trkpt lat="49.11421" lon="1.84233">
        <ele>151.5</ele>
        <time>2022-07-31T10:32:58Z</time>
      </trkpt>
      <trkpt lat="49.11421" lon="1.84233">
        <ele>151.4</ele>
        <time>2022-07-31T10:33:04Z</time>
      </trkpt>
      <trkpt lat="49.11422" lon="1.84233">
        <ele>151.3</ele>
        <time>2022-07-31T10:33:09Z</time>
      </trkpt>
      <trkpt lat="49.11422" lon="1.84233">
        <ele>151.2</ele>
        <time>2022-07-31T10:33:15Z</time>
      </trkpt>
      <trkpt lat="49.11422" lon="1.84234">
        <ele>151.1</ele>
        <time>2022-07-31T10:33:20Z</time>
      </trkpt>
      <trkpt lat="49.11422" lon="1.84234">
        <ele>151</ele>
        <time>2022-07-31T10:33:26Z</time>
      </trkpt>
      <trkpt lat="49.11422" lon="1.84234">
        <ele>150.9</ele>
        <time>2022-07-31T10:33:31Z</time>
      </trkpt>
      <trkpt lat="49.11422" lon="1.84234">
        <ele>150.9</ele>
        <time>2022-07-31T10:33:37Z</time>
      </trkpt>
      <trkpt lat="49.11422" lon="1.84234">
        <ele>150.8</ele>
        <time>2022-07-31T10:33:43Z</time>
      </trkpt>
      <trkpt lat="49.11422" lon="1.84234">
        <ele>150.7</ele>
        <time>2022-07-31T10:33:48Z</time>
      </trkpt>
      <trkpt lat="49.11421" lon="1.84233">
        <ele>150.7</ele>
        <time>2022-07-31T10:33:53Z</time>
      </trkpt>
      <trkpt lat="49.11421" lon="1.84233">
        <ele>150.6</ele>
        <time>2022-07-31T10:33:59Z</time>
      </trkpt>
      <trkpt lat="49.11421" lon="1.84233">
        <ele>150.6</ele>
        <time>2022-07-31T10:34:04Z</time>
      </trkpt>
      <trkpt lat="49.1142" lon="1.84233">
        <ele>150.5</ele>
        <time>2022-07-31T10:34:10Z</time>
      </trkpt>
      <trkpt lat="49.1142" lon="1.84232">
        <ele>150.5</ele>
        <time>2022-07-31T10:34:15Z</time>
      </trkpt>
      <trkpt lat="49.11418" lon="1.84232">
        <ele>150.1</ele>
        <time>2022-07-31T10:34:21Z</time>
      </trkpt>
      <trkpt lat="49.11418" lon="1.84232">
        <ele>150.1</ele>
        <time>2022-07-31T10:34:26Z</time>
      </trkpt>
      <trkpt lat="49.11417" lon="1.84232">
        <ele>150</ele>
        <time>2022-07-31T10:34:32Z</time>
      </trkpt>
      <trkpt lat="49.11416" lon="1.84232">
        <ele>149.9</ele>
        <time>2022-07-31T10:34:38Z</time>
      </trkpt>
      <trkpt lat="49.11416" lon="1.84231">
        <ele>149.8</ele>
        <time>2022-07-31T10:34:44Z</time>
      </trkpt>
      <trkpt lat="49.11416" lon="1.84231">
        <ele>149.8</ele>
        <time>2022-07-31T10:34:49Z</time>
      </trkpt>
      <trkpt lat="49.11416" lon="1.8423">
        <ele>149.9</ele>
        <time>2022-07-31T10:34:55Z</time>
      </trkpt>
      <trkpt lat="49.11417" lon="1.8423">
        <ele>149.9</ele>
        <time>2022-07-31T10:35:00Z</time>
      </trkpt>
      <trkpt lat="49.11417" lon="1.84229">
        <ele>149.9</ele>
        <time>2022-07-31T10:35:06Z</time>
      </trkpt>
      <trkpt lat="49.11417" lon="1.84229">
        <ele>150</ele>
        <time>2022-07-31T10:35:11Z</time>
      </trkpt>
      <trkpt lat="49.11417" lon="1.84229">
        <ele>150</ele>
        <time>2022-07-31T10:35:16Z</time>
      </trkpt>
      <trkpt lat="49.11417" lon="1.84229">
        <ele>150.1</ele>
        <time>2022-07-31T10:35:22Z</time>
      </trkpt>
      <trkpt lat="49.11417" lon="1.84229">
        <ele>150.1</ele>
        <time>2022-07-31T10:35:28Z</time>
      </trkpt>
      <trkpt lat="49.11418" lon="1.84229">
        <ele>150.1</ele>
        <time>2022-07-31T10:35:34Z</time>
      </trkpt>
      <trkpt lat="49.11418" lon="1.84229">
        <ele>150.1</ele>
        <time>2022-07-31T10:35:39Z</time>
      </trkpt>
      <trkpt lat="49.11419" lon="1.84229">
        <ele>150.2</ele>
        <time>2022-07-31T10:35:45Z</time>
      </trkpt>
      <trkpt lat="49.11419" lon="1.8423">
        <ele>150.2</ele>
        <time>2022-07-31T10:35:50Z</time>
      </trkpt>
      <trkpt lat="49.1142" lon="1.8423">
        <ele>150.3</ele>
        <time>2022-07-31T10:35:56Z</time>
      </trkpt>
      <trkpt lat="49.1142" lon="1.8423">
        <ele>150.3</ele>
        <time>2022-07-31T10:36:02Z</time>
      </trkpt>
      <trkpt lat="49.11422" lon="1.84234">
        <ele>150.4</ele>
        <time>2022-07-31T10:36:08Z</time>
      </trkpt>
      <trkpt lat="49.11423" lon="1.84235">
        <ele>150.4</ele>
        <time>2022-07-31T10:36:14Z</time>
      </trkpt>
      <trkpt lat="49.11423" lon="1.84235">
        <ele>150.5</ele>
        <time>2022-07-31T10:36:20Z</time>
      </trkpt>
      <trkpt lat="49.11423" lon="1.84234">
        <ele>150.6</ele>
        <time>2022-07-31T10:36:26Z</time>
      </trkpt>
      <trkpt lat="49.11426" lon="1.84234">
        <ele>151.2</ele>
        <time>2022-07-31T10:36:32Z</time>
      </trkpt>
      <trkpt lat="49.11427" lon="1.84233">
        <ele>151.4</ele>
        <time>2022-07-31T10:36:37Z</time>
      </trkpt>
      <trkpt lat="49.11427" lon="1.84233">
        <ele>151.5</ele>
        <time>2022-07-31T10:36:43Z</time>
      </trkpt>
      <trkpt lat="49.11426" lon="1.84233">
        <ele>151.5</ele>
        <time>2022-07-31T10:36:49Z</time>
      </trkpt>
      <trkpt lat="49.11426" lon="1.84234">
        <ele>151.6</ele>
        <time>2022-07-31T10:36:54Z</time>
      </trkpt>
      <trkpt lat="49.11426" lon="1.84234">
        <ele>151.6</ele>
        <time>2022-07-31T10:37:00Z</time>
      </trkpt>
      <trkpt lat="49.11425" lon="1.84234">
        <ele>151.7</ele>
        <time>2022-07-31T10:37:05Z</time>
      </trkpt>
      <trkpt lat="49.11424" lon="1.84235">
        <ele>151.8</ele>
        <time>2022-07-31T10:37:11Z</time>
      </trkpt>
      <trkpt lat="49.11424" lon="1.84236">
        <ele>151.9</ele>
        <time>2022-07-31T10:37:16Z</time>
      </trkpt>
      <trkpt lat="49.11422" lon="1.84237">
        <ele>152.2</ele>
        <time>2022-07-31T10:37:22Z</time>
      </trkpt>
      <trkpt lat="49.11422" lon="1.84238">
        <ele>152.3</ele>
        <time>2022-07-31T10:37:27Z</time>
      </trkpt>
      <trkpt lat="49.11422" lon="1.84238">
        <ele>152.4</ele>
        <time>2022-07-31T10:37:33Z</time>
      </trkpt>
      <trkpt lat="49.11422" lon="1.84238">
        <ele>152.4</ele>
        <time>2022-07-31T10:37:38Z</time>
      </trkpt>
      <trkpt lat="49.11422" lon="1.84237">
        <ele>152.5</ele>
        <time>2022-07-31T10:37:44Z</time>
      </trkpt>
      <trkpt lat="49.11422" lon="1.84237">
        <ele>152.6</ele>
        <time>2022-07-31T10:37:50Z</time>
      </trkpt>
      <trkpt lat="49.11422" lon="1.84236">
        <ele>152.7</ele>
        <time>2022-07-31T10:37:56Z</time>
      </trkpt>
      <trkpt lat="49.11423" lon="1.84234">
        <ele>152.9</ele>
        <time>2022-07-31T10:38:01Z</time>
      </trkpt>
      <trkpt lat="49.11422" lon="1.84233">
        <ele>153</ele>
        <time>2022-07-31T10:38:07Z</time>
      </trkpt>
      <trkpt lat="49.11421" lon="1.84233">
        <ele>153</ele>
        <time>2022-07-31T10:38:13Z</time>
      </trkpt>
      <trkpt lat="49.11421" lon="1.84233">
        <ele>153.1</ele>
        <time>2022-07-31T10:38:18Z</time>
      </trkpt>
      <trkpt lat="49.1142" lon="1.84233">
        <ele>153.1</ele>
        <time>2022-07-31T10:38:24Z</time>
      </trkpt>
      <trkpt lat="49.1142" lon="1.84232">
        <ele>153.1</ele>
        <time>2022-07-31T10:38:30Z</time>
      </trkpt>
      <trkpt lat="49.11421" lon="1.84232">
        <ele>153.2</ele>
        <time>2022-07-31T10:38:36Z</time>
      </trkpt>
      <trkpt lat="49.11421" lon="1.84232">
        <ele>153.2</ele>
        <time>2022-07-31T10:38:42Z</time>
      </trkpt>
      <trkpt lat="49.11421" lon="1.84231">
        <ele>153.2</ele>
        <time>2022-07-31T10:38:48Z</time>
      </trkpt>
      <trkpt lat="49.11421" lon="1.84231">
        <ele>153.3</ele>
        <time>2022-07-31T10:38:53Z</time>
      </trkpt>
      <trkpt lat="49.11421" lon="1.84231">
        <ele>153.4</ele>
        <time>2022-07-31T10:38:59Z</time>
      </trkpt>
      <trkpt lat="49.11421" lon="1.84231">
        <ele>153.4</ele>
        <time>2022-07-31T10:39:04Z</time>
      </trkpt>
      <trkpt lat="49.11421" lon="1.84231">
        <ele>153.5</ele>
        <time>2022-07-31T10:39:10Z</time>
      </trkpt>
      <trkpt lat="49.11422" lon="1.84231">
        <ele>153.5</ele>
        <time>2022-07-31T10:39:16Z</time>
      </trkpt>
      <trkpt lat="49.11421" lon="1.84231">
        <ele>153.6</ele>
        <time>2022-07-31T10:39:21Z</time>
      </trkpt>
      <trkpt lat="49.11421" lon="1.84231">
        <ele>153.6</ele>
        <time>2022-07-31T10:39:26Z</time>
      </trkpt>
      <trkpt lat="49.11421" lon="1.84231">
        <ele>153.7</ele>
        <time>2022-07-31T10:39:32Z</time>
      </trkpt>
      <trkpt lat="49.11421" lon="1.8423">
        <ele>153.7</ele>
        <time>2022-07-31T10:39:37Z</time>
      </trkpt>
      <trkpt lat="49.11421" lon="1.8423">
        <ele>153.8</ele>
        <time>2022-07-31T10:39:42Z</time>
      </trkpt>
      <trkpt lat="49.11421" lon="1.84229">
        <ele>153.8</ele>
        <time>2022-07-31T10:39:47Z</time>
      </trkpt>
      <trkpt lat="49.11421" lon="1.84229">
        <ele>153.9</ele>
        <time>2022-07-31T10:39:53Z</time>
      </trkpt>
      <trkpt lat="49.1142" lon="1.84229">
        <ele>153.9</ele>
        <time>2022-07-31T10:39:59Z</time>
      </trkpt>
      <trkpt lat="49.11421" lon="1.84228">
        <ele>153.9</ele>
        <time>2022-07-31T10:40:04Z</time>
      </trkpt>
      <trkpt lat="49.11421" lon="1.84228">
        <ele>153.8</ele>
        <time>2022-07-31T10:40:10Z</time>
      </trkpt>
      <trkpt lat="49.11421" lon="1.84227">
        <ele>153.8</ele>
        <time>2022-07-31T10:40:16Z</time>
      </trkpt>
      <trkpt lat="49.11421" lon="1.84227">
        <ele>153.7</ele>
        <time>2022-07-31T10:40:21Z</time>
      </trkpt>
      <trkpt lat="49.11421" lon="1.84227">
        <ele>153.7</ele>
        <time>2022-07-31T10:40:27Z</time>
      </trkpt>
      <trkpt lat="49.11421" lon="1.84227">
        <ele>153.6</ele>
        <time>2022-07-31T10:40:33Z</time>
      </trkpt>
      <trkpt lat="49.11421" lon="1.84227">
        <ele>153.6</ele>
        <time>2022-07-31T10:40:38Z</time>
      </trkpt>
      <trkpt lat="49.11421" lon="1.84227">
        <ele>153.5</ele>
        <time>2022-07-31T10:40:44Z</time>
      </trkpt>
      <trkpt lat="49.11421" lon="1.84227">
        <ele>153.4</ele>
        <time>2022-07-31T10:40:50Z</time>
      </trkpt>
      <trkpt lat="49.11421" lon="1.84228">
        <ele>153.2</ele>
        <time>2022-07-31T10:40:56Z</time>
      </trkpt>
      <trkpt lat="49.11421" lon="1.84229">
        <ele>153.2</ele>
        <time>2022-07-31T10:41:01Z</time>
      </trkpt>
      <trkpt lat="49.11421" lon="1.84228">
        <ele>153.1</ele>
        <time>2022-07-31T10:41:07Z</time>
      </trkpt>
      <trkpt lat="49.11421" lon="1.84228">
        <ele>153</ele>
        <time>2022-07-31T10:41:12Z</time>
      </trkpt>
      <trkpt lat="49.11421" lon="1.84228">
        <ele>152.8</ele>
        <time>2022-07-31T10:41:18Z</time>
      </trkpt>
      <trkpt lat="49.11421" lon="1.84227">
        <ele>152.7</ele>
        <time>2022-07-31T10:41:23Z</time>
      </trkpt>
      <trkpt lat="49.11421" lon="1.84227">
        <ele>152.6</ele>
        <time>2022-07-31T10:41:29Z</time>
      </trkpt>
      <trkpt lat="49.11421" lon="1.84227">
        <ele>152.5</ele>
        <time>2022-07-31T10:41:34Z</time>
      </trkpt>
      <trkpt lat="49.11421" lon="1.84227">
        <ele>152.3</ele>
        <time>2022-07-31T10:41:40Z</time>
      </trkpt>
      <trkpt lat="49.11421" lon="1.84227">
        <ele>152</ele>
        <time>2022-07-31T10:41:45Z</time>
      </trkpt>
      <trkpt lat="49.11421" lon="1.84226">
        <ele>151.5</ele>
        <time>2022-07-31T10:41:51Z</time>
      </trkpt>
      <trkpt lat="49.1142" lon="1.84226">
        <ele>151.4</ele>
        <time>2022-07-31T10:41:56Z</time>
      </trkpt>
      <trkpt lat="49.11419" lon="1.84226">
        <ele>151.3</ele>
        <time>2022-07-31T10:42:02Z</time>
      </trkpt>
      <trkpt lat="49.11419" lon="1.84226">
        <ele>151.2</ele>
        <time>2022-07-31T10:42:07Z</time>
      </trkpt>
      <trkpt lat="49.11419" lon="1.84226">
        <ele>151.1</ele>
        <time>2022-07-31T10:42:13Z</time>
      </trkpt>
      <trkpt lat="49.11418" lon="1.84228">
        <ele>151.2</ele>
        <time>2022-07-31T10:42:18Z</time>
      </trkpt>
      <trkpt lat="49.11418" lon="1.84228">
        <ele>151.2</ele>
        <time>2022-07-31T10:42:24Z</time>
      </trkpt>
      <trkpt lat="49.11418" lon="1.84228">
        <ele>151.3</ele>
        <time>2022-07-31T10:42:29Z</time>
      </trkpt>
      <trkpt lat="49.11418" lon="1.84228">
        <ele>151.5</ele>
        <time>2022-07-31T10:42:35Z</time>
      </trkpt>
      <trkpt lat="49.11417" lon="1.84229">
        <ele>151.5</ele>
        <time>2022-07-31T10:42:40Z</time>
      </trkpt>
      <trkpt lat="49.11416" lon="1.8423">
        <ele>151.6</ele>
        <time>2022-07-31T10:42:46Z</time>
      </trkpt>
      <trkpt lat="49.11415" lon="1.84229">
        <ele>151.7</ele>
        <time>2022-07-31T10:42:51Z</time>
      </trkpt>
      <trkpt lat="49.11412" lon="1.84224">
        <ele>152</ele>
        <time>2022-07-31T10:42:57Z</time>
      </trkpt>
      <trkpt lat="49.11412" lon="1.84223">
        <ele>152.1</ele>
        <time>2022-07-31T10:43:02Z</time>
      </trkpt>
      <trkpt lat="49.11412" lon="1.84224">
        <ele>152.1</ele>
        <time>2022-07-31T10:43:08Z</time>
      </trkpt>
      <trkpt lat="49.11413" lon="1.84224">
        <ele>152.5</ele>
        <time>2022-07-31T10:43:13Z</time>
      </trkpt>
      <trkpt lat="49.11413" lon="1.84224">
        <ele>152.7</ele>
        <time>2022-07-31T10:43:18Z</time>
      </trkpt>
      <trkpt lat="49.11413" lon="1.84224">
        <ele>152.8</ele>
        <time>2022-07-31T10:43:24Z</time>
      </trkpt>
      <trkpt lat="49.11413" lon="1.84225">
        <ele>152.9</ele>
        <time>2022-07-31T10:43:29Z</time>
      </trkpt>
      <trkpt lat="49.11413" lon="1.84225">
        <ele>153.2</ele>
        <time>2022-07-31T10:43:35Z</time>
      </trkpt>
      <trkpt lat="49.11413" lon="1.84226">
        <ele>153.3</ele>
        <time>2022-07-31T10:43:40Z</time>
      </trkpt>
      <trkpt lat="49.11414" lon="1.84225">
        <ele>153.9</ele>
        <time>2022-07-31T10:43:46Z</time>
      </trkpt>
      <trkpt lat="49.11414" lon="1.84226">
        <ele>154</ele>
        <time>2022-07-31T10:43:51Z</time>
      </trkpt>
      <trkpt lat="49.11414" lon="1.84226">
        <ele>154.6</ele>
        <time>2022-07-31T10:43:57Z</time>
      </trkpt>
      <trkpt lat="49.11415" lon="1.84224">
        <ele>155.3</ele>
        <time>2022-07-31T10:44:02Z</time>
      </trkpt>
      <trkpt lat="49.11415" lon="1.84225">
        <ele>155.5</ele>
        <time>2022-07-31T10:44:08Z</time>
      </trkpt>
      <trkpt lat="49.11416" lon="1.84228">
        <ele>155.6</ele>
        <time>2022-07-31T10:44:13Z</time>
      </trkpt>
      <trkpt lat="49.11417" lon="1.8423">
        <ele>155.7</ele>
        <time>2022-07-31T10:44:19Z</time>
      </trkpt>
      <trkpt lat="49.11417" lon="1.84231">
        <ele>155.9</ele>
        <time>2022-07-31T10:44:24Z</time>
      </trkpt>
      <trkpt lat="49.11417" lon="1.84232">
        <ele>156.1</ele>
        <time>2022-07-31T10:44:30Z</time>
      </trkpt>
      <trkpt lat="49.11417" lon="1.84233">
        <ele>156.2</ele>
        <time>2022-07-31T10:44:36Z</time>
      </trkpt>
      <trkpt lat="49.11417" lon="1.84234">
        <ele>156.3</ele>
        <time>2022-07-31T10:44:42Z</time>
      </trkpt>
      <trkpt lat="49.11417" lon="1.84234">
        <ele>156.4</ele>
        <time>2022-07-31T10:44:47Z</time>
      </trkpt>
      <trkpt lat="49.11417" lon="1.84234">
        <ele>156.5</ele>
        <time>2022-07-31T10:44:52Z</time>
      </trkpt>
      <trkpt lat="49.11418" lon="1.84233">
        <ele>156.5</ele>
        <time>2022-07-31T10:44:57Z</time>
      </trkpt>
      <trkpt lat="49.11418" lon="1.84232">
        <ele>156.5</ele>
        <time>2022-07-31T10:45:03Z</time>
      </trkpt>
      <trkpt lat="49.11417" lon="1.84231">
        <ele>156.4</ele>
        <time>2022-07-31T10:45:08Z</time>
      </trkpt>
      <trkpt lat="49.11417" lon="1.84231">
        <ele>156.3</ele>
        <time>2022-07-31T10:45:14Z</time>
      </trkpt>
      <trkpt lat="49.11418" lon="1.8423">
        <ele>156.4</ele>
        <time>2022-07-31T10:45:19Z</time>
      </trkpt>
      <trkpt lat="49.11418" lon="1.84229">
        <ele>156.5</ele>
        <time>2022-07-31T10:45:25Z</time>
      </trkpt>
      <trkpt lat="49.11418" lon="1.84229">
        <ele>156.6</ele>
        <time>2022-07-31T10:45:30Z</time>
      </trkpt>
      <trkpt lat="49.11418" lon="1.84228">
        <ele>156.9</ele>
        <time>2022-07-31T10:45:36Z</time>
      </trkpt>
      <trkpt lat="49.11418" lon="1.84227">
        <ele>157</ele>
        <time>2022-07-31T10:45:41Z</time>
      </trkpt>
      <trkpt lat="49.11418" lon="1.84228">
        <ele>157</ele>
        <time>2022-07-31T10:45:46Z</time>
      </trkpt>
      <trkpt lat="49.11418" lon="1.84228">
        <ele>157.1</ele>
        <time>2022-07-31T10:45:52Z</time>
      </trkpt>
      <trkpt lat="49.11419" lon="1.84229">
        <ele>157.2</ele>
        <time>2022-07-31T10:45:57Z</time>
      </trkpt>
      <trkpt lat="49.11419" lon="1.8423">
        <ele>157.3</ele>
        <time>2022-07-31T10:46:03Z</time>
      </trkpt>
      <trkpt lat="49.11419" lon="1.8423">
        <ele>157.4</ele>
        <time>2022-07-31T10:46:08Z</time>
      </trkpt>
      <trkpt lat="49.11418" lon="1.84231">
        <ele>157.4</ele>
        <time>2022-07-31T10:46:14Z</time>
      </trkpt>
      <trkpt lat="49.11418" lon="1.84231">
        <ele>157.5</ele>
        <time>2022-07-31T10:46:19Z</time>
      </trkpt>
      <trkpt lat="49.11418" lon="1.8423">
        <ele>157.4</ele>
        <time>2022-07-31T10:46:25Z</time>
      </trkpt>
      <trkpt lat="49.11418" lon="1.84229">
        <ele>157.4</ele>
        <time>2022-07-31T10:46:30Z</time>
      </trkpt>
      <trkpt lat="49.11418" lon="1.84228">
        <ele>157.3</ele>
        <time>2022-07-31T10:46:36Z</time>
      </trkpt>
      <trkpt lat="49.11417" lon="1.84229">
        <ele>157.3</ele>
        <time>2022-07-31T10:46:41Z</time>
      </trkpt>
      <trkpt lat="49.11417" lon="1.84229">
        <ele>157.4</ele>
        <time>2022-07-31T10:46:47Z</time>
      </trkpt>
      <trkpt lat="49.11417" lon="1.84229">
        <ele>157.4</ele>
        <time>2022-07-31T10:46:52Z</time>
      </trkpt>
      <trkpt lat="49.11417" lon="1.84229">
        <ele>157.4</ele>
        <time>2022-07-31T10:46:58Z</time>
      </trkpt>
      <trkpt lat="49.11417" lon="1.84228">
        <ele>157.4</ele>
        <time>2022-07-31T10:47:03Z</time>
      </trkpt>
      <trkpt lat="49.11417" lon="1.84228">
        <ele>157.4</ele>
        <time>2022-07-31T10:47:09Z</time>
      </trkpt>
      <trkpt lat="49.11417" lon="1.84228">
        <ele>157.4</ele>
        <time>2022-07-31T10:47:14Z</time>
      </trkpt>
      <trkpt lat="49.11417" lon="1.84227">
        <ele>157.3</ele>
        <time>2022-07-31T10:47:20Z</time>
      </trkpt>
      <trkpt lat="49.11418" lon="1.84227">
        <ele>157.3</ele>
        <time>2022-07-31T10:47:25Z</time>
      </trkpt>
      <trkpt lat="49.11419" lon="1.84227">
        <ele>157.3</ele>
        <time>2022-07-31T10:47:31Z</time>
      </trkpt>
      <trkpt lat="49.1142" lon="1.84228">
        <ele>157.3</ele>
        <time>2022-07-31T10:47:36Z</time>
      </trkpt>
      <trkpt lat="49.1142" lon="1.84228">
        <ele>157.3</ele>
        <time>2022-07-31T10:47:42Z</time>
      </trkpt>
      <trkpt lat="49.1142" lon="1.84229">
        <ele>157.2</ele>
        <time>2022-07-31T10:47:47Z</time>
      </trkpt>
      <trkpt lat="49.1142" lon="1.8423">
        <ele>157.2</ele>
        <time>2022-07-31T10:47:53Z</time>
      </trkpt>
      <trkpt lat="49.1142" lon="1.84231">
        <ele>157.3</ele>
        <time>2022-07-31T10:47:58Z</time>
      </trkpt>
      <trkpt lat="49.11421" lon="1.84232">
        <ele>157.3</ele>
        <time>2022-07-31T10:48:04Z</time>
      </trkpt>
      <trkpt lat="49.1142" lon="1.84234">
        <ele>157.4</ele>
        <time>2022-07-31T10:48:10Z</time>
      </trkpt>
      <trkpt lat="49.1142" lon="1.84235">
        <ele>157.7</ele>
        <time>2022-07-31T10:48:15Z</time>
      </trkpt>
      <trkpt lat="49.1142" lon="1.84234">
        <ele>157.7</ele>
        <time>2022-07-31T10:48:20Z</time>
      </trkpt>
      <trkpt lat="49.1142" lon="1.84232">
        <ele>157.7</ele>
        <time>2022-07-31T10:48:26Z</time>
      </trkpt>
      <trkpt lat="49.1142" lon="1.84232">
        <ele>157.7</ele>
        <time>2022-07-31T10:48:31Z</time>
      </trkpt>
      <trkpt lat="49.1142" lon="1.84231">
        <ele>157.6</ele>
        <time>2022-07-31T10:48:37Z</time>
      </trkpt>
      <trkpt lat="49.1142" lon="1.8423">
        <ele>157.6</ele>
        <time>2022-07-31T10:48:42Z</time>
      </trkpt>
      <trkpt lat="49.11421" lon="1.8423">
        <ele>157.5</ele>
        <time>2022-07-31T10:48:48Z</time>
      </trkpt>
      <trkpt lat="49.11421" lon="1.84229">
        <ele>157.4</ele>
        <time>2022-07-31T10:48:53Z</time>
      </trkpt>
      <trkpt lat="49.11421" lon="1.84229">
        <ele>157.4</ele>
        <time>2022-07-31T10:48:59Z</time>
      </trkpt>
      <trkpt lat="49.1142" lon="1.84229">
        <ele>157.3</ele>
        <time>2022-07-31T10:49:05Z</time>
      </trkpt>
      <trkpt lat="49.1142" lon="1.84229">
        <ele>157.3</ele>
        <time>2022-07-31T10:49:11Z</time>
      </trkpt>
      <trkpt lat="49.1142" lon="1.84229">
        <ele>157.2</ele>
        <time>2022-07-31T10:49:17Z</time>
      </trkpt>
      <trkpt lat="49.11421" lon="1.8423">
        <ele>157.2</ele>
        <time>2022-07-31T10:49:23Z</time>
      </trkpt>
      <trkpt lat="49.11421" lon="1.84229">
        <ele>157.1</ele>
        <time>2022-07-31T10:49:29Z</time>
      </trkpt>
      <trkpt lat="49.11422" lon="1.84229">
        <ele>157.1</ele>
        <time>2022-07-31T10:49:35Z</time>
      </trkpt>
      <trkpt lat="49.11422" lon="1.84229">
        <ele>157</ele>
        <time>2022-07-31T10:49:40Z</time>
      </trkpt>
      <trkpt lat="49.11422" lon="1.84229">
        <ele>157</ele>
        <time>2022-07-31T10:49:45Z</time>
      </trkpt>
      <trkpt lat="49.11423" lon="1.84229">
        <ele>157</ele>
        <time>2022-07-31T10:49:51Z</time>
      </trkpt>
      <trkpt lat="49.11423" lon="1.84228">
        <ele>157.1</ele>
        <time>2022-07-31T10:49:57Z</time>
      </trkpt>
      <trkpt lat="49.11423" lon="1.84228">
        <ele>157.1</ele>
        <time>2022-07-31T10:50:03Z</time>
      </trkpt>
      <trkpt lat="49.11424" lon="1.84228">
        <ele>157.1</ele>
        <time>2022-07-31T10:50:08Z</time>
      </trkpt>
      <trkpt lat="49.11423" lon="1.84227">
        <ele>157.1</ele>
        <time>2022-07-31T10:50:14Z</time>
      </trkpt>
      <trkpt lat="49.11423" lon="1.84227">
        <ele>157.1</ele>
        <time>2022-07-31T10:50:19Z</time>
      </trkpt>
      <trkpt lat="49.11423" lon="1.84228">
        <ele>157.1</ele>
        <time>2022-07-31T10:50:25Z</time>
      </trkpt>
      <trkpt lat="49.11423" lon="1.84228">
        <ele>157</ele>
        <time>2022-07-31T10:50:30Z</time>
      </trkpt>
      <trkpt lat="49.11422" lon="1.84228">
        <ele>156.9</ele>
        <time>2022-07-31T10:50:36Z</time>
      </trkpt>
      <trkpt lat="49.11422" lon="1.84229">
        <ele>156.9</ele>
        <time>2022-07-31T10:50:41Z</time>
      </trkpt>
      <trkpt lat="49.11421" lon="1.84229">
        <ele>156.9</ele>
        <time>2022-07-31T10:50:47Z</time>
      </trkpt>
      <trkpt lat="49.11421" lon="1.8423">
        <ele>156.8</ele>
        <time>2022-07-31T10:50:52Z</time>
      </trkpt>
      <trkpt lat="49.11421" lon="1.8423">
        <ele>156.8</ele>
        <time>2022-07-31T10:50:58Z</time>
      </trkpt>
      <trkpt lat="49.11421" lon="1.8423">
        <ele>156.7</ele>
        <time>2022-07-31T10:51:03Z</time>
      </trkpt>
      <trkpt lat="49.11421" lon="1.8423">
        <ele>156.6</ele>
        <time>2022-07-31T10:51:09Z</time>
      </trkpt>
      <trkpt lat="49.11422" lon="1.8423">
        <ele>156.6</ele>
        <time>2022-07-31T10:51:14Z</time>
      </trkpt>
      <trkpt lat="49.11422" lon="1.8423">
        <ele>156.5</ele>
        <time>2022-07-31T10:51:20Z</time>
      </trkpt>
      <trkpt lat="49.11422" lon="1.8423">
        <ele>156.5</ele>
        <time>2022-07-31T10:51:25Z</time>
      </trkpt>
      <trkpt lat="49.11422" lon="1.8423">
        <ele>156.4</ele>
        <time>2022-07-31T10:51:31Z</time>
      </trkpt>
      <trkpt lat="49.11422" lon="1.84229">
        <ele>156.3</ele>
        <time>2022-07-31T10:51:36Z</time>
      </trkpt>
      <trkpt lat="49.11422" lon="1.84229">
        <ele>156.3</ele>
        <time>2022-07-31T10:51:42Z</time>
      </trkpt>
      <trkpt lat="49.11422" lon="1.84229">
        <ele>156.2</ele>
        <time>2022-07-31T10:51:47Z</time>
      </trkpt>
      <trkpt lat="49.11422" lon="1.84228">
        <ele>156.1</ele>
        <time>2022-07-31T10:51:53Z</time>
      </trkpt>
      <trkpt lat="49.11422" lon="1.84228">
        <ele>156</ele>
        <time>2022-07-31T10:51:58Z</time>
      </trkpt>
      <trkpt lat="49.11422" lon="1.84228">
        <ele>156</ele>
        <time>2022-07-31T10:52:04Z</time>
      </trkpt>
      <trkpt lat="49.11422" lon="1.84228">
        <ele>155.9</ele>
        <time>2022-07-31T10:52:09Z</time>
      </trkpt>
      <trkpt lat="49.11421" lon="1.84228">
        <ele>155.8</ele>
        <time>2022-07-31T10:52:15Z</time>
      </trkpt>
      <trkpt lat="49.11421" lon="1.84229">
        <ele>155.7</ele>
        <time>2022-07-31T10:52:21Z</time>
      </trkpt>
      <trkpt lat="49.11421" lon="1.84229">
        <ele>155.7</ele>
        <time>2022-07-31T10:52:27Z</time>
      </trkpt>
      <trkpt lat="49.11421" lon="1.84229">
        <ele>155.7</ele>
        <time>2022-07-31T10:52:33Z</time>
      </trkpt>
      <trkpt lat="49.11421" lon="1.84229">
        <ele>155.6</ele>
        <time>2022-07-31T10:52:38Z</time>
      </trkpt>
      <trkpt lat="49.11421" lon="1.84229">
        <ele>155.6</ele>
        <time>2022-07-31T10:52:44Z</time>
      </trkpt>
      <trkpt lat="49.11421" lon="1.84229">
        <ele>155.6</ele>
        <time>2022-07-31T10:52:50Z</time>
      </trkpt>
      <trkpt lat="49.11422" lon="1.84229">
        <ele>155.5</ele>
        <time>2022-07-31T10:52:56Z</time>
      </trkpt>
      <trkpt lat="49.11422" lon="1.84229">
        <ele>155.5</ele>
        <time>2022-07-31T10:53:01Z</time>
      </trkpt>
      <trkpt lat="49.11421" lon="1.84229">
        <ele>155.4</ele>
        <time>2022-07-31T10:53:07Z</time>
      </trkpt>
      <trkpt lat="49.11421" lon="1.84229">
        <ele>155.4</ele>
        <time>2022-07-31T10:53:12Z</time>
      </trkpt>
      <trkpt lat="49.11421" lon="1.84229">
        <ele>155.4</ele>
        <time>2022-07-31T10:53:18Z</time>
      </trkpt>
      <trkpt lat="49.1142" lon="1.84228">
        <ele>155.4</ele>
        <time>2022-07-31T10:53:24Z</time>
      </trkpt>
      <trkpt lat="49.11421" lon="1.84229">
        <ele>155.3</ele>
        <time>2022-07-31T10:53:30Z</time>
      </trkpt>
      <trkpt lat="49.11421" lon="1.84228">
        <ele>155.3</ele>
        <time>2022-07-31T10:53:36Z</time>
      </trkpt>
      <trkpt lat="49.11421" lon="1.84228">
        <ele>155.2</ele>
        <time>2022-07-31T10:53:42Z</time>
      </trkpt>
      <trkpt lat="49.11421" lon="1.84229">
        <ele>155.1</ele>
        <time>2022-07-31T10:53:47Z</time>
      </trkpt>
      <trkpt lat="49.11421" lon="1.84229">
        <ele>155.1</ele>
        <time>2022-07-31T10:53:53Z</time>
      </trkpt>
      <trkpt lat="49.11421" lon="1.84229">
        <ele>155</ele>
        <time>2022-07-31T10:53:58Z</time>
      </trkpt>
      <trkpt lat="49.11422" lon="1.8423">
        <ele>155</ele>
        <time>2022-07-31T10:54:04Z</time>
      </trkpt>
      <trkpt lat="49.11422" lon="1.8423">
        <ele>155</ele>
        <time>2022-07-31T10:54:09Z</time>
      </trkpt>
      <trkpt lat="49.11422" lon="1.8423">
        <ele>155</ele>
        <time>2022-07-31T10:54:15Z</time>
      </trkpt>
      <trkpt lat="49.11422" lon="1.8423">
        <ele>154.9</ele>
        <time>2022-07-31T10:54:20Z</time>
      </trkpt>
      <trkpt lat="49.11422" lon="1.8423">
        <ele>154.9</ele>
        <time>2022-07-31T10:54:26Z</time>
      </trkpt>
      <trkpt lat="49.11422" lon="1.8423">
        <ele>154.8</ele>
        <time>2022-07-31T10:54:31Z</time>
      </trkpt>
      <trkpt lat="49.11422" lon="1.8423">
        <ele>154.7</ele>
        <time>2022-07-31T10:54:37Z</time>
      </trkpt>
      <trkpt lat="49.11422" lon="1.84231">
        <ele>154.7</ele>
        <time>2022-07-31T10:54:42Z</time>
      </trkpt>
      <trkpt lat="49.11422" lon="1.84231">
        <ele>154.6</ele>
        <time>2022-07-31T10:54:48Z</time>
      </trkpt>
      <trkpt lat="49.11421" lon="1.84231">
        <ele>154.5</ele>
        <time>2022-07-31T10:54:54Z</time>
      </trkpt>
      <trkpt lat="49.11421" lon="1.84231">
        <ele>154.5</ele>
        <time>2022-07-31T10:55:00Z</time>
      </trkpt>
      <trkpt lat="49.11421" lon="1.84231">
        <ele>154.5</ele>
        <time>2022-07-31T10:55:06Z</time>
      </trkpt>
      <trkpt lat="49.11421" lon="1.84231">
        <ele>154.5</ele>
        <time>2022-07-31T10:55:12Z</time>
      </trkpt>
      <trkpt lat="49.11421" lon="1.8423">
        <ele>154.4</ele>
        <time>2022-07-31T10:55:18Z</time>
      </trkpt>
      <trkpt lat="49.11421" lon="1.84231">
        <ele>154.4</ele>
        <time>2022-07-31T10:55:23Z</time>
      </trkpt>
      <trkpt lat="49.11421" lon="1.8423">
        <ele>154.3</ele>
        <time>2022-07-31T10:55:29Z</time>
      </trkpt>
      <trkpt lat="49.11421" lon="1.8423">
        <ele>154.2</ele>
        <time>2022-07-31T10:55:34Z</time>
      </trkpt>
      <trkpt lat="49.1142" lon="1.84229">
        <ele>154.1</ele>
        <time>2022-07-31T10:55:40Z</time>
      </trkpt>
      <trkpt lat="49.1142" lon="1.84228">
        <ele>154</ele>
        <time>2022-07-31T10:55:46Z</time>
      </trkpt>
      <trkpt lat="49.1142" lon="1.84228">
        <ele>153.9</ele>
        <time>2022-07-31T10:55:51Z</time>
      </trkpt>
      <trkpt lat="49.11421" lon="1.84228">
        <ele>153.9</ele>
        <time>2022-07-31T10:55:57Z</time>
      </trkpt>
      <trkpt lat="49.11421" lon="1.84229">
        <ele>153.9</ele>
        <time>2022-07-31T10:56:02Z</time>
      </trkpt>
      <trkpt lat="49.11421" lon="1.84229">
        <ele>154</ele>
        <time>2022-07-31T10:56:08Z</time>
      </trkpt>
      <trkpt lat="49.11421" lon="1.8423">
        <ele>154.1</ele>
        <time>2022-07-31T10:56:14Z</time>
      </trkpt>
      <trkpt lat="49.11422" lon="1.8423">
        <ele>154.3</ele>
        <time>2022-07-31T10:56:20Z</time>
      </trkpt>
      <trkpt lat="49.11422" lon="1.8423">
        <ele>154.5</ele>
        <time>2022-07-31T10:56:25Z</time>
      </trkpt>
      <trkpt lat="49.11422" lon="1.8423">
        <ele>154.7</ele>
        <time>2022-07-31T10:56:31Z</time>
      </trkpt>
      <trkpt lat="49.11422" lon="1.84231">
        <ele>154.8</ele>
        <time>2022-07-31T10:56:36Z</time>
      </trkpt>
      <trkpt lat="49.11422" lon="1.84231">
        <ele>154.9</ele>
        <time>2022-07-31T10:56:41Z</time>
      </trkpt>
      <trkpt lat="49.11422" lon="1.84231">
        <ele>155</ele>
        <time>2022-07-31T10:56:47Z</time>
      </trkpt>
      <trkpt lat="49.11422" lon="1.84232">
        <ele>155.1</ele>
        <time>2022-07-31T10:56:53Z</time>
      </trkpt>
      <trkpt lat="49.11422" lon="1.84232">
        <ele>155.2</ele>
        <time>2022-07-31T10:56:58Z</time>
      </trkpt>
      <trkpt lat="49.11422" lon="1.84233">
        <ele>155.3</ele>
        <time>2022-07-31T10:57:04Z</time>
      </trkpt>
      <trkpt lat="49.11422" lon="1.84233">
        <ele>155.4</ele>
        <time>2022-07-31T10:57:10Z</time>
      </trkpt>
      <trkpt lat="49.11422" lon="1.84233">
        <ele>155.5</ele>
        <time>2022-07-31T10:57:15Z</time>
      </trkpt>
      <trkpt lat="49.11422" lon="1.84232">
        <ele>155.4</ele>
        <time>2022-07-31T10:57:21Z</time>
      </trkpt>
      <trkpt lat="49.11423" lon="1.84232">
        <ele>155.4</ele>
        <time>2022-07-31T10:57:26Z</time>
      </trkpt>
      <trkpt lat="49.11423" lon="1.84232">
        <ele>155.4</ele>
        <time>2022-07-31T10:57:32Z</time>
      </trkpt>
      <trkpt lat="49.11423" lon="1.84232">
        <ele>155.4</ele>
        <time>2022-07-31T10:57:37Z</time>
      </trkpt>
      <trkpt lat="49.11423" lon="1.84232">
        <ele>155.4</ele>
        <time>2022-07-31T10:57:43Z</time>
      </trkpt>
      <trkpt lat="49.11423" lon="1.84232">
        <ele>155.4</ele>
        <time>2022-07-31T10:57:49Z</time>
      </trkpt>
      <trkpt lat="49.11423" lon="1.84232">
        <ele>155.3</ele>
        <time>2022-07-31T10:57:54Z</time>
      </trkpt>
      <trkpt lat="49.11423" lon="1.84231">
        <ele>155.2</ele>
        <time>2022-07-31T10:57:59Z</time>
      </trkpt>
      <trkpt lat="49.11424" lon="1.8423">
        <ele>155.2</ele>
        <time>2022-07-31T10:58:05Z</time>
      </trkpt>
      <trkpt lat="49.11424" lon="1.8423">
        <ele>155.1</ele>
        <time>2022-07-31T10:58:10Z</time>
      </trkpt>
      <trkpt lat="49.11424" lon="1.8423">
        <ele>155.1</ele>
        <time>2022-07-31T10:58:16Z</time>
      </trkpt>
      <trkpt lat="49.11424" lon="1.8423">
        <ele>155.1</ele>
        <time>2022-07-31T10:58:21Z</time>
      </trkpt>
      <trkpt lat="49.11423" lon="1.8423">
        <ele>155.1</ele>
        <time>2022-07-31T10:58:26Z</time>
      </trkpt>
      <trkpt lat="49.11422" lon="1.84229">
        <ele>155.1</ele>
        <time>2022-07-31T10:58:32Z</time>
      </trkpt>
      <trkpt lat="49.11421" lon="1.84229">
        <ele>155.1</ele>
        <time>2022-07-31T10:58:38Z</time>
      </trkpt>
      <trkpt lat="49.1142" lon="1.84229">
        <ele>155.3</ele>
        <time>2022-07-31T10:58:44Z</time>
      </trkpt>
      <trkpt lat="49.11419" lon="1.84229">
        <ele>155.4</ele>
        <time>2022-07-31T10:58:50Z</time>
      </trkpt>
      <trkpt lat="49.11419" lon="1.84228">
        <ele>155.5</ele>
        <time>2022-07-31T10:58:56Z</time>
      </trkpt>
      <trkpt lat="49.1142" lon="1.84228">
        <ele>155.5</ele>
        <time>2022-07-31T10:59:01Z</time>
      </trkpt>
      <trkpt lat="49.1142" lon="1.84228">
        <ele>155.5</ele>
        <time>2022-07-31T10:59:07Z</time>
      </trkpt>
      <trkpt lat="49.11421" lon="1.84228">
        <ele>155.6</ele>
        <time>2022-07-31T10:59:13Z</time>
      </trkpt>
      <trkpt lat="49.11421" lon="1.84228">
        <ele>155.6</ele>
        <time>2022-07-31T10:59:18Z</time>
      </trkpt>
      <trkpt lat="49.11421" lon="1.84228">
        <ele>155.6</ele>
        <time>2022-07-31T10:59:24Z</time>
      </trkpt>
      <trkpt lat="49.11421" lon="1.84227">
        <ele>155.6</ele>
        <time>2022-07-31T10:59:29Z</time>
      </trkpt>
      <trkpt lat="49.1142" lon="1.84227">
        <ele>155.6</ele>
        <time>2022-07-31T10:59:35Z</time>
      </trkpt>
      <trkpt lat="49.1142" lon="1.84226">
        <ele>155.6</ele>
        <time>2022-07-31T10:59:41Z</time>
      </trkpt>
      <trkpt lat="49.1142" lon="1.84226">
        <ele>155.5</ele>
        <time>2022-07-31T10:59:47Z</time>
      </trkpt>
      <trkpt lat="49.11421" lon="1.84226">
        <ele>155.4</ele>
        <time>2022-07-31T10:59:53Z</time>
      </trkpt>
      <trkpt lat="49.11421" lon="1.84226">
        <ele>155.3</ele>
        <time>2022-07-31T10:59:58Z</time>
      </trkpt>
      <trkpt lat="49.11421" lon="1.84226">
        <ele>155.3</ele>
        <time>2022-07-31T11:00:03Z</time>
      </trkpt>
      <trkpt lat="49.11421" lon="1.84225">
        <ele>154.8</ele>
        <time>2022-07-31T11:00:08Z</time>
      </trkpt>
      <trkpt lat="49.11421" lon="1.84225">
        <ele>154.7</ele>
        <time>2022-07-31T11:00:14Z</time>
      </trkpt>
      <trkpt lat="49.11421" lon="1.84225">
        <ele>154.7</ele>
        <time>2022-07-31T11:00:19Z</time>
      </trkpt>
      <trkpt lat="49.11421" lon="1.84225">
        <ele>154.6</ele>
        <time>2022-07-31T11:00:25Z</time>
      </trkpt>
      <trkpt lat="49.11421" lon="1.84226">
        <ele>154.5</ele>
        <time>2022-07-31T11:00:31Z</time>
      </trkpt>
      <trkpt lat="49.11421" lon="1.84226">
        <ele>154.5</ele>
        <time>2022-07-31T11:00:37Z</time>
      </trkpt>
      <trkpt lat="49.11421" lon="1.84226">
        <ele>154.4</ele>
        <time>2022-07-31T11:00:42Z</time>
      </trkpt>
      <trkpt lat="49.11421" lon="1.84226">
        <ele>154.4</ele>
        <time>2022-07-31T11:00:48Z</time>
      </trkpt>
      <trkpt lat="49.11421" lon="1.84226">
        <ele>154.3</ele>
        <time>2022-07-31T11:00:54Z</time>
      </trkpt>
      <trkpt lat="49.11421" lon="1.84226">
        <ele>154.3</ele>
        <time>2022-07-31T11:01:00Z</time>
      </trkpt>
      <trkpt lat="49.11421" lon="1.84226">
        <ele>154.3</ele>
        <time>2022-07-31T11:01:05Z</time>
      </trkpt>
      <trkpt lat="49.11421" lon="1.84226">
        <ele>154.3</ele>
        <time>2022-07-31T11:01:11Z</time>
      </trkpt>
      <trkpt lat="49.11421" lon="1.84226">
        <ele>154.3</ele>
        <time>2022-07-31T11:01:16Z</time>
      </trkpt>
      <trkpt lat="49.11421" lon="1.84226">
        <ele>154.3</ele>
        <time>2022-07-31T11:01:22Z</time>
      </trkpt>
      <trkpt lat="49.11421" lon="1.84227">
        <ele>154.3</ele>
        <time>2022-07-31T11:01:27Z</time>
      </trkpt>
      <trkpt lat="49.11421" lon="1.84227">
        <ele>154.2</ele>
        <time>2022-07-31T11:01:33Z</time>
      </trkpt>
      <trkpt lat="49.11421" lon="1.84227">
        <ele>154.2</ele>
        <time>2022-07-31T11:01:38Z</time>
      </trkpt>
      <trkpt lat="49.11421" lon="1.84227">
        <ele>154.1</ele>
        <time>2022-07-31T11:01:44Z</time>
      </trkpt>
      <trkpt lat="49.11421" lon="1.84227">
        <ele>154.1</ele>
        <time>2022-07-31T11:01:49Z</time>
      </trkpt>
      <trkpt lat="49.11421" lon="1.84228">
        <ele>154.2</ele>
        <time>2022-07-31T11:01:55Z</time>
      </trkpt>
      <trkpt lat="49.11421" lon="1.84227">
        <ele>154.2</ele>
        <time>2022-07-31T11:02:00Z</time>
      </trkpt>
      <trkpt lat="49.1142" lon="1.84227">
        <ele>154.3</ele>
        <time>2022-07-31T11:02:06Z</time>
      </trkpt>
      <trkpt lat="49.1142" lon="1.84227">
        <ele>154.4</ele>
        <time>2022-07-31T11:02:12Z</time>
      </trkpt>
      <trkpt lat="49.11419" lon="1.84226">
        <ele>154.4</ele>
        <time>2022-07-31T11:02:18Z</time>
      </trkpt>
      <trkpt lat="49.11419" lon="1.84226">
        <ele>154.4</ele>
        <time>2022-07-31T11:02:24Z</time>
      </trkpt>
      <trkpt lat="49.11419" lon="1.84225">
        <ele>154.4</ele>
        <time>2022-07-31T11:02:30Z</time>
      </trkpt>
      <trkpt lat="49.11421" lon="1.84226">
        <ele>154.2</ele>
        <time>2022-07-31T11:02:36Z</time>
      </trkpt>
      <trkpt lat="49.11422" lon="1.84226">
        <ele>154</ele>
        <time>2022-07-31T11:02:42Z</time>
      </trkpt>
      <trkpt lat="49.11422" lon="1.84226">
        <ele>153.5</ele>
        <time>2022-07-31T11:02:47Z</time>
      </trkpt>
      <trkpt lat="49.11422" lon="1.84226">
        <ele>153.4</ele>
        <time>2022-07-31T11:02:53Z</time>
      </trkpt>
      <trkpt lat="49.11421" lon="1.84226">
        <ele>153.4</ele>
        <time>2022-07-31T11:02:59Z</time>
      </trkpt>
      <trkpt lat="49.11421" lon="1.84226">
        <ele>153.3</ele>
        <time>2022-07-31T11:03:04Z</time>
      </trkpt>
      <trkpt lat="49.11421" lon="1.84226">
        <ele>153.3</ele>
        <time>2022-07-31T11:03:10Z</time>
      </trkpt>
      <trkpt lat="49.11421" lon="1.84226">
        <ele>153.3</ele>
        <time>2022-07-31T11:03:15Z</time>
      </trkpt>
      <trkpt lat="49.11421" lon="1.84226">
        <ele>153.3</ele>
        <time>2022-07-31T11:03:21Z</time>
      </trkpt>
      <trkpt lat="49.11421" lon="1.84226">
        <ele>153.3</ele>
        <time>2022-07-31T11:03:26Z</time>
      </trkpt>
      <trkpt lat="49.11421" lon="1.84225">
        <ele>153.3</ele>
        <time>2022-07-31T11:03:32Z</time>
      </trkpt>
      <trkpt lat="49.11421" lon="1.84225">
        <ele>153.3</ele>
        <time>2022-07-31T11:03:37Z</time>
      </trkpt>
      <trkpt lat="49.11421" lon="1.84225">
        <ele>153.3</ele>
        <time>2022-07-31T11:03:43Z</time>
      </trkpt>
      <trkpt lat="49.11421" lon="1.84225">
        <ele>153.3</ele>
        <time>2022-07-31T11:03:48Z</time>
      </trkpt>
      <trkpt lat="49.11422" lon="1.84225">
        <ele>153.4</ele>
        <time>2022-07-31T11:03:54Z</time>
      </trkpt>
      <trkpt lat="49.11422" lon="1.84225">
        <ele>153.4</ele>
        <time>2022-07-31T11:03:59Z</time>
      </trkpt>
      <trkpt lat="49.11422" lon="1.84225">
        <ele>153.4</ele>
        <time>2022-07-31T11:04:05Z</time>
      </trkpt>
      <trkpt lat="49.11422" lon="1.84226">
        <ele>153.4</ele>
        <time>2022-07-31T11:04:10Z</time>
      </trkpt>
      <trkpt lat="49.11422" lon="1.84226">
        <ele>153.4</ele>
        <time>2022-07-31T11:04:16Z</time>
      </trkpt>
      <trkpt lat="49.11422" lon="1.84225">
        <ele>153.5</ele>
        <time>2022-07-31T11:04:22Z</time>
      </trkpt>
      <trkpt lat="49.11422" lon="1.84225">
        <ele>153.5</ele>
        <time>2022-07-31T11:04:27Z</time>
      </trkpt>
      <trkpt lat="49.11422" lon="1.84225">
        <ele>153.6</ele>
        <time>2022-07-31T11:04:33Z</time>
      </trkpt>
      <trkpt lat="49.11422" lon="1.84226">
        <ele>153.6</ele>
        <time>2022-07-31T11:04:38Z</time>
      </trkpt>
      <trkpt lat="49.11421" lon="1.84226">
        <ele>153.6</ele>
        <time>2022-07-31T11:04:44Z</time>
      </trkpt>
      <trkpt lat="49.11421" lon="1.84225">
        <ele>153.7</ele>
        <time>2022-07-31T11:04:49Z</time>
      </trkpt>
      <trkpt lat="49.11421" lon="1.84225">
        <ele>153.7</ele>
        <time>2022-07-31T11:04:55Z</time>
      </trkpt>
      <trkpt lat="49.11421" lon="1.84226">
        <ele>153.8</ele>
        <time>2022-07-31T11:05:00Z</time>
      </trkpt>
      <trkpt lat="49.11421" lon="1.84226">
        <ele>153.8</ele>
        <time>2022-07-31T11:05:05Z</time>
      </trkpt>
      <trkpt lat="49.11421" lon="1.84226">
        <ele>153.9</ele>
        <time>2022-07-31T11:05:11Z</time>
      </trkpt>
      <trkpt lat="49.11421" lon="1.84226">
        <ele>154</ele>
        <time>2022-07-31T11:05:16Z</time>
      </trkpt>
      <trkpt lat="49.11421" lon="1.84226">
        <ele>154</ele>
        <time>2022-07-31T11:05:22Z</time>
      </trkpt>
      <trkpt lat="49.11421" lon="1.84227">
        <ele>154</ele>
        <time>2022-07-31T11:05:27Z</time>
      </trkpt>
      <trkpt lat="49.11421" lon="1.84226">
        <ele>154.1</ele>
        <time>2022-07-31T11:05:33Z</time>
      </trkpt>
      <trkpt lat="49.11421" lon="1.84226">
        <ele>154.1</ele>
        <time>2022-07-31T11:05:38Z</time>
      </trkpt>
      <trkpt lat="49.11421" lon="1.84226">
        <ele>154.1</ele>
        <time>2022-07-31T11:05:44Z</time>
      </trkpt>
      <trkpt lat="49.1142" lon="1.84225">
        <ele>154.1</ele>
        <time>2022-07-31T11:05:49Z</time>
      </trkpt>
      <trkpt lat="49.1142" lon="1.84225">
        <ele>154.1</ele>
        <time>2022-07-31T11:05:55Z</time>
      </trkpt>
      <trkpt lat="49.1142" lon="1.84225">
        <ele>154.1</ele>
        <time>2022-07-31T11:06:00Z</time>
      </trkpt>
      <trkpt lat="49.1142" lon="1.84226">
        <ele>154.1</ele>
        <time>2022-07-31T11:06:06Z</time>
      </trkpt>
      <trkpt lat="49.1142" lon="1.84226">
        <ele>154.1</ele>
        <time>2022-07-31T11:06:11Z</time>
      </trkpt>
      <trkpt lat="49.1142" lon="1.84226">
        <ele>154.1</ele>
        <time>2022-07-31T11:06:17Z</time>
      </trkpt>
      <trkpt lat="49.11421" lon="1.84226">
        <ele>154.1</ele>
        <time>2022-07-31T11:06:23Z</time>
      </trkpt>
      <trkpt lat="49.11421" lon="1.84226">
        <ele>154.1</ele>
        <time>2022-07-31T11:06:29Z</time>
      </trkpt>
      <trkpt lat="49.1142" lon="1.84226">
        <ele>154.1</ele>
        <time>2022-07-31T11:06:34Z</time>
      </trkpt>
      <trkpt lat="49.1142" lon="1.84226">
        <ele>154.1</ele>
        <time>2022-07-31T11:06:39Z</time>
      </trkpt>
      <trkpt lat="49.1142" lon="1.84226">
        <ele>154.2</ele>
        <time>2022-07-31T11:06:44Z</time>
      </trkpt>
      <trkpt lat="49.1142" lon="1.84226">
        <ele>154.2</ele>
        <time>2022-07-31T11:06:50Z</time>
      </trkpt>
      <trkpt lat="49.1142" lon="1.84226">
        <ele>154.2</ele>
        <time>2022-07-31T11:06:55Z</time>
      </trkpt>
      <trkpt lat="49.1142" lon="1.84227">
        <ele>154.4</ele>
        <time>2022-07-31T11:07:01Z</time>
      </trkpt>
      <trkpt lat="49.11422" lon="1.84227">
        <ele>154.4</ele>
        <time>2022-07-31T11:07:07Z</time>
      </trkpt>
      <trkpt lat="49.11421" lon="1.84227">
        <ele>154.4</ele>
        <time>2022-07-31T11:07:13Z</time>
      </trkpt>
      <trkpt lat="49.1142" lon="1.84227">
        <ele>154.3</ele>
        <time>2022-07-31T11:07:19Z</time>
      </trkpt>
      <trkpt lat="49.1142" lon="1.84227">
        <ele>154.3</ele>
        <time>2022-07-31T11:07:25Z</time>
      </trkpt>
      <trkpt lat="49.11421" lon="1.84227">
        <ele>154.2</ele>
        <time>2022-07-31T11:07:30Z</time>
      </trkpt>
      <trkpt lat="49.11423" lon="1.84226">
        <ele>154</ele>
        <time>2022-07-31T11:07:36Z</time>
      </trkpt>
      <trkpt lat="49.11424" lon="1.84226">
        <ele>154</ele>
        <time>2022-07-31T11:07:41Z</time>
      </trkpt>
      <trkpt lat="49.11424" lon="1.84227">
        <ele>154</ele>
        <time>2022-07-31T11:07:46Z</time>
      </trkpt>
      <trkpt lat="49.11424" lon="1.84227">
        <ele>154</ele>
        <time>2022-07-31T11:07:52Z</time>
      </trkpt>
      <trkpt lat="49.11424" lon="1.84227">
        <ele>154</ele>
        <time>2022-07-31T11:07:58Z</time>
      </trkpt>
      <trkpt lat="49.11426" lon="1.84225">
        <ele>153.9</ele>
        <time>2022-07-31T11:08:04Z</time>
      </trkpt>
      <trkpt lat="49.11427" lon="1.84224">
        <ele>153.9</ele>
        <time>2022-07-31T11:08:10Z</time>
      </trkpt>
      <trkpt lat="49.11427" lon="1.84224">
        <ele>153.9</ele>
        <time>2022-07-31T11:08:15Z</time>
      </trkpt>
      <trkpt lat="49.11427" lon="1.84224">
        <ele>153.9</ele>
        <time>2022-07-31T11:08:20Z</time>
      </trkpt>
      <trkpt lat="49.11426" lon="1.84223">
        <ele>153.8</ele>
        <time>2022-07-31T11:08:26Z</time>
      </trkpt>
      <trkpt lat="49.11425" lon="1.84221">
        <ele>153.8</ele>
        <time>2022-07-31T11:08:31Z</time>
      </trkpt>
      <trkpt lat="49.11424" lon="1.8422">
        <ele>153.6</ele>
        <time>2022-07-31T11:08:37Z</time>
      </trkpt>
      <trkpt lat="49.11424" lon="1.8422">
        <ele>153.6</ele>
        <time>2022-07-31T11:08:42Z</time>
      </trkpt>
      <trkpt lat="49.11423" lon="1.84221">
        <ele>153.5</ele>
        <time>2022-07-31T11:08:48Z</time>
      </trkpt>
      <trkpt lat="49.11423" lon="1.84221">
        <ele>153.5</ele>
        <time>2022-07-31T11:08:53Z</time>
      </trkpt>
      <trkpt lat="49.11423" lon="1.84221">
        <ele>153.4</ele>
        <time>2022-07-31T11:08:59Z</time>
      </trkpt>
      <trkpt lat="49.11423" lon="1.8422">
        <ele>153.2</ele>
        <time>2022-07-31T11:09:04Z</time>
      </trkpt>
      <trkpt lat="49.11423" lon="1.84219">
        <ele>152.9</ele>
        <time>2022-07-31T11:09:10Z</time>
      </trkpt>
      <trkpt lat="49.11422" lon="1.84219">
        <ele>152.5</ele>
        <time>2022-07-31T11:09:15Z</time>
      </trkpt>
      <trkpt lat="49.11422" lon="1.84219">
        <ele>152.4</ele>
        <time>2022-07-31T11:09:20Z</time>
      </trkpt>
      <trkpt lat="49.11422" lon="1.84218">
        <ele>152.4</ele>
        <time>2022-07-31T11:09:25Z</time>
      </trkpt>
      <trkpt lat="49.11422" lon="1.84216">
        <ele>152</ele>
        <time>2022-07-31T11:09:31Z</time>
      </trkpt>
      <trkpt lat="49.11425" lon="1.84209">
        <ele>151.8</ele>
        <time>2022-07-31T11:09:36Z</time>
      </trkpt>
      <trkpt lat="49.11428" lon="1.842">
        <ele>151.7</ele>
        <time>2022-07-31T11:09:42Z</time>
      </trkpt>
      <trkpt lat="49.11431" lon="1.84193">
        <ele>151.7</ele>
        <time>2022-07-31T11:09:48Z</time>
      </trkpt>
      <trkpt lat="49.11434" lon="1.84184">
        <ele>151.9</ele>
        <time>2022-07-31T11:09:54Z</time>
      </trkpt>
      <trkpt lat="49.11437" lon="1.84175">
        <ele>152.4</ele>
        <time>2022-07-31T11:10:00Z</time>
      </trkpt>
      <trkpt lat="49.11439" lon="1.84167">
        <ele>152.7</ele>
        <time>2022-07-31T11:10:05Z</time>
      </trkpt>
      <trkpt lat="49.11441" lon="1.84155">
        <ele>153.4</ele>
        <time>2022-07-31T11:10:11Z</time>
      </trkpt>
      <trkpt lat="49.11442" lon="1.84145">
        <ele>154.1</ele>
        <time>2022-07-31T11:10:17Z</time>
      </trkpt>
      <trkpt lat="49.11442" lon="1.84139">
        <ele>154.7</ele>
        <time>2022-07-31T11:10:22Z</time>
      </trkpt>
      <trkpt lat="49.11441" lon="1.84136">
        <ele>155.1</ele>
        <time>2022-07-31T11:10:27Z</time>
      </trkpt>
      <trkpt lat="49.1144" lon="1.84135">
        <ele>155.6</ele>
        <time>2022-07-31T11:10:33Z</time>
      </trkpt>
      <trkpt lat="49.11441" lon="1.8413">
        <ele>156</ele>
        <time>2022-07-31T11:10:39Z</time>
      </trkpt>
      <trkpt lat="49.11441" lon="1.84123">
        <ele>156.1</ele>
        <time>2022-07-31T11:10:45Z</time>
      </trkpt>
      <trkpt lat="49.11441" lon="1.84119">
        <ele>156.2</ele>
        <time>2022-07-31T11:10:51Z</time>
      </trkpt>
      <trkpt lat="49.11441" lon="1.84121">
        <ele>156.2</ele>
        <time>2022-07-31T11:10:56Z</time>
      </trkpt>
      <trkpt lat="49.1144" lon="1.8413">
        <ele>155.7</ele>
        <time>2022-07-31T11:11:02Z</time>
      </trkpt>
      <trkpt lat="49.11433" lon="1.8414">
        <ele>155.2</ele>
        <time>2022-07-31T11:11:07Z</time>
      </trkpt>
      <trkpt lat="49.11429" lon="1.84149">
        <ele>154.9</ele>
        <time>2022-07-31T11:11:12Z</time>
      </trkpt>
      <trkpt lat="49.11424" lon="1.84152">
        <ele>154.4</ele>
        <time>2022-07-31T11:11:18Z</time>
      </trkpt>
      <trkpt lat="49.11421" lon="1.84155">
        <ele>154</ele>
        <time>2022-07-31T11:11:23Z</time>
      </trkpt>
      <trkpt lat="49.11416" lon="1.84162">
        <ele>153.4</ele>
        <time>2022-07-31T11:11:29Z</time>
      </trkpt>
      <trkpt lat="49.11412" lon="1.84161">
        <ele>152.8</ele>
        <time>2022-07-31T11:11:34Z</time>
      </trkpt>
      <trkpt lat="49.11407" lon="1.84162">
        <ele>152.2</ele>
        <time>2022-07-31T11:11:39Z</time>
      </trkpt>
      <trkpt lat="49.11398" lon="1.84167">
        <ele>151.8</ele>
        <time>2022-07-31T11:11:45Z</time>
      </trkpt>
      <trkpt lat="49.11391" lon="1.84173">
        <ele>151.5</ele>
        <time>2022-07-31T11:11:51Z</time>
      </trkpt>
      <trkpt lat="49.11386" lon="1.84177">
        <ele>151.5</ele>
        <time>2022-07-31T11:11:56Z</time>
      </trkpt>
      <trkpt lat="49.11382" lon="1.84182">
        <ele>151.7</ele>
        <time>2022-07-31T11:12:02Z</time>
      </trkpt>
      <trkpt lat="49.11377" lon="1.8419">
        <ele>152.1</ele>
        <time>2022-07-31T11:12:08Z</time>
      </trkpt>
      <trkpt lat="49.11371" lon="1.84196">
        <ele>152.3</ele>
        <time>2022-07-31T11:12:14Z</time>
      </trkpt>
      <trkpt lat="49.11366" lon="1.84201">
        <ele>152.4</ele>
        <time>2022-07-31T11:12:19Z</time>
      </trkpt>
      <trkpt lat="49.1136" lon="1.84203">
        <ele>152.6</ele>
        <time>2022-07-31T11:12:25Z</time>
      </trkpt>
      <trkpt lat="49.11353" lon="1.84208">
        <ele>152.5</ele>
        <time>2022-07-31T11:12:31Z</time>
      </trkpt>
      <trkpt lat="49.11345" lon="1.84214">
        <ele>152.7</ele>
        <time>2022-07-31T11:12:37Z</time>
      </trkpt>
      <trkpt lat="49.11338" lon="1.8422">
        <ele>153</ele>
        <time>2022-07-31T11:12:43Z</time>
      </trkpt>
      <trkpt lat="49.11335" lon="1.84226">
        <ele>153.3</ele>
        <time>2022-07-31T11:12:49Z</time>
      </trkpt>
      <trkpt lat="49.11331" lon="1.8423">
        <ele>153.6</ele>
        <time>2022-07-31T11:12:54Z</time>
      </trkpt>
      <trkpt lat="49.11326" lon="1.84237">
        <ele>154</ele>
        <time>2022-07-31T11:13:00Z</time>
      </trkpt>
      <trkpt lat="49.11321" lon="1.84244">
        <ele>154.1</ele>
        <time>2022-07-31T11:13:06Z</time>
      </trkpt>
      <trkpt lat="49.11315" lon="1.84249">
        <ele>154</ele>
        <time>2022-07-31T11:13:12Z</time>
      </trkpt>
      <trkpt lat="49.1131" lon="1.84254">
        <ele>153.8</ele>
        <time>2022-07-31T11:13:17Z</time>
      </trkpt>
      <trkpt lat="49.11305" lon="1.8426">
        <ele>153.6</ele>
        <time>2022-07-31T11:13:22Z</time>
      </trkpt>
      <trkpt lat="49.11299" lon="1.84269">
        <ele>153.5</ele>
        <time>2022-07-31T11:13:28Z</time>
      </trkpt>
      <trkpt lat="49.11294" lon="1.84276">
        <ele>153.6</ele>
        <time>2022-07-31T11:13:33Z</time>
      </trkpt>
      <trkpt lat="49.11288" lon="1.84281">
        <ele>153.7</ele>
        <time>2022-07-31T11:13:38Z</time>
      </trkpt>
      <trkpt lat="49.11282" lon="1.84288">
        <ele>154</ele>
        <time>2022-07-31T11:13:44Z</time>
      </trkpt>
      <trkpt lat="49.11273" lon="1.84294">
        <ele>154.4</ele>
        <time>2022-07-31T11:13:50Z</time>
      </trkpt>
      <trkpt lat="49.11267" lon="1.84299">
        <ele>154.7</ele>
        <time>2022-07-31T11:13:55Z</time>
      </trkpt>
      <trkpt lat="49.11259" lon="1.84302">
        <ele>155</ele>
        <time>2022-07-31T11:14:01Z</time>
      </trkpt>
      <trkpt lat="49.11252" lon="1.84307">
        <ele>155.5</ele>
        <time>2022-07-31T11:14:06Z</time>
      </trkpt>
      <trkpt lat="49.11243" lon="1.8431">
        <ele>155.8</ele>
        <time>2022-07-31T11:14:12Z</time>
      </trkpt>
      <trkpt lat="49.11235" lon="1.84314">
        <ele>156.3</ele>
        <time>2022-07-31T11:14:18Z</time>
      </trkpt>
      <trkpt lat="49.11229" lon="1.84316">
        <ele>156.9</ele>
        <time>2022-07-31T11:14:23Z</time>
      </trkpt>
      <trkpt lat="49.11224" lon="1.84318">
        <ele>157.3</ele>
        <time>2022-07-31T11:14:28Z</time>
      </trkpt>
      <trkpt lat="49.11218" lon="1.84322">
        <ele>157.5</ele>
        <time>2022-07-31T11:14:34Z</time>
      </trkpt>
      <trkpt lat="49.11213" lon="1.84324">
        <ele>157.2</ele>
        <time>2022-07-31T11:14:39Z</time>
      </trkpt>
      <trkpt lat="49.11208" lon="1.84326">
        <ele>156.6</ele>
        <time>2022-07-31T11:14:45Z</time>
      </trkpt>
      <trkpt lat="49.11202" lon="1.84329">
        <ele>156</ele>
        <time>2022-07-31T11:14:50Z</time>
      </trkpt>
      <trkpt lat="49.11197" lon="1.84333">
        <ele>155.3</ele>
        <time>2022-07-31T11:14:55Z</time>
      </trkpt>
      <trkpt lat="49.11188" lon="1.84336">
        <ele>154.6</ele>
        <time>2022-07-31T11:15:01Z</time>
      </trkpt>
      <trkpt lat="49.11182" lon="1.84339">
        <ele>153.9</ele>
        <time>2022-07-31T11:15:06Z</time>
      </trkpt>
      <trkpt lat="49.11177" lon="1.84342">
        <ele>153.5</ele>
        <time>2022-07-31T11:15:11Z</time>
      </trkpt>
      <trkpt lat="49.11171" lon="1.84347">
        <ele>153.4</ele>
        <time>2022-07-31T11:15:16Z</time>
      </trkpt>
      <trkpt lat="49.11163" lon="1.84353">
        <ele>153.4</ele>
        <time>2022-07-31T11:15:22Z</time>
      </trkpt>
      <trkpt lat="49.11155" lon="1.84359">
        <ele>153.4</ele>
        <time>2022-07-31T11:15:28Z</time>
      </trkpt>
      <trkpt lat="49.11146" lon="1.84367">
        <ele>153.6</ele>
        <time>2022-07-31T11:15:34Z</time>
      </trkpt>
      <trkpt lat="49.11139" lon="1.84374">
        <ele>153.6</ele>
        <time>2022-07-31T11:15:40Z</time>
      </trkpt>
      <trkpt lat="49.11133" lon="1.8438">
        <ele>153.5</ele>
        <time>2022-07-31T11:15:46Z</time>
      </trkpt>
      <trkpt lat="49.11127" lon="1.84389">
        <ele>153.4</ele>
        <time>2022-07-31T11:15:52Z</time>
      </trkpt>
      <trkpt lat="49.1112" lon="1.84397">
        <ele>153.3</ele>
        <time>2022-07-31T11:15:58Z</time>
      </trkpt>
      <trkpt lat="49.11115" lon="1.84403">
        <ele>153.1</ele>
        <time>2022-07-31T11:16:03Z</time>
      </trkpt>
      <trkpt lat="49.1111" lon="1.84409">
        <ele>152.8</ele>
        <time>2022-07-31T11:16:09Z</time>
      </trkpt>
      <trkpt lat="49.11102" lon="1.84418">
        <ele>152.5</ele>
        <time>2022-07-31T11:16:15Z</time>
      </trkpt>
      <trkpt lat="49.11095" lon="1.8442">
        <ele>152.3</ele>
        <time>2022-07-31T11:16:21Z</time>
      </trkpt>
      <trkpt lat="49.1109" lon="1.84415">
        <ele>152.4</ele>
        <time>2022-07-31T11:16:26Z</time>
      </trkpt>
      <trkpt lat="49.11088" lon="1.84405">
        <ele>152.4</ele>
        <time>2022-07-31T11:16:31Z</time>
      </trkpt>
      <trkpt lat="49.11082" lon="1.84395">
        <ele>152.4</ele>
        <time>2022-07-31T11:16:37Z</time>
      </trkpt>
      <trkpt lat="49.11077" lon="1.84388">
        <ele>152.6</ele>
        <time>2022-07-31T11:16:43Z</time>
      </trkpt>
      <trkpt lat="49.1107" lon="1.8438">
        <ele>152.6</ele>
        <time>2022-07-31T11:16:49Z</time>
      </trkpt>
      <trkpt lat="49.11064" lon="1.84375">
        <ele>152.6</ele>
        <time>2022-07-31T11:16:54Z</time>
      </trkpt>
      <trkpt lat="49.11055" lon="1.84374">
        <ele>153</ele>
        <time>2022-07-31T11:16:59Z</time>
      </trkpt>
      <trkpt lat="49.11047" lon="1.84378">
        <ele>153.4</ele>
        <time>2022-07-31T11:17:05Z</time>
      </trkpt>
      <trkpt lat="49.1104" lon="1.8438">
        <ele>154</ele>
        <time>2022-07-31T11:17:10Z</time>
      </trkpt>
      <trkpt lat="49.11035" lon="1.84381">
        <ele>154.8</ele>
        <time>2022-07-31T11:17:16Z</time>
      </trkpt>
      <trkpt lat="49.11029" lon="1.84376">
        <ele>155.2</ele>
        <time>2022-07-31T11:17:22Z</time>
      </trkpt>
      <trkpt lat="49.11025" lon="1.8437">
        <ele>155.7</ele>
        <time>2022-07-31T11:17:28Z</time>
      </trkpt>
      <trkpt lat="49.11021" lon="1.84363">
        <ele>156.4</ele>
        <time>2022-07-31T11:17:33Z</time>
      </trkpt>
      <trkpt lat="49.11017" lon="1.84355">
        <ele>157.1</ele>
        <time>2022-07-31T11:17:38Z</time>
      </trkpt>
      <trkpt lat="49.11011" lon="1.84345">
        <ele>157.7</ele>
        <time>2022-07-31T11:17:44Z</time>
      </trkpt>
      <trkpt lat="49.11007" lon="1.84334">
        <ele>158.1</ele>
        <time>2022-07-31T11:17:50Z</time>
      </trkpt>
      <trkpt lat="49.11005" lon="1.84324">
        <ele>158.4</ele>
        <time>2022-07-31T11:17:56Z</time>
      </trkpt>
      <trkpt lat="49.10999" lon="1.84314">
        <ele>158.6</ele>
        <time>2022-07-31T11:18:03Z</time>
      </trkpt>
      <trkpt lat="49.10992" lon="1.84306">
        <ele>159.1</ele>
        <time>2022-07-31T11:18:09Z</time>
      </trkpt>
      <trkpt lat="49.10986" lon="1.84301">
        <ele>159.5</ele>
        <time>2022-07-31T11:18:14Z</time>
      </trkpt>
      <trkpt lat="49.10979" lon="1.84293">
        <ele>159.8</ele>
        <time>2022-07-31T11:18:20Z</time>
      </trkpt>
      <trkpt lat="49.10972" lon="1.84285">
        <ele>160</ele>
        <time>2022-07-31T11:18:26Z</time>
      </trkpt>
      <trkpt lat="49.10967" lon="1.84279">
        <ele>160</ele>
        <time>2022-07-31T11:18:31Z</time>
      </trkpt>
      <trkpt lat="49.10962" lon="1.8427">
        <ele>160.4</ele>
        <time>2022-07-31T11:18:37Z</time>
      </trkpt>
      <trkpt lat="49.10954" lon="1.84261">
        <ele>160.8</ele>
        <time>2022-07-31T11:18:43Z</time>
      </trkpt>
      <trkpt lat="49.1095" lon="1.84255">
        <ele>161</ele>
        <time>2022-07-31T11:18:48Z</time>
      </trkpt>
      <trkpt lat="49.10945" lon="1.84247">
        <ele>161.3</ele>
        <time>2022-07-31T11:18:53Z</time>
      </trkpt>
      <trkpt lat="49.10939" lon="1.84239">
        <ele>161.7</ele>
        <time>2022-07-31T11:18:59Z</time>
      </trkpt>
      <trkpt lat="49.10934" lon="1.84232">
        <ele>162.1</ele>
        <time>2022-07-31T11:19:04Z</time>
      </trkpt>
      <trkpt lat="49.10929" lon="1.84224">
        <ele>162.6</ele>
        <time>2022-07-31T11:19:10Z</time>
      </trkpt>
      <trkpt lat="49.10923" lon="1.84217">
        <ele>163</ele>
        <time>2022-07-31T11:19:15Z</time>
      </trkpt>
      <trkpt lat="49.10918" lon="1.84207">
        <ele>163.3</ele>
        <time>2022-07-31T11:19:21Z</time>
      </trkpt>
      <trkpt lat="49.10913" lon="1.84197">
        <ele>163.8</ele>
        <time>2022-07-31T11:19:27Z</time>
      </trkpt>
      <trkpt lat="49.10908" lon="1.84189">
        <ele>164.3</ele>
        <time>2022-07-31T11:19:32Z</time>
      </trkpt>
      <trkpt lat="49.10904" lon="1.84182">
        <ele>164.6</ele>
        <time>2022-07-31T11:19:37Z</time>
      </trkpt>
      <trkpt lat="49.10898" lon="1.84173">
        <ele>165</ele>
        <time>2022-07-31T11:19:43Z</time>
      </trkpt>
      <trkpt lat="49.10893" lon="1.84167">
        <ele>165.4</ele>
        <time>2022-07-31T11:19:48Z</time>
      </trkpt>
      <trkpt lat="49.10886" lon="1.8416">
        <ele>165.7</ele>
        <time>2022-07-31T11:19:54Z</time>
      </trkpt>
      <trkpt lat="49.1088" lon="1.84151">
        <ele>165.8</ele>
        <time>2022-07-31T11:20:00Z</time>
      </trkpt>
      <trkpt lat="49.10874" lon="1.84144">
        <ele>165.7</ele>
        <time>2022-07-31T11:20:05Z</time>
      </trkpt>
      <trkpt lat="49.10868" lon="1.84136">
        <ele>165.5</ele>
        <time>2022-07-31T11:20:11Z</time>
      </trkpt>
      <trkpt lat="49.10864" lon="1.8413">
        <ele>165.5</ele>
        <time>2022-07-31T11:20:16Z</time>
      </trkpt>
      <trkpt lat="49.1086" lon="1.84123">
        <ele>165.6</ele>
        <time>2022-07-31T11:20:22Z</time>
      </trkpt>
      <trkpt lat="49.10854" lon="1.8412">
        <ele>165.5</ele>
        <time>2022-07-31T11:20:27Z</time>
      </trkpt>
      <trkpt lat="49.10847" lon="1.84116">
        <ele>165.2</ele>
        <time>2022-07-31T11:20:33Z</time>
      </trkpt>
      <trkpt lat="49.10841" lon="1.84118">
        <ele>164.9</ele>
        <time>2022-07-31T11:20:38Z</time>
      </trkpt>
      <trkpt lat="49.10837" lon="1.84126">
        <ele>164.9</ele>
        <time>2022-07-31T11:20:44Z</time>
      </trkpt>
      <trkpt lat="49.10833" lon="1.84135">
        <ele>165.1</ele>
        <time>2022-07-31T11:20:50Z</time>
      </trkpt>
      <trkpt lat="49.10829" lon="1.84141">
        <ele>165.1</ele>
        <time>2022-07-31T11:20:55Z</time>
      </trkpt>
      <trkpt lat="49.10824" lon="1.84145">
        <ele>164.9</ele>
        <time>2022-07-31T11:21:00Z</time>
      </trkpt>
      <trkpt lat="49.1082" lon="1.84151">
        <ele>164.6</ele>
        <time>2022-07-31T11:21:06Z</time>
      </trkpt>
      <trkpt lat="49.10815" lon="1.84157">
        <ele>164.4</ele>
        <time>2022-07-31T11:21:11Z</time>
      </trkpt>
      <trkpt lat="49.10808" lon="1.84163">
        <ele>164</ele>
        <time>2022-07-31T11:21:17Z</time>
      </trkpt>
      <trkpt lat="49.10803" lon="1.84168">
        <ele>163.3</ele>
        <time>2022-07-31T11:21:23Z</time>
      </trkpt>
      <trkpt lat="49.10795" lon="1.84173">
        <ele>162.5</ele>
        <time>2022-07-31T11:21:28Z</time>
      </trkpt>
      <trkpt lat="49.10791" lon="1.84178">
        <ele>161.7</ele>
        <time>2022-07-31T11:21:33Z</time>
      </trkpt>
      <trkpt lat="49.10785" lon="1.84183">
        <ele>160.8</ele>
        <time>2022-07-31T11:21:39Z</time>
      </trkpt>
      <trkpt lat="49.10779" lon="1.8419">
        <ele>159.9</ele>
        <time>2022-07-31T11:21:45Z</time>
      </trkpt>
      <trkpt lat="49.10776" lon="1.84198">
        <ele>159.1</ele>
        <time>2022-07-31T11:21:50Z</time>
      </trkpt>
      <trkpt lat="49.10773" lon="1.84209">
        <ele>158.4</ele>
        <time>2022-07-31T11:21:56Z</time>
      </trkpt>
      <trkpt lat="49.1077" lon="1.84223">
        <ele>157.5</ele>
        <time>2022-07-31T11:22:02Z</time>
      </trkpt>
      <trkpt lat="49.10768" lon="1.84231">
        <ele>156.6</ele>
        <time>2022-07-31T11:22:07Z</time>
      </trkpt>
      <trkpt lat="49.10767" lon="1.84243">
        <ele>155.6</ele>
        <time>2022-07-31T11:22:13Z</time>
      </trkpt>
      <trkpt lat="49.10766" lon="1.84249">
        <ele>154.6</ele>
        <time>2022-07-31T11:22:18Z</time>
      </trkpt>
      <trkpt lat="49.10764" lon="1.84256">
        <ele>153.7</ele>
        <time>2022-07-31T11:22:23Z</time>
      </trkpt>
      <trkpt lat="49.10763" lon="1.84267">
        <ele>152.9</ele>
        <time>2022-07-31T11:22:29Z</time>
      </trkpt>
      <trkpt lat="49.10759" lon="1.8428">
        <ele>152.3</ele>
        <time>2022-07-31T11:22:35Z</time>
      </trkpt>
      <trkpt lat="49.10758" lon="1.8429">
        <ele>151.9</ele>
        <time>2022-07-31T11:22:40Z</time>
      </trkpt>
      <trkpt lat="49.10757" lon="1.84301">
        <ele>151.6</ele>
        <time>2022-07-31T11:22:45Z</time>
      </trkpt>
      <trkpt lat="49.10756" lon="1.84311">
        <ele>151.3</ele>
        <time>2022-07-31T11:22:51Z</time>
      </trkpt>
      <trkpt lat="49.10757" lon="1.84321">
        <ele>151.2</ele>
        <time>2022-07-31T11:22:56Z</time>
      </trkpt>
      <trkpt lat="49.10756" lon="1.84332">
        <ele>151</ele>
        <time>2022-07-31T11:23:02Z</time>
      </trkpt>
      <trkpt lat="49.10756" lon="1.84342">
        <ele>150.8</ele>
        <time>2022-07-31T11:23:07Z</time>
      </trkpt>
      <trkpt lat="49.10757" lon="1.84354">
        <ele>150.4</ele>
        <time>2022-07-31T11:23:13Z</time>
      </trkpt>
      <trkpt lat="49.10757" lon="1.84366">
        <ele>150</ele>
        <time>2022-07-31T11:23:19Z</time>
      </trkpt>
      <trkpt lat="49.10757" lon="1.84378">
        <ele>149.6</ele>
        <time>2022-07-31T11:23:25Z</time>
      </trkpt>
      <trkpt lat="49.10757" lon="1.8439">
        <ele>149.3</ele>
        <time>2022-07-31T11:23:31Z</time>
      </trkpt>
      <trkpt lat="49.10758" lon="1.84399">
        <ele>149</ele>
        <time>2022-07-31T11:23:36Z</time>
      </trkpt>
      <trkpt lat="49.10758" lon="1.84409">
        <ele>148.7</ele>
        <time>2022-07-31T11:23:41Z</time>
      </trkpt>
      <trkpt lat="49.10759" lon="1.8442">
        <ele>148.4</ele>
        <time>2022-07-31T11:23:47Z</time>
      </trkpt>
      <trkpt lat="49.1076" lon="1.84429">
        <ele>148.2</ele>
        <time>2022-07-31T11:23:52Z</time>
      </trkpt>
      <trkpt lat="49.1076" lon="1.84439">
        <ele>148.2</ele>
        <time>2022-07-31T11:23:57Z</time>
      </trkpt>
      <trkpt lat="49.10759" lon="1.84449">
        <ele>148.3</ele>
        <time>2022-07-31T11:24:02Z</time>
      </trkpt>
      <trkpt lat="49.10755" lon="1.84448">
        <ele>148.3</ele>
        <time>2022-07-31T11:24:08Z</time>
      </trkpt>
      <trkpt lat="49.10754" lon="1.84447">
        <ele>148.2</ele>
        <time>2022-07-31T11:24:14Z</time>
      </trkpt>
      <trkpt lat="49.10754" lon="1.84447">
        <ele>148.1</ele>
        <time>2022-07-31T11:24:20Z</time>
      </trkpt>
      <trkpt lat="49.10754" lon="1.84446">
        <ele>148</ele>
        <time>2022-07-31T11:24:25Z</time>
      </trkpt>
      <trkpt lat="49.10754" lon="1.84446">
        <ele>147.8</ele>
        <time>2022-07-31T11:24:30Z</time>
      </trkpt>
      <trkpt lat="49.10754" lon="1.84446">
        <ele>147.7</ele>
        <time>2022-07-31T11:24:36Z</time>
      </trkpt>
      <trkpt lat="49.10754" lon="1.84446">
        <ele>147.6</ele>
        <time>2022-07-31T11:24:41Z</time>
      </trkpt>
      <trkpt lat="49.10756" lon="1.84443">
        <ele>146.9</ele>
        <time>2022-07-31T11:24:47Z</time>
      </trkpt>
      <trkpt lat="49.10755" lon="1.84443">
        <ele>146.2</ele>
        <time>2022-07-31T11:24:53Z</time>
      </trkpt>
      <trkpt lat="49.10757" lon="1.84446">
        <ele>145.6</ele>
        <time>2022-07-31T11:24:59Z</time>
      </trkpt>
      <trkpt lat="49.10759" lon="1.84453">
        <ele>144.7</ele>
        <time>2022-07-31T11:25:05Z</time>
      </trkpt>
      <trkpt lat="49.10759" lon="1.84467">
        <ele>144.1</ele>
        <time>2022-07-31T11:25:11Z</time>
      </trkpt>
      <trkpt lat="49.1076" lon="1.84479">
        <ele>143.7</ele>
        <time>2022-07-31T11:25:17Z</time>
      </trkpt>
      <trkpt lat="49.1076" lon="1.84489">
        <ele>143.5</ele>
        <time>2022-07-31T11:25:22Z</time>
      </trkpt>
      <trkpt lat="49.1076" lon="1.84503">
        <ele>143.3</ele>
        <time>2022-07-31T11:25:28Z</time>
      </trkpt>
      <trkpt lat="49.10761" lon="1.84515">
        <ele>143.1</ele>
        <time>2022-07-31T11:25:33Z</time>
      </trkpt>
      <trkpt lat="49.1076" lon="1.84526">
        <ele>142.7</ele>
        <time>2022-07-31T11:25:39Z</time>
      </trkpt>
      <trkpt lat="49.1076" lon="1.8454">
        <ele>142.7</ele>
        <time>2022-07-31T11:25:45Z</time>
      </trkpt>
      <trkpt lat="49.10761" lon="1.84555">
        <ele>142.7</ele>
        <time>2022-07-31T11:25:51Z</time>
      </trkpt>
      <trkpt lat="49.1076" lon="1.84568">
        <ele>142.8</ele>
        <time>2022-07-31T11:25:57Z</time>
      </trkpt>
      <trkpt lat="49.10761" lon="1.84579">
        <ele>142.9</ele>
        <time>2022-07-31T11:26:02Z</time>
      </trkpt>
      <trkpt lat="49.10761" lon="1.84592">
        <ele>143</ele>
        <time>2022-07-31T11:26:08Z</time>
      </trkpt>
      <trkpt lat="49.1076" lon="1.84603">
        <ele>143.1</ele>
        <time>2022-07-31T11:26:14Z</time>
      </trkpt>
      <trkpt lat="49.1076" lon="1.84618">
        <ele>142.8</ele>
        <time>2022-07-31T11:26:20Z</time>
      </trkpt>
      <trkpt lat="49.1076" lon="1.84628">
        <ele>142.5</ele>
        <time>2022-07-31T11:26:25Z</time>
      </trkpt>
      <trkpt lat="49.10761" lon="1.84638">
        <ele>142.3</ele>
        <time>2022-07-31T11:26:30Z</time>
      </trkpt>
      <trkpt lat="49.10759" lon="1.84651">
        <ele>141.9</ele>
        <time>2022-07-31T11:26:36Z</time>
      </trkpt>
      <trkpt lat="49.10758" lon="1.84664">
        <ele>141.8</ele>
        <time>2022-07-31T11:26:42Z</time>
      </trkpt>
      <trkpt lat="49.10757" lon="1.84672">
        <ele>141.6</ele>
        <time>2022-07-31T11:26:47Z</time>
      </trkpt>
      <trkpt lat="49.10757" lon="1.84685">
        <ele>141.5</ele>
        <time>2022-07-31T11:26:53Z</time>
      </trkpt>
      <trkpt lat="49.10754" lon="1.84694">
        <ele>141.3</ele>
        <time>2022-07-31T11:26:58Z</time>
      </trkpt>
      <trkpt lat="49.10754" lon="1.84704">
        <ele>141.2</ele>
        <time>2022-07-31T11:27:03Z</time>
      </trkpt>
      <trkpt lat="49.10756" lon="1.84717">
        <ele>141.1</ele>
        <time>2022-07-31T11:27:08Z</time>
      </trkpt>
      <trkpt lat="49.10759" lon="1.84727">
        <ele>141.1</ele>
        <time>2022-07-31T11:27:13Z</time>
      </trkpt>
      <trkpt lat="49.10762" lon="1.84738">
        <ele>141.1</ele>
        <time>2022-07-31T11:27:18Z</time>
      </trkpt>
      <trkpt lat="49.10763" lon="1.84748">
        <ele>141.2</ele>
        <time>2022-07-31T11:27:24Z</time>
      </trkpt>
      <trkpt lat="49.10761" lon="1.84761">
        <ele>141.2</ele>
        <time>2022-07-31T11:27:30Z</time>
      </trkpt>
      <trkpt lat="49.10763" lon="1.84775">
        <ele>141.2</ele>
        <time>2022-07-31T11:27:36Z</time>
      </trkpt>
      <trkpt lat="49.10765" lon="1.84787">
        <ele>141.1</ele>
        <time>2022-07-31T11:27:42Z</time>
      </trkpt>
      <trkpt lat="49.10768" lon="1.84797">
        <ele>140.6</ele>
        <time>2022-07-31T11:27:47Z</time>
      </trkpt>
      <trkpt lat="49.10772" lon="1.84808">
        <ele>140.1</ele>
        <time>2022-07-31T11:27:53Z</time>
      </trkpt>
      <trkpt lat="49.10775" lon="1.8482">
        <ele>139.5</ele>
        <time>2022-07-31T11:27:59Z</time>
      </trkpt>
      <trkpt lat="49.10777" lon="1.84828">
        <ele>139.1</ele>
        <time>2022-07-31T11:28:04Z</time>
      </trkpt>
      <trkpt lat="49.10781" lon="1.84836">
        <ele>138.9</ele>
        <time>2022-07-31T11:28:09Z</time>
      </trkpt>
      <trkpt lat="49.10787" lon="1.84845">
        <ele>138.9</ele>
        <time>2022-07-31T11:28:15Z</time>
      </trkpt>
      <trkpt lat="49.10792" lon="1.84854">
        <ele>138.8</ele>
        <time>2022-07-31T11:28:21Z</time>
      </trkpt>
      <trkpt lat="49.10798" lon="1.84861">
        <ele>138.7</ele>
        <time>2022-07-31T11:28:26Z</time>
      </trkpt>
      <trkpt lat="49.10805" lon="1.84873">
        <ele>138.7</ele>
        <time>2022-07-31T11:28:32Z</time>
      </trkpt>
      <trkpt lat="49.10809" lon="1.84881">
        <ele>138.7</ele>
        <time>2022-07-31T11:28:37Z</time>
      </trkpt>
      <trkpt lat="49.10811" lon="1.84887">
        <ele>138.5</ele>
        <time>2022-07-31T11:28:42Z</time>
      </trkpt>
      <trkpt lat="49.10813" lon="1.84897">
        <ele>138.1</ele>
        <time>2022-07-31T11:28:47Z</time>
      </trkpt>
      <trkpt lat="49.10816" lon="1.84906">
        <ele>137.7</ele>
        <time>2022-07-31T11:28:53Z</time>
      </trkpt>
      <trkpt lat="49.10821" lon="1.84912">
        <ele>137.5</ele>
        <time>2022-07-31T11:28:58Z</time>
      </trkpt>
      <trkpt lat="49.10827" lon="1.84918">
        <ele>137.8</ele>
        <time>2022-07-31T11:29:03Z</time>
      </trkpt>
      <trkpt lat="49.10834" lon="1.84923">
        <ele>138.2</ele>
        <time>2022-07-31T11:29:09Z</time>
      </trkpt>
      <trkpt lat="49.10839" lon="1.8493">
        <ele>138.2</ele>
        <time>2022-07-31T11:29:14Z</time>
      </trkpt>
      <trkpt lat="49.10843" lon="1.84936">
        <ele>138.2</ele>
        <time>2022-07-31T11:29:19Z</time>
      </trkpt>
      <trkpt lat="49.10848" lon="1.84942">
        <ele>138.3</ele>
        <time>2022-07-31T11:29:25Z</time>
      </trkpt>
      <trkpt lat="49.10854" lon="1.84951">
        <ele>138.3</ele>
        <time>2022-07-31T11:29:31Z</time>
      </trkpt>
      <trkpt lat="49.10859" lon="1.84956">
        <ele>138.3</ele>
        <time>2022-07-31T11:29:36Z</time>
      </trkpt>
      <trkpt lat="49.10863" lon="1.84962">
        <ele>138.2</ele>
        <time>2022-07-31T11:29:41Z</time>
      </trkpt>
      <trkpt lat="49.10868" lon="1.84969">
        <ele>138</ele>
        <time>2022-07-31T11:29:47Z</time>
      </trkpt>
      <trkpt lat="49.10868" lon="1.84977">
        <ele>138</ele>
        <time>2022-07-31T11:29:53Z</time>
      </trkpt>
      <trkpt lat="49.10865" lon="1.84983">
        <ele>138.1</ele>
        <time>2022-07-31T11:29:59Z</time>
      </trkpt>
      <trkpt lat="49.10862" lon="1.84988">
        <ele>138.1</ele>
        <time>2022-07-31T11:30:05Z</time>
      </trkpt>
      <trkpt lat="49.10858" lon="1.84982">
        <ele>138.2</ele>
        <time>2022-07-31T11:30:11Z</time>
      </trkpt>
      <trkpt lat="49.10856" lon="1.84982">
        <ele>138.2</ele>
        <time>2022-07-31T11:30:16Z</time>
      </trkpt>
      <trkpt lat="49.10857" lon="1.84982">
        <ele>138.2</ele>
        <time>2022-07-31T11:30:22Z</time>
      </trkpt>
      <trkpt lat="49.10859" lon="1.84984">
        <ele>138</ele>
        <time>2022-07-31T11:30:27Z</time>
      </trkpt>
      <trkpt lat="49.10862" lon="1.84986">
        <ele>137.9</ele>
        <time>2022-07-31T11:30:33Z</time>
      </trkpt>
      <trkpt lat="49.10862" lon="1.84986">
        <ele>137.8</ele>
        <time>2022-07-31T11:30:39Z</time>
      </trkpt>
      <trkpt lat="49.10862" lon="1.84986">
        <ele>137.8</ele>
        <time>2022-07-31T11:30:45Z</time>
      </trkpt>
      <trkpt lat="49.10862" lon="1.84985">
        <ele>137.8</ele>
        <time>2022-07-31T11:30:51Z</time>
      </trkpt>
      <trkpt lat="49.10862" lon="1.84985">
        <ele>137.7</ele>
        <time>2022-07-31T11:30:56Z</time>
      </trkpt>
      <trkpt lat="49.10862" lon="1.84985">
        <ele>137.6</ele>
        <time>2022-07-31T11:31:01Z</time>
      </trkpt>
      <trkpt lat="49.10861" lon="1.84985">
        <ele>137.6</ele>
        <time>2022-07-31T11:31:07Z</time>
      </trkpt>
      <trkpt lat="49.10861" lon="1.84984">
        <ele>137.6</ele>
        <time>2022-07-31T11:31:12Z</time>
      </trkpt>
      <trkpt lat="49.10861" lon="1.84984">
        <ele>137.7</ele>
        <time>2022-07-31T11:31:18Z</time>
      </trkpt>
      <trkpt lat="49.10861" lon="1.84984">
        <ele>137.8</ele>
        <time>2022-07-31T11:31:24Z</time>
      </trkpt>
      <trkpt lat="49.10861" lon="1.84984">
        <ele>137.7</ele>
        <time>2022-07-31T11:31:30Z</time>
      </trkpt>
      <trkpt lat="49.1086" lon="1.84983">
        <ele>137.6</ele>
        <time>2022-07-31T11:31:36Z</time>
      </trkpt>
      <trkpt lat="49.10856" lon="1.8498">
        <ele>137.5</ele>
        <time>2022-07-31T11:31:42Z</time>
      </trkpt>
      <trkpt lat="49.10855" lon="1.8498">
        <ele>137.5</ele>
        <time>2022-07-31T11:31:47Z</time>
      </trkpt>
      <trkpt lat="49.10855" lon="1.84979">
        <ele>137.5</ele>
        <time>2022-07-31T11:31:53Z</time>
      </trkpt>
      <trkpt lat="49.10855" lon="1.84979">
        <ele>137.6</ele>
        <time>2022-07-31T11:31:58Z</time>
      </trkpt>
      <trkpt lat="49.10853" lon="1.84975">
        <ele>137.6</ele>
        <time>2022-07-31T11:32:04Z</time>
      </trkpt>
      <trkpt lat="49.10848" lon="1.84971">
        <ele>137.7</ele>
        <time>2022-07-31T11:32:10Z</time>
      </trkpt>
      <trkpt lat="49.10841" lon="1.84966">
        <ele>137.9</ele>
        <time>2022-07-31T11:32:16Z</time>
      </trkpt>
      <trkpt lat="49.10835" lon="1.84963">
        <ele>138</ele>
        <time>2022-07-31T11:32:22Z</time>
      </trkpt>
      <trkpt lat="49.1083" lon="1.84955">
        <ele>137.8</ele>
        <time>2022-07-31T11:32:28Z</time>
      </trkpt>
      <trkpt lat="49.10824" lon="1.84949">
        <ele>137.6</ele>
        <time>2022-07-31T11:32:34Z</time>
      </trkpt>
      <trkpt lat="49.1082" lon="1.84945">
        <ele>137.4</ele>
        <time>2022-07-31T11:32:40Z</time>
      </trkpt>
      <trkpt lat="49.10812" lon="1.84938">
        <ele>137.2</ele>
        <time>2022-07-31T11:32:45Z</time>
      </trkpt>
      <trkpt lat="49.10806" lon="1.84933">
        <ele>137.3</ele>
        <time>2022-07-31T11:32:51Z</time>
      </trkpt>
      <trkpt lat="49.108" lon="1.84928">
        <ele>137.4</ele>
        <time>2022-07-31T11:32:56Z</time>
      </trkpt>
      <trkpt lat="49.10791" lon="1.84922">
        <ele>137.4</ele>
        <time>2022-07-31T11:33:02Z</time>
      </trkpt>
      <trkpt lat="49.10786" lon="1.84915">
        <ele>137.3</ele>
        <time>2022-07-31T11:33:08Z</time>
      </trkpt>
      <trkpt lat="49.10778" lon="1.84909">
        <ele>137.4</ele>
        <time>2022-07-31T11:33:14Z</time>
      </trkpt>
      <trkpt lat="49.10772" lon="1.84906">
        <ele>137.5</ele>
        <time>2022-07-31T11:33:19Z</time>
      </trkpt>
      <trkpt lat="49.10768" lon="1.84898">
        <ele>137.6</ele>
        <time>2022-07-31T11:33:24Z</time>
      </trkpt>
      <trkpt lat="49.10762" lon="1.84891">
        <ele>137.9</ele>
        <time>2022-07-31T11:33:30Z</time>
      </trkpt>
      <trkpt lat="49.10758" lon="1.84887">
        <ele>138.2</ele>
        <time>2022-07-31T11:33:35Z</time>
      </trkpt>
      <trkpt lat="49.1075" lon="1.84882">
        <ele>138.3</ele>
        <time>2022-07-31T11:33:41Z</time>
      </trkpt>
      <trkpt lat="49.10745" lon="1.84876">
        <ele>138.4</ele>
        <time>2022-07-31T11:33:47Z</time>
      </trkpt>
      <trkpt lat="49.10741" lon="1.8487">
        <ele>138.4</ele>
        <time>2022-07-31T11:33:52Z</time>
      </trkpt>
      <trkpt lat="49.10735" lon="1.84864">
        <ele>138.4</ele>
        <time>2022-07-31T11:33:57Z</time>
      </trkpt>
      <trkpt lat="49.10729" lon="1.84859">
        <ele>138.4</ele>
        <time>2022-07-31T11:34:03Z</time>
      </trkpt>
      <trkpt lat="49.10722" lon="1.84855">
        <ele>138.4</ele>
        <time>2022-07-31T11:34:09Z</time>
      </trkpt>
      <trkpt lat="49.10715" lon="1.84849">
        <ele>138.3</ele>
        <time>2022-07-31T11:34:15Z</time>
      </trkpt>
      <trkpt lat="49.10711" lon="1.84846">
        <ele>138.3</ele>
        <time>2022-07-31T11:34:20Z</time>
      </trkpt>
      <trkpt lat="49.10711" lon="1.84846">
        <ele>138.4</ele>
        <time>2022-07-31T11:34:25Z</time>
      </trkpt>
      <trkpt lat="49.10707" lon="1.84842">
        <ele>138.4</ele>
        <time>2022-07-31T11:34:31Z</time>
      </trkpt>
      <trkpt lat="49.10702" lon="1.84838">
        <ele>138.2</ele>
        <time>2022-07-31T11:34:36Z</time>
      </trkpt>
      <trkpt lat="49.10695" lon="1.84836">
        <ele>138.2</ele>
        <time>2022-07-31T11:34:42Z</time>
      </trkpt>
      <trkpt lat="49.10688" lon="1.84832">
        <ele>138.6</ele>
        <time>2022-07-31T11:34:47Z</time>
      </trkpt>
      <trkpt lat="49.10682" lon="1.84824">
        <ele>139.2</ele>
        <time>2022-07-31T11:34:53Z</time>
      </trkpt>
      <trkpt lat="49.10675" lon="1.8482">
        <ele>139.6</ele>
        <time>2022-07-31T11:34:59Z</time>
      </trkpt>
      <trkpt lat="49.1067" lon="1.84815">
        <ele>139.9</ele>
        <time>2022-07-31T11:35:04Z</time>
      </trkpt>
      <trkpt lat="49.10665" lon="1.84809">
        <ele>140.2</ele>
        <time>2022-07-31T11:35:10Z</time>
      </trkpt>
      <trkpt lat="49.10658" lon="1.84804">
        <ele>140.4</ele>
        <time>2022-07-31T11:35:15Z</time>
      </trkpt>
      <trkpt lat="49.10652" lon="1.84797">
        <ele>140.7</ele>
        <time>2022-07-31T11:35:21Z</time>
      </trkpt>
      <trkpt lat="49.10646" lon="1.8479">
        <ele>141</ele>
        <time>2022-07-31T11:35:26Z</time>
      </trkpt>
      <trkpt lat="49.10639" lon="1.84785">
        <ele>141.4</ele>
        <time>2022-07-31T11:35:32Z</time>
      </trkpt>
      <trkpt lat="49.10632" lon="1.84784">
        <ele>141.5</ele>
        <time>2022-07-31T11:35:37Z</time>
      </trkpt>
      <trkpt lat="49.10622" lon="1.84786">
        <ele>141.4</ele>
        <time>2022-07-31T11:35:43Z</time>
      </trkpt>
      <trkpt lat="49.10615" lon="1.84789">
        <ele>141.3</ele>
        <time>2022-07-31T11:35:48Z</time>
      </trkpt>
      <trkpt lat="49.10607" lon="1.84792">
        <ele>141.1</ele>
        <time>2022-07-31T11:35:54Z</time>
      </trkpt>
      <trkpt lat="49.10601" lon="1.84795">
        <ele>140.8</ele>
        <time>2022-07-31T11:35:59Z</time>
      </trkpt>
      <trkpt lat="49.10594" lon="1.84797">
        <ele>140.5</ele>
        <time>2022-07-31T11:36:05Z</time>
      </trkpt>
      <trkpt lat="49.10586" lon="1.84801">
        <ele>140.7</ele>
        <time>2022-07-31T11:36:11Z</time>
      </trkpt>
      <trkpt lat="49.10578" lon="1.84804">
        <ele>141.2</ele>
        <time>2022-07-31T11:36:17Z</time>
      </trkpt>
      <trkpt lat="49.1057" lon="1.84806">
        <ele>141.7</ele>
        <time>2022-07-31T11:36:23Z</time>
      </trkpt>
      <trkpt lat="49.10562" lon="1.84806">
        <ele>142</ele>
        <time>2022-07-31T11:36:29Z</time>
      </trkpt>
      <trkpt lat="49.10553" lon="1.84809">
        <ele>142.2</ele>
        <time>2022-07-31T11:36:35Z</time>
      </trkpt>
      <trkpt lat="49.10545" lon="1.84814">
        <ele>142.3</ele>
        <time>2022-07-31T11:36:41Z</time>
      </trkpt>
      <trkpt lat="49.10536" lon="1.84817">
        <ele>142.7</ele>
        <time>2022-07-31T11:36:47Z</time>
      </trkpt>
      <trkpt lat="49.10529" lon="1.8482">
        <ele>143.1</ele>
        <time>2022-07-31T11:36:53Z</time>
      </trkpt>
      <trkpt lat="49.1052" lon="1.84822">
        <ele>143.6</ele>
        <time>2022-07-31T11:36:58Z</time>
      </trkpt>
      <trkpt lat="49.10515" lon="1.84826">
        <ele>144.1</ele>
        <time>2022-07-31T11:37:03Z</time>
      </trkpt>
      <trkpt lat="49.10509" lon="1.84829">
        <ele>144.7</ele>
        <time>2022-07-31T11:37:08Z</time>
      </trkpt>
      <trkpt lat="49.105" lon="1.84833">
        <ele>145.5</ele>
        <time>2022-07-31T11:37:14Z</time>
      </trkpt>
      <trkpt lat="49.10494" lon="1.84837">
        <ele>146.2</ele>
        <time>2022-07-31T11:37:19Z</time>
      </trkpt>
      <trkpt lat="49.10487" lon="1.8484">
        <ele>146.8</ele>
        <time>2022-07-31T11:37:24Z</time>
      </trkpt>
      <trkpt lat="49.1048" lon="1.84847">
        <ele>147.4</ele>
        <time>2022-07-31T11:37:30Z</time>
      </trkpt>
      <trkpt lat="49.10475" lon="1.84851">
        <ele>148</ele>
        <time>2022-07-31T11:37:35Z</time>
      </trkpt>
      <trkpt lat="49.10468" lon="1.84857">
        <ele>148.7</ele>
        <time>2022-07-31T11:37:40Z</time>
      </trkpt>
      <trkpt lat="49.10462" lon="1.84861">
        <ele>149.5</ele>
        <time>2022-07-31T11:37:45Z</time>
      </trkpt>
      <trkpt lat="49.10459" lon="1.84868">
        <ele>150.5</ele>
        <time>2022-07-31T11:37:51Z</time>
      </trkpt>
      <trkpt lat="49.10452" lon="1.84875">
        <ele>151.4</ele>
        <time>2022-07-31T11:37:57Z</time>
      </trkpt>
      <trkpt lat="49.10444" lon="1.84884">
        <ele>152.1</ele>
        <time>2022-07-31T11:38:03Z</time>
      </trkpt>
      <trkpt lat="49.10435" lon="1.84897">
        <ele>152.4</ele>
        <time>2022-07-31T11:38:09Z</time>
      </trkpt>
      <trkpt lat="49.10431" lon="1.84906">
        <ele>152.5</ele>
        <time>2022-07-31T11:38:14Z</time>
      </trkpt>
      <trkpt lat="49.10428" lon="1.84912">
        <ele>152.6</ele>
        <time>2022-07-31T11:38:20Z</time>
      </trkpt>
      <trkpt lat="49.10422" lon="1.84917">
        <ele>152.3</ele>
        <time>2022-07-31T11:38:26Z</time>
      </trkpt>
      <trkpt lat="49.10414" lon="1.84924">
        <ele>151.5</ele>
        <time>2022-07-31T11:38:32Z</time>
      </trkpt>
      <trkpt lat="49.10406" lon="1.84932">
        <ele>150.8</ele>
        <time>2022-07-31T11:38:38Z</time>
      </trkpt>
      <trkpt lat="49.10396" lon="1.84938">
        <ele>150.1</ele>
        <time>2022-07-31T11:38:44Z</time>
      </trkpt>
      <trkpt lat="49.10391" lon="1.84945">
        <ele>149.5</ele>
        <time>2022-07-31T11:38:49Z</time>
      </trkpt>
      <trkpt lat="49.10385" lon="1.84949">
        <ele>149</ele>
        <time>2022-07-31T11:38:54Z</time>
      </trkpt>
      <trkpt lat="49.10378" lon="1.84956">
        <ele>148.8</ele>
        <time>2022-07-31T11:39:00Z</time>
      </trkpt>
      <trkpt lat="49.10372" lon="1.84963">
        <ele>149</ele>
        <time>2022-07-31T11:39:05Z</time>
      </trkpt>
      <trkpt lat="49.10363" lon="1.84971">
        <ele>149.7</ele>
        <time>2022-07-31T11:39:11Z</time>
      </trkpt>
      <trkpt lat="49.10359" lon="1.84977">
        <ele>150.4</ele>
        <time>2022-07-31T11:39:16Z</time>
      </trkpt>
      <trkpt lat="49.10353" lon="1.84982">
        <ele>151</ele>
        <time>2022-07-31T11:39:21Z</time>
      </trkpt>
      <trkpt lat="49.10346" lon="1.8499">
        <ele>151.5</ele>
        <time>2022-07-31T11:39:27Z</time>
      </trkpt>
      <trkpt lat="49.10339" lon="1.84994">
        <ele>152</ele>
        <time>2022-07-31T11:39:33Z</time>
      </trkpt>
      <trkpt lat="49.10333" lon="1.85">
        <ele>152.4</ele>
        <time>2022-07-31T11:39:38Z</time>
      </trkpt>
      <trkpt lat="49.1033" lon="1.85008">
        <ele>152.5</ele>
        <time>2022-07-31T11:39:43Z</time>
      </trkpt>
      <trkpt lat="49.10323" lon="1.85014">
        <ele>152.1</ele>
        <time>2022-07-31T11:39:49Z</time>
      </trkpt>
      <trkpt lat="49.10316" lon="1.85022">
        <ele>151.5</ele>
        <time>2022-07-31T11:39:54Z</time>
      </trkpt>
      <trkpt lat="49.10313" lon="1.85028">
        <ele>151.2</ele>
        <time>2022-07-31T11:39:59Z</time>
      </trkpt>
      <trkpt lat="49.10304" lon="1.85035">
        <ele>151</ele>
        <time>2022-07-31T11:40:05Z</time>
      </trkpt>
      <trkpt lat="49.10296" lon="1.85046">
        <ele>151</ele>
        <time>2022-07-31T11:40:11Z</time>
      </trkpt>
      <trkpt lat="49.10289" lon="1.85051">
        <ele>150.8</ele>
        <time>2022-07-31T11:40:16Z</time>
      </trkpt>
      <trkpt lat="49.10284" lon="1.85057">
        <ele>150.6</ele>
        <time>2022-07-31T11:40:21Z</time>
      </trkpt>
      <trkpt lat="49.10278" lon="1.85064">
        <ele>150.2</ele>
        <time>2022-07-31T11:40:27Z</time>
      </trkpt>
      <trkpt lat="49.10272" lon="1.8507">
        <ele>149.7</ele>
        <time>2022-07-31T11:40:32Z</time>
      </trkpt>
      <trkpt lat="49.10266" lon="1.85075">
        <ele>148.9</ele>
        <time>2022-07-31T11:40:38Z</time>
      </trkpt>
      <trkpt lat="49.1026" lon="1.85082">
        <ele>148.1</ele>
        <time>2022-07-31T11:40:43Z</time>
      </trkpt>
      <trkpt lat="49.10251" lon="1.8509">
        <ele>147.5</ele>
        <time>2022-07-31T11:40:49Z</time>
      </trkpt>
      <trkpt lat="49.10246" lon="1.85097">
        <ele>147.1</ele>
        <time>2022-07-31T11:40:54Z</time>
      </trkpt>
      <trkpt lat="49.10239" lon="1.85109">
        <ele>147.3</ele>
        <time>2022-07-31T11:41:00Z</time>
      </trkpt>
      <trkpt lat="49.10231" lon="1.85114">
        <ele>147.8</ele>
        <time>2022-07-31T11:41:06Z</time>
      </trkpt>
      <trkpt lat="49.10224" lon="1.8512">
        <ele>148.1</ele>
        <time>2022-07-31T11:41:12Z</time>
      </trkpt>
      <trkpt lat="49.10217" lon="1.85127">
        <ele>148.3</ele>
        <time>2022-07-31T11:41:17Z</time>
      </trkpt>
      <trkpt lat="49.1021" lon="1.85135">
        <ele>148.4</ele>
        <time>2022-07-31T11:41:23Z</time>
      </trkpt>
      <trkpt lat="49.10204" lon="1.85142">
        <ele>148.7</ele>
        <time>2022-07-31T11:41:29Z</time>
      </trkpt>
      <trkpt lat="49.10199" lon="1.85146">
        <ele>148.8</ele>
        <time>2022-07-31T11:41:34Z</time>
      </trkpt>
      <trkpt lat="49.10192" lon="1.85155">
        <ele>148.8</ele>
        <time>2022-07-31T11:41:40Z</time>
      </trkpt>
      <trkpt lat="49.10184" lon="1.8516">
        <ele>148.6</ele>
        <time>2022-07-31T11:41:46Z</time>
      </trkpt>
      <trkpt lat="49.10177" lon="1.85165">
        <ele>148.4</ele>
        <time>2022-07-31T11:41:51Z</time>
      </trkpt>
      <trkpt lat="49.1017" lon="1.85174">
        <ele>148.2</ele>
        <time>2022-07-31T11:41:57Z</time>
      </trkpt>
      <trkpt lat="49.10166" lon="1.85178">
        <ele>148.1</ele>
        <time>2022-07-31T11:42:03Z</time>
      </trkpt>
      <trkpt lat="49.10158" lon="1.8519">
        <ele>148.2</ele>
        <time>2022-07-31T11:42:09Z</time>
      </trkpt>
      <trkpt lat="49.1015" lon="1.852">
        <ele>148.4</ele>
        <time>2022-07-31T11:42:15Z</time>
      </trkpt>
      <trkpt lat="49.10142" lon="1.85207">
        <ele>148.9</ele>
        <time>2022-07-31T11:42:21Z</time>
      </trkpt>
      <trkpt lat="49.10137" lon="1.85215">
        <ele>149.3</ele>
        <time>2022-07-31T11:42:26Z</time>
      </trkpt>
      <trkpt lat="49.10131" lon="1.85226">
        <ele>149.5</ele>
        <time>2022-07-31T11:42:32Z</time>
      </trkpt>
      <trkpt lat="49.10127" lon="1.85235">
        <ele>149.3</ele>
        <time>2022-07-31T11:42:38Z</time>
      </trkpt>
      <trkpt lat="49.10121" lon="1.85242">
        <ele>149.3</ele>
        <time>2022-07-31T11:42:43Z</time>
      </trkpt>
      <trkpt lat="49.10117" lon="1.85252">
        <ele>149.5</ele>
        <time>2022-07-31T11:42:49Z</time>
      </trkpt>
      <trkpt lat="49.10112" lon="1.8526">
        <ele>149.9</ele>
        <time>2022-07-31T11:42:55Z</time>
      </trkpt>
      <trkpt lat="49.1011" lon="1.85269">
        <ele>150.4</ele>
        <time>2022-07-31T11:43:00Z</time>
      </trkpt>
      <trkpt lat="49.10105" lon="1.85281">
        <ele>150.9</ele>
        <time>2022-07-31T11:43:06Z</time>
      </trkpt>
      <trkpt lat="49.10099" lon="1.85288">
        <ele>151.4</ele>
        <time>2022-07-31T11:43:11Z</time>
      </trkpt>
      <trkpt lat="49.10091" lon="1.85297">
        <ele>151.9</ele>
        <time>2022-07-31T11:43:17Z</time>
      </trkpt>
      <trkpt lat="49.10092" lon="1.85314">
        <ele>151.9</ele>
        <time>2022-07-31T11:43:23Z</time>
      </trkpt>
      <trkpt lat="49.1009" lon="1.85324">
        <ele>151.8</ele>
        <time>2022-07-31T11:43:29Z</time>
      </trkpt>
      <trkpt lat="49.10085" lon="1.85332">
        <ele>151.8</ele>
        <time>2022-07-31T11:43:35Z</time>
      </trkpt>
      <trkpt lat="49.10079" lon="1.85342">
        <ele>152.1</ele>
        <time>2022-07-31T11:43:40Z</time>
      </trkpt>
      <trkpt lat="49.10076" lon="1.85352">
        <ele>152.2</ele>
        <time>2022-07-31T11:43:45Z</time>
      </trkpt>
      <trkpt lat="49.10075" lon="1.8536">
        <ele>152.2</ele>
        <time>2022-07-31T11:43:50Z</time>
      </trkpt>
      <trkpt lat="49.10072" lon="1.85367">
        <ele>152.1</ele>
        <time>2022-07-31T11:43:56Z</time>
      </trkpt>
      <trkpt lat="49.10069" lon="1.85383">
        <ele>152.3</ele>
        <time>2022-07-31T11:44:02Z</time>
      </trkpt>
      <trkpt lat="49.10062" lon="1.85394">
        <ele>152.6</ele>
        <time>2022-07-31T11:44:07Z</time>
      </trkpt>
      <trkpt lat="49.10058" lon="1.85407">
        <ele>152.9</ele>
        <time>2022-07-31T11:44:13Z</time>
      </trkpt>
      <trkpt lat="49.10055" lon="1.85419">
        <ele>153.3</ele>
        <time>2022-07-31T11:44:19Z</time>
      </trkpt>
      <trkpt lat="49.10051" lon="1.85428">
        <ele>153.4</ele>
        <time>2022-07-31T11:44:25Z</time>
      </trkpt>
      <trkpt lat="49.10048" lon="1.85439">
        <ele>153.7</ele>
        <time>2022-07-31T11:44:31Z</time>
      </trkpt>
      <trkpt lat="49.10045" lon="1.8545">
        <ele>154.2</ele>
        <time>2022-07-31T11:44:37Z</time>
      </trkpt>
      <trkpt lat="49.10044" lon="1.85459">
        <ele>154.5</ele>
        <time>2022-07-31T11:44:42Z</time>
      </trkpt>
      <trkpt lat="49.10041" lon="1.85472">
        <ele>154.8</ele>
        <time>2022-07-31T11:44:47Z</time>
      </trkpt>
      <trkpt lat="49.10038" lon="1.85486">
        <ele>155.1</ele>
        <time>2022-07-31T11:44:53Z</time>
      </trkpt>
      <trkpt lat="49.10035" lon="1.85495">
        <ele>155.2</ele>
        <time>2022-07-31T11:44:58Z</time>
      </trkpt>
      <trkpt lat="49.10031" lon="1.85505">
        <ele>155.3</ele>
        <time>2022-07-31T11:45:04Z</time>
      </trkpt>
      <trkpt lat="49.10028" lon="1.85515">
        <ele>155</ele>
        <time>2022-07-31T11:45:10Z</time>
      </trkpt>
      <trkpt lat="49.10026" lon="1.85525">
        <ele>154.6</ele>
        <time>2022-07-31T11:45:16Z</time>
      </trkpt>
      <trkpt lat="49.10026" lon="1.85542">
        <ele>154.3</ele>
        <time>2022-07-31T11:45:22Z</time>
      </trkpt>
      <trkpt lat="49.10025" lon="1.85554">
        <ele>154.2</ele>
        <time>2022-07-31T11:45:27Z</time>
      </trkpt>
      <trkpt lat="49.10022" lon="1.85565">
        <ele>154.3</ele>
        <time>2022-07-31T11:45:32Z</time>
      </trkpt>
      <trkpt lat="49.10019" lon="1.85578">
        <ele>154.6</ele>
        <time>2022-07-31T11:45:38Z</time>
      </trkpt>
      <trkpt lat="49.10019" lon="1.85591">
        <ele>154.8</ele>
        <time>2022-07-31T11:45:45Z</time>
      </trkpt>
      <trkpt lat="49.10018" lon="1.85605">
        <ele>154.8</ele>
        <time>2022-07-31T11:45:50Z</time>
      </trkpt>
      <trkpt lat="49.10015" lon="1.85616">
        <ele>154.8</ele>
        <time>2022-07-31T11:45:56Z</time>
      </trkpt>
      <trkpt lat="49.10011" lon="1.85623">
        <ele>155</ele>
        <time>2022-07-31T11:46:02Z</time>
      </trkpt>
      <trkpt lat="49.10007" lon="1.85631">
        <ele>155.2</ele>
        <time>2022-07-31T11:46:07Z</time>
      </trkpt>
      <trkpt lat="49.09999" lon="1.85639">
        <ele>155.4</ele>
        <time>2022-07-31T11:46:12Z</time>
      </trkpt>
      <trkpt lat="49.09995" lon="1.85648">
        <ele>155.8</ele>
        <time>2022-07-31T11:46:17Z</time>
      </trkpt>
      <trkpt lat="49.09987" lon="1.85656">
        <ele>156.2</ele>
        <time>2022-07-31T11:46:23Z</time>
      </trkpt>
      <trkpt lat="49.09981" lon="1.85661">
        <ele>156.4</ele>
        <time>2022-07-31T11:46:29Z</time>
      </trkpt>
      <trkpt lat="49.09976" lon="1.85668">
        <ele>156.2</ele>
        <time>2022-07-31T11:46:34Z</time>
      </trkpt>
      <trkpt lat="49.09968" lon="1.85675">
        <ele>155.8</ele>
        <time>2022-07-31T11:46:40Z</time>
      </trkpt>
      <trkpt lat="49.0996" lon="1.85683">
        <ele>155.6</ele>
        <time>2022-07-31T11:46:46Z</time>
      </trkpt>
      <trkpt lat="49.09952" lon="1.85693">
        <ele>155.5</ele>
        <time>2022-07-31T11:46:51Z</time>
      </trkpt>
      <trkpt lat="49.09944" lon="1.857">
        <ele>155.6</ele>
        <time>2022-07-31T11:46:57Z</time>
      </trkpt>
      <trkpt lat="49.09938" lon="1.85707">
        <ele>155.6</ele>
        <time>2022-07-31T11:47:03Z</time>
      </trkpt>
      <trkpt lat="49.0993" lon="1.8571">
        <ele>155.9</ele>
        <time>2022-07-31T11:47:09Z</time>
      </trkpt>
      <trkpt lat="49.0992" lon="1.85716">
        <ele>156.9</ele>
        <time>2022-07-31T11:47:14Z</time>
      </trkpt>
      <trkpt lat="49.09921" lon="1.85731">
        <ele>157.6</ele>
        <time>2022-07-31T11:47:20Z</time>
      </trkpt>
      <trkpt lat="49.09929" lon="1.85744">
        <ele>157.1</ele>
        <time>2022-07-31T11:47:26Z</time>
      </trkpt>
      <trkpt lat="49.09936" lon="1.85754">
        <ele>156.4</ele>
        <time>2022-07-31T11:47:32Z</time>
      </trkpt>
      <trkpt lat="49.09941" lon="1.85763">
        <ele>155.5</ele>
        <time>2022-07-31T11:47:38Z</time>
      </trkpt>
      <trkpt lat="49.09947" lon="1.85772">
        <ele>155</ele>
        <time>2022-07-31T11:47:43Z</time>
      </trkpt>
      <trkpt lat="49.09948" lon="1.85785">
        <ele>154.7</ele>
        <time>2022-07-31T11:47:49Z</time>
      </trkpt>
      <trkpt lat="49.09949" lon="1.85796">
        <ele>154.5</ele>
        <time>2022-07-31T11:47:54Z</time>
      </trkpt>
      <trkpt lat="49.0995" lon="1.85806">
        <ele>153.9</ele>
        <time>2022-07-31T11:48:00Z</time>
      </trkpt>
      <trkpt lat="49.09949" lon="1.85817">
        <ele>153.2</ele>
        <time>2022-07-31T11:48:05Z</time>
      </trkpt>
      <trkpt lat="49.09949" lon="1.85826">
        <ele>152.7</ele>
        <time>2022-07-31T11:48:10Z</time>
      </trkpt>
      <trkpt lat="49.09947" lon="1.85836">
        <ele>152.2</ele>
        <time>2022-07-31T11:48:16Z</time>
      </trkpt>
      <trkpt lat="49.09944" lon="1.85848">
        <ele>151.7</ele>
        <time>2022-07-31T11:48:22Z</time>
      </trkpt>
      <trkpt lat="49.09943" lon="1.85859">
        <ele>151.5</ele>
        <time>2022-07-31T11:48:27Z</time>
      </trkpt>
      <trkpt lat="49.09945" lon="1.85872">
        <ele>150.9</ele>
        <time>2022-07-31T11:48:33Z</time>
      </trkpt>
      <trkpt lat="49.09945" lon="1.85885">
        <ele>150.1</ele>
        <time>2022-07-31T11:48:38Z</time>
      </trkpt>
      <trkpt lat="49.09943" lon="1.85898">
        <ele>149.4</ele>
        <time>2022-07-31T11:48:44Z</time>
      </trkpt>
      <trkpt lat="49.09941" lon="1.85908">
        <ele>148.9</ele>
        <time>2022-07-31T11:48:49Z</time>
      </trkpt>
      <trkpt lat="49.09937" lon="1.85921">
        <ele>148.8</ele>
        <time>2022-07-31T11:48:55Z</time>
      </trkpt>
      <trkpt lat="49.09931" lon="1.85922">
        <ele>148.3</ele>
        <time>2022-07-31T11:49:01Z</time>
      </trkpt>
      <trkpt lat="49.09929" lon="1.85917">
        <ele>147.6</ele>
        <time>2022-07-31T11:49:06Z</time>
      </trkpt>
      <trkpt lat="49.09926" lon="1.85911">
        <ele>146.9</ele>
        <time>2022-07-31T11:49:11Z</time>
      </trkpt>
      <trkpt lat="49.09922" lon="1.85904">
        <ele>145.9</ele>
        <time>2022-07-31T11:49:17Z</time>
      </trkpt>
      <trkpt lat="49.09912" lon="1.85898">
        <ele>145.3</ele>
        <time>2022-07-31T11:49:22Z</time>
      </trkpt>
      <trkpt lat="49.09905" lon="1.85888">
        <ele>145.4</ele>
        <time>2022-07-31T11:49:28Z</time>
      </trkpt>
      <trkpt lat="49.09897" lon="1.8588">
        <ele>145.9</ele>
        <time>2022-07-31T11:49:34Z</time>
      </trkpt>
      <trkpt lat="49.0989" lon="1.85877">
        <ele>146.4</ele>
        <time>2022-07-31T11:49:39Z</time>
      </trkpt>
      <trkpt lat="49.09884" lon="1.85878">
        <ele>146.5</ele>
        <time>2022-07-31T11:49:45Z</time>
      </trkpt>
      <trkpt lat="49.0988" lon="1.85889">
        <ele>146.2</ele>
        <time>2022-07-31T11:49:51Z</time>
      </trkpt>
      <trkpt lat="49.09875" lon="1.85899">
        <ele>145.5</ele>
        <time>2022-07-31T11:49:57Z</time>
      </trkpt>
      <trkpt lat="49.09869" lon="1.85904">
        <ele>145.3</ele>
        <time>2022-07-31T11:50:03Z</time>
      </trkpt>
      <trkpt lat="49.0987" lon="1.85905">
        <ele>145.2</ele>
        <time>2022-07-31T11:50:09Z</time>
      </trkpt>
      <trkpt lat="49.09876" lon="1.85896">
        <ele>145.2</ele>
        <time>2022-07-31T11:50:15Z</time>
      </trkpt>
      <trkpt lat="49.09882" lon="1.85885">
        <ele>145</ele>
        <time>2022-07-31T11:50:21Z</time>
      </trkpt>
      <trkpt lat="49.09888" lon="1.85879">
        <ele>144.7</ele>
        <time>2022-07-31T11:50:27Z</time>
      </trkpt>
      <trkpt lat="49.0989" lon="1.85866">
        <ele>144.6</ele>
        <time>2022-07-31T11:50:33Z</time>
      </trkpt>
      <trkpt lat="49.09886" lon="1.85857">
        <ele>144.2</ele>
        <time>2022-07-31T11:50:38Z</time>
      </trkpt>
      <trkpt lat="49.09879" lon="1.85851">
        <ele>143.7</ele>
        <time>2022-07-31T11:50:44Z</time>
      </trkpt>
      <trkpt lat="49.09873" lon="1.85846">
        <ele>143.7</ele>
        <time>2022-07-31T11:50:49Z</time>
      </trkpt>
      <trkpt lat="49.0987" lon="1.8584">
        <ele>144.2</ele>
        <time>2022-07-31T11:50:55Z</time>
      </trkpt>
      <trkpt lat="49.09859" lon="1.85835">
        <ele>145.1</ele>
        <time>2022-07-31T11:51:01Z</time>
      </trkpt>
      <trkpt lat="49.09852" lon="1.85829">
        <ele>146</ele>
        <time>2022-07-31T11:51:06Z</time>
      </trkpt>
      <trkpt lat="49.09845" lon="1.85824">
        <ele>147</ele>
        <time>2022-07-31T11:51:12Z</time>
      </trkpt>
      <trkpt lat="49.0984" lon="1.85821">
        <ele>147.8</ele>
        <time>2022-07-31T11:51:17Z</time>
      </trkpt>
      <trkpt lat="49.09835" lon="1.85814">
        <ele>148.6</ele>
        <time>2022-07-31T11:51:23Z</time>
      </trkpt>
      <trkpt lat="49.09831" lon="1.85807">
        <ele>149</ele>
        <time>2022-07-31T11:51:28Z</time>
      </trkpt>
      <trkpt lat="49.09823" lon="1.858">
        <ele>149.5</ele>
        <time>2022-07-31T11:51:34Z</time>
      </trkpt>
      <trkpt lat="49.09818" lon="1.85796">
        <ele>150</ele>
        <time>2022-07-31T11:51:39Z</time>
      </trkpt>
      <trkpt lat="49.09812" lon="1.85795">
        <ele>150.3</ele>
        <time>2022-07-31T11:51:45Z</time>
      </trkpt>
      <trkpt lat="49.09805" lon="1.85792">
        <ele>150.3</ele>
        <time>2022-07-31T11:51:51Z</time>
      </trkpt>
      <trkpt lat="49.098" lon="1.85789">
        <ele>149.8</ele>
        <time>2022-07-31T11:51:57Z</time>
      </trkpt>
      <trkpt lat="49.09791" lon="1.85789">
        <ele>149.6</ele>
        <time>2022-07-31T11:52:03Z</time>
      </trkpt>
      <trkpt lat="49.09786" lon="1.85791">
        <ele>149.7</ele>
        <time>2022-07-31T11:52:09Z</time>
      </trkpt>
      <trkpt lat="49.0978" lon="1.85792">
        <ele>150</ele>
        <time>2022-07-31T11:52:14Z</time>
      </trkpt>
      <trkpt lat="49.09773" lon="1.85792">
        <ele>150.3</ele>
        <time>2022-07-31T11:52:20Z</time>
      </trkpt>
      <trkpt lat="49.09766" lon="1.8579">
        <ele>150.3</ele>
        <time>2022-07-31T11:52:26Z</time>
      </trkpt>
      <trkpt lat="49.09757" lon="1.8579">
        <ele>150.5</ele>
        <time>2022-07-31T11:52:31Z</time>
      </trkpt>
      <trkpt lat="49.0975" lon="1.8579">
        <ele>151.2</ele>
        <time>2022-07-31T11:52:37Z</time>
      </trkpt>
      <trkpt lat="49.0974" lon="1.8579">
        <ele>151.9</ele>
        <time>2022-07-31T11:52:42Z</time>
      </trkpt>
      <trkpt lat="49.09733" lon="1.85792">
        <ele>153</ele>
        <time>2022-07-31T11:52:47Z</time>
      </trkpt>
      <trkpt lat="49.09727" lon="1.85794">
        <ele>154</ele>
        <time>2022-07-31T11:52:52Z</time>
      </trkpt>
      <trkpt lat="49.0972" lon="1.85793">
        <ele>155.1</ele>
        <time>2022-07-31T11:52:58Z</time>
      </trkpt>
      <trkpt lat="49.09714" lon="1.85791">
        <ele>156.2</ele>
        <time>2022-07-31T11:53:03Z</time>
      </trkpt>
      <trkpt lat="49.09706" lon="1.85788">
        <ele>157.6</ele>
        <time>2022-07-31T11:53:09Z</time>
      </trkpt>
      <trkpt lat="49.09701" lon="1.85786">
        <ele>159</ele>
        <time>2022-07-31T11:53:15Z</time>
      </trkpt>
      <trkpt lat="49.09694" lon="1.85786">
        <ele>160</ele>
        <time>2022-07-31T11:53:21Z</time>
      </trkpt>
      <trkpt lat="49.09689" lon="1.8578">
        <ele>161</ele>
        <time>2022-07-31T11:53:27Z</time>
      </trkpt>
      <trkpt lat="49.09688" lon="1.85771">
        <ele>161.4</ele>
        <time>2022-07-31T11:53:32Z</time>
      </trkpt>
      <trkpt lat="49.09685" lon="1.85761">
        <ele>162.1</ele>
        <time>2022-07-31T11:53:38Z</time>
      </trkpt>
      <trkpt lat="49.09682" lon="1.85752">
        <ele>162.8</ele>
        <time>2022-07-31T11:53:43Z</time>
      </trkpt>
      <trkpt lat="49.09677" lon="1.85743">
        <ele>163.6</ele>
        <time>2022-07-31T11:53:49Z</time>
      </trkpt>
      <trkpt lat="49.09674" lon="1.85735">
        <ele>164.2</ele>
        <time>2022-07-31T11:53:54Z</time>
      </trkpt>
      <trkpt lat="49.09666" lon="1.85729">
        <ele>164.8</ele>
        <time>2022-07-31T11:54:00Z</time>
      </trkpt>
      <trkpt lat="49.09659" lon="1.85724">
        <ele>165.4</ele>
        <time>2022-07-31T11:54:05Z</time>
      </trkpt>
      <trkpt lat="49.09651" lon="1.85725">
        <ele>166</ele>
        <time>2022-07-31T11:54:10Z</time>
      </trkpt>
      <trkpt lat="49.09646" lon="1.85732">
        <ele>166.6</ele>
        <time>2022-07-31T11:54:15Z</time>
      </trkpt>
      <trkpt lat="49.09638" lon="1.85744">
        <ele>167.1</ele>
        <time>2022-07-31T11:54:21Z</time>
      </trkpt>
      <trkpt lat="49.09633" lon="1.85751">
        <ele>167.7</ele>
        <time>2022-07-31T11:54:27Z</time>
      </trkpt>
      <trkpt lat="49.09627" lon="1.85759">
        <ele>168.2</ele>
        <time>2022-07-31T11:54:32Z</time>
      </trkpt>
      <trkpt lat="49.0962" lon="1.8577">
        <ele>168.6</ele>
        <time>2022-07-31T11:54:38Z</time>
      </trkpt>
      <trkpt lat="49.09614" lon="1.85778">
        <ele>168.7</ele>
        <time>2022-07-31T11:54:44Z</time>
      </trkpt>
      <trkpt lat="49.0961" lon="1.85786">
        <ele>168.7</ele>
        <time>2022-07-31T11:54:49Z</time>
      </trkpt>
      <trkpt lat="49.09606" lon="1.85793">
        <ele>168.8</ele>
        <time>2022-07-31T11:54:55Z</time>
      </trkpt>
      <trkpt lat="49.09606" lon="1.85794">
        <ele>168.8</ele>
        <time>2022-07-31T11:55:00Z</time>
      </trkpt>
      <trkpt lat="49.09606" lon="1.85793">
        <ele>168.8</ele>
        <time>2022-07-31T11:55:05Z</time>
      </trkpt>
      <trkpt lat="49.09606" lon="1.85793">
        <ele>168.9</ele>
        <time>2022-07-31T11:55:11Z</time>
      </trkpt>
      <trkpt lat="49.09606" lon="1.85792">
        <ele>169.2</ele>
        <time>2022-07-31T11:55:17Z</time>
      </trkpt>
      <trkpt lat="49.09606" lon="1.85795">
        <ele>170.3</ele>
        <time>2022-07-31T11:55:23Z</time>
      </trkpt>
      <trkpt lat="49.09603" lon="1.85799">
        <ele>171.5</ele>
        <time>2022-07-31T11:55:29Z</time>
      </trkpt>
      <trkpt lat="49.09595" lon="1.85808">
        <ele>171.9</ele>
        <time>2022-07-31T11:55:35Z</time>
      </trkpt>
      <trkpt lat="49.0959" lon="1.85818">
        <ele>172.1</ele>
        <time>2022-07-31T11:55:41Z</time>
      </trkpt>
      <trkpt lat="49.09584" lon="1.85829">
        <ele>172.4</ele>
        <time>2022-07-31T11:55:47Z</time>
      </trkpt>
      <trkpt lat="49.09578" lon="1.85837">
        <ele>172.8</ele>
        <time>2022-07-31T11:55:53Z</time>
      </trkpt>
      <trkpt lat="49.09575" lon="1.85846">
        <ele>173.4</ele>
        <time>2022-07-31T11:55:59Z</time>
      </trkpt>
      <trkpt lat="49.0957" lon="1.85858">
        <ele>173.7</ele>
        <time>2022-07-31T11:56:04Z</time>
      </trkpt>
      <trkpt lat="49.09565" lon="1.85864">
        <ele>173.8</ele>
        <time>2022-07-31T11:56:09Z</time>
      </trkpt>
      <trkpt lat="49.09561" lon="1.85873">
        <ele>173.8</ele>
        <time>2022-07-31T11:56:14Z</time>
      </trkpt>
      <trkpt lat="49.09556" lon="1.85885">
        <ele>173.8</ele>
        <time>2022-07-31T11:56:20Z</time>
      </trkpt>
      <trkpt lat="49.09551" lon="1.85893">
        <ele>173.9</ele>
        <time>2022-07-31T11:56:25Z</time>
      </trkpt>
      <trkpt lat="49.09544" lon="1.85904">
        <ele>173.9</ele>
        <time>2022-07-31T11:56:31Z</time>
      </trkpt>
      <trkpt lat="49.09539" lon="1.85911">
        <ele>173.7</ele>
        <time>2022-07-31T11:56:36Z</time>
      </trkpt>
      <trkpt lat="49.09534" lon="1.85921">
        <ele>173.5</ele>
        <time>2022-07-31T11:56:42Z</time>
      </trkpt>
      <trkpt lat="49.0953" lon="1.85931">
        <ele>173.3</ele>
        <time>2022-07-31T11:56:47Z</time>
      </trkpt>
      <trkpt lat="49.09526" lon="1.8594">
        <ele>173.3</ele>
        <time>2022-07-31T11:56:53Z</time>
      </trkpt>
      <trkpt lat="49.09521" lon="1.85948">
        <ele>173.4</ele>
        <time>2022-07-31T11:56:59Z</time>
      </trkpt>
      <trkpt lat="49.09516" lon="1.85957">
        <ele>173.6</ele>
        <time>2022-07-31T11:57:04Z</time>
      </trkpt>
      <trkpt lat="49.09509" lon="1.85968">
        <ele>173.9</ele>
        <time>2022-07-31T11:57:10Z</time>
      </trkpt>
      <trkpt lat="49.09505" lon="1.85974">
        <ele>174.1</ele>
        <time>2022-07-31T11:57:15Z</time>
      </trkpt>
      <trkpt lat="49.09502" lon="1.85985">
        <ele>174</ele>
        <time>2022-07-31T11:57:20Z</time>
      </trkpt>
      <trkpt lat="49.09498" lon="1.85995">
        <ele>173.8</ele>
        <time>2022-07-31T11:57:26Z</time>
      </trkpt>
      <trkpt lat="49.09492" lon="1.86004">
        <ele>173.7</ele>
        <time>2022-07-31T11:57:32Z</time>
      </trkpt>
      <trkpt lat="49.09488" lon="1.86011">
        <ele>173.8</ele>
        <time>2022-07-31T11:57:37Z</time>
      </trkpt>
      <trkpt lat="49.09484" lon="1.86018">
        <ele>174.2</ele>
        <time>2022-07-31T11:57:42Z</time>
      </trkpt>
      <trkpt lat="49.09478" lon="1.86027">
        <ele>174.8</ele>
        <time>2022-07-31T11:57:48Z</time>
      </trkpt>
      <trkpt lat="49.09472" lon="1.86035">
        <ele>175.1</ele>
        <time>2022-07-31T11:57:53Z</time>
      </trkpt>
      <trkpt lat="49.09464" lon="1.86041">
        <ele>175.6</ele>
        <time>2022-07-31T11:57:59Z</time>
      </trkpt>
      <trkpt lat="49.09459" lon="1.86044">
        <ele>175.8</ele>
        <time>2022-07-31T11:58:04Z</time>
      </trkpt>
      <trkpt lat="49.09454" lon="1.86048">
        <ele>176.1</ele>
        <time>2022-07-31T11:58:10Z</time>
      </trkpt>
      <trkpt lat="49.09448" lon="1.86057">
        <ele>176.5</ele>
        <time>2022-07-31T11:58:15Z</time>
      </trkpt>
      <trkpt lat="49.09442" lon="1.86067">
        <ele>176.9</ele>
        <time>2022-07-31T11:58:21Z</time>
      </trkpt>
      <trkpt lat="49.09437" lon="1.86076">
        <ele>177.1</ele>
        <time>2022-07-31T11:58:26Z</time>
      </trkpt>
      <trkpt lat="49.09431" lon="1.8609">
        <ele>177.1</ele>
        <time>2022-07-31T11:58:32Z</time>
      </trkpt>
      <trkpt lat="49.09427" lon="1.86101">
        <ele>177</ele>
        <time>2022-07-31T11:58:38Z</time>
      </trkpt>
      <trkpt lat="49.09423" lon="1.86112">
        <ele>176.8</ele>
        <time>2022-07-31T11:58:44Z</time>
      </trkpt>
      <trkpt lat="49.0942" lon="1.86123">
        <ele>176.7</ele>
        <time>2022-07-31T11:58:50Z</time>
      </trkpt>
      <trkpt lat="49.09414" lon="1.86132">
        <ele>176.8</ele>
        <time>2022-07-31T11:58:56Z</time>
      </trkpt>
      <trkpt lat="49.09407" lon="1.86143">
        <ele>177.1</ele>
        <time>2022-07-31T11:59:02Z</time>
      </trkpt>
      <trkpt lat="49.09403" lon="1.8615">
        <ele>177.4</ele>
        <time>2022-07-31T11:59:07Z</time>
      </trkpt>
      <trkpt lat="49.09397" lon="1.8616">
        <ele>177.5</ele>
        <time>2022-07-31T11:59:13Z</time>
      </trkpt>
      <trkpt lat="49.09393" lon="1.86172">
        <ele>177.7</ele>
        <time>2022-07-31T11:59:19Z</time>
      </trkpt>
      <trkpt lat="49.09389" lon="1.86181">
        <ele>178</ele>
        <time>2022-07-31T11:59:24Z</time>
      </trkpt>
      <trkpt lat="49.09384" lon="1.8619">
        <ele>178.2</ele>
        <time>2022-07-31T11:59:30Z</time>
      </trkpt>
      <trkpt lat="49.0938" lon="1.86197">
        <ele>178.1</ele>
        <time>2022-07-31T11:59:36Z</time>
      </trkpt>
      <trkpt lat="49.09375" lon="1.86208">
        <ele>178</ele>
        <time>2022-07-31T11:59:42Z</time>
      </trkpt>
      <trkpt lat="49.0937" lon="1.86218">
        <ele>177.8</ele>
        <time>2022-07-31T11:59:47Z</time>
      </trkpt>
      <trkpt lat="49.09366" lon="1.86226">
        <ele>177.7</ele>
        <time>2022-07-31T11:59:52Z</time>
      </trkpt>
      <trkpt lat="49.0936" lon="1.86236">
        <ele>177.8</ele>
        <time>2022-07-31T11:59:58Z</time>
      </trkpt>
      <trkpt lat="49.09354" lon="1.86244">
        <ele>177.7</ele>
        <time>2022-07-31T12:00:04Z</time>
      </trkpt>
      <trkpt lat="49.0935" lon="1.8625">
        <ele>177.6</ele>
        <time>2022-07-31T12:00:09Z</time>
      </trkpt>
      <trkpt lat="49.09341" lon="1.86266">
        <ele>177.4</ele>
        <time>2022-07-31T12:00:15Z</time>
      </trkpt>
      <trkpt lat="49.09337" lon="1.86276">
        <ele>177.5</ele>
        <time>2022-07-31T12:00:20Z</time>
      </trkpt>
      <trkpt lat="49.09335" lon="1.86281">
        <ele>177.3</ele>
        <time>2022-07-31T12:00:25Z</time>
      </trkpt>
      <trkpt lat="49.09327" lon="1.86292">
        <ele>177.5</ele>
        <time>2022-07-31T12:00:31Z</time>
      </trkpt>
      <trkpt lat="49.09323" lon="1.86301">
        <ele>177.8</ele>
        <time>2022-07-31T12:00:37Z</time>
      </trkpt>
      <trkpt lat="49.09319" lon="1.86314">
        <ele>178.2</ele>
        <time>2022-07-31T12:00:43Z</time>
      </trkpt>
      <trkpt lat="49.09314" lon="1.86323">
        <ele>178.3</ele>
        <time>2022-07-31T12:00:49Z</time>
      </trkpt>
      <trkpt lat="49.09311" lon="1.86332">
        <ele>178.3</ele>
        <time>2022-07-31T12:00:55Z</time>
      </trkpt>
      <trkpt lat="49.09307" lon="1.8634">
        <ele>178.3</ele>
        <time>2022-07-31T12:01:00Z</time>
      </trkpt>
      <trkpt lat="49.09302" lon="1.86349">
        <ele>178.5</ele>
        <time>2022-07-31T12:01:06Z</time>
      </trkpt>
      <trkpt lat="49.09298" lon="1.86357">
        <ele>178.7</ele>
        <time>2022-07-31T12:01:11Z</time>
      </trkpt>
      <trkpt lat="49.09291" lon="1.86369">
        <ele>178.7</ele>
        <time>2022-07-31T12:01:17Z</time>
      </trkpt>
      <trkpt lat="49.09286" lon="1.86381">
        <ele>178.7</ele>
        <time>2022-07-31T12:01:22Z</time>
      </trkpt>
      <trkpt lat="49.09281" lon="1.8639">
        <ele>178.8</ele>
        <time>2022-07-31T12:01:28Z</time>
      </trkpt>
      <trkpt lat="49.09277" lon="1.86396">
        <ele>178.9</ele>
        <time>2022-07-31T12:01:33Z</time>
      </trkpt>
      <trkpt lat="49.09273" lon="1.86405">
        <ele>178.9</ele>
        <time>2022-07-31T12:01:39Z</time>
      </trkpt>
      <trkpt lat="49.09269" lon="1.86416">
        <ele>179.3</ele>
        <time>2022-07-31T12:01:45Z</time>
      </trkpt>
      <trkpt lat="49.09263" lon="1.86427">
        <ele>179.6</ele>
        <time>2022-07-31T12:01:50Z</time>
      </trkpt>
      <trkpt lat="49.09256" lon="1.86438">
        <ele>179.9</ele>
        <time>2022-07-31T12:01:56Z</time>
      </trkpt>
      <trkpt lat="49.09252" lon="1.86446">
        <ele>180.2</ele>
        <time>2022-07-31T12:02:02Z</time>
      </trkpt>
      <trkpt lat="49.09248" lon="1.86453">
        <ele>180.4</ele>
        <time>2022-07-31T12:02:07Z</time>
      </trkpt>
      <trkpt lat="49.09243" lon="1.86462">
        <ele>180.7</ele>
        <time>2022-07-31T12:02:13Z</time>
      </trkpt>
      <trkpt lat="49.09238" lon="1.86472">
        <ele>181</ele>
        <time>2022-07-31T12:02:19Z</time>
      </trkpt>
      <trkpt lat="49.09233" lon="1.86481">
        <ele>181.3</ele>
        <time>2022-07-31T12:02:24Z</time>
      </trkpt>
      <trkpt lat="49.09228" lon="1.86494">
        <ele>181.4</ele>
        <time>2022-07-31T12:02:30Z</time>
      </trkpt>
      <trkpt lat="49.09221" lon="1.86503">
        <ele>181.6</ele>
        <time>2022-07-31T12:02:36Z</time>
      </trkpt>
      <trkpt lat="49.09217" lon="1.86513">
        <ele>181.6</ele>
        <time>2022-07-31T12:02:42Z</time>
      </trkpt>
      <trkpt lat="49.09213" lon="1.86524">
        <ele>181.4</ele>
        <time>2022-07-31T12:02:47Z</time>
      </trkpt>
      <trkpt lat="49.09206" lon="1.86534">
        <ele>180.6</ele>
        <time>2022-07-31T12:02:53Z</time>
      </trkpt>
      <trkpt lat="49.09199" lon="1.86544">
        <ele>179.9</ele>
        <time>2022-07-31T12:02:59Z</time>
      </trkpt>
      <trkpt lat="49.09196" lon="1.86553">
        <ele>179.7</ele>
        <time>2022-07-31T12:03:04Z</time>
      </trkpt>
      <trkpt lat="49.09192" lon="1.86563">
        <ele>179.7</ele>
        <time>2022-07-31T12:03:09Z</time>
      </trkpt>
      <trkpt lat="49.09191" lon="1.86578">
        <ele>179.6</ele>
        <time>2022-07-31T12:03:15Z</time>
      </trkpt>
      <trkpt lat="49.09189" lon="1.86586">
        <ele>179.4</ele>
        <time>2022-07-31T12:03:21Z</time>
      </trkpt>
      <trkpt lat="49.09183" lon="1.86594">
        <ele>179.1</ele>
        <time>2022-07-31T12:03:26Z</time>
      </trkpt>
      <trkpt lat="49.09177" lon="1.86602">
        <ele>178.8</ele>
        <time>2022-07-31T12:03:32Z</time>
      </trkpt>
      <trkpt lat="49.09172" lon="1.86609">
        <ele>178.6</ele>
        <time>2022-07-31T12:03:38Z</time>
      </trkpt>
      <trkpt lat="49.09163" lon="1.86618">
        <ele>178.5</ele>
        <time>2022-07-31T12:03:44Z</time>
      </trkpt>
      <trkpt lat="49.09156" lon="1.86626">
        <ele>178.2</ele>
        <time>2022-07-31T12:03:49Z</time>
      </trkpt>
      <trkpt lat="49.09148" lon="1.86636">
        <ele>177.6</ele>
        <time>2022-07-31T12:03:55Z</time>
      </trkpt>
      <trkpt lat="49.09144" lon="1.86644">
        <ele>177.3</ele>
        <time>2022-07-31T12:04:00Z</time>
      </trkpt>
      <trkpt lat="49.09139" lon="1.86652">
        <ele>176.9</ele>
        <time>2022-07-31T12:04:06Z</time>
      </trkpt>
      <trkpt lat="49.09134" lon="1.86663">
        <ele>176.9</ele>
        <time>2022-07-31T12:04:12Z</time>
      </trkpt>
      <trkpt lat="49.09128" lon="1.86674">
        <ele>177</ele>
        <time>2022-07-31T12:04:18Z</time>
      </trkpt>
      <trkpt lat="49.09121" lon="1.86686">
        <ele>177</ele>
        <time>2022-07-31T12:04:24Z</time>
      </trkpt>
      <trkpt lat="49.09114" lon="1.86697">
        <ele>177</ele>
        <time>2022-07-31T12:04:30Z</time>
      </trkpt>
      <trkpt lat="49.09108" lon="1.86706">
        <ele>177</ele>
        <time>2022-07-31T12:04:36Z</time>
      </trkpt>
      <trkpt lat="49.09103" lon="1.86715">
        <ele>177</ele>
        <time>2022-07-31T12:04:42Z</time>
      </trkpt>
      <trkpt lat="49.09098" lon="1.86723">
        <ele>176.9</ele>
        <time>2022-07-31T12:04:47Z</time>
      </trkpt>
      <trkpt lat="49.09092" lon="1.86733">
        <ele>176.4</ele>
        <time>2022-07-31T12:04:53Z</time>
      </trkpt>
      <trkpt lat="49.09087" lon="1.86743">
        <ele>176.1</ele>
        <time>2022-07-31T12:04:59Z</time>
      </trkpt>
      <trkpt lat="49.09082" lon="1.8675">
        <ele>175.7</ele>
        <time>2022-07-31T12:05:04Z</time>
      </trkpt>
      <trkpt lat="49.09075" lon="1.8676">
        <ele>175.4</ele>
        <time>2022-07-31T12:05:10Z</time>
      </trkpt>
      <trkpt lat="49.09069" lon="1.86773">
        <ele>174.9</ele>
        <time>2022-07-31T12:05:16Z</time>
      </trkpt>
      <trkpt lat="49.09063" lon="1.86785">
        <ele>174</ele>
        <time>2022-07-31T12:05:22Z</time>
      </trkpt>
      <trkpt lat="49.09057" lon="1.86788">
        <ele>173.5</ele>
        <time>2022-07-31T12:05:27Z</time>
      </trkpt>
      <trkpt lat="49.09051" lon="1.86792">
        <ele>172.7</ele>
        <time>2022-07-31T12:05:33Z</time>
      </trkpt>
      <trkpt lat="49.09045" lon="1.86797">
        <ele>172</ele>
        <time>2022-07-31T12:05:38Z</time>
      </trkpt>
      <trkpt lat="49.09039" lon="1.86803">
        <ele>171.1</ele>
        <time>2022-07-31T12:05:44Z</time>
      </trkpt>
      <trkpt lat="49.09032" lon="1.86809">
        <ele>170.4</ele>
        <time>2022-07-31T12:05:49Z</time>
      </trkpt>
      <trkpt lat="49.09027" lon="1.86814">
        <ele>169.7</ele>
        <time>2022-07-31T12:05:55Z</time>
      </trkpt>
      <trkpt lat="49.09021" lon="1.86817">
        <ele>168.9</ele>
        <time>2022-07-31T12:06:00Z</time>
      </trkpt>
      <trkpt lat="49.0901" lon="1.86822">
        <ele>168</ele>
        <time>2022-07-31T12:06:06Z</time>
      </trkpt>
      <trkpt lat="49.09003" lon="1.86827">
        <ele>167.1</ele>
        <time>2022-07-31T12:06:12Z</time>
      </trkpt>
      <trkpt lat="49.08995" lon="1.86832">
        <ele>166.4</ele>
        <time>2022-07-31T12:06:18Z</time>
      </trkpt>
      <trkpt lat="49.08986" lon="1.86833">
        <ele>165.6</ele>
        <time>2022-07-31T12:06:24Z</time>
      </trkpt>
      <trkpt lat="49.08979" lon="1.86837">
        <ele>165</ele>
        <time>2022-07-31T12:06:30Z</time>
      </trkpt>
      <trkpt lat="49.08975" lon="1.86838">
        <ele>164.7</ele>
        <time>2022-07-31T12:06:35Z</time>
      </trkpt>
      <trkpt lat="49.08967" lon="1.86846">
        <ele>164.2</ele>
        <time>2022-07-31T12:06:41Z</time>
      </trkpt>
      <trkpt lat="49.08961" lon="1.8685">
        <ele>163.5</ele>
        <time>2022-07-31T12:06:46Z</time>
      </trkpt>
      <trkpt lat="49.08955" lon="1.86854">
        <ele>162.6</ele>
        <time>2022-07-31T12:06:52Z</time>
      </trkpt>
      <trkpt lat="49.08951" lon="1.86856">
        <ele>161.9</ele>
        <time>2022-07-31T12:06:57Z</time>
      </trkpt>
      <trkpt lat="49.08948" lon="1.86862">
        <ele>160.6</ele>
        <time>2022-07-31T12:07:03Z</time>
      </trkpt>
      <trkpt lat="49.08943" lon="1.86871">
        <ele>159.1</ele>
        <time>2022-07-31T12:07:09Z</time>
      </trkpt>
      <trkpt lat="49.08935" lon="1.86882">
        <ele>157.7</ele>
        <time>2022-07-31T12:07:14Z</time>
      </trkpt>
      <trkpt lat="49.0893" lon="1.86895">
        <ele>156.1</ele>
        <time>2022-07-31T12:07:20Z</time>
      </trkpt>
      <trkpt lat="49.08926" lon="1.86903">
        <ele>154.6</ele>
        <time>2022-07-31T12:07:25Z</time>
      </trkpt>
      <trkpt lat="49.0892" lon="1.86912">
        <ele>153.3</ele>
        <time>2022-07-31T12:07:31Z</time>
      </trkpt>
      <trkpt lat="49.08917" lon="1.86919">
        <ele>152.4</ele>
        <time>2022-07-31T12:07:36Z</time>
      </trkpt>
      <trkpt lat="49.08912" lon="1.8693">
        <ele>151.6</ele>
        <time>2022-07-31T12:07:41Z</time>
      </trkpt>
      <trkpt lat="49.08908" lon="1.86942">
        <ele>150.4</ele>
        <time>2022-07-31T12:07:47Z</time>
      </trkpt>
      <trkpt lat="49.08903" lon="1.86952">
        <ele>149.9</ele>
        <time>2022-07-31T12:07:52Z</time>
      </trkpt>
      <trkpt lat="49.089" lon="1.86962">
        <ele>149.3</ele>
        <time>2022-07-31T12:07:58Z</time>
      </trkpt>
      <trkpt lat="49.08897" lon="1.86974">
        <ele>148.4</ele>
        <time>2022-07-31T12:08:04Z</time>
      </trkpt>
      <trkpt lat="49.08893" lon="1.86983">
        <ele>147.5</ele>
        <time>2022-07-31T12:08:09Z</time>
      </trkpt>
      <trkpt lat="49.08888" lon="1.86995">
        <ele>146.7</ele>
        <time>2022-07-31T12:08:15Z</time>
      </trkpt>
      <trkpt lat="49.08883" lon="1.87004">
        <ele>146.1</ele>
        <time>2022-07-31T12:08:20Z</time>
      </trkpt>
      <trkpt lat="49.08879" lon="1.87013">
        <ele>145.4</ele>
        <time>2022-07-31T12:08:26Z</time>
      </trkpt>
      <trkpt lat="49.08876" lon="1.87019">
        <ele>144.8</ele>
        <time>2022-07-31T12:08:31Z</time>
      </trkpt>
      <trkpt lat="49.08871" lon="1.87027">
        <ele>143.9</ele>
        <time>2022-07-31T12:08:37Z</time>
      </trkpt>
      <trkpt lat="49.08865" lon="1.87033">
        <ele>142.9</ele>
        <time>2022-07-31T12:08:42Z</time>
      </trkpt>
      <trkpt lat="49.08859" lon="1.87041">
        <ele>142</ele>
        <time>2022-07-31T12:08:48Z</time>
      </trkpt>
      <trkpt lat="49.08853" lon="1.87049">
        <ele>141.4</ele>
        <time>2022-07-31T12:08:53Z</time>
      </trkpt>
      <trkpt lat="49.08847" lon="1.87056">
        <ele>140.7</ele>
        <time>2022-07-31T12:08:58Z</time>
      </trkpt>
      <trkpt lat="49.08837" lon="1.87064">
        <ele>140.4</ele>
        <time>2022-07-31T12:09:04Z</time>
      </trkpt>
      <trkpt lat="49.0883" lon="1.87071">
        <ele>140</ele>
        <time>2022-07-31T12:09:10Z</time>
      </trkpt>
      <trkpt lat="49.08823" lon="1.87077">
        <ele>139.5</ele>
        <time>2022-07-31T12:09:15Z</time>
      </trkpt>
      <trkpt lat="49.08818" lon="1.87086">
        <ele>139</ele>
        <time>2022-07-31T12:09:21Z</time>
      </trkpt>
      <trkpt lat="49.08813" lon="1.87093">
        <ele>138.8</ele>
        <time>2022-07-31T12:09:27Z</time>
      </trkpt>
      <trkpt lat="49.08807" lon="1.87103">
        <ele>138.7</ele>
        <time>2022-07-31T12:09:32Z</time>
      </trkpt>
      <trkpt lat="49.08803" lon="1.87113">
        <ele>138.8</ele>
        <time>2022-07-31T12:09:38Z</time>
      </trkpt>
      <trkpt lat="49.08801" lon="1.8712">
        <ele>138.9</ele>
        <time>2022-07-31T12:09:43Z</time>
      </trkpt>
      <trkpt lat="49.08796" lon="1.8713">
        <ele>138.9</ele>
        <time>2022-07-31T12:09:48Z</time>
      </trkpt>
      <trkpt lat="49.08789" lon="1.8714">
        <ele>139</ele>
        <time>2022-07-31T12:09:54Z</time>
      </trkpt>
      <trkpt lat="49.08786" lon="1.87146">
        <ele>139.2</ele>
        <time>2022-07-31T12:09:59Z</time>
      </trkpt>
      <trkpt lat="49.08781" lon="1.87158">
        <ele>139.4</ele>
        <time>2022-07-31T12:10:05Z</time>
      </trkpt>
      <trkpt lat="49.08777" lon="1.87164">
        <ele>139.4</ele>
        <time>2022-07-31T12:10:10Z</time>
      </trkpt>
      <trkpt lat="49.08773" lon="1.87174">
        <ele>139.2</ele>
        <time>2022-07-31T12:10:16Z</time>
      </trkpt>
      <trkpt lat="49.0877" lon="1.87184">
        <ele>139</ele>
        <time>2022-07-31T12:10:21Z</time>
      </trkpt>
      <trkpt lat="49.08767" lon="1.87195">
        <ele>138.8</ele>
        <time>2022-07-31T12:10:26Z</time>
      </trkpt>
      <trkpt lat="49.0876" lon="1.87204">
        <ele>138.2</ele>
        <time>2022-07-31T12:10:32Z</time>
      </trkpt>
      <trkpt lat="49.08755" lon="1.87213">
        <ele>137.6</ele>
        <time>2022-07-31T12:10:38Z</time>
      </trkpt>
      <trkpt lat="49.08752" lon="1.87223">
        <ele>137.4</ele>
        <time>2022-07-31T12:10:43Z</time>
      </trkpt>
      <trkpt lat="49.08748" lon="1.87233">
        <ele>137.1</ele>
        <time>2022-07-31T12:10:49Z</time>
      </trkpt>
      <trkpt lat="49.08744" lon="1.87244">
        <ele>137</ele>
        <time>2022-07-31T12:10:55Z</time>
      </trkpt>
      <trkpt lat="49.0874" lon="1.87253">
        <ele>137.1</ele>
        <time>2022-07-31T12:11:00Z</time>
      </trkpt>
      <trkpt lat="49.08736" lon="1.87262">
        <ele>137.2</ele>
        <time>2022-07-31T12:11:06Z</time>
      </trkpt>
      <trkpt lat="49.08732" lon="1.87271">
        <ele>137.2</ele>
        <time>2022-07-31T12:11:11Z</time>
      </trkpt>
      <trkpt lat="49.08728" lon="1.87282">
        <ele>137.2</ele>
        <time>2022-07-31T12:11:17Z</time>
      </trkpt>
      <trkpt lat="49.08734" lon="1.87294">
        <ele>136.7</ele>
        <time>2022-07-31T12:11:23Z</time>
      </trkpt>
      <trkpt lat="49.0874" lon="1.87298">
        <ele>136.3</ele>
        <time>2022-07-31T12:11:28Z</time>
      </trkpt>
      <trkpt lat="49.08748" lon="1.87305">
        <ele>135.5</ele>
        <time>2022-07-31T12:11:34Z</time>
      </trkpt>
      <trkpt lat="49.08753" lon="1.87309">
        <ele>135</ele>
        <time>2022-07-31T12:11:39Z</time>
      </trkpt>
      <trkpt lat="49.08761" lon="1.87317">
        <ele>134.5</ele>
        <time>2022-07-31T12:11:45Z</time>
      </trkpt>
      <trkpt lat="49.08769" lon="1.87323">
        <ele>134.2</ele>
        <time>2022-07-31T12:11:51Z</time>
      </trkpt>
      <trkpt lat="49.08775" lon="1.87327">
        <ele>134.1</ele>
        <time>2022-07-31T12:11:56Z</time>
      </trkpt>
      <trkpt lat="49.08778" lon="1.87336">
        <ele>134</ele>
        <time>2022-07-31T12:12:02Z</time>
      </trkpt>
      <trkpt lat="49.08784" lon="1.87344">
        <ele>133.9</ele>
        <time>2022-07-31T12:12:07Z</time>
      </trkpt>
      <trkpt lat="49.0879" lon="1.87351">
        <ele>134.1</ele>
        <time>2022-07-31T12:12:12Z</time>
      </trkpt>
      <trkpt lat="49.08795" lon="1.87359">
        <ele>134.6</ele>
        <time>2022-07-31T12:12:18Z</time>
      </trkpt>
      <trkpt lat="49.08801" lon="1.87367">
        <ele>134.8</ele>
        <time>2022-07-31T12:12:24Z</time>
      </trkpt>
      <trkpt lat="49.08808" lon="1.87375">
        <ele>134.7</ele>
        <time>2022-07-31T12:12:30Z</time>
      </trkpt>
      <trkpt lat="49.08814" lon="1.87385">
        <ele>134.4</ele>
        <time>2022-07-31T12:12:36Z</time>
      </trkpt>
      <trkpt lat="49.08817" lon="1.87387">
        <ele>134.5</ele>
        <time>2022-07-31T12:12:42Z</time>
      </trkpt>
      <trkpt lat="49.08818" lon="1.87391">
        <ele>134.8</ele>
        <time>2022-07-31T12:12:47Z</time>
      </trkpt>
      <trkpt lat="49.08825" lon="1.874">
        <ele>134.9</ele>
        <time>2022-07-31T12:12:53Z</time>
      </trkpt>
      <trkpt lat="49.08831" lon="1.87404">
        <ele>134.6</ele>
        <time>2022-07-31T12:12:58Z</time>
      </trkpt>
      <trkpt lat="49.08839" lon="1.87407">
        <ele>134.3</ele>
        <time>2022-07-31T12:13:03Z</time>
      </trkpt>
      <trkpt lat="49.08845" lon="1.87417">
        <ele>133.9</ele>
        <time>2022-07-31T12:13:09Z</time>
      </trkpt>
      <trkpt lat="49.08851" lon="1.87422">
        <ele>133.6</ele>
        <time>2022-07-31T12:13:14Z</time>
      </trkpt>
      <trkpt lat="49.08857" lon="1.87431">
        <ele>133.4</ele>
        <time>2022-07-31T12:13:20Z</time>
      </trkpt>
      <trkpt lat="49.08864" lon="1.87437">
        <ele>133.1</ele>
        <time>2022-07-31T12:13:26Z</time>
      </trkpt>
      <trkpt lat="49.0887" lon="1.87443">
        <ele>133.1</ele>
        <time>2022-07-31T12:13:31Z</time>
      </trkpt>
      <trkpt lat="49.08876" lon="1.87452">
        <ele>132.9</ele>
        <time>2022-07-31T12:13:37Z</time>
      </trkpt>
      <trkpt lat="49.08882" lon="1.87458">
        <ele>132.6</ele>
        <time>2022-07-31T12:13:42Z</time>
      </trkpt>
      <trkpt lat="49.08888" lon="1.8747">
        <ele>132.1</ele>
        <time>2022-07-31T12:13:48Z</time>
      </trkpt>
      <trkpt lat="49.08892" lon="1.87478">
        <ele>131.7</ele>
        <time>2022-07-31T12:13:53Z</time>
      </trkpt>
      <trkpt lat="49.08898" lon="1.87487">
        <ele>131.6</ele>
        <time>2022-07-31T12:13:59Z</time>
      </trkpt>
      <trkpt lat="49.08904" lon="1.87496">
        <ele>131.5</ele>
        <time>2022-07-31T12:14:05Z</time>
      </trkpt>
      <trkpt lat="49.08909" lon="1.875">
        <ele>131.5</ele>
        <time>2022-07-31T12:14:10Z</time>
      </trkpt>
      <trkpt lat="49.08917" lon="1.8751">
        <ele>131.8</ele>
        <time>2022-07-31T12:14:16Z</time>
      </trkpt>
      <trkpt lat="49.08923" lon="1.8752">
        <ele>131.9</ele>
        <time>2022-07-31T12:14:22Z</time>
      </trkpt>
      <trkpt lat="49.08928" lon="1.8753">
        <ele>132.4</ele>
        <time>2022-07-31T12:14:28Z</time>
      </trkpt>
      <trkpt lat="49.08931" lon="1.87537">
        <ele>132.8</ele>
        <time>2022-07-31T12:14:34Z</time>
      </trkpt>
      <trkpt lat="49.08934" lon="1.87541">
        <ele>133.1</ele>
        <time>2022-07-31T12:14:39Z</time>
      </trkpt>
      <trkpt lat="49.08937" lon="1.87543">
        <ele>133.7</ele>
        <time>2022-07-31T12:14:44Z</time>
      </trkpt>
      <trkpt lat="49.08941" lon="1.87552">
        <ele>134.5</ele>
        <time>2022-07-31T12:14:50Z</time>
      </trkpt>
      <trkpt lat="49.08947" lon="1.87559">
        <ele>135.1</ele>
        <time>2022-07-31T12:14:55Z</time>
      </trkpt>
      <trkpt lat="49.08954" lon="1.87566">
        <ele>135.7</ele>
        <time>2022-07-31T12:15:01Z</time>
      </trkpt>
      <trkpt lat="49.08958" lon="1.87574">
        <ele>136</ele>
        <time>2022-07-31T12:15:06Z</time>
      </trkpt>
      <trkpt lat="49.08962" lon="1.87582">
        <ele>136.1</ele>
        <time>2022-07-31T12:15:11Z</time>
      </trkpt>
      <trkpt lat="49.08968" lon="1.87592">
        <ele>136</ele>
        <time>2022-07-31T12:15:17Z</time>
      </trkpt>
      <trkpt lat="49.08973" lon="1.87602">
        <ele>136.2</ele>
        <time>2022-07-31T12:15:23Z</time>
      </trkpt>
      <trkpt lat="49.08979" lon="1.87608">
        <ele>136.2</ele>
        <time>2022-07-31T12:15:28Z</time>
      </trkpt>
      <trkpt lat="49.08986" lon="1.87617">
        <ele>136.2</ele>
        <time>2022-07-31T12:15:34Z</time>
      </trkpt>
      <trkpt lat="49.08992" lon="1.87626">
        <ele>136.3</ele>
        <time>2022-07-31T12:15:40Z</time>
      </trkpt>
      <trkpt lat="49.08997" lon="1.87634">
        <ele>136.3</ele>
        <time>2022-07-31T12:15:45Z</time>
      </trkpt>
      <trkpt lat="49.09001" lon="1.87646">
        <ele>136.5</ele>
        <time>2022-07-31T12:15:51Z</time>
      </trkpt>
      <trkpt lat="49.09005" lon="1.87656">
        <ele>136.8</ele>
        <time>2022-07-31T12:15:56Z</time>
      </trkpt>
      <trkpt lat="49.0901" lon="1.87663">
        <ele>137</ele>
        <time>2022-07-31T12:16:01Z</time>
      </trkpt>
      <trkpt lat="49.09016" lon="1.87675">
        <ele>137.1</ele>
        <time>2022-07-31T12:16:07Z</time>
      </trkpt>
      <trkpt lat="49.0902" lon="1.87688">
        <ele>137.4</ele>
        <time>2022-07-31T12:16:13Z</time>
      </trkpt>
      <trkpt lat="49.09023" lon="1.877">
        <ele>137.7</ele>
        <time>2022-07-31T12:16:19Z</time>
      </trkpt>
      <trkpt lat="49.09028" lon="1.8771">
        <ele>137.9</ele>
        <time>2022-07-31T12:16:24Z</time>
      </trkpt>
      <trkpt lat="49.09031" lon="1.87722">
        <ele>138.2</ele>
        <time>2022-07-31T12:16:30Z</time>
      </trkpt>
      <trkpt lat="49.09034" lon="1.87733">
        <ele>138.4</ele>
        <time>2022-07-31T12:16:35Z</time>
      </trkpt>
      <trkpt lat="49.09037" lon="1.87746">
        <ele>138.7</ele>
        <time>2022-07-31T12:16:41Z</time>
      </trkpt>
      <trkpt lat="49.0904" lon="1.87757">
        <ele>138.9</ele>
        <time>2022-07-31T12:16:46Z</time>
      </trkpt>
      <trkpt lat="49.09044" lon="1.87776">
        <ele>138.8</ele>
        <time>2022-07-31T12:16:54Z</time>
      </trkpt>
      <trkpt lat="49.09047" lon="1.87787">
        <ele>138.8</ele>
        <time>2022-07-31T12:17:00Z</time>
      </trkpt>
      <trkpt lat="49.09048" lon="1.87798">
        <ele>138.4</ele>
        <time>2022-07-31T12:17:05Z</time>
      </trkpt>
      <trkpt lat="49.09048" lon="1.87808">
        <ele>137.8</ele>
        <time>2022-07-31T12:17:11Z</time>
      </trkpt>
      <trkpt lat="49.09049" lon="1.87823">
        <ele>137.2</ele>
        <time>2022-07-31T12:17:17Z</time>
      </trkpt>
      <trkpt lat="49.09051" lon="1.87836">
        <ele>137.1</ele>
        <time>2022-07-31T12:17:22Z</time>
      </trkpt>
      <trkpt lat="49.09052" lon="1.87848">
        <ele>137</ele>
        <time>2022-07-31T12:17:28Z</time>
      </trkpt>
      <trkpt lat="49.09052" lon="1.87857">
        <ele>136.9</ele>
        <time>2022-07-31T12:17:33Z</time>
      </trkpt>
      <trkpt lat="49.09061" lon="1.87863">
        <ele>136.8</ele>
        <time>2022-07-31T12:17:39Z</time>
      </trkpt>
      <trkpt lat="49.09069" lon="1.87865">
        <ele>136.6</ele>
        <time>2022-07-31T12:17:45Z</time>
      </trkpt>
      <trkpt lat="49.09077" lon="1.87867">
        <ele>136.6</ele>
        <time>2022-07-31T12:17:51Z</time>
      </trkpt>
      <trkpt lat="49.09086" lon="1.87871">
        <ele>136.8</ele>
        <time>2022-07-31T12:17:56Z</time>
      </trkpt>
      <trkpt lat="49.09092" lon="1.87874">
        <ele>137</ele>
        <time>2022-07-31T12:18:01Z</time>
      </trkpt>
      <trkpt lat="49.09099" lon="1.87878">
        <ele>137</ele>
        <time>2022-07-31T12:18:07Z</time>
      </trkpt>
      <trkpt lat="49.09105" lon="1.87882">
        <ele>136.9</ele>
        <time>2022-07-31T12:18:12Z</time>
      </trkpt>
      <trkpt lat="49.09112" lon="1.87886">
        <ele>136.6</ele>
        <time>2022-07-31T12:18:18Z</time>
      </trkpt>
      <trkpt lat="49.09117" lon="1.8789">
        <ele>136.4</ele>
        <time>2022-07-31T12:18:23Z</time>
      </trkpt>
      <trkpt lat="49.09126" lon="1.87896">
        <ele>136.3</ele>
        <time>2022-07-31T12:18:29Z</time>
      </trkpt>
      <trkpt lat="49.09132" lon="1.87902">
        <ele>136.5</ele>
        <time>2022-07-31T12:18:34Z</time>
      </trkpt>
      <trkpt lat="49.09137" lon="1.87906">
        <ele>136.8</ele>
        <time>2022-07-31T12:18:39Z</time>
      </trkpt>
      <trkpt lat="49.09143" lon="1.87913">
        <ele>137</ele>
        <time>2022-07-31T12:18:44Z</time>
      </trkpt>
      <trkpt lat="49.09149" lon="1.87921">
        <ele>137.2</ele>
        <time>2022-07-31T12:18:50Z</time>
      </trkpt>
      <trkpt lat="49.09151" lon="1.8793">
        <ele>137.2</ele>
        <time>2022-07-31T12:18:55Z</time>
      </trkpt>
      <trkpt lat="49.09148" lon="1.87937">
        <ele>137.2</ele>
        <time>2022-07-31T12:19:01Z</time>
      </trkpt>
      <trkpt lat="49.09148" lon="1.87938">
        <ele>137.3</ele>
        <time>2022-07-31T12:19:06Z</time>
      </trkpt>
      <trkpt lat="49.09148" lon="1.87937">
        <ele>137.3</ele>
        <time>2022-07-31T12:19:11Z</time>
      </trkpt>
      <trkpt lat="49.09148" lon="1.87938">
        <ele>137.3</ele>
        <time>2022-07-31T12:19:16Z</time>
      </trkpt>
      <trkpt lat="49.09148" lon="1.87938">
        <ele>137.3</ele>
        <time>2022-07-31T12:19:22Z</time>
      </trkpt>
      <trkpt lat="49.09148" lon="1.87938">
        <ele>137.3</ele>
        <time>2022-07-31T12:19:27Z</time>
      </trkpt>
      <trkpt lat="49.09148" lon="1.87938">
        <ele>137.2</ele>
        <time>2022-07-31T12:19:32Z</time>
      </trkpt>
      <trkpt lat="49.09147" lon="1.87938">
        <ele>137.2</ele>
        <time>2022-07-31T12:19:38Z</time>
      </trkpt>
      <trkpt lat="49.09147" lon="1.87937">
        <ele>137.2</ele>
        <time>2022-07-31T12:19:44Z</time>
      </trkpt>
      <trkpt lat="49.09147" lon="1.87937">
        <ele>137.1</ele>
        <time>2022-07-31T12:19:49Z</time>
      </trkpt>
      <trkpt lat="49.09147" lon="1.87937">
        <ele>137.1</ele>
        <time>2022-07-31T12:19:54Z</time>
      </trkpt>
      <trkpt lat="49.09147" lon="1.87937">
        <ele>137.1</ele>
        <time>2022-07-31T12:20:00Z</time>
      </trkpt>
      <trkpt lat="49.09146" lon="1.87937">
        <ele>136.9</ele>
        <time>2022-07-31T12:20:06Z</time>
      </trkpt>
      <trkpt lat="49.09143" lon="1.87942">
        <ele>136.9</ele>
        <time>2022-07-31T12:20:11Z</time>
      </trkpt>
      <trkpt lat="49.0914" lon="1.87956">
        <ele>137.2</ele>
        <time>2022-07-31T12:20:17Z</time>
      </trkpt>
      <trkpt lat="49.09136" lon="1.87967">
        <ele>137.5</ele>
        <time>2022-07-31T12:20:22Z</time>
      </trkpt>
      <trkpt lat="49.09132" lon="1.87977">
        <ele>137.9</ele>
        <time>2022-07-31T12:20:28Z</time>
      </trkpt>
      <trkpt lat="49.09128" lon="1.87984">
        <ele>138</ele>
        <time>2022-07-31T12:20:33Z</time>
      </trkpt>
      <trkpt lat="49.09126" lon="1.87995">
        <ele>138.2</ele>
        <time>2022-07-31T12:20:38Z</time>
      </trkpt>
      <trkpt lat="49.0912" lon="1.88007">
        <ele>138.5</ele>
        <time>2022-07-31T12:20:44Z</time>
      </trkpt>
      <trkpt lat="49.09116" lon="1.88015">
        <ele>138.8</ele>
        <time>2022-07-31T12:20:49Z</time>
      </trkpt>
      <trkpt lat="49.09111" lon="1.88025">
        <ele>139.2</ele>
        <time>2022-07-31T12:20:55Z</time>
      </trkpt>
      <trkpt lat="49.09106" lon="1.88038">
        <ele>139.7</ele>
        <time>2022-07-31T12:21:01Z</time>
      </trkpt>
      <trkpt lat="49.09104" lon="1.88046">
        <ele>140.1</ele>
        <time>2022-07-31T12:21:07Z</time>
      </trkpt>
      <trkpt lat="49.09101" lon="1.88056">
        <ele>140.2</ele>
        <time>2022-07-31T12:21:12Z</time>
      </trkpt>
      <trkpt lat="49.09099" lon="1.88066">
        <ele>140.2</ele>
        <time>2022-07-31T12:21:18Z</time>
      </trkpt>
      <trkpt lat="49.09095" lon="1.88079">
        <ele>140</ele>
        <time>2022-07-31T12:21:24Z</time>
      </trkpt>
      <trkpt lat="49.09091" lon="1.88091">
        <ele>139.9</ele>
        <time>2022-07-31T12:21:30Z</time>
      </trkpt>
      <trkpt lat="49.09087" lon="1.88103">
        <ele>140</ele>
        <time>2022-07-31T12:21:36Z</time>
      </trkpt>
      <trkpt lat="49.09083" lon="1.88115">
        <ele>140</ele>
        <time>2022-07-31T12:21:41Z</time>
      </trkpt>
      <trkpt lat="49.09079" lon="1.88127">
        <ele>140</ele>
        <time>2022-07-31T12:21:47Z</time>
      </trkpt>
      <trkpt lat="49.09076" lon="1.88138">
        <ele>140.1</ele>
        <time>2022-07-31T12:21:53Z</time>
      </trkpt>
      <trkpt lat="49.09072" lon="1.88153">
        <ele>140.4</ele>
        <time>2022-07-31T12:21:59Z</time>
      </trkpt>
      <trkpt lat="49.09069" lon="1.88165">
        <ele>140.6</ele>
        <time>2022-07-31T12:22:04Z</time>
      </trkpt>
      <trkpt lat="49.09066" lon="1.88174">
        <ele>140.6</ele>
        <time>2022-07-31T12:22:10Z</time>
      </trkpt>
      <trkpt lat="49.09064" lon="1.88185">
        <ele>140.3</ele>
        <time>2022-07-31T12:22:15Z</time>
      </trkpt>
      <trkpt lat="49.0906" lon="1.88192">
        <ele>139.9</ele>
        <time>2022-07-31T12:22:21Z</time>
      </trkpt>
      <trkpt lat="49.09057" lon="1.88201">
        <ele>139.6</ele>
        <time>2022-07-31T12:22:26Z</time>
      </trkpt>
      <trkpt lat="49.09054" lon="1.88213">
        <ele>139.2</ele>
        <time>2022-07-31T12:22:32Z</time>
      </trkpt>
      <trkpt lat="49.0905" lon="1.88225">
        <ele>139</ele>
        <time>2022-07-31T12:22:38Z</time>
      </trkpt>
      <trkpt lat="49.09046" lon="1.88234">
        <ele>138.8</ele>
        <time>2022-07-31T12:22:43Z</time>
      </trkpt>
      <trkpt lat="49.09042" lon="1.88247">
        <ele>138.6</ele>
        <time>2022-07-31T12:22:48Z</time>
      </trkpt>
      <trkpt lat="49.09039" lon="1.8826">
        <ele>138.2</ele>
        <time>2022-07-31T12:22:54Z</time>
      </trkpt>
      <trkpt lat="49.09036" lon="1.88272">
        <ele>137.9</ele>
        <time>2022-07-31T12:23:00Z</time>
      </trkpt>
      <trkpt lat="49.09033" lon="1.88283">
        <ele>138</ele>
        <time>2022-07-31T12:23:05Z</time>
      </trkpt>
      <trkpt lat="49.0903" lon="1.88297">
        <ele>137.9</ele>
        <time>2022-07-31T12:23:11Z</time>
      </trkpt>
      <trkpt lat="49.09027" lon="1.88308">
        <ele>137.8</ele>
        <time>2022-07-31T12:23:17Z</time>
      </trkpt>
      <trkpt lat="49.09024" lon="1.88317">
        <ele>137.8</ele>
        <time>2022-07-31T12:23:22Z</time>
      </trkpt>
      <trkpt lat="49.09021" lon="1.88331">
        <ele>137.8</ele>
        <time>2022-07-31T12:23:28Z</time>
      </trkpt>
      <trkpt lat="49.09017" lon="1.88341">
        <ele>137.7</ele>
        <time>2022-07-31T12:23:33Z</time>
      </trkpt>
      <trkpt lat="49.09014" lon="1.88351">
        <ele>137.5</ele>
        <time>2022-07-31T12:23:39Z</time>
      </trkpt>
      <trkpt lat="49.09011" lon="1.88362">
        <ele>137.6</ele>
        <time>2022-07-31T12:23:44Z</time>
      </trkpt>
      <trkpt lat="49.09007" lon="1.88375">
        <ele>137.5</ele>
        <time>2022-07-31T12:23:50Z</time>
      </trkpt>
      <trkpt lat="49.09005" lon="1.88384">
        <ele>137.1</ele>
        <time>2022-07-31T12:23:55Z</time>
      </trkpt>
      <trkpt lat="49.09001" lon="1.88396">
        <ele>136.8</ele>
        <time>2022-07-31T12:24:01Z</time>
      </trkpt>
      <trkpt lat="49.08998" lon="1.8841">
        <ele>136.5</ele>
        <time>2022-07-31T12:24:07Z</time>
      </trkpt>
      <trkpt lat="49.08996" lon="1.8842">
        <ele>136.6</ele>
        <time>2022-07-31T12:24:12Z</time>
      </trkpt>
      <trkpt lat="49.08992" lon="1.88432">
        <ele>136.6</ele>
        <time>2022-07-31T12:24:18Z</time>
      </trkpt>
      <trkpt lat="49.08989" lon="1.88443">
        <ele>136.5</ele>
        <time>2022-07-31T12:24:23Z</time>
      </trkpt>
      <trkpt lat="49.08985" lon="1.88457">
        <ele>136.3</ele>
        <time>2022-07-31T12:24:29Z</time>
      </trkpt>
      <trkpt lat="49.08982" lon="1.88468">
        <ele>136.2</ele>
        <time>2022-07-31T12:24:34Z</time>
      </trkpt>
      <trkpt lat="49.08981" lon="1.88476">
        <ele>136</ele>
        <time>2022-07-31T12:24:39Z</time>
      </trkpt>
      <trkpt lat="49.08978" lon="1.8849">
        <ele>135.7</ele>
        <time>2022-07-31T12:24:45Z</time>
      </trkpt>
      <trkpt lat="49.08975" lon="1.88503">
        <ele>135.4</ele>
        <time>2022-07-31T12:24:51Z</time>
      </trkpt>
      <trkpt lat="49.08974" lon="1.88513">
        <ele>135.1</ele>
        <time>2022-07-31T12:24:56Z</time>
      </trkpt>
      <trkpt lat="49.08972" lon="1.88525">
        <ele>134.6</ele>
        <time>2022-07-31T12:25:02Z</time>
      </trkpt>
      <trkpt lat="49.08968" lon="1.88537">
        <ele>134.4</ele>
        <time>2022-07-31T12:25:07Z</time>
      </trkpt>
      <trkpt lat="49.08967" lon="1.88547">
        <ele>134.3</ele>
        <time>2022-07-31T12:25:13Z</time>
      </trkpt>
      <trkpt lat="49.08965" lon="1.88561">
        <ele>134.2</ele>
        <time>2022-07-31T12:25:19Z</time>
      </trkpt>
      <trkpt lat="49.08963" lon="1.88574">
        <ele>134.2</ele>
        <time>2022-07-31T12:25:24Z</time>
      </trkpt>
      <trkpt lat="49.0896" lon="1.88585">
        <ele>134</ele>
        <time>2022-07-31T12:25:30Z</time>
      </trkpt>
      <trkpt lat="49.0896" lon="1.88599">
        <ele>133.6</ele>
        <time>2022-07-31T12:25:36Z</time>
      </trkpt>
      <trkpt lat="49.08959" lon="1.8861">
        <ele>133.3</ele>
        <time>2022-07-31T12:25:41Z</time>
      </trkpt>
      <trkpt lat="49.08957" lon="1.88619">
        <ele>133.3</ele>
        <time>2022-07-31T12:25:46Z</time>
      </trkpt>
      <trkpt lat="49.08953" lon="1.88631">
        <ele>133.4</ele>
        <time>2022-07-31T12:25:52Z</time>
      </trkpt>
      <trkpt lat="49.08952" lon="1.88645">
        <ele>133.4</ele>
        <time>2022-07-31T12:25:58Z</time>
      </trkpt>
      <trkpt lat="49.08953" lon="1.88657">
        <ele>133.4</ele>
        <time>2022-07-31T12:26:04Z</time>
      </trkpt>
      <trkpt lat="49.08953" lon="1.88668">
        <ele>133.6</ele>
        <time>2022-07-31T12:26:09Z</time>
      </trkpt>
      <trkpt lat="49.0895" lon="1.88682">
        <ele>133.7</ele>
        <time>2022-07-31T12:26:15Z</time>
      </trkpt>
      <trkpt lat="49.08947" lon="1.88692">
        <ele>133.6</ele>
        <time>2022-07-31T12:26:20Z</time>
      </trkpt>
      <trkpt lat="49.08945" lon="1.88707">
        <ele>133.3</ele>
        <time>2022-07-31T12:26:26Z</time>
      </trkpt>
      <trkpt lat="49.08943" lon="1.88716">
        <ele>132.9</ele>
        <time>2022-07-31T12:26:31Z</time>
      </trkpt>
      <trkpt lat="49.0894" lon="1.88726">
        <ele>132.2</ele>
        <time>2022-07-31T12:26:37Z</time>
      </trkpt>
      <trkpt lat="49.08937" lon="1.88737">
        <ele>131.9</ele>
        <time>2022-07-31T12:26:42Z</time>
      </trkpt>
      <trkpt lat="49.08934" lon="1.88749">
        <ele>131.7</ele>
        <time>2022-07-31T12:26:48Z</time>
      </trkpt>
      <trkpt lat="49.08931" lon="1.8876">
        <ele>131.5</ele>
        <time>2022-07-31T12:26:54Z</time>
      </trkpt>
      <trkpt lat="49.08931" lon="1.88773">
        <ele>131.1</ele>
        <time>2022-07-31T12:27:00Z</time>
      </trkpt>
      <trkpt lat="49.08928" lon="1.88787">
        <ele>130.8</ele>
        <time>2022-07-31T12:27:06Z</time>
      </trkpt>
      <trkpt lat="49.08928" lon="1.88799">
        <ele>130.7</ele>
        <time>2022-07-31T12:27:11Z</time>
      </trkpt>
      <trkpt lat="49.08928" lon="1.88812">
        <ele>131.1</ele>
        <time>2022-07-31T12:27:17Z</time>
      </trkpt>
      <trkpt lat="49.08927" lon="1.88825">
        <ele>131.7</ele>
        <time>2022-07-31T12:27:22Z</time>
      </trkpt>
      <trkpt lat="49.08925" lon="1.88832">
        <ele>132.2</ele>
        <time>2022-07-31T12:27:27Z</time>
      </trkpt>
      <trkpt lat="49.08922" lon="1.8884">
        <ele>132.5</ele>
        <time>2022-07-31T12:27:33Z</time>
      </trkpt>
      <trkpt lat="49.08917" lon="1.88848">
        <ele>132.5</ele>
        <time>2022-07-31T12:27:39Z</time>
      </trkpt>
      <trkpt lat="49.08917" lon="1.88849">
        <ele>132.6</ele>
        <time>2022-07-31T12:27:44Z</time>
      </trkpt>
      <trkpt lat="49.08917" lon="1.88849">
        <ele>132.5</ele>
        <time>2022-07-31T12:27:50Z</time>
      </trkpt>
      <trkpt lat="49.08917" lon="1.88853">
        <ele>132.4</ele>
        <time>2022-07-31T12:27:55Z</time>
      </trkpt>
      <trkpt lat="49.08916" lon="1.88862">
        <ele>132</ele>
        <time>2022-07-31T12:28:00Z</time>
      </trkpt>
      <trkpt lat="49.08914" lon="1.88871">
        <ele>131.4</ele>
        <time>2022-07-31T12:28:06Z</time>
      </trkpt>
      <trkpt lat="49.08912" lon="1.88882">
        <ele>131</ele>
        <time>2022-07-31T12:28:12Z</time>
      </trkpt>
      <trkpt lat="49.08909" lon="1.88893">
        <ele>130.6</ele>
        <time>2022-07-31T12:28:18Z</time>
      </trkpt>
      <trkpt lat="49.08905" lon="1.88907">
        <ele>130.3</ele>
        <time>2022-07-31T12:28:24Z</time>
      </trkpt>
      <trkpt lat="49.08904" lon="1.88918">
        <ele>130.2</ele>
        <time>2022-07-31T12:28:30Z</time>
      </trkpt>
      <trkpt lat="49.08902" lon="1.88929">
        <ele>130.3</ele>
        <time>2022-07-31T12:28:36Z</time>
      </trkpt>
      <trkpt lat="49.08898" lon="1.88942">
        <ele>130.4</ele>
        <time>2022-07-31T12:28:42Z</time>
      </trkpt>
      <trkpt lat="49.08897" lon="1.88951">
        <ele>130.5</ele>
        <time>2022-07-31T12:28:47Z</time>
      </trkpt>
      <trkpt lat="49.08892" lon="1.88962">
        <ele>130.5</ele>
        <time>2022-07-31T12:28:53Z</time>
      </trkpt>
      <trkpt lat="49.08887" lon="1.88975">
        <ele>130.5</ele>
        <time>2022-07-31T12:28:59Z</time>
      </trkpt>
      <trkpt lat="49.08884" lon="1.88983">
        <ele>130.5</ele>
        <time>2022-07-31T12:29:04Z</time>
      </trkpt>
      <trkpt lat="49.08881" lon="1.88995">
        <ele>130.3</ele>
        <time>2022-07-31T12:29:10Z</time>
      </trkpt>
      <trkpt lat="49.08877" lon="1.89005">
        <ele>130.3</ele>
        <time>2022-07-31T12:29:15Z</time>
      </trkpt>
      <trkpt lat="49.08872" lon="1.89016">
        <ele>130.5</ele>
        <time>2022-07-31T12:29:21Z</time>
      </trkpt>
      <trkpt lat="49.08868" lon="1.89026">
        <ele>130.6</ele>
        <time>2022-07-31T12:29:26Z</time>
      </trkpt>
      <trkpt lat="49.08864" lon="1.89033">
        <ele>130.7</ele>
        <time>2022-07-31T12:29:31Z</time>
      </trkpt>
      <trkpt lat="49.08859" lon="1.89043">
        <ele>130.7</ele>
        <time>2022-07-31T12:29:37Z</time>
      </trkpt>
      <trkpt lat="49.08855" lon="1.89055">
        <ele>130.8</ele>
        <time>2022-07-31T12:29:42Z</time>
      </trkpt>
      <trkpt lat="49.08851" lon="1.89064">
        <ele>130.8</ele>
        <time>2022-07-31T12:29:47Z</time>
      </trkpt>
      <trkpt lat="49.08846" lon="1.89074">
        <ele>130.9</ele>
        <time>2022-07-31T12:29:53Z</time>
      </trkpt>
      <trkpt lat="49.08842" lon="1.89084">
        <ele>130.8</ele>
        <time>2022-07-31T12:29:59Z</time>
      </trkpt>
      <trkpt lat="49.08839" lon="1.89092">
        <ele>130.8</ele>
        <time>2022-07-31T12:30:04Z</time>
      </trkpt>
      <trkpt lat="49.08835" lon="1.89102">
        <ele>130.9</ele>
        <time>2022-07-31T12:30:10Z</time>
      </trkpt>
      <trkpt lat="49.08828" lon="1.89112">
        <ele>131</ele>
        <time>2022-07-31T12:30:16Z</time>
      </trkpt>
      <trkpt lat="49.08824" lon="1.89119">
        <ele>131</ele>
        <time>2022-07-31T12:30:21Z</time>
      </trkpt>
      <trkpt lat="49.0882" lon="1.89129">
        <ele>131.1</ele>
        <time>2022-07-31T12:30:27Z</time>
      </trkpt>
      <trkpt lat="49.08814" lon="1.8914">
        <ele>131</ele>
        <time>2022-07-31T12:30:33Z</time>
      </trkpt>
      <trkpt lat="49.08809" lon="1.8915">
        <ele>131.1</ele>
        <time>2022-07-31T12:30:39Z</time>
      </trkpt>
      <trkpt lat="49.08806" lon="1.89158">
        <ele>131.5</ele>
        <time>2022-07-31T12:30:44Z</time>
      </trkpt>
      <trkpt lat="49.08802" lon="1.89167">
        <ele>132.1</ele>
        <time>2022-07-31T12:30:49Z</time>
      </trkpt>
      <trkpt lat="49.08796" lon="1.89177">
        <ele>132.5</ele>
        <time>2022-07-31T12:30:55Z</time>
      </trkpt>
      <trkpt lat="49.08791" lon="1.89186">
        <ele>132.8</ele>
        <time>2022-07-31T12:31:00Z</time>
      </trkpt>
      <trkpt lat="49.08787" lon="1.89197">
        <ele>133.3</ele>
        <time>2022-07-31T12:31:05Z</time>
      </trkpt>
      <trkpt lat="49.08784" lon="1.89207">
        <ele>133.7</ele>
        <time>2022-07-31T12:31:11Z</time>
      </trkpt>
      <trkpt lat="49.08778" lon="1.89218">
        <ele>134.1</ele>
        <time>2022-07-31T12:31:17Z</time>
      </trkpt>
      <trkpt lat="49.08774" lon="1.89226">
        <ele>134.4</ele>
        <time>2022-07-31T12:31:22Z</time>
      </trkpt>
      <trkpt lat="49.08769" lon="1.89239">
        <ele>134.7</ele>
        <time>2022-07-31T12:31:28Z</time>
      </trkpt>
      <trkpt lat="49.08764" lon="1.89247">
        <ele>134.8</ele>
        <time>2022-07-31T12:31:34Z</time>
      </trkpt>
      <trkpt lat="49.08759" lon="1.89256">
        <ele>135.1</ele>
        <time>2022-07-31T12:31:39Z</time>
      </trkpt>
      <trkpt lat="49.08754" lon="1.89267">
        <ele>135.6</ele>
        <time>2022-07-31T12:31:45Z</time>
      </trkpt>
      <trkpt lat="49.08752" lon="1.89276">
        <ele>135.7</ele>
        <time>2022-07-31T12:31:50Z</time>
      </trkpt>
      <trkpt lat="49.08745" lon="1.89285">
        <ele>135.7</ele>
        <time>2022-07-31T12:31:55Z</time>
      </trkpt>
      <trkpt lat="49.0874" lon="1.89292">
        <ele>135.5</ele>
        <time>2022-07-31T12:32:00Z</time>
      </trkpt>
      <trkpt lat="49.08735" lon="1.89301">
        <ele>135.4</ele>
        <time>2022-07-31T12:32:06Z</time>
      </trkpt>
      <trkpt lat="49.08732" lon="1.89311">
        <ele>135.2</ele>
        <time>2022-07-31T12:32:11Z</time>
      </trkpt>
      <trkpt lat="49.08728" lon="1.89323">
        <ele>135.1</ele>
        <time>2022-07-31T12:32:17Z</time>
      </trkpt>
      <trkpt lat="49.08722" lon="1.8933">
        <ele>135</ele>
        <time>2022-07-31T12:32:22Z</time>
      </trkpt>
      <trkpt lat="49.08717" lon="1.89337">
        <ele>135</ele>
        <time>2022-07-31T12:32:27Z</time>
      </trkpt>
      <trkpt lat="49.08715" lon="1.89348">
        <ele>135</ele>
        <time>2022-07-31T12:32:33Z</time>
      </trkpt>
      <trkpt lat="49.08712" lon="1.89361">
        <ele>135.1</ele>
        <time>2022-07-31T12:32:39Z</time>
      </trkpt>
      <trkpt lat="49.0871" lon="1.8937">
        <ele>135</ele>
        <time>2022-07-31T12:32:44Z</time>
      </trkpt>
      <trkpt lat="49.08707" lon="1.89384">
        <ele>135.2</ele>
        <time>2022-07-31T12:32:50Z</time>
      </trkpt>
      <trkpt lat="49.08703" lon="1.89397">
        <ele>135.5</ele>
        <time>2022-07-31T12:32:56Z</time>
      </trkpt>
      <trkpt lat="49.08701" lon="1.89405">
        <ele>135.6</ele>
        <time>2022-07-31T12:33:01Z</time>
      </trkpt>
      <trkpt lat="49.087" lon="1.89415">
        <ele>135.5</ele>
        <time>2022-07-31T12:33:06Z</time>
      </trkpt>
      <trkpt lat="49.08698" lon="1.89428">
        <ele>135.3</ele>
        <time>2022-07-31T12:33:12Z</time>
      </trkpt>
      <trkpt lat="49.08697" lon="1.8944">
        <ele>135.1</ele>
        <time>2022-07-31T12:33:18Z</time>
      </trkpt>
      <trkpt lat="49.08694" lon="1.8945">
        <ele>134.7</ele>
        <time>2022-07-31T12:33:23Z</time>
      </trkpt>
      <trkpt lat="49.08693" lon="1.8946">
        <ele>134.7</ele>
        <time>2022-07-31T12:33:28Z</time>
      </trkpt>
      <trkpt lat="49.08692" lon="1.8947">
        <ele>135</ele>
        <time>2022-07-31T12:33:34Z</time>
      </trkpt>
      <trkpt lat="49.08685" lon="1.89483">
        <ele>134.9</ele>
        <time>2022-07-31T12:33:40Z</time>
      </trkpt>
      <trkpt lat="49.08681" lon="1.89493">
        <ele>134.8</ele>
        <time>2022-07-31T12:33:46Z</time>
      </trkpt>
      <trkpt lat="49.0868" lon="1.89504">
        <ele>134.4</ele>
        <time>2022-07-31T12:33:51Z</time>
      </trkpt>
      <trkpt lat="49.08679" lon="1.89511">
        <ele>134</ele>
        <time>2022-07-31T12:33:56Z</time>
      </trkpt>
      <trkpt lat="49.08678" lon="1.89521">
        <ele>133.6</ele>
        <time>2022-07-31T12:34:02Z</time>
      </trkpt>
      <trkpt lat="49.08675" lon="1.89531">
        <ele>133.4</ele>
        <time>2022-07-31T12:34:07Z</time>
      </trkpt>
      <trkpt lat="49.08673" lon="1.89544">
        <ele>132.9</ele>
        <time>2022-07-31T12:34:13Z</time>
      </trkpt>
      <trkpt lat="49.08672" lon="1.89556">
        <ele>132.5</ele>
        <time>2022-07-31T12:34:18Z</time>
      </trkpt>
      <trkpt lat="49.08671" lon="1.89567">
        <ele>132.1</ele>
        <time>2022-07-31T12:34:24Z</time>
      </trkpt>
      <trkpt lat="49.0867" lon="1.89579">
        <ele>132</ele>
        <time>2022-07-31T12:34:30Z</time>
      </trkpt>
      <trkpt lat="49.08671" lon="1.8959">
        <ele>132.5</ele>
        <time>2022-07-31T12:34:36Z</time>
      </trkpt>
      <trkpt lat="49.08671" lon="1.89595">
        <ele>132.8</ele>
        <time>2022-07-31T12:34:41Z</time>
      </trkpt>
      <trkpt lat="49.08671" lon="1.89607">
        <ele>133</ele>
        <time>2022-07-31T12:34:47Z</time>
      </trkpt>
      <trkpt lat="49.08669" lon="1.89616">
        <ele>133.2</ele>
        <time>2022-07-31T12:34:53Z</time>
      </trkpt>
      <trkpt lat="49.08666" lon="1.89627">
        <ele>133.2</ele>
        <time>2022-07-31T12:34:59Z</time>
      </trkpt>
      <trkpt lat="49.08665" lon="1.89642">
        <ele>132.9</ele>
        <time>2022-07-31T12:35:05Z</time>
      </trkpt>
      <trkpt lat="49.08664" lon="1.89652">
        <ele>132.7</ele>
        <time>2022-07-31T12:35:10Z</time>
      </trkpt>
      <trkpt lat="49.08664" lon="1.89663">
        <ele>132.4</ele>
        <time>2022-07-31T12:35:15Z</time>
      </trkpt>
      <trkpt lat="49.08664" lon="1.89678">
        <ele>131.7</ele>
        <time>2022-07-31T12:35:21Z</time>
      </trkpt>
      <trkpt lat="49.08664" lon="1.89684">
        <ele>131.3</ele>
        <time>2022-07-31T12:35:26Z</time>
      </trkpt>
      <trkpt lat="49.08663" lon="1.89689">
        <ele>130.7</ele>
        <time>2022-07-31T12:35:32Z</time>
      </trkpt>
      <trkpt lat="49.08663" lon="1.89694">
        <ele>129.9</ele>
        <time>2022-07-31T12:35:37Z</time>
      </trkpt>
      <trkpt lat="49.08664" lon="1.89698">
        <ele>129.4</ele>
        <time>2022-07-31T12:35:43Z</time>
      </trkpt>
      <trkpt lat="49.08663" lon="1.89697">
        <ele>129</ele>
        <time>2022-07-31T12:35:48Z</time>
      </trkpt>
      <trkpt lat="49.08663" lon="1.89697">
        <ele>128.7</ele>
        <time>2022-07-31T12:35:54Z</time>
      </trkpt>
      <trkpt lat="49.08667" lon="1.89705">
        <ele>128.2</ele>
        <time>2022-07-31T12:36:00Z</time>
      </trkpt>
      <trkpt lat="49.0867" lon="1.89716">
        <ele>127.7</ele>
        <time>2022-07-31T12:36:05Z</time>
      </trkpt>
      <trkpt lat="49.08674" lon="1.89727">
        <ele>127.2</ele>
        <time>2022-07-31T12:36:11Z</time>
      </trkpt>
      <trkpt lat="49.08677" lon="1.89739">
        <ele>126.9</ele>
        <time>2022-07-31T12:36:16Z</time>
      </trkpt>
      <trkpt lat="49.08679" lon="1.8975">
        <ele>126.5</ele>
        <time>2022-07-31T12:36:22Z</time>
      </trkpt>
      <trkpt lat="49.08683" lon="1.89759">
        <ele>125.9</ele>
        <time>2022-07-31T12:36:28Z</time>
      </trkpt>
      <trkpt lat="49.08688" lon="1.89768">
        <ele>125.6</ele>
        <time>2022-07-31T12:36:33Z</time>
      </trkpt>
      <trkpt lat="49.08696" lon="1.89776">
        <ele>125.4</ele>
        <time>2022-07-31T12:36:39Z</time>
      </trkpt>
      <trkpt lat="49.08699" lon="1.89785">
        <ele>124.9</ele>
        <time>2022-07-31T12:36:45Z</time>
      </trkpt>
      <trkpt lat="49.08704" lon="1.89797">
        <ele>124.3</ele>
        <time>2022-07-31T12:36:51Z</time>
      </trkpt>
      <trkpt lat="49.0871" lon="1.89802">
        <ele>123.8</ele>
        <time>2022-07-31T12:36:57Z</time>
      </trkpt>
      <trkpt lat="49.08717" lon="1.89813">
        <ele>123.8</ele>
        <time>2022-07-31T12:37:03Z</time>
      </trkpt>
      <trkpt lat="49.08721" lon="1.89822">
        <ele>123.9</ele>
        <time>2022-07-31T12:37:09Z</time>
      </trkpt>
      <trkpt lat="49.08726" lon="1.8983">
        <ele>124</ele>
        <time>2022-07-31T12:37:14Z</time>
      </trkpt>
      <trkpt lat="49.08728" lon="1.89844">
        <ele>123.9</ele>
        <time>2022-07-31T12:37:20Z</time>
      </trkpt>
      <trkpt lat="49.08731" lon="1.89853">
        <ele>123.7</ele>
        <time>2022-07-31T12:37:25Z</time>
      </trkpt>
      <trkpt lat="49.08735" lon="1.89865">
        <ele>123.8</ele>
        <time>2022-07-31T12:37:31Z</time>
      </trkpt>
      <trkpt lat="49.0874" lon="1.89876">
        <ele>123.9</ele>
        <time>2022-07-31T12:37:37Z</time>
      </trkpt>
      <trkpt lat="49.08745" lon="1.89881">
        <ele>124</ele>
        <time>2022-07-31T12:37:42Z</time>
      </trkpt>
      <trkpt lat="49.08753" lon="1.89891">
        <ele>124</ele>
        <time>2022-07-31T12:37:48Z</time>
      </trkpt>
      <trkpt lat="49.08757" lon="1.89894">
        <ele>124.1</ele>
        <time>2022-07-31T12:37:53Z</time>
      </trkpt>
      <trkpt lat="49.08763" lon="1.89893">
        <ele>124.2</ele>
        <time>2022-07-31T12:37:58Z</time>
      </trkpt>
      <trkpt lat="49.08771" lon="1.89889">
        <ele>124.3</ele>
        <time>2022-07-31T12:38:04Z</time>
      </trkpt>
      <trkpt lat="49.08779" lon="1.89882">
        <ele>124.2</ele>
        <time>2022-07-31T12:38:10Z</time>
      </trkpt>
      <trkpt lat="49.08787" lon="1.89878">
        <ele>124.1</ele>
        <time>2022-07-31T12:38:15Z</time>
      </trkpt>
      <trkpt lat="49.08794" lon="1.89878">
        <ele>124.1</ele>
        <time>2022-07-31T12:38:20Z</time>
      </trkpt>
      <trkpt lat="49.08801" lon="1.89871">
        <ele>124</ele>
        <time>2022-07-31T12:38:26Z</time>
      </trkpt>
      <trkpt lat="49.08807" lon="1.89865">
        <ele>123.8</ele>
        <time>2022-07-31T12:38:31Z</time>
      </trkpt>
      <trkpt lat="49.08814" lon="1.8986">
        <ele>123.5</ele>
        <time>2022-07-31T12:38:37Z</time>
      </trkpt>
      <trkpt lat="49.08822" lon="1.8986">
        <ele>123.6</ele>
        <time>2022-07-31T12:38:42Z</time>
      </trkpt>
      <trkpt lat="49.08828" lon="1.89855">
        <ele>123.6</ele>
        <time>2022-07-31T12:38:48Z</time>
      </trkpt>
      <trkpt lat="49.08835" lon="1.89851">
        <ele>123.5</ele>
        <time>2022-07-31T12:38:54Z</time>
      </trkpt>
      <trkpt lat="49.08844" lon="1.89849">
        <ele>123.6</ele>
        <time>2022-07-31T12:39:00Z</time>
      </trkpt>
      <trkpt lat="49.08852" lon="1.89848">
        <ele>123.9</ele>
        <time>2022-07-31T12:39:06Z</time>
      </trkpt>
      <trkpt lat="49.08862" lon="1.89848">
        <ele>124.5</ele>
        <time>2022-07-31T12:39:12Z</time>
      </trkpt>
      <trkpt lat="49.08867" lon="1.89849">
        <ele>124.9</ele>
        <time>2022-07-31T12:39:17Z</time>
      </trkpt>
      <trkpt lat="49.08874" lon="1.89851">
        <ele>125.2</ele>
        <time>2022-07-31T12:39:23Z</time>
      </trkpt>
      <trkpt lat="49.0888" lon="1.89857">
        <ele>125.4</ele>
        <time>2022-07-31T12:39:29Z</time>
      </trkpt>
      <trkpt lat="49.08884" lon="1.89867">
        <ele>125.4</ele>
        <time>2022-07-31T12:39:35Z</time>
      </trkpt>
      <trkpt lat="49.08889" lon="1.89874">
        <ele>125.6</ele>
        <time>2022-07-31T12:39:40Z</time>
      </trkpt>
      <trkpt lat="49.08891" lon="1.89883">
        <ele>126</ele>
        <time>2022-07-31T12:39:46Z</time>
      </trkpt>
      <trkpt lat="49.08888" lon="1.89893">
        <ele>126.5</ele>
        <time>2022-07-31T12:39:52Z</time>
      </trkpt>
      <trkpt lat="49.08883" lon="1.89901">
        <ele>127.2</ele>
        <time>2022-07-31T12:39:58Z</time>
      </trkpt>
      <trkpt lat="49.08879" lon="1.89903">
        <ele>127.9</ele>
        <time>2022-07-31T12:40:03Z</time>
      </trkpt>
      <trkpt lat="49.08874" lon="1.89913">
        <ele>128.7</ele>
        <time>2022-07-31T12:40:09Z</time>
      </trkpt>
      <trkpt lat="49.08871" lon="1.89922">
        <ele>129.4</ele>
        <time>2022-07-31T12:40:14Z</time>
      </trkpt>
      <trkpt lat="49.08864" lon="1.89933">
        <ele>130</ele>
        <time>2022-07-31T12:40:20Z</time>
      </trkpt>
      <trkpt lat="49.08858" lon="1.89943">
        <ele>130.6</ele>
        <time>2022-07-31T12:40:26Z</time>
      </trkpt>
      <trkpt lat="49.08854" lon="1.8995">
        <ele>131</ele>
        <time>2022-07-31T12:40:32Z</time>
      </trkpt>
      <trkpt lat="49.08849" lon="1.89959">
        <ele>131.6</ele>
        <time>2022-07-31T12:40:38Z</time>
      </trkpt>
      <trkpt lat="49.08846" lon="1.89969">
        <ele>131.9</ele>
        <time>2022-07-31T12:40:43Z</time>
      </trkpt>
      <trkpt lat="49.08842" lon="1.89979">
        <ele>132.1</ele>
        <time>2022-07-31T12:40:49Z</time>
      </trkpt>
      <trkpt lat="49.08838" lon="1.89986">
        <ele>132.4</ele>
        <time>2022-07-31T12:40:54Z</time>
      </trkpt>
      <trkpt lat="49.08835" lon="1.89991">
        <ele>132.8</ele>
        <time>2022-07-31T12:40:59Z</time>
      </trkpt>
      <trkpt lat="49.08831" lon="1.90001">
        <ele>133.7</ele>
        <time>2022-07-31T12:41:05Z</time>
      </trkpt>
      <trkpt lat="49.08829" lon="1.90014">
        <ele>134.6</ele>
        <time>2022-07-31T12:41:11Z</time>
      </trkpt>
      <trkpt lat="49.08828" lon="1.90026">
        <ele>135.5</ele>
        <time>2022-07-31T12:41:17Z</time>
      </trkpt>
      <trkpt lat="49.08826" lon="1.90037">
        <ele>136.4</ele>
        <time>2022-07-31T12:41:22Z</time>
      </trkpt>
      <trkpt lat="49.08823" lon="1.90048">
        <ele>137</ele>
        <time>2022-07-31T12:41:27Z</time>
      </trkpt>
      <trkpt lat="49.08822" lon="1.90058">
        <ele>137.6</ele>
        <time>2022-07-31T12:41:32Z</time>
      </trkpt>
      <trkpt lat="49.08823" lon="1.90069">
        <ele>138.1</ele>
        <time>2022-07-31T12:41:38Z</time>
      </trkpt>
      <trkpt lat="49.08822" lon="1.90081">
        <ele>138.7</ele>
        <time>2022-07-31T12:41:43Z</time>
      </trkpt>
      <trkpt lat="49.08822" lon="1.90091">
        <ele>139.2</ele>
        <time>2022-07-31T12:41:49Z</time>
      </trkpt>
      <trkpt lat="49.08822" lon="1.90101">
        <ele>139.7</ele>
        <time>2022-07-31T12:41:54Z</time>
      </trkpt>
      <trkpt lat="49.08821" lon="1.9011">
        <ele>140.2</ele>
        <time>2022-07-31T12:42:00Z</time>
      </trkpt>
      <trkpt lat="49.0882" lon="1.90125">
        <ele>140.6</ele>
        <time>2022-07-31T12:42:06Z</time>
      </trkpt>
      <trkpt lat="49.08822" lon="1.90136">
        <ele>141</ele>
        <time>2022-07-31T12:42:12Z</time>
      </trkpt>
      <trkpt lat="49.08825" lon="1.90146">
        <ele>141.2</ele>
        <time>2022-07-31T12:42:17Z</time>
      </trkpt>
      <trkpt lat="49.08828" lon="1.90161">
        <ele>142</ele>
        <time>2022-07-31T12:42:23Z</time>
      </trkpt>
      <trkpt lat="49.08826" lon="1.90173">
        <ele>142.7</ele>
        <time>2022-07-31T12:42:29Z</time>
      </trkpt>
      <trkpt lat="49.08827" lon="1.90183">
        <ele>143</ele>
        <time>2022-07-31T12:42:34Z</time>
      </trkpt>
      <trkpt lat="49.08829" lon="1.90194">
        <ele>143.3</ele>
        <time>2022-07-31T12:42:40Z</time>
      </trkpt>
      <trkpt lat="49.08829" lon="1.90203">
        <ele>143.6</ele>
        <time>2022-07-31T12:42:45Z</time>
      </trkpt>
      <trkpt lat="49.0883" lon="1.90213">
        <ele>143.8</ele>
        <time>2022-07-31T12:42:50Z</time>
      </trkpt>
      <trkpt lat="49.08834" lon="1.90226">
        <ele>144.3</ele>
        <time>2022-07-31T12:42:56Z</time>
      </trkpt>
      <trkpt lat="49.08837" lon="1.90238">
        <ele>144.9</ele>
        <time>2022-07-31T12:43:02Z</time>
      </trkpt>
      <trkpt lat="49.08837" lon="1.90247">
        <ele>145.3</ele>
        <time>2022-07-31T12:43:07Z</time>
      </trkpt>
      <trkpt lat="49.08837" lon="1.90261">
        <ele>145.5</ele>
        <time>2022-07-31T12:43:13Z</time>
      </trkpt>
      <trkpt lat="49.08838" lon="1.90274">
        <ele>145.8</ele>
        <time>2022-07-31T12:43:19Z</time>
      </trkpt>
      <trkpt lat="49.08841" lon="1.90283">
        <ele>146.2</ele>
        <time>2022-07-31T12:43:24Z</time>
      </trkpt>
      <trkpt lat="49.08843" lon="1.90292">
        <ele>146.4</ele>
        <time>2022-07-31T12:43:29Z</time>
      </trkpt>
      <trkpt lat="49.08846" lon="1.90304">
        <ele>146.9</ele>
        <time>2022-07-31T12:43:35Z</time>
      </trkpt>
      <trkpt lat="49.08848" lon="1.90314">
        <ele>147.5</ele>
        <time>2022-07-31T12:43:40Z</time>
      </trkpt>
      <trkpt lat="49.08851" lon="1.90325">
        <ele>148.4</ele>
        <time>2022-07-31T12:43:46Z</time>
      </trkpt>
      <trkpt lat="49.08853" lon="1.90335">
        <ele>148.9</ele>
        <time>2022-07-31T12:43:51Z</time>
      </trkpt>
      <trkpt lat="49.08856" lon="1.90347">
        <ele>149.4</ele>
        <time>2022-07-31T12:43:57Z</time>
      </trkpt>
      <trkpt lat="49.08856" lon="1.90357">
        <ele>150.2</ele>
        <time>2022-07-31T12:44:03Z</time>
      </trkpt>
      <trkpt lat="49.08859" lon="1.90367">
        <ele>151.3</ele>
        <time>2022-07-31T12:44:08Z</time>
      </trkpt>
      <trkpt lat="49.08862" lon="1.90377">
        <ele>152.2</ele>
        <time>2022-07-31T12:44:14Z</time>
      </trkpt>
      <trkpt lat="49.08862" lon="1.90387">
        <ele>152.9</ele>
        <time>2022-07-31T12:44:19Z</time>
      </trkpt>
      <trkpt lat="49.08862" lon="1.90396">
        <ele>153.6</ele>
        <time>2022-07-31T12:44:25Z</time>
      </trkpt>
      <trkpt lat="49.08863" lon="1.90399">
        <ele>154</ele>
        <time>2022-07-31T12:44:30Z</time>
      </trkpt>
      <trkpt lat="49.08863" lon="1.90399">
        <ele>154.1</ele>
        <time>2022-07-31T12:44:36Z</time>
      </trkpt>
      <trkpt lat="49.08863" lon="1.904">
        <ele>154.1</ele>
        <time>2022-07-31T12:44:41Z</time>
      </trkpt>
      <trkpt lat="49.08863" lon="1.904">
        <ele>154.3</ele>
        <time>2022-07-31T12:44:47Z</time>
      </trkpt>
      <trkpt lat="49.08864" lon="1.904">
        <ele>154.4</ele>
        <time>2022-07-31T12:44:52Z</time>
      </trkpt>
      <trkpt lat="49.08864" lon="1.90401">
        <ele>154.6</ele>
        <time>2022-07-31T12:44:58Z</time>
      </trkpt>
      <trkpt lat="49.08864" lon="1.90402">
        <ele>154.8</ele>
        <time>2022-07-31T12:45:03Z</time>
      </trkpt>
      <trkpt lat="49.08865" lon="1.90402">
        <ele>154.9</ele>
        <time>2022-07-31T12:45:09Z</time>
      </trkpt>
      <trkpt lat="49.08865" lon="1.90403">
        <ele>155</ele>
        <time>2022-07-31T12:45:14Z</time>
      </trkpt>
      <trkpt lat="49.08865" lon="1.90403">
        <ele>155.1</ele>
        <time>2022-07-31T12:45:20Z</time>
      </trkpt>
      <trkpt lat="49.08866" lon="1.90404">
        <ele>155.6</ele>
        <time>2022-07-31T12:45:25Z</time>
      </trkpt>
      <trkpt lat="49.08866" lon="1.90405">
        <ele>155.9</ele>
        <time>2022-07-31T12:45:31Z</time>
      </trkpt>
      <trkpt lat="49.08866" lon="1.90406">
        <ele>156.1</ele>
        <time>2022-07-31T12:45:36Z</time>
      </trkpt>
      <trkpt lat="49.08866" lon="1.90407">
        <ele>156.2</ele>
        <time>2022-07-31T12:45:42Z</time>
      </trkpt>
      <trkpt lat="49.08866" lon="1.90408">
        <ele>156.6</ele>
        <time>2022-07-31T12:45:47Z</time>
      </trkpt>
      <trkpt lat="49.08866" lon="1.90409">
        <ele>156.9</ele>
        <time>2022-07-31T12:45:53Z</time>
      </trkpt>
      <trkpt lat="49.08866" lon="1.90409">
        <ele>157</ele>
        <time>2022-07-31T12:45:58Z</time>
      </trkpt>
      <trkpt lat="49.08866" lon="1.90409">
        <ele>157.1</ele>
        <time>2022-07-31T12:46:04Z</time>
      </trkpt>
      <trkpt lat="49.08866" lon="1.9041">
        <ele>157.2</ele>
        <time>2022-07-31T12:46:09Z</time>
      </trkpt>
      <trkpt lat="49.08866" lon="1.9041">
        <ele>157.3</ele>
        <time>2022-07-31T12:46:15Z</time>
      </trkpt>
      <trkpt lat="49.08865" lon="1.9041">
        <ele>157.3</ele>
        <time>2022-07-31T12:46:21Z</time>
      </trkpt>
      <trkpt lat="49.08865" lon="1.9041">
        <ele>157.4</ele>
        <time>2022-07-31T12:46:27Z</time>
      </trkpt>
      <trkpt lat="49.08865" lon="1.90409">
        <ele>157.5</ele>
        <time>2022-07-31T12:46:32Z</time>
      </trkpt>
      <trkpt lat="49.08865" lon="1.90408">
        <ele>157.6</ele>
        <time>2022-07-31T12:46:38Z</time>
      </trkpt>
      <trkpt lat="49.08865" lon="1.90407">
        <ele>157.6</ele>
        <time>2022-07-31T12:46:43Z</time>
      </trkpt>
      <trkpt lat="49.08865" lon="1.90405">
        <ele>157.7</ele>
        <time>2022-07-31T12:46:49Z</time>
      </trkpt>
      <trkpt lat="49.08864" lon="1.90405">
        <ele>157.7</ele>
        <time>2022-07-31T12:46:55Z</time>
      </trkpt>
      <trkpt lat="49.08864" lon="1.90403">
        <ele>157.8</ele>
        <time>2022-07-31T12:47:01Z</time>
      </trkpt>
      <trkpt lat="49.08863" lon="1.90401">
        <ele>158.1</ele>
        <time>2022-07-31T12:47:07Z</time>
      </trkpt>
      <trkpt lat="49.08863" lon="1.90401">
        <ele>158.1</ele>
        <time>2022-07-31T12:47:13Z</time>
      </trkpt>
      <trkpt lat="49.08863" lon="1.90401">
        <ele>158.2</ele>
        <time>2022-07-31T12:47:18Z</time>
      </trkpt>
      <trkpt lat="49.08863" lon="1.90402">
        <ele>158.3</ele>
        <time>2022-07-31T12:47:23Z</time>
      </trkpt>
      <trkpt lat="49.08863" lon="1.90403">
        <ele>158.4</ele>
        <time>2022-07-31T12:47:29Z</time>
      </trkpt>
      <trkpt lat="49.08863" lon="1.90403">
        <ele>158.8</ele>
        <time>2022-07-31T12:47:35Z</time>
      </trkpt>
      <trkpt lat="49.08864" lon="1.90403">
        <ele>158.8</ele>
        <time>2022-07-31T12:47:40Z</time>
      </trkpt>
      <trkpt lat="49.08864" lon="1.90404">
        <ele>158.9</ele>
        <time>2022-07-31T12:47:46Z</time>
      </trkpt>
      <trkpt lat="49.08864" lon="1.90403">
        <ele>159</ele>
        <time>2022-07-31T12:47:51Z</time>
      </trkpt>
      <trkpt lat="49.08863" lon="1.904">
        <ele>159.2</ele>
        <time>2022-07-31T12:47:57Z</time>
      </trkpt>
      <trkpt lat="49.08863" lon="1.90399">
        <ele>159.5</ele>
        <time>2022-07-31T12:48:03Z</time>
      </trkpt>
      <trkpt lat="49.08862" lon="1.90405">
        <ele>159.6</ele>
        <time>2022-07-31T12:48:08Z</time>
      </trkpt>
      <trkpt lat="49.08861" lon="1.90414">
        <ele>159.5</ele>
        <time>2022-07-31T12:48:13Z</time>
      </trkpt>
      <trkpt lat="49.08862" lon="1.90425">
        <ele>159.4</ele>
        <time>2022-07-31T12:48:19Z</time>
      </trkpt>
      <trkpt lat="49.08861" lon="1.90436">
        <ele>159.4</ele>
        <time>2022-07-31T12:48:25Z</time>
      </trkpt>
      <trkpt lat="49.08861" lon="1.90441">
        <ele>159.5</ele>
        <time>2022-07-31T12:48:30Z</time>
      </trkpt>
      <trkpt lat="49.08862" lon="1.90451">
        <ele>159.6</ele>
        <time>2022-07-31T12:48:36Z</time>
      </trkpt>
      <trkpt lat="49.0886" lon="1.90461">
        <ele>159.7</ele>
        <time>2022-07-31T12:48:42Z</time>
      </trkpt>
      <trkpt lat="49.08858" lon="1.90468">
        <ele>160</ele>
        <time>2022-07-31T12:48:47Z</time>
      </trkpt>
      <trkpt lat="49.08857" lon="1.90478">
        <ele>160.4</ele>
        <time>2022-07-31T12:48:53Z</time>
      </trkpt>
      <trkpt lat="49.08857" lon="1.90488">
        <ele>160.7</ele>
        <time>2022-07-31T12:48:59Z</time>
      </trkpt>
      <trkpt lat="49.08856" lon="1.905">
        <ele>161</ele>
        <time>2022-07-31T12:49:05Z</time>
      </trkpt>
      <trkpt lat="49.08854" lon="1.90512">
        <ele>161.2</ele>
        <time>2022-07-31T12:49:11Z</time>
      </trkpt>
      <trkpt lat="49.08852" lon="1.90521">
        <ele>161.6</ele>
        <time>2022-07-31T12:49:16Z</time>
      </trkpt>
      <trkpt lat="49.0885" lon="1.90531">
        <ele>161.8</ele>
        <time>2022-07-31T12:49:22Z</time>
      </trkpt>
      <trkpt lat="49.08851" lon="1.90541">
        <ele>162.2</ele>
        <time>2022-07-31T12:49:28Z</time>
      </trkpt>
      <trkpt lat="49.08851" lon="1.90548">
        <ele>162.6</ele>
        <time>2022-07-31T12:49:33Z</time>
      </trkpt>
      <trkpt lat="49.08852" lon="1.90558">
        <ele>163.3</ele>
        <time>2022-07-31T12:49:39Z</time>
      </trkpt>
      <trkpt lat="49.0885" lon="1.90565">
        <ele>163.8</ele>
        <time>2022-07-31T12:49:44Z</time>
      </trkpt>
      <trkpt lat="49.08848" lon="1.90575">
        <ele>164.4</ele>
        <time>2022-07-31T12:49:50Z</time>
      </trkpt>
      <trkpt lat="49.08845" lon="1.90583">
        <ele>164.9</ele>
        <time>2022-07-31T12:49:55Z</time>
      </trkpt>
      <trkpt lat="49.08843" lon="1.90594">
        <ele>165.5</ele>
        <time>2022-07-31T12:50:01Z</time>
      </trkpt>
      <trkpt lat="49.08841" lon="1.90605">
        <ele>166</ele>
        <time>2022-07-31T12:50:06Z</time>
      </trkpt>
      <trkpt lat="49.08838" lon="1.90614">
        <ele>166.3</ele>
        <time>2022-07-31T12:50:11Z</time>
      </trkpt>
      <trkpt lat="49.08835" lon="1.90622">
        <ele>166.6</ele>
        <time>2022-07-31T12:50:16Z</time>
      </trkpt>
      <trkpt lat="49.08834" lon="1.90633">
        <ele>166.7</ele>
        <time>2022-07-31T12:50:21Z</time>
      </trkpt>
      <trkpt lat="49.08832" lon="1.90643">
        <ele>166.8</ele>
        <time>2022-07-31T12:50:28Z</time>
      </trkpt>
      <trkpt lat="49.08828" lon="1.90654">
        <ele>166.7</ele>
        <time>2022-07-31T12:50:33Z</time>
      </trkpt>
      <trkpt lat="49.08827" lon="1.90661">
        <ele>166.9</ele>
        <time>2022-07-31T12:50:38Z</time>
      </trkpt>
      <trkpt lat="49.08826" lon="1.90671">
        <ele>167.1</ele>
        <time>2022-07-31T12:50:44Z</time>
      </trkpt>
      <trkpt lat="49.08825" lon="1.9068">
        <ele>167</ele>
        <time>2022-07-31T12:50:49Z</time>
      </trkpt>
      <trkpt lat="49.08821" lon="1.90691">
        <ele>167</ele>
        <time>2022-07-31T12:50:55Z</time>
      </trkpt>
      <trkpt lat="49.08819" lon="1.907">
        <ele>167.1</ele>
        <time>2022-07-31T12:51:00Z</time>
      </trkpt>
      <trkpt lat="49.08817" lon="1.9071">
        <ele>167.4</ele>
        <time>2022-07-31T12:51:05Z</time>
      </trkpt>
      <trkpt lat="49.08813" lon="1.90717">
        <ele>167.7</ele>
        <time>2022-07-31T12:51:11Z</time>
      </trkpt>
      <trkpt lat="49.08809" lon="1.90724">
        <ele>167.8</ele>
        <time>2022-07-31T12:51:17Z</time>
      </trkpt>
      <trkpt lat="49.08803" lon="1.90736">
        <ele>167.9</ele>
        <time>2022-07-31T12:51:23Z</time>
      </trkpt>
      <trkpt lat="49.08801" lon="1.90746">
        <ele>168</ele>
        <time>2022-07-31T12:51:28Z</time>
      </trkpt>
      <trkpt lat="49.08799" lon="1.90756">
        <ele>168.3</ele>
        <time>2022-07-31T12:51:33Z</time>
      </trkpt>
      <trkpt lat="49.08796" lon="1.90768">
        <ele>168.6</ele>
        <time>2022-07-31T12:51:39Z</time>
      </trkpt>
      <trkpt lat="49.08794" lon="1.90773">
        <ele>168.7</ele>
        <time>2022-07-31T12:51:44Z</time>
      </trkpt>
      <trkpt lat="49.08793" lon="1.90775">
        <ele>168.8</ele>
        <time>2022-07-31T12:51:50Z</time>
      </trkpt>
      <trkpt lat="49.08791" lon="1.90785">
        <ele>168.9</ele>
        <time>2022-07-31T12:51:55Z</time>
      </trkpt>
      <trkpt lat="49.08788" lon="1.90793">
        <ele>168.6</ele>
        <time>2022-07-31T12:52:01Z</time>
      </trkpt>
      <trkpt lat="49.08786" lon="1.90799">
        <ele>168.2</ele>
        <time>2022-07-31T12:52:06Z</time>
      </trkpt>
      <trkpt lat="49.08785" lon="1.90799">
        <ele>168</ele>
        <time>2022-07-31T12:52:12Z</time>
      </trkpt>
      <trkpt lat="49.08785" lon="1.90799">
        <ele>168</ele>
        <time>2022-07-31T12:52:17Z</time>
      </trkpt>
      <trkpt lat="49.08785" lon="1.90799">
        <ele>168</ele>
        <time>2022-07-31T12:52:22Z</time>
      </trkpt>
      <trkpt lat="49.08785" lon="1.90799">
        <ele>167.9</ele>
        <time>2022-07-31T12:52:28Z</time>
      </trkpt>
      <trkpt lat="49.08785" lon="1.90799">
        <ele>167.9</ele>
        <time>2022-07-31T12:52:33Z</time>
      </trkpt>
      <trkpt lat="49.08785" lon="1.90799">
        <ele>167.9</ele>
        <time>2022-07-31T12:52:39Z</time>
      </trkpt>
      <trkpt lat="49.08785" lon="1.908">
        <ele>167.8</ele>
        <time>2022-07-31T12:52:44Z</time>
      </trkpt>
      <trkpt lat="49.08785" lon="1.90801">
        <ele>167.7</ele>
        <time>2022-07-31T12:52:50Z</time>
      </trkpt>
      <trkpt lat="49.08785" lon="1.90804">
        <ele>167.8</ele>
        <time>2022-07-31T12:52:55Z</time>
      </trkpt>
      <trkpt lat="49.08785" lon="1.90816">
        <ele>168.2</ele>
        <time>2022-07-31T12:53:01Z</time>
      </trkpt>
      <trkpt lat="49.08783" lon="1.90824">
        <ele>168.5</ele>
        <time>2022-07-31T12:53:06Z</time>
      </trkpt>
      <trkpt lat="49.0878" lon="1.90833">
        <ele>168.7</ele>
        <time>2022-07-31T12:53:11Z</time>
      </trkpt>
      <trkpt lat="49.08778" lon="1.90846">
        <ele>168.9</ele>
        <time>2022-07-31T12:53:17Z</time>
      </trkpt>
      <trkpt lat="49.08777" lon="1.90855">
        <ele>168.8</ele>
        <time>2022-07-31T12:53:22Z</time>
      </trkpt>
      <trkpt lat="49.08775" lon="1.90866">
        <ele>168.8</ele>
        <time>2022-07-31T12:53:27Z</time>
      </trkpt>
      <trkpt lat="49.08773" lon="1.90878">
        <ele>168.9</ele>
        <time>2022-07-31T12:53:33Z</time>
      </trkpt>
      <trkpt lat="49.08771" lon="1.90888">
        <ele>168.8</ele>
        <time>2022-07-31T12:53:39Z</time>
      </trkpt>
      <trkpt lat="49.08769" lon="1.90899">
        <ele>169.1</ele>
        <time>2022-07-31T12:53:44Z</time>
      </trkpt>
      <trkpt lat="49.08766" lon="1.90909">
        <ele>169.4</ele>
        <time>2022-07-31T12:53:49Z</time>
      </trkpt>
      <trkpt lat="49.08764" lon="1.90921">
        <ele>169.7</ele>
        <time>2022-07-31T12:53:54Z</time>
      </trkpt>
      <trkpt lat="49.08761" lon="1.90934">
        <ele>169.9</ele>
        <time>2022-07-31T12:54:00Z</time>
      </trkpt>
      <trkpt lat="49.08759" lon="1.90946">
        <ele>169.8</ele>
        <time>2022-07-31T12:54:06Z</time>
      </trkpt>
      <trkpt lat="49.08758" lon="1.90959">
        <ele>169.8</ele>
        <time>2022-07-31T12:54:12Z</time>
      </trkpt>
      <trkpt lat="49.08756" lon="1.90972">
        <ele>169.8</ele>
        <time>2022-07-31T12:54:18Z</time>
      </trkpt>
      <trkpt lat="49.08754" lon="1.90984">
        <ele>169.8</ele>
        <time>2022-07-31T12:54:24Z</time>
      </trkpt>
      <trkpt lat="49.08753" lon="1.90995">
        <ele>169.9</ele>
        <time>2022-07-31T12:54:30Z</time>
      </trkpt>
      <trkpt lat="49.08751" lon="1.91007">
        <ele>170</ele>
        <time>2022-07-31T12:54:36Z</time>
      </trkpt>
      <trkpt lat="49.08748" lon="1.91019">
        <ele>170.1</ele>
        <time>2022-07-31T12:54:42Z</time>
      </trkpt>
      <trkpt lat="49.08745" lon="1.9103">
        <ele>170.2</ele>
        <time>2022-07-31T12:54:48Z</time>
      </trkpt>
      <trkpt lat="49.08742" lon="1.91042">
        <ele>170.1</ele>
        <time>2022-07-31T12:54:53Z</time>
      </trkpt>
      <trkpt lat="49.08739" lon="1.91053">
        <ele>169.8</ele>
        <time>2022-07-31T12:54:59Z</time>
      </trkpt>
      <trkpt lat="49.08736" lon="1.91064">
        <ele>169.6</ele>
        <time>2022-07-31T12:55:05Z</time>
      </trkpt>
      <trkpt lat="49.08732" lon="1.91074">
        <ele>169.1</ele>
        <time>2022-07-31T12:55:11Z</time>
      </trkpt>
      <trkpt lat="49.08727" lon="1.91085">
        <ele>168.7</ele>
        <time>2022-07-31T12:55:17Z</time>
      </trkpt>
      <trkpt lat="49.08723" lon="1.91095">
        <ele>168.3</ele>
        <time>2022-07-31T12:55:23Z</time>
      </trkpt>
      <trkpt lat="49.08718" lon="1.91104">
        <ele>168.2</ele>
        <time>2022-07-31T12:55:29Z</time>
      </trkpt>
      <trkpt lat="49.08713" lon="1.91113">
        <ele>168</ele>
        <time>2022-07-31T12:55:35Z</time>
      </trkpt>
      <trkpt lat="49.08709" lon="1.91123">
        <ele>167.8</ele>
        <time>2022-07-31T12:55:40Z</time>
      </trkpt>
      <trkpt lat="49.08704" lon="1.91132">
        <ele>167.7</ele>
        <time>2022-07-31T12:55:45Z</time>
      </trkpt>
      <trkpt lat="49.087" lon="1.9114">
        <ele>167.4</ele>
        <time>2022-07-31T12:55:51Z</time>
      </trkpt>
      <trkpt lat="49.08695" lon="1.91152">
        <ele>167.1</ele>
        <time>2022-07-31T12:55:57Z</time>
      </trkpt>
      <trkpt lat="49.08689" lon="1.91163">
        <ele>166.6</ele>
        <time>2022-07-31T12:56:03Z</time>
      </trkpt>
      <trkpt lat="49.08685" lon="1.91172">
        <ele>166.2</ele>
        <time>2022-07-31T12:56:09Z</time>
      </trkpt>
      <trkpt lat="49.08681" lon="1.91185">
        <ele>166</ele>
        <time>2022-07-31T12:56:15Z</time>
      </trkpt>
      <trkpt lat="49.08678" lon="1.91193">
        <ele>165.9</ele>
        <time>2022-07-31T12:56:20Z</time>
      </trkpt>
      <trkpt lat="49.08672" lon="1.91203">
        <ele>165.9</ele>
        <time>2022-07-31T12:56:26Z</time>
      </trkpt>
      <trkpt lat="49.08667" lon="1.91214">
        <ele>166</ele>
        <time>2022-07-31T12:56:32Z</time>
      </trkpt>
      <trkpt lat="49.08662" lon="1.91223">
        <ele>166</ele>
        <time>2022-07-31T12:56:38Z</time>
      </trkpt>
      <trkpt lat="49.08657" lon="1.91232">
        <ele>165.9</ele>
        <time>2022-07-31T12:56:43Z</time>
      </trkpt>
      <trkpt lat="49.08652" lon="1.91241">
        <ele>165.8</ele>
        <time>2022-07-31T12:56:49Z</time>
      </trkpt>
      <trkpt lat="49.08649" lon="1.91252">
        <ele>165.9</ele>
        <time>2022-07-31T12:56:55Z</time>
      </trkpt>
      <trkpt lat="49.08645" lon="1.91261">
        <ele>166.2</ele>
        <time>2022-07-31T12:57:00Z</time>
      </trkpt>
      <trkpt lat="49.08642" lon="1.9127">
        <ele>166.4</ele>
        <time>2022-07-31T12:57:05Z</time>
      </trkpt>
      <trkpt lat="49.08637" lon="1.91282">
        <ele>166.6</ele>
        <time>2022-07-31T12:57:11Z</time>
      </trkpt>
      <trkpt lat="49.08633" lon="1.91294">
        <ele>166.7</ele>
        <time>2022-07-31T12:57:17Z</time>
      </trkpt>
      <trkpt lat="49.0863" lon="1.91302">
        <ele>166.7</ele>
        <time>2022-07-31T12:57:22Z</time>
      </trkpt>
      <trkpt lat="49.08627" lon="1.9131">
        <ele>166.7</ele>
        <time>2022-07-31T12:57:27Z</time>
      </trkpt>
      <trkpt lat="49.08623" lon="1.91323">
        <ele>166.6</ele>
        <time>2022-07-31T12:57:33Z</time>
      </trkpt>
      <trkpt lat="49.0862" lon="1.91336">
        <ele>166.3</ele>
        <time>2022-07-31T12:57:39Z</time>
      </trkpt>
      <trkpt lat="49.08618" lon="1.91348">
        <ele>166</ele>
        <time>2022-07-31T12:57:45Z</time>
      </trkpt>
      <trkpt lat="49.08616" lon="1.91359">
        <ele>165.8</ele>
        <time>2022-07-31T12:57:50Z</time>
      </trkpt>
      <trkpt lat="49.08614" lon="1.91372">
        <ele>165.3</ele>
        <time>2022-07-31T12:57:56Z</time>
      </trkpt>
      <trkpt lat="49.08611" lon="1.91383">
        <ele>164.8</ele>
        <time>2022-07-31T12:58:02Z</time>
      </trkpt>
      <trkpt lat="49.0861" lon="1.91394">
        <ele>164.4</ele>
        <time>2022-07-31T12:58:07Z</time>
      </trkpt>
      <trkpt lat="49.08607" lon="1.91408">
        <ele>164</ele>
        <time>2022-07-31T12:58:13Z</time>
      </trkpt>
      <trkpt lat="49.08606" lon="1.91419">
        <ele>163.9</ele>
        <time>2022-07-31T12:58:18Z</time>
      </trkpt>
      <trkpt lat="49.08604" lon="1.91429">
        <ele>164</ele>
        <time>2022-07-31T12:58:24Z</time>
      </trkpt>
      <trkpt lat="49.08601" lon="1.91443">
        <ele>164</ele>
        <time>2022-07-31T12:58:30Z</time>
      </trkpt>
      <trkpt lat="49.08598" lon="1.91452">
        <ele>163.9</ele>
        <time>2022-07-31T12:58:35Z</time>
      </trkpt>
      <trkpt lat="49.08595" lon="1.9146">
        <ele>164</ele>
        <time>2022-07-31T12:58:41Z</time>
      </trkpt>
      <trkpt lat="49.08592" lon="1.91469">
        <ele>164</ele>
        <time>2022-07-31T12:58:47Z</time>
      </trkpt>
      <trkpt lat="49.08591" lon="1.91479">
        <ele>164</ele>
        <time>2022-07-31T12:58:53Z</time>
      </trkpt>
      <trkpt lat="49.08589" lon="1.91488">
        <ele>164</ele>
        <time>2022-07-31T12:58:58Z</time>
      </trkpt>
      <trkpt lat="49.08585" lon="1.91499">
        <ele>164</ele>
        <time>2022-07-31T12:59:04Z</time>
      </trkpt>
      <trkpt lat="49.08581" lon="1.91509">
        <ele>164</ele>
        <time>2022-07-31T12:59:09Z</time>
      </trkpt>
      <trkpt lat="49.08578" lon="1.91521">
        <ele>163.7</ele>
        <time>2022-07-31T12:59:15Z</time>
      </trkpt>
      <trkpt lat="49.08576" lon="1.91529">
        <ele>163.4</ele>
        <time>2022-07-31T12:59:20Z</time>
      </trkpt>
      <trkpt lat="49.08573" lon="1.9154">
        <ele>163.3</ele>
        <time>2022-07-31T12:59:26Z</time>
      </trkpt>
      <trkpt lat="49.0857" lon="1.91554">
        <ele>162.9</ele>
        <time>2022-07-31T12:59:32Z</time>
      </trkpt>
      <trkpt lat="49.0857" lon="1.91562">
        <ele>162.5</ele>
        <time>2022-07-31T12:59:37Z</time>
      </trkpt>
      <trkpt lat="49.08564" lon="1.91572">
        <ele>162.3</ele>
        <time>2022-07-31T12:59:43Z</time>
      </trkpt>
      <trkpt lat="49.08561" lon="1.91581">
        <ele>162.3</ele>
        <time>2022-07-31T12:59:48Z</time>
      </trkpt>
      <trkpt lat="49.08556" lon="1.91594">
        <ele>162.4</ele>
        <time>2022-07-31T12:59:54Z</time>
      </trkpt>
      <trkpt lat="49.08553" lon="1.91603">
        <ele>162.3</ele>
        <time>2022-07-31T12:59:59Z</time>
      </trkpt>
      <trkpt lat="49.08548" lon="1.91612">
        <ele>162.2</ele>
        <time>2022-07-31T13:00:04Z</time>
      </trkpt>
      <trkpt lat="49.08545" lon="1.9162">
        <ele>162.2</ele>
        <time>2022-07-31T13:00:09Z</time>
      </trkpt>
      <trkpt lat="49.08541" lon="1.9163">
        <ele>162.3</ele>
        <time>2022-07-31T13:00:15Z</time>
      </trkpt>
      <trkpt lat="49.08539" lon="1.9164">
        <ele>162.3</ele>
        <time>2022-07-31T13:00:20Z</time>
      </trkpt>
      <trkpt lat="49.08534" lon="1.9165">
        <ele>162.3</ele>
        <time>2022-07-31T13:00:26Z</time>
      </trkpt>
      <trkpt lat="49.0853" lon="1.91661">
        <ele>162.3</ele>
        <time>2022-07-31T13:00:31Z</time>
      </trkpt>
      <trkpt lat="49.08527" lon="1.91671">
        <ele>162.2</ele>
        <time>2022-07-31T13:00:36Z</time>
      </trkpt>
      <trkpt lat="49.08525" lon="1.91683">
        <ele>162.3</ele>
        <time>2022-07-31T13:00:42Z</time>
      </trkpt>
      <trkpt lat="49.08521" lon="1.91693">
        <ele>162.6</ele>
        <time>2022-07-31T13:00:47Z</time>
      </trkpt>
      <trkpt lat="49.08518" lon="1.91702">
        <ele>162.9</ele>
        <time>2022-07-31T13:00:52Z</time>
      </trkpt>
      <trkpt lat="49.08514" lon="1.91713">
        <ele>163.3</ele>
        <time>2022-07-31T13:00:58Z</time>
      </trkpt>
      <trkpt lat="49.08508" lon="1.91724">
        <ele>163.1</ele>
        <time>2022-07-31T13:01:04Z</time>
      </trkpt>
      <trkpt lat="49.08504" lon="1.91736">
        <ele>162.7</ele>
        <time>2022-07-31T13:01:10Z</time>
      </trkpt>
      <trkpt lat="49.08499" lon="1.91744">
        <ele>162.2</ele>
        <time>2022-07-31T13:01:15Z</time>
      </trkpt>
      <trkpt lat="49.08493" lon="1.91751">
        <ele>162</ele>
        <time>2022-07-31T13:01:20Z</time>
      </trkpt>
      <trkpt lat="49.08488" lon="1.91762">
        <ele>161.9</ele>
        <time>2022-07-31T13:01:26Z</time>
      </trkpt>
      <trkpt lat="49.08482" lon="1.91773">
        <ele>161.8</ele>
        <time>2022-07-31T13:01:32Z</time>
      </trkpt>
      <trkpt lat="49.08478" lon="1.91777">
        <ele>162.1</ele>
        <time>2022-07-31T13:01:37Z</time>
      </trkpt>
      <trkpt lat="49.08479" lon="1.91781">
        <ele>162.5</ele>
        <time>2022-07-31T13:01:42Z</time>
      </trkpt>
      <trkpt lat="49.08477" lon="1.91787">
        <ele>163.3</ele>
        <time>2022-07-31T13:01:48Z</time>
      </trkpt>
      <trkpt lat="49.08474" lon="1.91795">
        <ele>163.8</ele>
        <time>2022-07-31T13:01:53Z</time>
      </trkpt>
      <trkpt lat="49.08469" lon="1.91804">
        <ele>164.3</ele>
        <time>2022-07-31T13:01:59Z</time>
      </trkpt>
      <trkpt lat="49.08466" lon="1.91811">
        <ele>164.8</ele>
        <time>2022-07-31T13:02:04Z</time>
      </trkpt>
      <trkpt lat="49.08461" lon="1.91823">
        <ele>165.4</ele>
        <time>2022-07-31T13:02:10Z</time>
      </trkpt>
      <trkpt lat="49.08456" lon="1.91831">
        <ele>166.1</ele>
        <time>2022-07-31T13:02:15Z</time>
      </trkpt>
      <trkpt lat="49.08451" lon="1.91839">
        <ele>166.9</ele>
        <time>2022-07-31T13:02:21Z</time>
      </trkpt>
      <trkpt lat="49.08446" lon="1.91853">
        <ele>167.2</ele>
        <time>2022-07-31T13:02:27Z</time>
      </trkpt>
      <trkpt lat="49.08442" lon="1.91862">
        <ele>167.3</ele>
        <time>2022-07-31T13:02:32Z</time>
      </trkpt>
      <trkpt lat="49.08439" lon="1.9187">
        <ele>167.4</ele>
        <time>2022-07-31T13:02:37Z</time>
      </trkpt>
      <trkpt lat="49.08434" lon="1.91881">
        <ele>167.5</ele>
        <time>2022-07-31T13:02:42Z</time>
      </trkpt>
      <trkpt lat="49.0843" lon="1.91893">
        <ele>167.3</ele>
        <time>2022-07-31T13:02:48Z</time>
      </trkpt>
      <trkpt lat="49.08425" lon="1.91901">
        <ele>167</ele>
        <time>2022-07-31T13:02:53Z</time>
      </trkpt>
      <trkpt lat="49.08421" lon="1.91912">
        <ele>166.9</ele>
        <time>2022-07-31T13:02:59Z</time>
      </trkpt>
      <trkpt lat="49.08418" lon="1.91922">
        <ele>166.8</ele>
        <time>2022-07-31T13:03:04Z</time>
      </trkpt>
      <trkpt lat="49.08413" lon="1.91934">
        <ele>166.9</ele>
        <time>2022-07-31T13:03:10Z</time>
      </trkpt>
      <trkpt lat="49.08409" lon="1.91943">
        <ele>167</ele>
        <time>2022-07-31T13:03:15Z</time>
      </trkpt>
      <trkpt lat="49.08404" lon="1.91952">
        <ele>167.1</ele>
        <time>2022-07-31T13:03:20Z</time>
      </trkpt>
      <trkpt lat="49.084" lon="1.91962">
        <ele>167.1</ele>
        <time>2022-07-31T13:03:26Z</time>
      </trkpt>
      <trkpt lat="49.08396" lon="1.91971">
        <ele>167</ele>
        <time>2022-07-31T13:03:31Z</time>
      </trkpt>
      <trkpt lat="49.08393" lon="1.91978">
        <ele>167.2</ele>
        <time>2022-07-31T13:03:36Z</time>
      </trkpt>
      <trkpt lat="49.08387" lon="1.91986">
        <ele>167.6</ele>
        <time>2022-07-31T13:03:41Z</time>
      </trkpt>
      <trkpt lat="49.08381" lon="1.91997">
        <ele>167.8</ele>
        <time>2022-07-31T13:03:47Z</time>
      </trkpt>
      <trkpt lat="49.08377" lon="1.92005">
        <ele>168.1</ele>
        <time>2022-07-31T13:03:53Z</time>
      </trkpt>
      <trkpt lat="49.08373" lon="1.92014">
        <ele>168.4</ele>
        <time>2022-07-31T13:03:58Z</time>
      </trkpt>
      <trkpt lat="49.08367" lon="1.92023">
        <ele>168.9</ele>
        <time>2022-07-31T13:04:04Z</time>
      </trkpt>
      <trkpt lat="49.08363" lon="1.9203">
        <ele>169.3</ele>
        <time>2022-07-31T13:04:09Z</time>
      </trkpt>
      <trkpt lat="49.08357" lon="1.92041">
        <ele>169.7</ele>
        <time>2022-07-31T13:04:15Z</time>
      </trkpt>
      <trkpt lat="49.08352" lon="1.92048">
        <ele>169.6</ele>
        <time>2022-07-31T13:04:20Z</time>
      </trkpt>
      <trkpt lat="49.08347" lon="1.92058">
        <ele>169.4</ele>
        <time>2022-07-31T13:04:26Z</time>
      </trkpt>
      <trkpt lat="49.08342" lon="1.9207">
        <ele>169.5</ele>
        <time>2022-07-31T13:04:32Z</time>
      </trkpt>
      <trkpt lat="49.08337" lon="1.92078">
        <ele>169.5</ele>
        <time>2022-07-31T13:04:38Z</time>
      </trkpt>
      <trkpt lat="49.08331" lon="1.92086">
        <ele>169.6</ele>
        <time>2022-07-31T13:04:43Z</time>
      </trkpt>
      <trkpt lat="49.08327" lon="1.92095">
        <ele>169.9</ele>
        <time>2022-07-31T13:04:49Z</time>
      </trkpt>
      <trkpt lat="49.08322" lon="1.92104">
        <ele>170.3</ele>
        <time>2022-07-31T13:04:55Z</time>
      </trkpt>
      <trkpt lat="49.08317" lon="1.92113">
        <ele>170.4</ele>
        <time>2022-07-31T13:05:01Z</time>
      </trkpt>
      <trkpt lat="49.08313" lon="1.92122">
        <ele>170.3</ele>
        <time>2022-07-31T13:05:07Z</time>
      </trkpt>
      <trkpt lat="49.08308" lon="1.92132">
        <ele>170</ele>
        <time>2022-07-31T13:05:12Z</time>
      </trkpt>
      <trkpt lat="49.08303" lon="1.92143">
        <ele>169.9</ele>
        <time>2022-07-31T13:05:18Z</time>
      </trkpt>
      <trkpt lat="49.083" lon="1.92154">
        <ele>169.8</ele>
        <time>2022-07-31T13:05:23Z</time>
      </trkpt>
      <trkpt lat="49.08298" lon="1.92163">
        <ele>169.9</ele>
        <time>2022-07-31T13:05:29Z</time>
      </trkpt>
      <trkpt lat="49.08295" lon="1.92175">
        <ele>170.2</ele>
        <time>2022-07-31T13:05:35Z</time>
      </trkpt>
      <trkpt lat="49.08293" lon="1.92184">
        <ele>170.6</ele>
        <time>2022-07-31T13:05:40Z</time>
      </trkpt>
      <trkpt lat="49.08292" lon="1.92196">
        <ele>171.1</ele>
        <time>2022-07-31T13:05:45Z</time>
      </trkpt>
      <trkpt lat="49.08291" lon="1.92207">
        <ele>171.8</ele>
        <time>2022-07-31T13:05:51Z</time>
      </trkpt>
      <trkpt lat="49.08288" lon="1.92218">
        <ele>172.2</ele>
        <time>2022-07-31T13:05:57Z</time>
      </trkpt>
      <trkpt lat="49.08284" lon="1.92222">
        <ele>172.4</ele>
        <time>2022-07-31T13:06:02Z</time>
      </trkpt>
      <trkpt lat="49.08275" lon="1.92221">
        <ele>172.4</ele>
        <time>2022-07-31T13:06:08Z</time>
      </trkpt>
      <trkpt lat="49.08267" lon="1.92222">
        <ele>172.3</ele>
        <time>2022-07-31T13:06:14Z</time>
      </trkpt>
      <trkpt lat="49.08262" lon="1.92225">
        <ele>172.1</ele>
        <time>2022-07-31T13:06:19Z</time>
      </trkpt>
      <trkpt lat="49.08252" lon="1.92225">
        <ele>171.7</ele>
        <time>2022-07-31T13:06:25Z</time>
      </trkpt>
      <trkpt lat="49.08245" lon="1.92225">
        <ele>171.4</ele>
        <time>2022-07-31T13:06:30Z</time>
      </trkpt>
      <trkpt lat="49.08237" lon="1.92227">
        <ele>170.9</ele>
        <time>2022-07-31T13:06:36Z</time>
      </trkpt>
      <trkpt lat="49.08231" lon="1.92229">
        <ele>170.7</ele>
        <time>2022-07-31T13:06:41Z</time>
      </trkpt>
      <trkpt lat="49.08225" lon="1.9223">
        <ele>170.3</ele>
        <time>2022-07-31T13:06:46Z</time>
      </trkpt>
      <trkpt lat="49.08216" lon="1.9223">
        <ele>170</ele>
        <time>2022-07-31T13:06:52Z</time>
      </trkpt>
      <trkpt lat="49.08208" lon="1.92231">
        <ele>169.7</ele>
        <time>2022-07-31T13:06:57Z</time>
      </trkpt>
      <trkpt lat="49.08199" lon="1.92232">
        <ele>169.2</ele>
        <time>2022-07-31T13:07:03Z</time>
      </trkpt>
      <trkpt lat="49.08193" lon="1.92233">
        <ele>168.8</ele>
        <time>2022-07-31T13:07:08Z</time>
      </trkpt>
      <trkpt lat="49.08185" lon="1.92233">
        <ele>168.4</ele>
        <time>2022-07-31T13:07:13Z</time>
      </trkpt>
      <trkpt lat="49.08178" lon="1.92237">
        <ele>167.8</ele>
        <time>2022-07-31T13:07:19Z</time>
      </trkpt>
      <trkpt lat="49.08174" lon="1.92244">
        <ele>167.3</ele>
        <time>2022-07-31T13:07:24Z</time>
      </trkpt>
      <trkpt lat="49.08169" lon="1.9225">
        <ele>166.8</ele>
        <time>2022-07-31T13:07:29Z</time>
      </trkpt>
      <trkpt lat="49.08163" lon="1.92254">
        <ele>166.2</ele>
        <time>2022-07-31T13:07:35Z</time>
      </trkpt>
      <trkpt lat="49.08157" lon="1.92259">
        <ele>165.6</ele>
        <time>2022-07-31T13:07:40Z</time>
      </trkpt>
      <trkpt lat="49.08152" lon="1.92265">
        <ele>164.9</ele>
        <time>2022-07-31T13:07:45Z</time>
      </trkpt>
      <trkpt lat="49.08146" lon="1.92271">
        <ele>164.3</ele>
        <time>2022-07-31T13:07:50Z</time>
      </trkpt>
      <trkpt lat="49.08141" lon="1.92275">
        <ele>163.4</ele>
        <time>2022-07-31T13:07:56Z</time>
      </trkpt>
      <trkpt lat="49.08134" lon="1.92283">
        <ele>162.6</ele>
        <time>2022-07-31T13:08:02Z</time>
      </trkpt>
      <trkpt lat="49.08125" lon="1.92288">
        <ele>162.1</ele>
        <time>2022-07-31T13:08:07Z</time>
      </trkpt>
      <trkpt lat="49.08118" lon="1.92293">
        <ele>161</ele>
        <time>2022-07-31T13:08:13Z</time>
      </trkpt>
      <trkpt lat="49.0811" lon="1.92298">
        <ele>159.8</ele>
        <time>2022-07-31T13:08:19Z</time>
      </trkpt>
      <trkpt lat="49.08101" lon="1.92303">
        <ele>158.8</ele>
        <time>2022-07-31T13:08:25Z</time>
      </trkpt>
      <trkpt lat="49.08094" lon="1.92309">
        <ele>158.3</ele>
        <time>2022-07-31T13:08:31Z</time>
      </trkpt>
      <trkpt lat="49.08087" lon="1.92309">
        <ele>158</ele>
        <time>2022-07-31T13:08:36Z</time>
      </trkpt>
      <trkpt lat="49.08077" lon="1.92306">
        <ele>157.4</ele>
        <time>2022-07-31T13:08:42Z</time>
      </trkpt>
      <trkpt lat="49.08072" lon="1.92303">
        <ele>156.7</ele>
        <time>2022-07-31T13:08:47Z</time>
      </trkpt>
      <trkpt lat="49.08068" lon="1.92302">
        <ele>156.1</ele>
        <time>2022-07-31T13:08:52Z</time>
      </trkpt>
      <trkpt lat="49.0806" lon="1.92301">
        <ele>155.5</ele>
        <time>2022-07-31T13:08:57Z</time>
      </trkpt>
      <trkpt lat="49.08051" lon="1.92299">
        <ele>154.7</ele>
        <time>2022-07-31T13:09:03Z</time>
      </trkpt>
      <trkpt lat="49.08044" lon="1.92299">
        <ele>153.7</ele>
        <time>2022-07-31T13:09:08Z</time>
      </trkpt>
      <trkpt lat="49.08037" lon="1.92298">
        <ele>152.7</ele>
        <time>2022-07-31T13:09:13Z</time>
      </trkpt>
      <trkpt lat="49.08029" lon="1.92297">
        <ele>151.3</ele>
        <time>2022-07-31T13:09:19Z</time>
      </trkpt>
      <trkpt lat="49.08022" lon="1.92295">
        <ele>149.9</ele>
        <time>2022-07-31T13:09:24Z</time>
      </trkpt>
      <trkpt lat="49.08015" lon="1.92295">
        <ele>148.5</ele>
        <time>2022-07-31T13:09:30Z</time>
      </trkpt>
      <trkpt lat="49.08007" lon="1.92298">
        <ele>147.1</ele>
        <time>2022-07-31T13:09:36Z</time>
      </trkpt>
      <trkpt lat="49.07998" lon="1.92298">
        <ele>145.9</ele>
        <time>2022-07-31T13:09:41Z</time>
      </trkpt>
      <trkpt lat="49.07992" lon="1.92294">
        <ele>144.8</ele>
        <time>2022-07-31T13:09:46Z</time>
      </trkpt>
      <trkpt lat="49.07986" lon="1.92293">
        <ele>143.7</ele>
        <time>2022-07-31T13:09:52Z</time>
      </trkpt>
      <trkpt lat="49.07978" lon="1.92294">
        <ele>142.9</ele>
        <time>2022-07-31T13:09:58Z</time>
      </trkpt>
      <trkpt lat="49.0797" lon="1.92293">
        <ele>142.4</ele>
        <time>2022-07-31T13:10:03Z</time>
      </trkpt>
      <trkpt lat="49.07964" lon="1.92293">
        <ele>141.6</ele>
        <time>2022-07-31T13:10:09Z</time>
      </trkpt>
      <trkpt lat="49.07957" lon="1.92291">
        <ele>140.7</ele>
        <time>2022-07-31T13:10:14Z</time>
      </trkpt>
      <trkpt lat="49.07946" lon="1.9229">
        <ele>139.6</ele>
        <time>2022-07-31T13:10:20Z</time>
      </trkpt>
      <trkpt lat="49.07939" lon="1.9229">
        <ele>138.5</ele>
        <time>2022-07-31T13:10:26Z</time>
      </trkpt>
      <trkpt lat="49.07932" lon="1.92289">
        <ele>137.6</ele>
        <time>2022-07-31T13:10:32Z</time>
      </trkpt>
      <trkpt lat="49.07925" lon="1.92288">
        <ele>137.1</ele>
        <time>2022-07-31T13:10:37Z</time>
      </trkpt>
      <trkpt lat="49.07916" lon="1.92287">
        <ele>136</ele>
        <time>2022-07-31T13:10:43Z</time>
      </trkpt>
      <trkpt lat="49.0791" lon="1.92285">
        <ele>135.3</ele>
        <time>2022-07-31T13:10:48Z</time>
      </trkpt>
      <trkpt lat="49.07905" lon="1.92283">
        <ele>134.6</ele>
        <time>2022-07-31T13:10:53Z</time>
      </trkpt>
      <trkpt lat="49.07894" lon="1.92279">
        <ele>133.9</ele>
        <time>2022-07-31T13:10:59Z</time>
      </trkpt>
      <trkpt lat="49.07886" lon="1.92276">
        <ele>133.3</ele>
        <time>2022-07-31T13:11:04Z</time>
      </trkpt>
      <trkpt lat="49.0788" lon="1.92272">
        <ele>132.8</ele>
        <time>2022-07-31T13:11:09Z</time>
      </trkpt>
      <trkpt lat="49.07873" lon="1.9227">
        <ele>132.2</ele>
        <time>2022-07-31T13:11:15Z</time>
      </trkpt>
      <trkpt lat="49.07866" lon="1.92269">
        <ele>131.9</ele>
        <time>2022-07-31T13:11:20Z</time>
      </trkpt>
      <trkpt lat="49.07859" lon="1.92266">
        <ele>131.4</ele>
        <time>2022-07-31T13:11:26Z</time>
      </trkpt>
      <trkpt lat="49.07853" lon="1.92262">
        <ele>131.1</ele>
        <time>2022-07-31T13:11:31Z</time>
      </trkpt>
      <trkpt lat="49.07847" lon="1.92268">
        <ele>130.6</ele>
        <time>2022-07-31T13:11:37Z</time>
      </trkpt>
      <trkpt lat="49.07845" lon="1.9228">
        <ele>129.5</ele>
        <time>2022-07-31T13:11:43Z</time>
      </trkpt>
      <trkpt lat="49.07847" lon="1.92287">
        <ele>128.8</ele>
        <time>2022-07-31T13:11:48Z</time>
      </trkpt>
      <trkpt lat="49.07842" lon="1.92295">
        <ele>127.5</ele>
        <time>2022-07-31T13:11:54Z</time>
      </trkpt>
      <trkpt lat="49.07839" lon="1.92309">
        <ele>126.6</ele>
        <time>2022-07-31T13:11:59Z</time>
      </trkpt>
      <trkpt lat="49.07836" lon="1.92325">
        <ele>125.7</ele>
        <time>2022-07-31T13:12:05Z</time>
      </trkpt>
      <trkpt lat="49.07833" lon="1.92336">
        <ele>125.1</ele>
        <time>2022-07-31T13:12:10Z</time>
      </trkpt>
      <trkpt lat="49.07832" lon="1.92349">
        <ele>124.6</ele>
        <time>2022-07-31T13:12:16Z</time>
      </trkpt>
      <trkpt lat="49.07831" lon="1.9236">
        <ele>124.4</ele>
        <time>2022-07-31T13:12:21Z</time>
      </trkpt>
      <trkpt lat="49.07829" lon="1.92375">
        <ele>124.3</ele>
        <time>2022-07-31T13:12:27Z</time>
      </trkpt>
      <trkpt lat="49.07827" lon="1.9239">
        <ele>124.4</ele>
        <time>2022-07-31T13:12:33Z</time>
      </trkpt>
      <trkpt lat="49.07826" lon="1.924">
        <ele>124.5</ele>
        <time>2022-07-31T13:12:38Z</time>
      </trkpt>
      <trkpt lat="49.07825" lon="1.92411">
        <ele>124.6</ele>
        <time>2022-07-31T13:12:43Z</time>
      </trkpt>
      <trkpt lat="49.07824" lon="1.92422">
        <ele>124.6</ele>
        <time>2022-07-31T13:12:49Z</time>
      </trkpt>
      <trkpt lat="49.07822" lon="1.92427">
        <ele>124.6</ele>
        <time>2022-07-31T13:12:54Z</time>
      </trkpt>
      <trkpt lat="49.07817" lon="1.92435">
        <ele>124.5</ele>
        <time>2022-07-31T13:13:00Z</time>
      </trkpt>
      <trkpt lat="49.07813" lon="1.92446">
        <ele>124.4</ele>
        <time>2022-07-31T13:13:05Z</time>
      </trkpt>
      <trkpt lat="49.07809" lon="1.92456">
        <ele>124.2</ele>
        <time>2022-07-31T13:13:11Z</time>
      </trkpt>
      <trkpt lat="49.07807" lon="1.92467">
        <ele>123.7</ele>
        <time>2022-07-31T13:13:17Z</time>
      </trkpt>
      <trkpt lat="49.07805" lon="1.92479">
        <ele>123.2</ele>
        <time>2022-07-31T13:13:23Z</time>
      </trkpt>
      <trkpt lat="49.07802" lon="1.9249">
        <ele>122.6</ele>
        <time>2022-07-31T13:13:29Z</time>
      </trkpt>
      <trkpt lat="49.078" lon="1.92501">
        <ele>122.2</ele>
        <time>2022-07-31T13:13:35Z</time>
      </trkpt>
      <trkpt lat="49.07798" lon="1.92513">
        <ele>122.1</ele>
        <time>2022-07-31T13:13:41Z</time>
      </trkpt>
      <trkpt lat="49.07796" lon="1.92524">
        <ele>122.1</ele>
        <time>2022-07-31T13:13:46Z</time>
      </trkpt>
      <trkpt lat="49.07793" lon="1.92534">
        <ele>122.1</ele>
        <time>2022-07-31T13:13:51Z</time>
      </trkpt>
      <trkpt lat="49.07789" lon="1.92546">
        <ele>122.3</ele>
        <time>2022-07-31T13:13:57Z</time>
      </trkpt>
      <trkpt lat="49.07785" lon="1.92555">
        <ele>122.4</ele>
        <time>2022-07-31T13:14:03Z</time>
      </trkpt>
      <trkpt lat="49.07783" lon="1.92563">
        <ele>122.3</ele>
        <time>2022-07-31T13:14:08Z</time>
      </trkpt>
      <trkpt lat="49.07779" lon="1.92574">
        <ele>122.1</ele>
        <time>2022-07-31T13:14:14Z</time>
      </trkpt>
      <trkpt lat="49.07775" lon="1.92583">
        <ele>121.8</ele>
        <time>2022-07-31T13:14:19Z</time>
      </trkpt>
      <trkpt lat="49.07769" lon="1.92592">
        <ele>121.4</ele>
        <time>2022-07-31T13:14:25Z</time>
      </trkpt>
      <trkpt lat="49.07765" lon="1.92604">
        <ele>121.1</ele>
        <time>2022-07-31T13:14:31Z</time>
      </trkpt>
      <trkpt lat="49.07763" lon="1.92614">
        <ele>120.9</ele>
        <time>2022-07-31T13:14:36Z</time>
      </trkpt>
      <trkpt lat="49.07761" lon="1.92628">
        <ele>120.6</ele>
        <time>2022-07-31T13:14:42Z</time>
      </trkpt>
      <trkpt lat="49.07757" lon="1.9264">
        <ele>120.4</ele>
        <time>2022-07-31T13:14:48Z</time>
      </trkpt>
      <trkpt lat="49.07754" lon="1.9265">
        <ele>120.4</ele>
        <time>2022-07-31T13:14:53Z</time>
      </trkpt>
      <trkpt lat="49.07753" lon="1.92662">
        <ele>120.7</ele>
        <time>2022-07-31T13:14:59Z</time>
      </trkpt>
      <trkpt lat="49.07751" lon="1.92664">
        <ele>121.3</ele>
        <time>2022-07-31T13:15:04Z</time>
      </trkpt>
      <trkpt lat="49.07747" lon="1.92663">
        <ele>122.1</ele>
        <time>2022-07-31T13:15:10Z</time>
      </trkpt>
      <trkpt lat="49.07745" lon="1.92661">
        <ele>122.6</ele>
        <time>2022-07-31T13:15:15Z</time>
      </trkpt>
      <trkpt lat="49.07742" lon="1.92659">
        <ele>123.1</ele>
        <time>2022-07-31T13:15:21Z</time>
      </trkpt>
      <trkpt lat="49.07741" lon="1.92659">
        <ele>123.7</ele>
        <time>2022-07-31T13:15:27Z</time>
      </trkpt>
      <trkpt lat="49.07741" lon="1.92659">
        <ele>123.9</ele>
        <time>2022-07-31T13:15:33Z</time>
      </trkpt>
      <trkpt lat="49.07742" lon="1.92658">
        <ele>124</ele>
        <time>2022-07-31T13:15:39Z</time>
      </trkpt>
      <trkpt lat="49.07743" lon="1.92657">
        <ele>124.2</ele>
        <time>2022-07-31T13:15:44Z</time>
      </trkpt>
      <trkpt lat="49.07742" lon="1.92657">
        <ele>124.4</ele>
        <time>2022-07-31T13:15:49Z</time>
      </trkpt>
      <trkpt lat="49.07742" lon="1.92656">
        <ele>124.4</ele>
        <time>2022-07-31T13:15:55Z</time>
      </trkpt>
      <trkpt lat="49.07741" lon="1.92655">
        <ele>124.5</ele>
        <time>2022-07-31T13:16:01Z</time>
      </trkpt>
      <trkpt lat="49.07741" lon="1.92655">
        <ele>124.7</ele>
        <time>2022-07-31T13:16:07Z</time>
      </trkpt>
      <trkpt lat="49.07741" lon="1.92655">
        <ele>124.8</ele>
        <time>2022-07-31T13:16:13Z</time>
      </trkpt>
      <trkpt lat="49.07741" lon="1.92655">
        <ele>124.8</ele>
        <time>2022-07-31T13:16:18Z</time>
      </trkpt>
      <trkpt lat="49.07741" lon="1.92654">
        <ele>125</ele>
        <time>2022-07-31T13:16:24Z</time>
      </trkpt>
      <trkpt lat="49.07742" lon="1.92653">
        <ele>125.4</ele>
        <time>2022-07-31T13:16:30Z</time>
      </trkpt>
      <trkpt lat="49.07742" lon="1.92653">
        <ele>125.8</ele>
        <time>2022-07-31T13:16:35Z</time>
      </trkpt>
      <trkpt lat="49.07741" lon="1.92656">
        <ele>125.9</ele>
        <time>2022-07-31T13:16:41Z</time>
      </trkpt>
      <trkpt lat="49.07741" lon="1.92657">
        <ele>125.9</ele>
        <time>2022-07-31T13:16:47Z</time>
      </trkpt>
      <trkpt lat="49.0774" lon="1.92657">
        <ele>125.7</ele>
        <time>2022-07-31T13:16:53Z</time>
      </trkpt>
      <trkpt lat="49.0774" lon="1.92656">
        <ele>125.7</ele>
        <time>2022-07-31T13:16:59Z</time>
      </trkpt>
      <trkpt lat="49.07741" lon="1.92655">
        <ele>125.6</ele>
        <time>2022-07-31T13:17:04Z</time>
      </trkpt>
      <trkpt lat="49.07741" lon="1.92655">
        <ele>125.5</ele>
        <time>2022-07-31T13:17:10Z</time>
      </trkpt>
      <trkpt lat="49.07741" lon="1.92655">
        <ele>125.5</ele>
        <time>2022-07-31T13:17:15Z</time>
      </trkpt>
      <trkpt lat="49.07741" lon="1.92654">
        <ele>125.4</ele>
        <time>2022-07-31T13:17:21Z</time>
      </trkpt>
      <trkpt lat="49.07741" lon="1.92654">
        <ele>125.4</ele>
        <time>2022-07-31T13:17:26Z</time>
      </trkpt>
      <trkpt lat="49.07741" lon="1.92653">
        <ele>125.4</ele>
        <time>2022-07-31T13:17:32Z</time>
      </trkpt>
      <trkpt lat="49.07741" lon="1.92653">
        <ele>125.4</ele>
        <time>2022-07-31T13:17:37Z</time>
      </trkpt>
      <trkpt lat="49.07741" lon="1.92652">
        <ele>125.4</ele>
        <time>2022-07-31T13:17:43Z</time>
      </trkpt>
      <trkpt lat="49.07741" lon="1.92652">
        <ele>125.3</ele>
        <time>2022-07-31T13:17:48Z</time>
      </trkpt>
      <trkpt lat="49.07741" lon="1.92652">
        <ele>125.3</ele>
        <time>2022-07-31T13:17:54Z</time>
      </trkpt>
      <trkpt lat="49.07741" lon="1.92651">
        <ele>125.3</ele>
        <time>2022-07-31T13:17:59Z</time>
      </trkpt>
      <trkpt lat="49.07741" lon="1.92651">
        <ele>125.2</ele>
        <time>2022-07-31T13:18:05Z</time>
      </trkpt>
      <trkpt lat="49.07741" lon="1.92651">
        <ele>125.2</ele>
        <time>2022-07-31T13:18:10Z</time>
      </trkpt>
      <trkpt lat="49.07741" lon="1.92651">
        <ele>125.1</ele>
        <time>2022-07-31T13:18:16Z</time>
      </trkpt>
      <trkpt lat="49.07741" lon="1.92651">
        <ele>125.1</ele>
        <time>2022-07-31T13:18:21Z</time>
      </trkpt>
      <trkpt lat="49.07741" lon="1.9265">
        <ele>125</ele>
        <time>2022-07-31T13:18:27Z</time>
      </trkpt>
      <trkpt lat="49.0774" lon="1.9265">
        <ele>124.9</ele>
        <time>2022-07-31T13:18:32Z</time>
      </trkpt>
      <trkpt lat="49.07739" lon="1.92651">
        <ele>124.9</ele>
        <time>2022-07-31T13:18:38Z</time>
      </trkpt>
      <trkpt lat="49.07739" lon="1.92652">
        <ele>124.7</ele>
        <time>2022-07-31T13:18:43Z</time>
      </trkpt>
      <trkpt lat="49.07736" lon="1.92654">
        <ele>124.5</ele>
        <time>2022-07-31T13:18:49Z</time>
      </trkpt>
      <trkpt lat="49.07737" lon="1.92654">
        <ele>124.3</ele>
        <time>2022-07-31T13:18:54Z</time>
      </trkpt>
      <trkpt lat="49.07739" lon="1.92657">
        <ele>123.9</ele>
        <time>2022-07-31T13:19:00Z</time>
      </trkpt>
      <trkpt lat="49.07741" lon="1.92661">
        <ele>123.3</ele>
        <time>2022-07-31T13:19:06Z</time>
      </trkpt>
      <trkpt lat="49.07744" lon="1.92664">
        <ele>122.7</ele>
        <time>2022-07-31T13:19:12Z</time>
      </trkpt>
      <trkpt lat="49.07748" lon="1.92665">
        <ele>122.3</ele>
        <time>2022-07-31T13:19:18Z</time>
      </trkpt>
      <trkpt lat="49.07751" lon="1.92666">
        <ele>122</ele>
        <time>2022-07-31T13:19:23Z</time>
      </trkpt>
      <trkpt lat="49.07752" lon="1.92668">
        <ele>121.8</ele>
        <time>2022-07-31T13:19:28Z</time>
      </trkpt>
      <trkpt lat="49.07751" lon="1.92674">
        <ele>121.6</ele>
        <time>2022-07-31T13:19:33Z</time>
      </trkpt>
      <trkpt lat="49.07747" lon="1.92683">
        <ele>121.2</ele>
        <time>2022-07-31T13:19:39Z</time>
      </trkpt>
      <trkpt lat="49.07743" lon="1.92692">
        <ele>120.8</ele>
        <time>2022-07-31T13:19:44Z</time>
      </trkpt>
      <trkpt lat="49.0774" lon="1.92703">
        <ele>120.5</ele>
        <time>2022-07-31T13:19:50Z</time>
      </trkpt>
      <trkpt lat="49.07737" lon="1.92714">
        <ele>120.2</ele>
        <time>2022-07-31T13:19:56Z</time>
      </trkpt>
      <trkpt lat="49.07733" lon="1.92723">
        <ele>119.8</ele>
        <time>2022-07-31T13:20:02Z</time>
      </trkpt>
      <trkpt lat="49.07729" lon="1.92724">
        <ele>119.5</ele>
        <time>2022-07-31T13:20:07Z</time>
      </trkpt>
      <trkpt lat="49.07725" lon="1.92725">
        <ele>119.4</ele>
        <time>2022-07-31T13:20:12Z</time>
      </trkpt>
      <trkpt lat="49.07718" lon="1.92723">
        <ele>119.5</ele>
        <time>2022-07-31T13:20:18Z</time>
      </trkpt>
      <trkpt lat="49.07713" lon="1.92721">
        <ele>119.8</ele>
        <time>2022-07-31T13:20:23Z</time>
      </trkpt>
      <trkpt lat="49.07706" lon="1.92718">
        <ele>120</ele>
        <time>2022-07-31T13:20:29Z</time>
      </trkpt>
      <trkpt lat="49.077" lon="1.92718">
        <ele>120</ele>
        <time>2022-07-31T13:20:34Z</time>
      </trkpt>
      <trkpt lat="49.07692" lon="1.92721">
        <ele>119.8</ele>
        <time>2022-07-31T13:20:40Z</time>
      </trkpt>
      <trkpt lat="49.07687" lon="1.92723">
        <ele>119.4</ele>
        <time>2022-07-31T13:20:45Z</time>
      </trkpt>
      <trkpt lat="49.07679" lon="1.92722">
        <ele>118.9</ele>
        <time>2022-07-31T13:20:51Z</time>
      </trkpt>
      <trkpt lat="49.07671" lon="1.9272">
        <ele>118.4</ele>
        <time>2022-07-31T13:20:57Z</time>
      </trkpt>
      <trkpt lat="49.07664" lon="1.92716">
        <ele>117.6</ele>
        <time>2022-07-31T13:21:03Z</time>
      </trkpt>
      <trkpt lat="49.07655" lon="1.92711">
        <ele>116.4</ele>
        <time>2022-07-31T13:21:09Z</time>
      </trkpt>
      <trkpt lat="49.07647" lon="1.92705">
        <ele>115</ele>
        <time>2022-07-31T13:21:15Z</time>
      </trkpt>
      <trkpt lat="49.0764" lon="1.927">
        <ele>113.7</ele>
        <time>2022-07-31T13:21:21Z</time>
      </trkpt>
      <trkpt lat="49.07635" lon="1.92697">
        <ele>113</ele>
        <time>2022-07-31T13:21:26Z</time>
      </trkpt>
      <trkpt lat="49.07629" lon="1.92693">
        <ele>112.5</ele>
        <time>2022-07-31T13:21:31Z</time>
      </trkpt>
      <trkpt lat="49.07624" lon="1.92689">
        <ele>112</ele>
        <time>2022-07-31T13:21:37Z</time>
      </trkpt>
      <trkpt lat="49.07618" lon="1.92688">
        <ele>111.9</ele>
        <time>2022-07-31T13:21:42Z</time>
      </trkpt>
      <trkpt lat="49.07611" lon="1.92686">
        <ele>112.2</ele>
        <time>2022-07-31T13:21:48Z</time>
      </trkpt>
      <trkpt lat="49.07604" lon="1.92683">
        <ele>112.9</ele>
        <time>2022-07-31T13:21:54Z</time>
      </trkpt>
      <trkpt lat="49.07597" lon="1.92679">
        <ele>113.4</ele>
        <time>2022-07-31T13:22:00Z</time>
      </trkpt>
      <trkpt lat="49.07592" lon="1.92678">
        <ele>113.7</ele>
        <time>2022-07-31T13:22:05Z</time>
      </trkpt>
      <trkpt lat="49.07587" lon="1.92676">
        <ele>114.4</ele>
        <time>2022-07-31T13:22:11Z</time>
      </trkpt>
      <trkpt lat="49.07582" lon="1.92673">
        <ele>115</ele>
        <time>2022-07-31T13:22:16Z</time>
      </trkpt>
      <trkpt lat="49.07574" lon="1.9267">
        <ele>115.6</ele>
        <time>2022-07-31T13:22:22Z</time>
      </trkpt>
      <trkpt lat="49.07568" lon="1.92668">
        <ele>115.8</ele>
        <time>2022-07-31T13:22:27Z</time>
      </trkpt>
      <trkpt lat="49.07559" lon="1.92662">
        <ele>116.2</ele>
        <time>2022-07-31T13:22:33Z</time>
      </trkpt>
      <trkpt lat="49.07551" lon="1.92655">
        <ele>116.9</ele>
        <time>2022-07-31T13:22:39Z</time>
      </trkpt>
      <trkpt lat="49.07544" lon="1.92649">
        <ele>117.8</ele>
        <time>2022-07-31T13:22:45Z</time>
      </trkpt>
      <trkpt lat="49.07538" lon="1.92645">
        <ele>118.7</ele>
        <time>2022-07-31T13:22:50Z</time>
      </trkpt>
      <trkpt lat="49.07533" lon="1.9264">
        <ele>119.4</ele>
        <time>2022-07-31T13:22:55Z</time>
      </trkpt>
      <trkpt lat="49.07528" lon="1.92636">
        <ele>120.1</ele>
        <time>2022-07-31T13:23:00Z</time>
      </trkpt>
      <trkpt lat="49.07519" lon="1.92629">
        <ele>121</ele>
        <time>2022-07-31T13:23:06Z</time>
      </trkpt>
      <trkpt lat="49.07513" lon="1.92624">
        <ele>121.8</ele>
        <time>2022-07-31T13:23:11Z</time>
      </trkpt>
      <trkpt lat="49.07505" lon="1.92621">
        <ele>122.8</ele>
        <time>2022-07-31T13:23:17Z</time>
      </trkpt>
      <trkpt lat="49.07497" lon="1.9262">
        <ele>123.2</ele>
        <time>2022-07-31T13:23:23Z</time>
      </trkpt>
      <trkpt lat="49.07492" lon="1.92617">
        <ele>123.3</ele>
        <time>2022-07-31T13:23:28Z</time>
      </trkpt>
      <trkpt lat="49.07485" lon="1.92615">
        <ele>123.2</ele>
        <time>2022-07-31T13:23:34Z</time>
      </trkpt>
      <trkpt lat="49.07479" lon="1.92613">
        <ele>123</ele>
        <time>2022-07-31T13:23:39Z</time>
      </trkpt>
      <trkpt lat="49.07471" lon="1.9261">
        <ele>122.7</ele>
        <time>2022-07-31T13:23:45Z</time>
      </trkpt>
      <trkpt lat="49.07464" lon="1.92607">
        <ele>122.2</ele>
        <time>2022-07-31T13:23:51Z</time>
      </trkpt>
      <trkpt lat="49.07458" lon="1.92603">
        <ele>121.6</ele>
        <time>2022-07-31T13:23:56Z</time>
      </trkpt>
      <trkpt lat="49.0745" lon="1.92599">
        <ele>120.9</ele>
        <time>2022-07-31T13:24:02Z</time>
      </trkpt>
      <trkpt lat="49.07443" lon="1.92596">
        <ele>120.2</ele>
        <time>2022-07-31T13:24:07Z</time>
      </trkpt>
      <trkpt lat="49.07435" lon="1.92597">
        <ele>120</ele>
        <time>2022-07-31T13:24:13Z</time>
      </trkpt>
      <trkpt lat="49.07427" lon="1.92595">
        <ele>119.9</ele>
        <time>2022-07-31T13:24:18Z</time>
      </trkpt>
      <trkpt lat="49.07419" lon="1.92594">
        <ele>119.7</ele>
        <time>2022-07-31T13:24:23Z</time>
      </trkpt>
      <trkpt lat="49.07411" lon="1.92591">
        <ele>119.5</ele>
        <time>2022-07-31T13:24:29Z</time>
      </trkpt>
      <trkpt lat="49.07403" lon="1.92588">
        <ele>119.3</ele>
        <time>2022-07-31T13:24:34Z</time>
      </trkpt>
      <trkpt lat="49.07396" lon="1.92586">
        <ele>119.1</ele>
        <time>2022-07-31T13:24:39Z</time>
      </trkpt>
      <trkpt lat="49.07387" lon="1.92584">
        <ele>119.1</ele>
        <time>2022-07-31T13:24:45Z</time>
      </trkpt>
      <trkpt lat="49.07378" lon="1.9258">
        <ele>119.1</ele>
        <time>2022-07-31T13:24:51Z</time>
      </trkpt>
      <trkpt lat="49.07371" lon="1.92577">
        <ele>119.3</ele>
        <time>2022-07-31T13:24:56Z</time>
      </trkpt>
      <trkpt lat="49.07363" lon="1.92575">
        <ele>119.7</ele>
        <time>2022-07-31T13:25:02Z</time>
      </trkpt>
      <trkpt lat="49.07354" lon="1.92571">
        <ele>120.3</ele>
        <time>2022-07-31T13:25:08Z</time>
      </trkpt>
      <trkpt lat="49.0735" lon="1.92565">
        <ele>120.8</ele>
        <time>2022-07-31T13:25:13Z</time>
      </trkpt>
      <trkpt lat="49.07348" lon="1.92553">
        <ele>121.1</ele>
        <time>2022-07-31T13:25:19Z</time>
      </trkpt>
      <trkpt lat="49.07349" lon="1.92541">
        <ele>121.4</ele>
        <time>2022-07-31T13:25:25Z</time>
      </trkpt>
      <trkpt lat="49.07352" lon="1.92528">
        <ele>121.6</ele>
        <time>2022-07-31T13:25:31Z</time>
      </trkpt>
      <trkpt lat="49.07356" lon="1.92513">
        <ele>121.7</ele>
        <time>2022-07-31T13:25:37Z</time>
      </trkpt>
      <trkpt lat="49.07361" lon="1.92501">
        <ele>121.7</ele>
        <time>2022-07-31T13:25:43Z</time>
      </trkpt>
      <trkpt lat="49.07364" lon="1.9249">
        <ele>121.8</ele>
        <time>2022-07-31T13:25:48Z</time>
      </trkpt>
      <trkpt lat="49.07369" lon="1.92478">
        <ele>121.7</ele>
        <time>2022-07-31T13:25:54Z</time>
      </trkpt>
      <trkpt lat="49.07372" lon="1.92469">
        <ele>121.6</ele>
        <time>2022-07-31T13:25:59Z</time>
      </trkpt>
      <trkpt lat="49.07377" lon="1.92458">
        <ele>121.2</ele>
        <time>2022-07-31T13:26:05Z</time>
      </trkpt>
      <trkpt lat="49.0738" lon="1.92448">
        <ele>121.1</ele>
        <time>2022-07-31T13:26:10Z</time>
      </trkpt>
      <trkpt lat="49.07384" lon="1.92439">
        <ele>121</ele>
        <time>2022-07-31T13:26:15Z</time>
      </trkpt>
      <trkpt lat="49.07388" lon="1.92427">
        <ele>121</ele>
        <time>2022-07-31T13:26:21Z</time>
      </trkpt>
      <trkpt lat="49.07391" lon="1.92414">
        <ele>121.1</ele>
        <time>2022-07-31T13:26:27Z</time>
      </trkpt>
      <trkpt lat="49.07394" lon="1.92404">
        <ele>121.2</ele>
        <time>2022-07-31T13:26:32Z</time>
      </trkpt>
      <trkpt lat="49.07394" lon="1.92402">
        <ele>121.3</ele>
        <time>2022-07-31T13:26:40Z</time>
      </trkpt>
      <trkpt lat="49.07398" lon="1.92376">
        <ele>121.7</ele>
        <time>2022-07-31T13:26:45Z</time>
      </trkpt>
      <trkpt lat="49.074" lon="1.92363">
        <ele>121.9</ele>
        <time>2022-07-31T13:26:51Z</time>
      </trkpt>
      <trkpt lat="49.07402" lon="1.92353">
        <ele>122</ele>
        <time>2022-07-31T13:26:56Z</time>
      </trkpt>
      <trkpt lat="49.07405" lon="1.92342">
        <ele>122.2</ele>
        <time>2022-07-31T13:27:02Z</time>
      </trkpt>
      <trkpt lat="49.07407" lon="1.92333">
        <ele>122.5</ele>
        <time>2022-07-31T13:27:07Z</time>
      </trkpt>
      <trkpt lat="49.0741" lon="1.9232">
        <ele>122.6</ele>
        <time>2022-07-31T13:27:13Z</time>
      </trkpt>
      <trkpt lat="49.07413" lon="1.92311">
        <ele>122.7</ele>
        <time>2022-07-31T13:27:18Z</time>
      </trkpt>
      <trkpt lat="49.07415" lon="1.923">
        <ele>123.1</ele>
        <time>2022-07-31T13:27:24Z</time>
      </trkpt>
      <trkpt lat="49.07416" lon="1.92294">
        <ele>123.3</ele>
        <time>2022-07-31T13:27:33Z</time>
      </trkpt>
      <trkpt lat="49.07422" lon="1.9227">
        <ele>124.1</ele>
        <time>2022-07-31T13:27:39Z</time>
      </trkpt>
      <trkpt lat="49.07424" lon="1.92259">
        <ele>124.2</ele>
        <time>2022-07-31T13:27:44Z</time>
      </trkpt>
      <trkpt lat="49.07427" lon="1.92247">
        <ele>124.4</ele>
        <time>2022-07-31T13:27:50Z</time>
      </trkpt>
      <trkpt lat="49.07429" lon="1.92238">
        <ele>124.3</ele>
        <time>2022-07-31T13:27:59Z</time>
      </trkpt>
      <trkpt lat="49.07432" lon="1.92217">
        <ele>124.2</ele>
        <time>2022-07-31T13:28:08Z</time>
      </trkpt>
      <trkpt lat="49.07435" lon="1.92199">
        <ele>124.1</ele>
        <time>2022-07-31T13:28:13Z</time>
      </trkpt>
      <trkpt lat="49.07438" lon="1.92185">
        <ele>123.8</ele>
        <time>2022-07-31T13:28:18Z</time>
      </trkpt>
      <trkpt lat="49.07439" lon="1.92177">
        <ele>123.7</ele>
        <time>2022-07-31T13:28:26Z</time>
      </trkpt>
      <trkpt lat="49.07442" lon="1.92155">
        <ele>123.8</ele>
        <time>2022-07-31T13:28:32Z</time>
      </trkpt>
      <trkpt lat="49.07445" lon="1.92144">
        <ele>123.9</ele>
        <time>2022-07-31T13:28:37Z</time>
      </trkpt>
      <trkpt lat="49.07447" lon="1.92133">
        <ele>124</ele>
        <time>2022-07-31T13:28:42Z</time>
      </trkpt>
      <trkpt lat="49.0745" lon="1.92121">
        <ele>124.3</ele>
        <time>2022-07-31T13:28:48Z</time>
      </trkpt>
      <trkpt lat="49.07453" lon="1.9211">
        <ele>124.6</ele>
        <time>2022-07-31T13:28:53Z</time>
      </trkpt>
      <trkpt lat="49.07456" lon="1.92099">
        <ele>124.9</ele>
        <time>2022-07-31T13:28:58Z</time>
      </trkpt>
      <trkpt lat="49.07459" lon="1.92087">
        <ele>125.1</ele>
        <time>2022-07-31T13:29:04Z</time>
      </trkpt>
      <trkpt lat="49.0746" lon="1.92081">
        <ele>125.1</ele>
        <time>2022-07-31T13:29:10Z</time>
      </trkpt>
      <trkpt lat="49.07467" lon="1.92067">
        <ele>125.2</ele>
        <time>2022-07-31T13:29:16Z</time>
      </trkpt>
      <trkpt lat="49.0747" lon="1.92054">
        <ele>125.2</ele>
        <time>2022-07-31T13:29:22Z</time>
      </trkpt>
      <trkpt lat="49.07472" lon="1.92044">
        <ele>125.1</ele>
        <time>2022-07-31T13:29:27Z</time>
      </trkpt>
      <trkpt lat="49.07475" lon="1.92032">
        <ele>124.9</ele>
        <time>2022-07-31T13:29:33Z</time>
      </trkpt>
      <trkpt lat="49.07478" lon="1.9202">
        <ele>124.9</ele>
        <time>2022-07-31T13:29:38Z</time>
      </trkpt>
      <trkpt lat="49.07482" lon="1.92006">
        <ele>125.1</ele>
        <time>2022-07-31T13:29:44Z</time>
      </trkpt>
      <trkpt lat="49.07486" lon="1.91994">
        <ele>125.4</ele>
        <time>2022-07-31T13:29:50Z</time>
      </trkpt>
      <trkpt lat="49.07488" lon="1.9198">
        <ele>125.6</ele>
        <time>2022-07-31T13:29:56Z</time>
      </trkpt>
      <trkpt lat="49.0749" lon="1.91968">
        <ele>125.7</ele>
        <time>2022-07-31T13:30:02Z</time>
      </trkpt>
      <trkpt lat="49.07493" lon="1.91958">
        <ele>125.6</ele>
        <time>2022-07-31T13:30:07Z</time>
      </trkpt>
      <trkpt lat="49.07496" lon="1.91948">
        <ele>125.5</ele>
        <time>2022-07-31T13:30:12Z</time>
      </trkpt>
      <trkpt lat="49.075" lon="1.91936">
        <ele>125.3</ele>
        <time>2022-07-31T13:30:18Z</time>
      </trkpt>
      <trkpt lat="49.07503" lon="1.91924">
        <ele>125.1</ele>
        <time>2022-07-31T13:30:24Z</time>
      </trkpt>
      <trkpt lat="49.07506" lon="1.91914">
        <ele>124.9</ele>
        <time>2022-07-31T13:30:29Z</time>
      </trkpt>
      <trkpt lat="49.0751" lon="1.91904">
        <ele>124.8</ele>
        <time>2022-07-31T13:30:34Z</time>
      </trkpt>
      <trkpt lat="49.07514" lon="1.91891">
        <ele>124.9</ele>
        <time>2022-07-31T13:30:40Z</time>
      </trkpt>
      <trkpt lat="49.07518" lon="1.91881">
        <ele>125</ele>
        <time>2022-07-31T13:30:45Z</time>
      </trkpt>
      <trkpt lat="49.07524" lon="1.91869">
        <ele>125</ele>
        <time>2022-07-31T13:30:51Z</time>
      </trkpt>
      <trkpt lat="49.07527" lon="1.91862">
        <ele>125</ele>
        <time>2022-07-31T13:30:56Z</time>
      </trkpt>
      <trkpt lat="49.07532" lon="1.9185">
        <ele>125</ele>
        <time>2022-07-31T13:31:02Z</time>
      </trkpt>
      <trkpt lat="49.07537" lon="1.91838">
        <ele>124.8</ele>
        <time>2022-07-31T13:31:08Z</time>
      </trkpt>
      <trkpt lat="49.0754" lon="1.91829">
        <ele>124.5</ele>
        <time>2022-07-31T13:31:13Z</time>
      </trkpt>
      <trkpt lat="49.07544" lon="1.91819">
        <ele>124.1</ele>
        <time>2022-07-31T13:31:19Z</time>
      </trkpt>
      <trkpt lat="49.07548" lon="1.9181">
        <ele>123.8</ele>
        <time>2022-07-31T13:31:24Z</time>
      </trkpt>
      <trkpt lat="49.07552" lon="1.91798">
        <ele>123.5</ele>
        <time>2022-07-31T13:31:30Z</time>
      </trkpt>
      <trkpt lat="49.07557" lon="1.91784">
        <ele>123.4</ele>
        <time>2022-07-31T13:31:36Z</time>
      </trkpt>
      <trkpt lat="49.07561" lon="1.9177">
        <ele>123.1</ele>
        <time>2022-07-31T13:31:42Z</time>
      </trkpt>
      <trkpt lat="49.07565" lon="1.91761">
        <ele>122.8</ele>
        <time>2022-07-31T13:31:47Z</time>
      </trkpt>
      <trkpt lat="49.07569" lon="1.91753">
        <ele>122.4</ele>
        <time>2022-07-31T13:31:53Z</time>
      </trkpt>
      <trkpt lat="49.07574" lon="1.91738">
        <ele>122.1</ele>
        <time>2022-07-31T13:31:59Z</time>
      </trkpt>
      <trkpt lat="49.07577" lon="1.91727">
        <ele>122</ele>
        <time>2022-07-31T13:32:04Z</time>
      </trkpt>
      <trkpt lat="49.07581" lon="1.91716">
        <ele>121.6</ele>
        <time>2022-07-31T13:32:10Z</time>
      </trkpt>
      <trkpt lat="49.07583" lon="1.91707">
        <ele>121.5</ele>
        <time>2022-07-31T13:32:15Z</time>
      </trkpt>
      <trkpt lat="49.07586" lon="1.91696">
        <ele>121.4</ele>
        <time>2022-07-31T13:32:21Z</time>
      </trkpt>
      <trkpt lat="49.07591" lon="1.91682">
        <ele>121.4</ele>
        <time>2022-07-31T13:32:27Z</time>
      </trkpt>
      <trkpt lat="49.07594" lon="1.9167">
        <ele>121.2</ele>
        <time>2022-07-31T13:32:33Z</time>
      </trkpt>
      <trkpt lat="49.07597" lon="1.9166">
        <ele>121.1</ele>
        <time>2022-07-31T13:32:38Z</time>
      </trkpt>
      <trkpt lat="49.07601" lon="1.91647">
        <ele>120.6</ele>
        <time>2022-07-31T13:32:44Z</time>
      </trkpt>
      <trkpt lat="49.07604" lon="1.91637">
        <ele>120.3</ele>
        <time>2022-07-31T13:32:49Z</time>
      </trkpt>
      <trkpt lat="49.07607" lon="1.91624">
        <ele>120</ele>
        <time>2022-07-31T13:32:55Z</time>
      </trkpt>
      <trkpt lat="49.0761" lon="1.91615">
        <ele>119.8</ele>
        <time>2022-07-31T13:33:00Z</time>
      </trkpt>
      <trkpt lat="49.07615" lon="1.91604">
        <ele>119.6</ele>
        <time>2022-07-31T13:33:06Z</time>
      </trkpt>
      <trkpt lat="49.07618" lon="1.91592">
        <ele>119.4</ele>
        <time>2022-07-31T13:33:12Z</time>
      </trkpt>
      <trkpt lat="49.07622" lon="1.9158">
        <ele>119.3</ele>
        <time>2022-07-31T13:33:17Z</time>
      </trkpt>
      <trkpt lat="49.07627" lon="1.91567">
        <ele>119.2</ele>
        <time>2022-07-31T13:33:23Z</time>
      </trkpt>
      <trkpt lat="49.0763" lon="1.91558">
        <ele>119</ele>
        <time>2022-07-31T13:33:28Z</time>
      </trkpt>
      <trkpt lat="49.07633" lon="1.9155">
        <ele>118.6</ele>
        <time>2022-07-31T13:33:33Z</time>
      </trkpt>
      <trkpt lat="49.07636" lon="1.91538">
        <ele>118.3</ele>
        <time>2022-07-31T13:33:39Z</time>
      </trkpt>
      <trkpt lat="49.07639" lon="1.91526">
        <ele>118</ele>
        <time>2022-07-31T13:33:44Z</time>
      </trkpt>
      <trkpt lat="49.07642" lon="1.91514">
        <ele>117.7</ele>
        <time>2022-07-31T13:33:50Z</time>
      </trkpt>
      <trkpt lat="49.07646" lon="1.91504">
        <ele>117.5</ele>
        <time>2022-07-31T13:33:56Z</time>
      </trkpt>
      <trkpt lat="49.07651" lon="1.91494">
        <ele>117.6</ele>
        <time>2022-07-31T13:34:02Z</time>
      </trkpt>
      <trkpt lat="49.07654" lon="1.91484">
        <ele>117.7</ele>
        <time>2022-07-31T13:34:07Z</time>
      </trkpt>
      <trkpt lat="49.0766" lon="1.9147">
        <ele>117.8</ele>
        <time>2022-07-31T13:34:13Z</time>
      </trkpt>
      <trkpt lat="49.07663" lon="1.91459">
        <ele>117.9</ele>
        <time>2022-07-31T13:34:19Z</time>
      </trkpt>
      <trkpt lat="49.07666" lon="1.91451">
        <ele>117.9</ele>
        <time>2022-07-31T13:34:24Z</time>
      </trkpt>
      <trkpt lat="49.0767" lon="1.9144">
        <ele>117.9</ele>
        <time>2022-07-31T13:34:30Z</time>
      </trkpt>
      <trkpt lat="49.07675" lon="1.91426">
        <ele>117.7</ele>
        <time>2022-07-31T13:34:36Z</time>
      </trkpt>
      <trkpt lat="49.07681" lon="1.91415">
        <ele>117.4</ele>
        <time>2022-07-31T13:34:42Z</time>
      </trkpt>
      <trkpt lat="49.07684" lon="1.91406">
        <ele>117.2</ele>
        <time>2022-07-31T13:34:47Z</time>
      </trkpt>
      <trkpt lat="49.07689" lon="1.91396">
        <ele>117.3</ele>
        <time>2022-07-31T13:34:53Z</time>
      </trkpt>
      <trkpt lat="49.07693" lon="1.91388">
        <ele>117.5</ele>
        <time>2022-07-31T13:34:58Z</time>
      </trkpt>
      <trkpt lat="49.07699" lon="1.91378">
        <ele>117.8</ele>
        <time>2022-07-31T13:35:04Z</time>
      </trkpt>
      <trkpt lat="49.07705" lon="1.9137">
        <ele>118</ele>
        <time>2022-07-31T13:35:09Z</time>
      </trkpt>
      <trkpt lat="49.07711" lon="1.91362">
        <ele>118.1</ele>
        <time>2022-07-31T13:35:15Z</time>
      </trkpt>
      <trkpt lat="49.07716" lon="1.91355">
        <ele>118.4</ele>
        <time>2022-07-31T13:35:20Z</time>
      </trkpt>
      <trkpt lat="49.07724" lon="1.91345">
        <ele>118.6</ele>
        <time>2022-07-31T13:35:26Z</time>
      </trkpt>
      <trkpt lat="49.07731" lon="1.91338">
        <ele>118.5</ele>
        <time>2022-07-31T13:35:31Z</time>
      </trkpt>
      <trkpt lat="49.07736" lon="1.91332">
        <ele>118.3</ele>
        <time>2022-07-31T13:35:36Z</time>
      </trkpt>
      <trkpt lat="49.07744" lon="1.91329">
        <ele>118.2</ele>
        <time>2022-07-31T13:35:41Z</time>
      </trkpt>
      <trkpt lat="49.07752" lon="1.91323">
        <ele>117.9</ele>
        <time>2022-07-31T13:35:47Z</time>
      </trkpt>
      <trkpt lat="49.07757" lon="1.91318">
        <ele>117.6</ele>
        <time>2022-07-31T13:35:52Z</time>
      </trkpt>
      <trkpt lat="49.07764" lon="1.91311">
        <ele>117.3</ele>
        <time>2022-07-31T13:35:58Z</time>
      </trkpt>
      <trkpt lat="49.07773" lon="1.91302">
        <ele>117.1</ele>
        <time>2022-07-31T13:36:04Z</time>
      </trkpt>
      <trkpt lat="49.07782" lon="1.91294">
        <ele>116.8</ele>
        <time>2022-07-31T13:36:10Z</time>
      </trkpt>
      <trkpt lat="49.07787" lon="1.91288">
        <ele>116.5</ele>
        <time>2022-07-31T13:36:15Z</time>
      </trkpt>
      <trkpt lat="49.07795" lon="1.91281">
        <ele>116.2</ele>
        <time>2022-07-31T13:36:21Z</time>
      </trkpt>
      <trkpt lat="49.07802" lon="1.91275">
        <ele>115.8</ele>
        <time>2022-07-31T13:36:26Z</time>
      </trkpt>
      <trkpt lat="49.07808" lon="1.91269">
        <ele>115.4</ele>
        <time>2022-07-31T13:36:32Z</time>
      </trkpt>
      <trkpt lat="49.07815" lon="1.91264">
        <ele>115.1</ele>
        <time>2022-07-31T13:36:38Z</time>
      </trkpt>
      <trkpt lat="49.07822" lon="1.91257">
        <ele>114.8</ele>
        <time>2022-07-31T13:36:43Z</time>
      </trkpt>
      <trkpt lat="49.07827" lon="1.91253">
        <ele>114.7</ele>
        <time>2022-07-31T13:36:48Z</time>
      </trkpt>
      <trkpt lat="49.07835" lon="1.91247">
        <ele>114.7</ele>
        <time>2022-07-31T13:36:54Z</time>
      </trkpt>
      <trkpt lat="49.07841" lon="1.91241">
        <ele>114.7</ele>
        <time>2022-07-31T13:36:59Z</time>
      </trkpt>
      <trkpt lat="49.07847" lon="1.91235">
        <ele>114.8</ele>
        <time>2022-07-31T13:37:05Z</time>
      </trkpt>
      <trkpt lat="49.07855" lon="1.91228">
        <ele>114.7</ele>
        <time>2022-07-31T13:37:11Z</time>
      </trkpt>
      <trkpt lat="49.07861" lon="1.91222">
        <ele>114.5</ele>
        <time>2022-07-31T13:37:17Z</time>
      </trkpt>
      <trkpt lat="49.07866" lon="1.91218">
        <ele>114.5</ele>
        <time>2022-07-31T13:37:22Z</time>
      </trkpt>
      <trkpt lat="49.07875" lon="1.91211">
        <ele>114.5</ele>
        <time>2022-07-31T13:37:27Z</time>
      </trkpt>
      <trkpt lat="49.07883" lon="1.91204">
        <ele>114.3</ele>
        <time>2022-07-31T13:37:33Z</time>
      </trkpt>
      <trkpt lat="49.07889" lon="1.91199">
        <ele>114.3</ele>
        <time>2022-07-31T13:37:38Z</time>
      </trkpt>
      <trkpt lat="49.07897" lon="1.91191">
        <ele>114.6</ele>
        <time>2022-07-31T13:37:44Z</time>
      </trkpt>
      <trkpt lat="49.07904" lon="1.91184">
        <ele>114.9</ele>
        <time>2022-07-31T13:37:50Z</time>
      </trkpt>
      <trkpt lat="49.07909" lon="1.91177">
        <ele>115.1</ele>
        <time>2022-07-31T13:37:56Z</time>
      </trkpt>
      <trkpt lat="49.07918" lon="1.91169">
        <ele>115.3</ele>
        <time>2022-07-31T13:38:02Z</time>
      </trkpt>
      <trkpt lat="49.07924" lon="1.91162">
        <ele>115.3</ele>
        <time>2022-07-31T13:38:08Z</time>
      </trkpt>
      <trkpt lat="49.07931" lon="1.91156">
        <ele>115.4</ele>
        <time>2022-07-31T13:38:14Z</time>
      </trkpt>
      <trkpt lat="49.07937" lon="1.91149">
        <ele>115.4</ele>
        <time>2022-07-31T13:38:19Z</time>
      </trkpt>
      <trkpt lat="49.07945" lon="1.91142">
        <ele>115.5</ele>
        <time>2022-07-31T13:38:25Z</time>
      </trkpt>
      <trkpt lat="49.07951" lon="1.91136">
        <ele>115.6</ele>
        <time>2022-07-31T13:38:30Z</time>
      </trkpt>
      <trkpt lat="49.07957" lon="1.91129">
        <ele>115.8</ele>
        <time>2022-07-31T13:38:36Z</time>
      </trkpt>
      <trkpt lat="49.07965" lon="1.91122">
        <ele>116.1</ele>
        <time>2022-07-31T13:38:41Z</time>
      </trkpt>
      <trkpt lat="49.07971" lon="1.91114">
        <ele>116.5</ele>
        <time>2022-07-31T13:38:47Z</time>
      </trkpt>
      <trkpt lat="49.07977" lon="1.91107">
        <ele>116.7</ele>
        <time>2022-07-31T13:38:53Z</time>
      </trkpt>
      <trkpt lat="49.07984" lon="1.911">
        <ele>117.1</ele>
        <time>2022-07-31T13:38:59Z</time>
      </trkpt>
      <trkpt lat="49.0799" lon="1.91092">
        <ele>117.3</ele>
        <time>2022-07-31T13:39:04Z</time>
      </trkpt>
      <trkpt lat="49.07997" lon="1.91082">
        <ele>117.4</ele>
        <time>2022-07-31T13:39:10Z</time>
      </trkpt>
      <trkpt lat="49.08002" lon="1.91075">
        <ele>117.5</ele>
        <time>2022-07-31T13:39:15Z</time>
      </trkpt>
      <trkpt lat="49.08007" lon="1.9107">
        <ele>117.6</ele>
        <time>2022-07-31T13:39:20Z</time>
      </trkpt>
      <trkpt lat="49.08014" lon="1.91061">
        <ele>117.8</ele>
        <time>2022-07-31T13:39:26Z</time>
      </trkpt>
      <trkpt lat="49.08022" lon="1.91048">
        <ele>117.9</ele>
        <time>2022-07-31T13:39:34Z</time>
      </trkpt>
      <trkpt lat="49.08027" lon="1.91037">
        <ele>118.3</ele>
        <time>2022-07-31T13:39:39Z</time>
      </trkpt>
      <trkpt lat="49.08034" lon="1.91026">
        <ele>118.5</ele>
        <time>2022-07-31T13:39:45Z</time>
      </trkpt>
      <trkpt lat="49.0804" lon="1.91019">
        <ele>118.7</ele>
        <time>2022-07-31T13:39:50Z</time>
      </trkpt>
      <trkpt lat="49.08047" lon="1.91008">
        <ele>119</ele>
        <time>2022-07-31T13:39:57Z</time>
      </trkpt>
      <trkpt lat="49.08053" lon="1.91002">
        <ele>119.3</ele>
        <time>2022-07-31T13:40:02Z</time>
      </trkpt>
      <trkpt lat="49.08057" lon="1.90992">
        <ele>119.5</ele>
        <time>2022-07-31T13:40:08Z</time>
      </trkpt>
      <trkpt lat="49.08061" lon="1.90984">
        <ele>119.6</ele>
        <time>2022-07-31T13:40:13Z</time>
      </trkpt>
      <trkpt lat="49.08066" lon="1.90971">
        <ele>119.6</ele>
        <time>2022-07-31T13:40:19Z</time>
      </trkpt>
      <trkpt lat="49.08068" lon="1.90966">
        <ele>119.6</ele>
        <time>2022-07-31T13:40:24Z</time>
      </trkpt>
      <trkpt lat="49.08072" lon="1.90958">
        <ele>119.3</ele>
        <time>2022-07-31T13:40:30Z</time>
      </trkpt>
      <trkpt lat="49.08078" lon="1.90946">
        <ele>119</ele>
        <time>2022-07-31T13:40:36Z</time>
      </trkpt>
      <trkpt lat="49.08084" lon="1.90933">
        <ele>118.7</ele>
        <time>2022-07-31T13:40:42Z</time>
      </trkpt>
      <trkpt lat="49.08089" lon="1.90919">
        <ele>118.6</ele>
        <time>2022-07-31T13:40:48Z</time>
      </trkpt>
      <trkpt lat="49.08093" lon="1.90908">
        <ele>118.6</ele>
        <time>2022-07-31T13:40:53Z</time>
      </trkpt>
      <trkpt lat="49.08097" lon="1.90899">
        <ele>118.7</ele>
        <time>2022-07-31T13:40:59Z</time>
      </trkpt>
      <trkpt lat="49.08102" lon="1.9089">
        <ele>118.9</ele>
        <time>2022-07-31T13:41:05Z</time>
      </trkpt>
      <trkpt lat="49.08107" lon="1.90877">
        <ele>119</ele>
        <time>2022-07-31T13:41:11Z</time>
      </trkpt>
      <trkpt lat="49.08111" lon="1.90868">
        <ele>119.1</ele>
        <time>2022-07-31T13:41:17Z</time>
      </trkpt>
      <trkpt lat="49.08114" lon="1.90858">
        <ele>119.2</ele>
        <time>2022-07-31T13:41:22Z</time>
      </trkpt>
      <trkpt lat="49.08119" lon="1.90846">
        <ele>119.2</ele>
        <time>2022-07-31T13:41:28Z</time>
      </trkpt>
      <trkpt lat="49.08122" lon="1.90839">
        <ele>119.4</ele>
        <time>2022-07-31T13:41:33Z</time>
      </trkpt>
      <trkpt lat="49.08126" lon="1.90827">
        <ele>119.6</ele>
        <time>2022-07-31T13:41:39Z</time>
      </trkpt>
      <trkpt lat="49.08131" lon="1.90815">
        <ele>119.8</ele>
        <time>2022-07-31T13:41:45Z</time>
      </trkpt>
      <trkpt lat="49.08135" lon="1.90804">
        <ele>119.9</ele>
        <time>2022-07-31T13:41:51Z</time>
      </trkpt>
      <trkpt lat="49.08138" lon="1.90793">
        <ele>119.9</ele>
        <time>2022-07-31T13:41:57Z</time>
      </trkpt>
      <trkpt lat="49.08142" lon="1.90783">
        <ele>120.1</ele>
        <time>2022-07-31T13:42:03Z</time>
      </trkpt>
      <trkpt lat="49.08146" lon="1.9077">
        <ele>120.1</ele>
        <time>2022-07-31T13:42:09Z</time>
      </trkpt>
      <trkpt lat="49.08152" lon="1.90758">
        <ele>120.2</ele>
        <time>2022-07-31T13:42:15Z</time>
      </trkpt>
      <trkpt lat="49.08155" lon="1.90751">
        <ele>120.3</ele>
        <time>2022-07-31T13:42:20Z</time>
      </trkpt>
      <trkpt lat="49.08158" lon="1.9074">
        <ele>120.5</ele>
        <time>2022-07-31T13:42:25Z</time>
      </trkpt>
      <trkpt lat="49.08163" lon="1.90727">
        <ele>120.5</ele>
        <time>2022-07-31T13:42:31Z</time>
      </trkpt>
      <trkpt lat="49.08166" lon="1.90719">
        <ele>120.5</ele>
        <time>2022-07-31T13:42:36Z</time>
      </trkpt>
      <trkpt lat="49.08171" lon="1.90708">
        <ele>120.4</ele>
        <time>2022-07-31T13:42:42Z</time>
      </trkpt>
      <trkpt lat="49.08174" lon="1.90697">
        <ele>120.3</ele>
        <time>2022-07-31T13:42:47Z</time>
      </trkpt>
      <trkpt lat="49.08178" lon="1.90687">
        <ele>120.3</ele>
        <time>2022-07-31T13:42:53Z</time>
      </trkpt>
      <trkpt lat="49.08181" lon="1.90677">
        <ele>120.2</ele>
        <time>2022-07-31T13:42:58Z</time>
      </trkpt>
      <trkpt lat="49.08185" lon="1.90666">
        <ele>120</ele>
        <time>2022-07-31T13:43:03Z</time>
      </trkpt>
      <trkpt lat="49.08189" lon="1.90654">
        <ele>119.9</ele>
        <time>2022-07-31T13:43:09Z</time>
      </trkpt>
      <trkpt lat="49.08191" lon="1.90645">
        <ele>119.8</ele>
        <time>2022-07-31T13:43:14Z</time>
      </trkpt>
      <trkpt lat="49.08195" lon="1.90635">
        <ele>119.9</ele>
        <time>2022-07-31T13:43:19Z</time>
      </trkpt>
      <trkpt lat="49.08198" lon="1.90623">
        <ele>120.1</ele>
        <time>2022-07-31T13:43:25Z</time>
      </trkpt>
      <trkpt lat="49.08201" lon="1.90613">
        <ele>120.4</ele>
        <time>2022-07-31T13:43:30Z</time>
      </trkpt>
      <trkpt lat="49.08203" lon="1.90604">
        <ele>120.5</ele>
        <time>2022-07-31T13:43:35Z</time>
      </trkpt>
      <trkpt lat="49.08208" lon="1.90593">
        <ele>120.6</ele>
        <time>2022-07-31T13:43:41Z</time>
      </trkpt>
      <trkpt lat="49.08212" lon="1.90584">
        <ele>120.7</ele>
        <time>2022-07-31T13:43:46Z</time>
      </trkpt>
      <trkpt lat="49.08216" lon="1.90572">
        <ele>120.9</ele>
        <time>2022-07-31T13:43:51Z</time>
      </trkpt>
      <trkpt lat="49.08218" lon="1.90558">
        <ele>121.2</ele>
        <time>2022-07-31T13:43:57Z</time>
      </trkpt>
      <trkpt lat="49.0822" lon="1.90549">
        <ele>121.4</ele>
        <time>2022-07-31T13:44:03Z</time>
      </trkpt>
      <trkpt lat="49.08224" lon="1.90538">
        <ele>121.5</ele>
        <time>2022-07-31T13:44:08Z</time>
      </trkpt>
      <trkpt lat="49.08227" lon="1.90528">
        <ele>121.5</ele>
        <time>2022-07-31T13:44:13Z</time>
      </trkpt>
      <trkpt lat="49.08229" lon="1.90516">
        <ele>121.8</ele>
        <time>2022-07-31T13:44:19Z</time>
      </trkpt>
      <trkpt lat="49.08233" lon="1.90505">
        <ele>122.1</ele>
        <time>2022-07-31T13:44:25Z</time>
      </trkpt>
      <trkpt lat="49.08235" lon="1.90496">
        <ele>122.4</ele>
        <time>2022-07-31T13:44:30Z</time>
      </trkpt>
      <trkpt lat="49.08238" lon="1.90484">
        <ele>122.7</ele>
        <time>2022-07-31T13:44:35Z</time>
      </trkpt>
      <trkpt lat="49.08242" lon="1.90472">
        <ele>123.2</ele>
        <time>2022-07-31T13:44:41Z</time>
      </trkpt>
      <trkpt lat="49.08244" lon="1.90463">
        <ele>123.5</ele>
        <time>2022-07-31T13:44:46Z</time>
      </trkpt>
      <trkpt lat="49.08248" lon="1.9045">
        <ele>123.8</ele>
        <time>2022-07-31T13:44:52Z</time>
      </trkpt>
      <trkpt lat="49.08251" lon="1.90442">
        <ele>124</ele>
        <time>2022-07-31T13:44:57Z</time>
      </trkpt>
      <trkpt lat="49.08253" lon="1.9043">
        <ele>124.2</ele>
        <time>2022-07-31T13:45:03Z</time>
      </trkpt>
      <trkpt lat="49.08257" lon="1.9042">
        <ele>124.4</ele>
        <time>2022-07-31T13:45:08Z</time>
      </trkpt>
      <trkpt lat="49.08261" lon="1.9041">
        <ele>124.6</ele>
        <time>2022-07-31T13:45:13Z</time>
      </trkpt>
      <trkpt lat="49.08264" lon="1.90397">
        <ele>125</ele>
        <time>2022-07-31T13:45:19Z</time>
      </trkpt>
      <trkpt lat="49.08267" lon="1.90388">
        <ele>125.3</ele>
        <time>2022-07-31T13:45:24Z</time>
      </trkpt>
      <trkpt lat="49.08271" lon="1.90379">
        <ele>125.4</ele>
        <time>2022-07-31T13:45:29Z</time>
      </trkpt>
      <trkpt lat="49.08275" lon="1.90367">
        <ele>125.2</ele>
        <time>2022-07-31T13:45:35Z</time>
      </trkpt>
      <trkpt lat="49.08278" lon="1.90355">
        <ele>125.1</ele>
        <time>2022-07-31T13:45:40Z</time>
      </trkpt>
      <trkpt lat="49.08281" lon="1.90344">
        <ele>125.1</ele>
        <time>2022-07-31T13:45:46Z</time>
      </trkpt>
      <trkpt lat="49.08285" lon="1.90335">
        <ele>125.1</ele>
        <time>2022-07-31T13:45:51Z</time>
      </trkpt>
      <trkpt lat="49.08288" lon="1.90324">
        <ele>125</ele>
        <time>2022-07-31T13:45:57Z</time>
      </trkpt>
      <trkpt lat="49.08291" lon="1.90311">
        <ele>125</ele>
        <time>2022-07-31T13:46:03Z</time>
      </trkpt>
      <trkpt lat="49.08294" lon="1.90303">
        <ele>124.9</ele>
        <time>2022-07-31T13:46:08Z</time>
      </trkpt>
      <trkpt lat="49.08296" lon="1.90289">
        <ele>124.6</ele>
        <time>2022-07-31T13:46:14Z</time>
      </trkpt>
      <trkpt lat="49.08299" lon="1.90275">
        <ele>124.1</ele>
        <time>2022-07-31T13:46:20Z</time>
      </trkpt>
      <trkpt lat="49.08302" lon="1.90264">
        <ele>123.7</ele>
        <time>2022-07-31T13:46:26Z</time>
      </trkpt>
      <trkpt lat="49.08306" lon="1.90253">
        <ele>123.6</ele>
        <time>2022-07-31T13:46:32Z</time>
      </trkpt>
      <trkpt lat="49.0831" lon="1.90241">
        <ele>123.4</ele>
        <time>2022-07-31T13:46:37Z</time>
      </trkpt>
      <trkpt lat="49.08315" lon="1.90229">
        <ele>123.2</ele>
        <time>2022-07-31T13:46:43Z</time>
      </trkpt>
      <trkpt lat="49.08316" lon="1.9022">
        <ele>123</ele>
        <time>2022-07-31T13:46:48Z</time>
      </trkpt>
      <trkpt lat="49.0832" lon="1.90208">
        <ele>122.8</ele>
        <time>2022-07-31T13:46:54Z</time>
      </trkpt>
      <trkpt lat="49.08324" lon="1.90196">
        <ele>122.7</ele>
        <time>2022-07-31T13:47:00Z</time>
      </trkpt>
      <trkpt lat="49.08328" lon="1.90186">
        <ele>122.9</ele>
        <time>2022-07-31T13:47:06Z</time>
      </trkpt>
      <trkpt lat="49.0833" lon="1.90175">
        <ele>122.9</ele>
        <time>2022-07-31T13:47:11Z</time>
      </trkpt>
      <trkpt lat="49.08333" lon="1.90165">
        <ele>122.8</ele>
        <time>2022-07-31T13:47:16Z</time>
      </trkpt>
      <trkpt lat="49.08336" lon="1.90155">
        <ele>122.6</ele>
        <time>2022-07-31T13:47:22Z</time>
      </trkpt>
      <trkpt lat="49.08338" lon="1.90144">
        <ele>122.5</ele>
        <time>2022-07-31T13:47:27Z</time>
      </trkpt>
      <trkpt lat="49.08342" lon="1.90133">
        <ele>122.2</ele>
        <time>2022-07-31T13:47:33Z</time>
      </trkpt>
      <trkpt lat="49.08345" lon="1.90118">
        <ele>121.9</ele>
        <time>2022-07-31T13:47:39Z</time>
      </trkpt>
      <trkpt lat="49.08349" lon="1.90109">
        <ele>121.7</ele>
        <time>2022-07-31T13:47:45Z</time>
      </trkpt>
      <trkpt lat="49.08351" lon="1.90099">
        <ele>121.7</ele>
        <time>2022-07-31T13:47:50Z</time>
      </trkpt>
      <trkpt lat="49.08353" lon="1.90089">
        <ele>121.6</ele>
        <time>2022-07-31T13:47:55Z</time>
      </trkpt>
      <trkpt lat="49.08355" lon="1.90081">
        <ele>121.6</ele>
        <time>2022-07-31T13:48:00Z</time>
      </trkpt>
      <trkpt lat="49.08359" lon="1.90071">
        <ele>121.7</ele>
        <time>2022-07-31T13:48:06Z</time>
      </trkpt>
      <trkpt lat="49.08361" lon="1.90059">
        <ele>121.8</ele>
        <time>2022-07-31T13:48:11Z</time>
      </trkpt>
      <trkpt lat="49.08365" lon="1.90048">
        <ele>121.8</ele>
        <time>2022-07-31T13:48:17Z</time>
      </trkpt>
      <trkpt lat="49.08367" lon="1.90037">
        <ele>121.7</ele>
        <time>2022-07-31T13:48:22Z</time>
      </trkpt>
      <trkpt lat="49.0837" lon="1.90026">
        <ele>121.5</ele>
        <time>2022-07-31T13:48:27Z</time>
      </trkpt>
      <trkpt lat="49.08373" lon="1.90015">
        <ele>121.4</ele>
        <time>2022-07-31T13:48:32Z</time>
      </trkpt>
      <trkpt lat="49.08376" lon="1.90006">
        <ele>121.3</ele>
        <time>2022-07-31T13:48:37Z</time>
      </trkpt>
      <trkpt lat="49.08381" lon="1.89995">
        <ele>121.3</ele>
        <time>2022-07-31T13:48:43Z</time>
      </trkpt>
      <trkpt lat="49.08384" lon="1.89983">
        <ele>121.3</ele>
        <time>2022-07-31T13:48:48Z</time>
      </trkpt>
      <trkpt lat="49.08386" lon="1.8997">
        <ele>121.3</ele>
        <time>2022-07-31T13:48:54Z</time>
      </trkpt>
      <trkpt lat="49.08389" lon="1.89961">
        <ele>121.3</ele>
        <time>2022-07-31T13:48:59Z</time>
      </trkpt>
      <trkpt lat="49.0839" lon="1.8995">
        <ele>121.4</ele>
        <time>2022-07-31T13:49:05Z</time>
      </trkpt>
      <trkpt lat="49.08394" lon="1.89936">
        <ele>121.3</ele>
        <time>2022-07-31T13:49:11Z</time>
      </trkpt>
      <trkpt lat="49.08395" lon="1.89925">
        <ele>121.1</ele>
        <time>2022-07-31T13:49:16Z</time>
      </trkpt>
      <trkpt lat="49.08397" lon="1.89914">
        <ele>121</ele>
        <time>2022-07-31T13:49:22Z</time>
      </trkpt>
      <trkpt lat="49.08398" lon="1.89902">
        <ele>120.9</ele>
        <time>2022-07-31T13:49:27Z</time>
      </trkpt>
      <trkpt lat="49.08401" lon="1.89888">
        <ele>121</ele>
        <time>2022-07-31T13:49:33Z</time>
      </trkpt>
      <trkpt lat="49.08405" lon="1.89877">
        <ele>121</ele>
        <time>2022-07-31T13:49:39Z</time>
      </trkpt>
      <trkpt lat="49.08406" lon="1.89864">
        <ele>121</ele>
        <time>2022-07-31T13:49:45Z</time>
      </trkpt>
      <trkpt lat="49.0841" lon="1.89849">
        <ele>120.9</ele>
        <time>2022-07-31T13:49:51Z</time>
      </trkpt>
      <trkpt lat="49.08415" lon="1.89838">
        <ele>121</ele>
        <time>2022-07-31T13:49:56Z</time>
      </trkpt>
      <trkpt lat="49.08415" lon="1.89827">
        <ele>121.2</ele>
        <time>2022-07-31T13:50:02Z</time>
      </trkpt>
      <trkpt lat="49.08415" lon="1.89816">
        <ele>121.5</ele>
        <time>2022-07-31T13:50:07Z</time>
      </trkpt>
      <trkpt lat="49.08419" lon="1.89806">
        <ele>121.9</ele>
        <time>2022-07-31T13:50:13Z</time>
      </trkpt>
      <trkpt lat="49.08424" lon="1.89793">
        <ele>122.1</ele>
        <time>2022-07-31T13:50:19Z</time>
      </trkpt>
      <trkpt lat="49.08423" lon="1.8978">
        <ele>122.2</ele>
        <time>2022-07-31T13:50:25Z</time>
      </trkpt>
      <trkpt lat="49.08426" lon="1.89767">
        <ele>122.1</ele>
        <time>2022-07-31T13:50:31Z</time>
      </trkpt>
      <trkpt lat="49.08428" lon="1.89757">
        <ele>122</ele>
        <time>2022-07-31T13:50:36Z</time>
      </trkpt>
      <trkpt lat="49.0843" lon="1.89747">
        <ele>121.8</ele>
        <time>2022-07-31T13:50:42Z</time>
      </trkpt>
      <trkpt lat="49.08429" lon="1.89737">
        <ele>121.7</ele>
        <time>2022-07-31T13:50:48Z</time>
      </trkpt>
      <trkpt lat="49.08426" lon="1.89727">
        <ele>121.7</ele>
        <time>2022-07-31T13:50:53Z</time>
      </trkpt>
      <trkpt lat="49.08425" lon="1.89716">
        <ele>121.8</ele>
        <time>2022-07-31T13:50:58Z</time>
      </trkpt>
      <trkpt lat="49.08426" lon="1.89707">
        <ele>121.8</ele>
        <time>2022-07-31T13:51:04Z</time>
      </trkpt>
      <trkpt lat="49.08429" lon="1.89702">
        <ele>121.8</ele>
        <time>2022-07-31T13:51:09Z</time>
      </trkpt>
      <trkpt lat="49.08429" lon="1.89705">
        <ele>121.9</ele>
        <time>2022-07-31T13:51:15Z</time>
      </trkpt>
      <trkpt lat="49.08431" lon="1.89705">
        <ele>122.5</ele>
        <time>2022-07-31T13:51:20Z</time>
      </trkpt>
      <trkpt lat="49.08435" lon="1.8969">
        <ele>123.3</ele>
        <time>2022-07-31T13:51:26Z</time>
      </trkpt>
      <trkpt lat="49.08438" lon="1.8968">
        <ele>123.9</ele>
        <time>2022-07-31T13:51:31Z</time>
      </trkpt>
      <trkpt lat="49.0844" lon="1.89671">
        <ele>124.3</ele>
        <time>2022-07-31T13:51:36Z</time>
      </trkpt>
      <trkpt lat="49.08446" lon="1.8966">
        <ele>124.6</ele>
        <time>2022-07-31T13:51:42Z</time>
      </trkpt>
      <trkpt lat="49.0845" lon="1.89651">
        <ele>124.9</ele>
        <time>2022-07-31T13:51:48Z</time>
      </trkpt>
      <trkpt lat="49.08453" lon="1.89642">
        <ele>125.1</ele>
        <time>2022-07-31T13:51:53Z</time>
      </trkpt>
      <trkpt lat="49.08456" lon="1.89628">
        <ele>125.1</ele>
        <time>2022-07-31T13:51:59Z</time>
      </trkpt>
      <trkpt lat="49.08458" lon="1.89617">
        <ele>125.1</ele>
        <time>2022-07-31T13:52:05Z</time>
      </trkpt>
      <trkpt lat="49.08462" lon="1.89606">
        <ele>125.2</ele>
        <time>2022-07-31T13:52:11Z</time>
      </trkpt>
      <trkpt lat="49.08465" lon="1.89599">
        <ele>125.6</ele>
        <time>2022-07-31T13:52:16Z</time>
      </trkpt>
      <trkpt lat="49.0847" lon="1.89588">
        <ele>125.9</ele>
        <time>2022-07-31T13:52:22Z</time>
      </trkpt>
      <trkpt lat="49.08472" lon="1.89578">
        <ele>125.9</ele>
        <time>2022-07-31T13:52:28Z</time>
      </trkpt>
      <trkpt lat="49.08477" lon="1.89567">
        <ele>125.9</ele>
        <time>2022-07-31T13:52:33Z</time>
      </trkpt>
      <trkpt lat="49.08481" lon="1.89555">
        <ele>125.8</ele>
        <time>2022-07-31T13:52:39Z</time>
      </trkpt>
      <trkpt lat="49.08484" lon="1.89544">
        <ele>126</ele>
        <time>2022-07-31T13:52:45Z</time>
      </trkpt>
      <trkpt lat="49.08488" lon="1.89536">
        <ele>126.5</ele>
        <time>2022-07-31T13:52:51Z</time>
      </trkpt>
      <trkpt lat="49.08493" lon="1.89525">
        <ele>126.9</ele>
        <time>2022-07-31T13:52:56Z</time>
      </trkpt>
      <trkpt lat="49.08498" lon="1.89516">
        <ele>127.7</ele>
        <time>2022-07-31T13:53:02Z</time>
      </trkpt>
      <trkpt lat="49.08503" lon="1.89505">
        <ele>128.1</ele>
        <time>2022-07-31T13:53:07Z</time>
      </trkpt>
      <trkpt lat="49.08505" lon="1.89492">
        <ele>128.2</ele>
        <time>2022-07-31T13:53:13Z</time>
      </trkpt>
      <trkpt lat="49.08505" lon="1.8948">
        <ele>128.1</ele>
        <time>2022-07-31T13:53:18Z</time>
      </trkpt>
      <trkpt lat="49.08509" lon="1.89467">
        <ele>128</ele>
        <time>2022-07-31T13:53:24Z</time>
      </trkpt>
      <trkpt lat="49.08514" lon="1.89457">
        <ele>127.9</ele>
        <time>2022-07-31T13:53:30Z</time>
      </trkpt>
      <trkpt lat="49.0852" lon="1.89446">
        <ele>127.8</ele>
        <time>2022-07-31T13:53:36Z</time>
      </trkpt>
      <trkpt lat="49.08519" lon="1.89432">
        <ele>127.9</ele>
        <time>2022-07-31T13:53:41Z</time>
      </trkpt>
      <trkpt lat="49.08519" lon="1.89418">
        <ele>127.7</ele>
        <time>2022-07-31T13:53:47Z</time>
      </trkpt>
      <trkpt lat="49.08521" lon="1.89409">
        <ele>127.8</ele>
        <time>2022-07-31T13:53:53Z</time>
      </trkpt>
      <trkpt lat="49.08524" lon="1.89396">
        <ele>128</ele>
        <time>2022-07-31T13:53:59Z</time>
      </trkpt>
      <trkpt lat="49.08529" lon="1.89386">
        <ele>127.9</ele>
        <time>2022-07-31T13:54:05Z</time>
      </trkpt>
      <trkpt lat="49.08531" lon="1.89376">
        <ele>127.8</ele>
        <time>2022-07-31T13:54:10Z</time>
      </trkpt>
      <trkpt lat="49.08535" lon="1.89362">
        <ele>127.6</ele>
        <time>2022-07-31T13:54:16Z</time>
      </trkpt>
      <trkpt lat="49.0854" lon="1.8935">
        <ele>127</ele>
        <time>2022-07-31T13:54:22Z</time>
      </trkpt>
      <trkpt lat="49.08542" lon="1.89341">
        <ele>126.4</ele>
        <time>2022-07-31T13:54:27Z</time>
      </trkpt>
      <trkpt lat="49.08545" lon="1.8933">
        <ele>125.9</ele>
        <time>2022-07-31T13:54:33Z</time>
      </trkpt>
      <trkpt lat="49.08548" lon="1.89319">
        <ele>125.8</ele>
        <time>2022-07-31T13:54:39Z</time>
      </trkpt>
      <trkpt lat="49.08551" lon="1.89311">
        <ele>125.7</ele>
        <time>2022-07-31T13:54:44Z</time>
      </trkpt>
      <trkpt lat="49.08553" lon="1.89303">
        <ele>125.4</ele>
        <time>2022-07-31T13:54:49Z</time>
      </trkpt>
      <trkpt lat="49.08555" lon="1.89289">
        <ele>125.1</ele>
        <time>2022-07-31T13:54:55Z</time>
      </trkpt>
      <trkpt lat="49.08558" lon="1.89278">
        <ele>125.1</ele>
        <time>2022-07-31T13:55:00Z</time>
      </trkpt>
      <trkpt lat="49.0856" lon="1.89266">
        <ele>124.9</ele>
        <time>2022-07-31T13:55:06Z</time>
      </trkpt>
      <trkpt lat="49.08563" lon="1.89254">
        <ele>124.7</ele>
        <time>2022-07-31T13:55:12Z</time>
      </trkpt>
      <trkpt lat="49.08567" lon="1.89241">
        <ele>124.5</ele>
        <time>2022-07-31T13:55:18Z</time>
      </trkpt>
      <trkpt lat="49.0857" lon="1.89231">
        <ele>124.2</ele>
        <time>2022-07-31T13:55:23Z</time>
      </trkpt>
      <trkpt lat="49.08573" lon="1.89222">
        <ele>123.8</ele>
        <time>2022-07-31T13:55:29Z</time>
      </trkpt>
      <trkpt lat="49.08578" lon="1.8921">
        <ele>123.3</ele>
        <time>2022-07-31T13:55:35Z</time>
      </trkpt>
      <trkpt lat="49.08581" lon="1.89199">
        <ele>123</ele>
        <time>2022-07-31T13:55:40Z</time>
      </trkpt>
      <trkpt lat="49.08583" lon="1.89189">
        <ele>123</ele>
        <time>2022-07-31T13:55:46Z</time>
      </trkpt>
      <trkpt lat="49.08586" lon="1.8918">
        <ele>122.9</ele>
        <time>2022-07-31T13:55:51Z</time>
      </trkpt>
      <trkpt lat="49.08592" lon="1.89167">
        <ele>122.8</ele>
        <time>2022-07-31T13:55:57Z</time>
      </trkpt>
      <trkpt lat="49.08596" lon="1.89157">
        <ele>122.5</ele>
        <time>2022-07-31T13:56:02Z</time>
      </trkpt>
      <trkpt lat="49.08601" lon="1.89147">
        <ele>122.3</ele>
        <time>2022-07-31T13:56:07Z</time>
      </trkpt>
      <trkpt lat="49.08604" lon="1.8914">
        <ele>122.2</ele>
        <time>2022-07-31T13:56:12Z</time>
      </trkpt>
      <trkpt lat="49.08607" lon="1.89129">
        <ele>122.5</ele>
        <time>2022-07-31T13:56:17Z</time>
      </trkpt>
      <trkpt lat="49.0861" lon="1.89119">
        <ele>123</ele>
        <time>2022-07-31T13:56:23Z</time>
      </trkpt>
      <trkpt lat="49.08614" lon="1.8911">
        <ele>123.3</ele>
        <time>2022-07-31T13:56:28Z</time>
      </trkpt>
      <trkpt lat="49.08618" lon="1.89101">
        <ele>123.9</ele>
        <time>2022-07-31T13:56:33Z</time>
      </trkpt>
      <trkpt lat="49.08625" lon="1.89089">
        <ele>124.1</ele>
        <time>2022-07-31T13:56:39Z</time>
      </trkpt>
      <trkpt lat="49.0863" lon="1.89082">
        <ele>124.2</ele>
        <time>2022-07-31T13:56:44Z</time>
      </trkpt>
      <trkpt lat="49.08634" lon="1.89075">
        <ele>124.3</ele>
        <time>2022-07-31T13:56:49Z</time>
      </trkpt>
      <trkpt lat="49.08639" lon="1.89065">
        <ele>124.6</ele>
        <time>2022-07-31T13:56:55Z</time>
      </trkpt>
      <trkpt lat="49.08644" lon="1.89055">
        <ele>124.6</ele>
        <time>2022-07-31T13:57:00Z</time>
      </trkpt>
      <trkpt lat="49.08649" lon="1.89047">
        <ele>124.4</ele>
        <time>2022-07-31T13:57:06Z</time>
      </trkpt>
      <trkpt lat="49.08653" lon="1.89035">
        <ele>124.2</ele>
        <time>2022-07-31T13:57:12Z</time>
      </trkpt>
      <trkpt lat="49.08656" lon="1.89023">
        <ele>124.1</ele>
        <time>2022-07-31T13:57:17Z</time>
      </trkpt>
      <trkpt lat="49.08658" lon="1.89013">
        <ele>124.2</ele>
        <time>2022-07-31T13:57:23Z</time>
      </trkpt>
      <trkpt lat="49.08661" lon="1.89005">
        <ele>124.8</ele>
        <time>2022-07-31T13:57:29Z</time>
      </trkpt>
      <trkpt lat="49.08667" lon="1.88996">
        <ele>125.3</ele>
        <time>2022-07-31T13:57:35Z</time>
      </trkpt>
      <trkpt lat="49.08669" lon="1.88984">
        <ele>125.8</ele>
        <time>2022-07-31T13:57:41Z</time>
      </trkpt>
      <trkpt lat="49.08671" lon="1.8897">
        <ele>125.8</ele>
        <time>2022-07-31T13:57:47Z</time>
      </trkpt>
      <trkpt lat="49.08671" lon="1.88961">
        <ele>125.9</ele>
        <time>2022-07-31T13:57:54Z</time>
      </trkpt>
      <trkpt lat="49.08672" lon="1.88958">
        <ele>126.1</ele>
        <time>2022-07-31T13:58:00Z</time>
      </trkpt>
    </trkseg>
  </trk>
</gpx>